<?xml version="1.0" encoding="UTF-8" standalone="no" ?>
<gpx xmlns="http://www.topografix.com/GPX/1/1" xmlns:xsi="http://www.w3.org/2001/XMLSchema-instance" xsi:schemaLocation="http://www.topografix.com/GPX/1/1 http://www.topografix.com/GPX/1/1/gpx.xsd" version="1.1" creator="VisuGPX - https://www.visugpx.com">
  <metadata>
    <name>Rando des vins bourrus- Mozas</name>
    <desc><![CDATA[Ballade équestre au départ de Mozas vers Bourgoin Jaillieu]]></desc>
  </metadata>
  <trk>
    <name><![CDATA[Rando des vins bourrus- Mozas_1]]></name>
    <trkseg>
      <trkpt lat="45.61523" lon="5.276">
        <ele>233.2</ele>
        <time>2014-09-28T09:09:23Z</time>
      </trkpt>
      <trkpt lat="45.61524" lon="5.27598">
        <ele>233.2</ele>
        <time>2014-09-28T09:09:33Z</time>
      </trkpt>
      <trkpt lat="45.61525" lon="5.27599">
        <ele>233.2</ele>
        <time>2014-09-28T09:09:38Z</time>
      </trkpt>
      <trkpt lat="45.61523" lon="5.27597">
        <ele>233.2</ele>
        <time>2014-09-28T09:10:13Z</time>
      </trkpt>
      <trkpt lat="45.61522" lon="5.27599">
        <ele>233.2</ele>
        <time>2014-09-28T09:10:18Z</time>
      </trkpt>
      <trkpt lat="45.61522" lon="5.27598">
        <ele>233.2</ele>
        <time>2014-09-28T09:10:23Z</time>
      </trkpt>
      <trkpt lat="45.61524" lon="5.27594">
        <ele>232.56697</ele>
        <time>2014-09-28T09:10:28Z</time>
      </trkpt>
      <trkpt lat="45.61524" lon="5.27594">
        <ele>232.56697</ele>
        <time>2014-09-28T09:10:33Z</time>
      </trkpt>
      <trkpt lat="45.61526" lon="5.2759">
        <ele>232.56697</ele>
        <time>2014-09-28T09:10:58Z</time>
      </trkpt>
      <trkpt lat="45.61522" lon="5.2758">
        <ele>233.67792</ele>
        <time>2014-09-28T09:11:03Z</time>
      </trkpt>
      <trkpt lat="45.6152" lon="5.27571">
        <ele>233.67792</ele>
        <time>2014-09-28T09:11:08Z</time>
      </trkpt>
      <trkpt lat="45.61517" lon="5.27564">
        <ele>234.80034</ele>
        <time>2014-09-28T09:11:13Z</time>
      </trkpt>
      <trkpt lat="45.61516" lon="5.27555">
        <ele>234.80034</ele>
        <time>2014-09-28T09:11:18Z</time>
      </trkpt>
      <trkpt lat="45.61516" lon="5.27552">
        <ele>234.80034</ele>
        <time>2014-09-28T09:11:23Z</time>
      </trkpt>
      <trkpt lat="45.61515" lon="5.27553">
        <ele>235.79703</ele>
        <time>2014-09-28T09:11:28Z</time>
      </trkpt>
      <trkpt lat="45.61514" lon="5.27554">
        <ele>235.79703</ele>
        <time>2014-09-28T09:12:03Z</time>
      </trkpt>
      <trkpt lat="45.61515" lon="5.27553">
        <ele>235.79703</ele>
        <time>2014-09-28T09:12:08Z</time>
      </trkpt>
      <trkpt lat="45.61518" lon="5.27557">
        <ele>235.79703</ele>
        <time>2014-09-28T09:12:23Z</time>
      </trkpt>
      <trkpt lat="45.61523" lon="5.27562">
        <ele>236.5363</ele>
        <time>2014-09-28T09:12:28Z</time>
      </trkpt>
      <trkpt lat="45.61526" lon="5.27568">
        <ele>236.5363</ele>
        <time>2014-09-28T09:12:33Z</time>
      </trkpt>
      <trkpt lat="45.61524" lon="5.27577">
        <ele>237.0912</ele>
        <time>2014-09-28T09:12:38Z</time>
      </trkpt>
      <trkpt lat="45.61521" lon="5.27586">
        <ele>237.0912</ele>
        <time>2014-09-28T09:12:43Z</time>
      </trkpt>
      <trkpt lat="45.61522" lon="5.2759">
        <ele>237.59659</ele>
        <time>2014-09-28T09:12:48Z</time>
      </trkpt>
      <trkpt lat="45.61524" lon="5.2759">
        <ele>237.59659</ele>
        <time>2014-09-28T09:12:53Z</time>
      </trkpt>
      <trkpt lat="45.61524" lon="5.27589">
        <ele>237.59659</ele>
        <time>2014-09-28T09:12:58Z</time>
      </trkpt>
      <trkpt lat="45.61522" lon="5.27587">
        <ele>237.59659</ele>
        <time>2014-09-28T09:13:03Z</time>
      </trkpt>
      <trkpt lat="45.61521" lon="5.27582">
        <ele>237.59659</ele>
        <time>2014-09-28T09:13:08Z</time>
      </trkpt>
      <trkpt lat="45.61519" lon="5.27575">
        <ele>238.21425</ele>
        <time>2014-09-28T09:13:13Z</time>
      </trkpt>
      <trkpt lat="45.61518" lon="5.27568">
        <ele>238.21425</ele>
        <time>2014-09-28T09:13:18Z</time>
      </trkpt>
      <trkpt lat="45.61516" lon="5.27563">
        <ele>238.21425</ele>
        <time>2014-09-28T09:13:23Z</time>
      </trkpt>
      <trkpt lat="45.61516" lon="5.27555">
        <ele>238.64467</ele>
        <time>2014-09-28T09:13:28Z</time>
      </trkpt>
      <trkpt lat="45.61516" lon="5.27554">
        <ele>238.64467</ele>
        <time>2014-09-28T09:13:33Z</time>
      </trkpt>
      <trkpt lat="45.61514" lon="5.27555">
        <ele>238.64467</ele>
        <time>2014-09-28T09:13:38Z</time>
      </trkpt>
      <trkpt lat="45.61514" lon="5.27555">
        <ele>238.64467</ele>
        <time>2014-09-28T09:13:43Z</time>
      </trkpt>
      <trkpt lat="45.61517" lon="5.27561">
        <ele>238.64467</ele>
        <time>2014-09-28T09:14:23Z</time>
      </trkpt>
      <trkpt lat="45.61515" lon="5.27567">
        <ele>238.65117</ele>
        <time>2014-09-28T09:14:28Z</time>
      </trkpt>
      <trkpt lat="45.61517" lon="5.27576">
        <ele>238.65117</ele>
        <time>2014-09-28T09:14:33Z</time>
      </trkpt>
      <trkpt lat="45.6152" lon="5.27581">
        <ele>238.4973</ele>
        <time>2014-09-28T09:14:38Z</time>
      </trkpt>
      <trkpt lat="45.61522" lon="5.27588">
        <ele>238.4973</ele>
        <time>2014-09-28T09:14:43Z</time>
      </trkpt>
      <trkpt lat="45.61525" lon="5.27592">
        <ele>238.15114</ele>
        <time>2014-09-28T09:14:48Z</time>
      </trkpt>
      <trkpt lat="45.6153" lon="5.27593">
        <ele>238.15114</ele>
        <time>2014-09-28T09:14:53Z</time>
      </trkpt>
      <trkpt lat="45.6153" lon="5.27593">
        <ele>238.15114</ele>
        <time>2014-09-28T09:14:58Z</time>
      </trkpt>
      <trkpt lat="45.61529" lon="5.2759">
        <ele>238.15114</ele>
        <time>2014-09-28T09:15:03Z</time>
      </trkpt>
      <trkpt lat="45.61528" lon="5.27583">
        <ele>237.84258</ele>
        <time>2014-09-28T09:15:08Z</time>
      </trkpt>
      <trkpt lat="45.61524" lon="5.27576">
        <ele>237.84258</ele>
        <time>2014-09-28T09:15:13Z</time>
      </trkpt>
      <trkpt lat="45.6152" lon="5.27569">
        <ele>237.51863</ele>
        <time>2014-09-28T09:15:18Z</time>
      </trkpt>
      <trkpt lat="45.61518" lon="5.27562">
        <ele>237.51863</ele>
        <time>2014-09-28T09:15:23Z</time>
      </trkpt>
      <trkpt lat="45.61517" lon="5.27558">
        <ele>237.51863</ele>
        <time>2014-09-28T09:15:28Z</time>
      </trkpt>
      <trkpt lat="45.61516" lon="5.27557">
        <ele>237.09769</ele>
        <time>2014-09-28T09:15:33Z</time>
      </trkpt>
      <trkpt lat="45.61516" lon="5.27557">
        <ele>237.09769</ele>
        <time>2014-09-28T09:15:38Z</time>
      </trkpt>
      <trkpt lat="45.6152" lon="5.27555">
        <ele>237.09769</ele>
        <time>2014-09-28T09:16:43Z</time>
      </trkpt>
      <trkpt lat="45.6152" lon="5.27557">
        <ele>237.09769</ele>
        <time>2014-09-28T09:16:48Z</time>
      </trkpt>
      <trkpt lat="45.6152" lon="5.27568">
        <ele>236.80258</ele>
        <time>2014-09-28T09:17:28Z</time>
      </trkpt>
      <trkpt lat="45.6152" lon="5.27579">
        <ele>236.80258</ele>
        <time>2014-09-28T09:17:33Z</time>
      </trkpt>
      <trkpt lat="45.61522" lon="5.27589">
        <ele>236.48567</ele>
        <time>2014-09-28T09:17:38Z</time>
      </trkpt>
      <trkpt lat="45.61524" lon="5.27596">
        <ele>236.48567</ele>
        <time>2014-09-28T09:17:43Z</time>
      </trkpt>
      <trkpt lat="45.61524" lon="5.27598">
        <ele>236.48567</ele>
        <time>2014-09-28T09:17:48Z</time>
      </trkpt>
      <trkpt lat="45.61525" lon="5.27599">
        <ele>236.48567</ele>
        <time>2014-09-28T09:17:53Z</time>
      </trkpt>
      <trkpt lat="45.61524" lon="5.27596">
        <ele>236.0624</ele>
        <time>2014-09-28T09:17:58Z</time>
      </trkpt>
      <trkpt lat="45.61522" lon="5.2759">
        <ele>236.0624</ele>
        <time>2014-09-28T09:18:03Z</time>
      </trkpt>
      <trkpt lat="45.61517" lon="5.27583">
        <ele>235.69635</ele>
        <time>2014-09-28T09:18:08Z</time>
      </trkpt>
      <trkpt lat="45.61514" lon="5.27576">
        <ele>235.69635</ele>
        <time>2014-09-28T09:18:13Z</time>
      </trkpt>
      <trkpt lat="45.61511" lon="5.27568">
        <ele>235.43437</ele>
        <time>2014-09-28T09:18:18Z</time>
      </trkpt>
      <trkpt lat="45.61508" lon="5.2756">
        <ele>235.43437</ele>
        <time>2014-09-28T09:18:23Z</time>
      </trkpt>
      <trkpt lat="45.61504" lon="5.27555">
        <ele>235.02153</ele>
        <time>2014-09-28T09:18:28Z</time>
      </trkpt>
      <trkpt lat="45.61499" lon="5.27551">
        <ele>235.02153</ele>
        <time>2014-09-28T09:18:33Z</time>
      </trkpt>
      <trkpt lat="45.61492" lon="5.27548">
        <ele>234.53954</ele>
        <time>2014-09-28T09:18:38Z</time>
      </trkpt>
      <trkpt lat="45.61486" lon="5.27545">
        <ele>234.53954</ele>
        <time>2014-09-28T09:18:43Z</time>
      </trkpt>
      <trkpt lat="45.61481" lon="5.27543">
        <ele>234.04384</ele>
        <time>2014-09-28T09:18:48Z</time>
      </trkpt>
      <trkpt lat="45.61476" lon="5.27539">
        <ele>234.04384</ele>
        <time>2014-09-28T09:18:53Z</time>
      </trkpt>
      <trkpt lat="45.61469" lon="5.27537">
        <ele>233.4639</ele>
        <time>2014-09-28T09:18:58Z</time>
      </trkpt>
      <trkpt lat="45.61461" lon="5.27537">
        <ele>233.4639</ele>
        <time>2014-09-28T09:19:03Z</time>
      </trkpt>
      <trkpt lat="45.61454" lon="5.27536">
        <ele>232.99942</ele>
        <time>2014-09-28T09:19:08Z</time>
      </trkpt>
      <trkpt lat="45.61447" lon="5.27534">
        <ele>232.99942</ele>
        <time>2014-09-28T09:19:13Z</time>
      </trkpt>
      <trkpt lat="45.6144" lon="5.27534">
        <ele>232.55228</ele>
        <time>2014-09-28T09:19:18Z</time>
      </trkpt>
      <trkpt lat="45.61434" lon="5.27531">
        <ele>232.55228</ele>
        <time>2014-09-28T09:19:23Z</time>
      </trkpt>
      <trkpt lat="45.61428" lon="5.27527">
        <ele>232.0495</ele>
        <time>2014-09-28T09:19:28Z</time>
      </trkpt>
      <trkpt lat="45.61423" lon="5.27528">
        <ele>232.0495</ele>
        <time>2014-09-28T09:19:33Z</time>
      </trkpt>
      <trkpt lat="45.61417" lon="5.27534">
        <ele>231.49623</ele>
        <time>2014-09-28T09:19:38Z</time>
      </trkpt>
      <trkpt lat="45.61412" lon="5.27538">
        <ele>231.49623</ele>
        <time>2014-09-28T09:19:43Z</time>
      </trkpt>
      <trkpt lat="45.61412" lon="5.27537">
        <ele>231.49623</ele>
        <time>2014-09-28T09:19:48Z</time>
      </trkpt>
      <trkpt lat="45.6141" lon="5.27531">
        <ele>231.0369</ele>
        <time>2014-09-28T09:19:53Z</time>
      </trkpt>
      <trkpt lat="45.61405" lon="5.27527">
        <ele>231.0369</ele>
        <time>2014-09-28T09:19:58Z</time>
      </trkpt>
      <trkpt lat="45.614" lon="5.27529">
        <ele>230.5514</ele>
        <time>2014-09-28T09:20:03Z</time>
      </trkpt>
      <trkpt lat="45.61398" lon="5.27536">
        <ele>230.5514</ele>
        <time>2014-09-28T09:20:08Z</time>
      </trkpt>
      <trkpt lat="45.61396" lon="5.27547">
        <ele>229.97212</ele>
        <time>2014-09-28T09:20:13Z</time>
      </trkpt>
      <trkpt lat="45.61393" lon="5.27557">
        <ele>229.97212</ele>
        <time>2014-09-28T09:20:18Z</time>
      </trkpt>
      <trkpt lat="45.61394" lon="5.27567">
        <ele>229.48657</ele>
        <time>2014-09-28T09:20:23Z</time>
      </trkpt>
      <trkpt lat="45.61397" lon="5.27574">
        <ele>229.48657</ele>
        <time>2014-09-28T09:20:28Z</time>
      </trkpt>
      <trkpt lat="45.61397" lon="5.27575">
        <ele>229.48657</ele>
        <time>2014-09-28T09:20:33Z</time>
      </trkpt>
      <trkpt lat="45.61397" lon="5.27578">
        <ele>229.48657</ele>
        <time>2014-09-28T09:20:38Z</time>
      </trkpt>
      <trkpt lat="45.61399" lon="5.2758">
        <ele>228.92145</ele>
        <time>2014-09-28T09:20:43Z</time>
      </trkpt>
      <trkpt lat="45.614" lon="5.27581">
        <ele>228.92145</ele>
        <time>2014-09-28T09:20:48Z</time>
      </trkpt>
      <trkpt lat="45.61402" lon="5.27581">
        <ele>228.92145</ele>
        <time>2014-09-28T09:20:53Z</time>
      </trkpt>
      <trkpt lat="45.61403" lon="5.2758">
        <ele>228.92145</ele>
        <time>2014-09-28T09:20:58Z</time>
      </trkpt>
      <trkpt lat="45.61403" lon="5.27581">
        <ele>228.92145</ele>
        <time>2014-09-28T09:21:03Z</time>
      </trkpt>
      <trkpt lat="45.61404" lon="5.27584">
        <ele>228.92145</ele>
        <time>2014-09-28T09:22:18Z</time>
      </trkpt>
      <trkpt lat="45.61398" lon="5.27574">
        <ele>228.78328</ele>
        <time>2014-09-28T09:22:23Z</time>
      </trkpt>
      <trkpt lat="45.61397" lon="5.27554">
        <ele>228.6818</ele>
        <time>2014-09-28T09:22:28Z</time>
      </trkpt>
      <trkpt lat="45.61404" lon="5.27536">
        <ele>228.58705</ele>
        <time>2014-09-28T09:22:33Z</time>
      </trkpt>
      <trkpt lat="45.61414" lon="5.27529">
        <ele>228.52722</ele>
        <time>2014-09-28T09:22:38Z</time>
      </trkpt>
      <trkpt lat="45.61422" lon="5.27532">
        <ele>228.52722</ele>
        <time>2014-09-28T09:22:43Z</time>
      </trkpt>
      <trkpt lat="45.61428" lon="5.27536">
        <ele>228.33044</ele>
        <time>2014-09-28T09:22:48Z</time>
      </trkpt>
      <trkpt lat="45.61436" lon="5.27538">
        <ele>228.33044</ele>
        <time>2014-09-28T09:22:53Z</time>
      </trkpt>
      <trkpt lat="45.61443" lon="5.27542">
        <ele>228.04805</ele>
        <time>2014-09-28T09:22:58Z</time>
      </trkpt>
      <trkpt lat="45.6145" lon="5.27545">
        <ele>228.04805</ele>
        <time>2014-09-28T09:23:03Z</time>
      </trkpt>
      <trkpt lat="45.61456" lon="5.27548">
        <ele>227.59967</ele>
        <time>2014-09-28T09:23:08Z</time>
      </trkpt>
      <trkpt lat="45.61462" lon="5.27551">
        <ele>227.59967</ele>
        <time>2014-09-28T09:23:13Z</time>
      </trkpt>
      <trkpt lat="45.6147" lon="5.27555">
        <ele>227.25687</ele>
        <time>2014-09-28T09:23:18Z</time>
      </trkpt>
      <trkpt lat="45.61478" lon="5.27559">
        <ele>227.25687</ele>
        <time>2014-09-28T09:23:23Z</time>
      </trkpt>
      <trkpt lat="45.61488" lon="5.27565">
        <ele>226.95677</ele>
        <time>2014-09-28T09:23:28Z</time>
      </trkpt>
      <trkpt lat="45.615" lon="5.27568">
        <ele>226.6835</ele>
        <time>2014-09-28T09:23:33Z</time>
      </trkpt>
      <trkpt lat="45.61507" lon="5.27574">
        <ele>226.6835</ele>
        <time>2014-09-28T09:23:38Z</time>
      </trkpt>
      <trkpt lat="45.61513" lon="5.27584">
        <ele>226.36278</ele>
        <time>2014-09-28T09:23:43Z</time>
      </trkpt>
      <trkpt lat="45.61516" lon="5.27595">
        <ele>226.36278</ele>
        <time>2014-09-28T09:23:48Z</time>
      </trkpt>
      <trkpt lat="45.61517" lon="5.27606">
        <ele>226.1619</ele>
        <time>2014-09-28T09:23:53Z</time>
      </trkpt>
      <trkpt lat="45.61516" lon="5.27617">
        <ele>226.1619</ele>
        <time>2014-09-28T09:23:58Z</time>
      </trkpt>
      <trkpt lat="45.61514" lon="5.2763">
        <ele>226.10379</ele>
        <time>2014-09-28T09:24:03Z</time>
      </trkpt>
      <trkpt lat="45.6151" lon="5.27646">
        <ele>226.05945</ele>
        <time>2014-09-28T09:24:08Z</time>
      </trkpt>
      <trkpt lat="45.61506" lon="5.27663">
        <ele>226.02782</ele>
        <time>2014-09-28T09:24:13Z</time>
      </trkpt>
      <trkpt lat="45.61502" lon="5.27679">
        <ele>226.09804</ele>
        <time>2014-09-28T09:24:18Z</time>
      </trkpt>
      <trkpt lat="45.61505" lon="5.27674">
        <ele>226.09804</ele>
        <time>2014-09-28T09:24:23Z</time>
      </trkpt>
      <trkpt lat="45.61511" lon="5.27659">
        <ele>226.17178</ele>
        <time>2014-09-28T09:24:28Z</time>
      </trkpt>
      <trkpt lat="45.61511" lon="5.27652">
        <ele>226.17178</ele>
        <time>2014-09-28T09:24:33Z</time>
      </trkpt>
      <trkpt lat="45.61511" lon="5.27651">
        <ele>226.17178</ele>
        <time>2014-09-28T09:24:38Z</time>
      </trkpt>
      <trkpt lat="45.61512" lon="5.27648">
        <ele>226.17178</ele>
        <time>2014-09-28T09:24:48Z</time>
      </trkpt>
      <trkpt lat="45.61512" lon="5.27648">
        <ele>226.17178</ele>
        <time>2014-09-28T09:24:53Z</time>
      </trkpt>
      <trkpt lat="45.61511" lon="5.27646">
        <ele>225.9765</ele>
        <time>2014-09-28T09:25:08Z</time>
      </trkpt>
      <trkpt lat="45.61515" lon="5.27637">
        <ele>225.9765</ele>
        <time>2014-09-28T09:25:13Z</time>
      </trkpt>
      <trkpt lat="45.61518" lon="5.27626">
        <ele>225.98564</ele>
        <time>2014-09-28T09:25:18Z</time>
      </trkpt>
      <trkpt lat="45.6152" lon="5.27618">
        <ele>225.98564</ele>
        <time>2014-09-28T09:25:23Z</time>
      </trkpt>
      <trkpt lat="45.61522" lon="5.27609">
        <ele>226.04741</ele>
        <time>2014-09-28T09:25:28Z</time>
      </trkpt>
      <trkpt lat="45.6152" lon="5.276">
        <ele>226.04741</ele>
        <time>2014-09-28T09:25:33Z</time>
      </trkpt>
      <trkpt lat="45.61511" lon="5.27583">
        <ele>226.127</ele>
        <time>2014-09-28T09:25:38Z</time>
      </trkpt>
      <trkpt lat="45.615" lon="5.27562">
        <ele>226.19226</ele>
        <time>2014-09-28T09:25:43Z</time>
      </trkpt>
      <trkpt lat="45.6149" lon="5.2756">
        <ele>226.27391</ele>
        <time>2014-09-28T09:25:48Z</time>
      </trkpt>
      <trkpt lat="45.61483" lon="5.27557">
        <ele>226.27391</ele>
        <time>2014-09-28T09:25:53Z</time>
      </trkpt>
      <trkpt lat="45.61475" lon="5.27556">
        <ele>226.32503</ele>
        <time>2014-09-28T09:25:58Z</time>
      </trkpt>
      <trkpt lat="45.61469" lon="5.27553">
        <ele>226.32503</ele>
        <time>2014-09-28T09:26:03Z</time>
      </trkpt>
      <trkpt lat="45.61462" lon="5.27548">
        <ele>226.30266</ele>
        <time>2014-09-28T09:26:08Z</time>
      </trkpt>
      <trkpt lat="45.61453" lon="5.27545">
        <ele>226.30266</ele>
        <time>2014-09-28T09:26:13Z</time>
      </trkpt>
      <trkpt lat="45.61446" lon="5.27542">
        <ele>226.24257</ele>
        <time>2014-09-28T09:26:18Z</time>
      </trkpt>
      <trkpt lat="45.61437" lon="5.27539">
        <ele>226.37177</ele>
        <time>2014-09-28T09:26:23Z</time>
      </trkpt>
      <trkpt lat="45.61428" lon="5.27534">
        <ele>226.74864</ele>
        <time>2014-09-28T09:26:28Z</time>
      </trkpt>
      <trkpt lat="45.61421" lon="5.27529">
        <ele>226.74864</ele>
        <time>2014-09-28T09:26:33Z</time>
      </trkpt>
      <trkpt lat="45.61415" lon="5.27528">
        <ele>227.06934</ele>
        <time>2014-09-28T09:26:38Z</time>
      </trkpt>
      <trkpt lat="45.61408" lon="5.27526">
        <ele>227.06934</ele>
        <time>2014-09-28T09:26:43Z</time>
      </trkpt>
      <trkpt lat="45.61403" lon="5.27526">
        <ele>227.38184</ele>
        <time>2014-09-28T09:26:48Z</time>
      </trkpt>
      <trkpt lat="45.614" lon="5.27532">
        <ele>227.38184</ele>
        <time>2014-09-28T09:26:53Z</time>
      </trkpt>
      <trkpt lat="45.61395" lon="5.2754">
        <ele>227.73015</ele>
        <time>2014-09-28T09:26:58Z</time>
      </trkpt>
      <trkpt lat="45.61391" lon="5.27553">
        <ele>227.90382</ele>
        <time>2014-09-28T09:27:03Z</time>
      </trkpt>
      <trkpt lat="45.61392" lon="5.27563">
        <ele>227.90382</ele>
        <time>2014-09-28T09:27:08Z</time>
      </trkpt>
      <trkpt lat="45.61397" lon="5.27571">
        <ele>227.97528</ele>
        <time>2014-09-28T09:27:13Z</time>
      </trkpt>
      <trkpt lat="45.61403" lon="5.2758">
        <ele>227.97528</ele>
        <time>2014-09-28T09:27:18Z</time>
      </trkpt>
      <trkpt lat="45.61404" lon="5.2759">
        <ele>227.90839</ele>
        <time>2014-09-28T09:27:23Z</time>
      </trkpt>
      <trkpt lat="45.61407" lon="5.276">
        <ele>227.90839</ele>
        <time>2014-09-28T09:27:28Z</time>
      </trkpt>
      <trkpt lat="45.61409" lon="5.27609">
        <ele>228.0512</ele>
        <time>2014-09-28T09:27:33Z</time>
      </trkpt>
      <trkpt lat="45.61412" lon="5.27617">
        <ele>228.0512</ele>
        <time>2014-09-28T09:27:38Z</time>
      </trkpt>
      <trkpt lat="45.61414" lon="5.27618">
        <ele>228.0512</ele>
        <time>2014-09-28T09:27:43Z</time>
      </trkpt>
      <trkpt lat="45.61412" lon="5.27617">
        <ele>228.83963</ele>
        <time>2014-09-28T09:28:33Z</time>
      </trkpt>
      <trkpt lat="45.61412" lon="5.27617">
        <ele>228.83963</ele>
        <time>2014-09-28T09:28:38Z</time>
      </trkpt>
      <trkpt lat="45.61411" lon="5.27616">
        <ele>228.83963</ele>
        <time>2014-09-28T09:28:43Z</time>
      </trkpt>
      <trkpt lat="45.6141" lon="5.27616">
        <ele>228.83963</ele>
        <time>2014-09-28T09:28:48Z</time>
      </trkpt>
      <trkpt lat="45.61411" lon="5.27614">
        <ele>228.83963</ele>
        <time>2014-09-28T09:29:03Z</time>
      </trkpt>
      <trkpt lat="45.61411" lon="5.27615">
        <ele>228.83963</ele>
        <time>2014-09-28T09:29:08Z</time>
      </trkpt>
      <trkpt lat="45.61407" lon="5.27616">
        <ele>228.83963</ele>
        <time>2014-09-28T09:29:18Z</time>
      </trkpt>
      <trkpt lat="45.61406" lon="5.27618">
        <ele>229.7973</ele>
        <time>2014-09-28T09:29:23Z</time>
      </trkpt>
      <trkpt lat="45.61406" lon="5.27618">
        <ele>229.7973</ele>
        <time>2014-09-28T09:29:28Z</time>
      </trkpt>
      <trkpt lat="45.61404" lon="5.27621">
        <ele>229.7973</ele>
        <time>2014-09-28T09:29:38Z</time>
      </trkpt>
      <trkpt lat="45.61402" lon="5.27623">
        <ele>229.7973</ele>
        <time>2014-09-28T09:29:43Z</time>
      </trkpt>
      <trkpt lat="45.61402" lon="5.27622">
        <ele>229.7973</ele>
        <time>2014-09-28T09:29:48Z</time>
      </trkpt>
      <trkpt lat="45.614" lon="5.27624">
        <ele>229.7973</ele>
        <time>2014-09-28T09:29:53Z</time>
      </trkpt>
      <trkpt lat="45.614" lon="5.27625">
        <ele>229.7973</ele>
        <time>2014-09-28T09:29:58Z</time>
      </trkpt>
      <trkpt lat="45.61399" lon="5.27627">
        <ele>230.71904</ele>
        <time>2014-09-28T09:30:03Z</time>
      </trkpt>
      <trkpt lat="45.614" lon="5.27628">
        <ele>230.71904</ele>
        <time>2014-09-28T09:30:08Z</time>
      </trkpt>
      <trkpt lat="45.61405" lon="5.27625">
        <ele>230.71904</ele>
        <time>2014-09-28T09:30:18Z</time>
      </trkpt>
      <trkpt lat="45.61403" lon="5.27626">
        <ele>230.71904</ele>
        <time>2014-09-28T09:30:23Z</time>
      </trkpt>
      <trkpt lat="45.61404" lon="5.27626">
        <ele>230.71904</ele>
        <time>2014-09-28T09:30:28Z</time>
      </trkpt>
      <trkpt lat="45.61403" lon="5.27624">
        <ele>231.91069</ele>
        <time>2014-09-28T09:30:38Z</time>
      </trkpt>
      <trkpt lat="45.61402" lon="5.27626">
        <ele>231.91069</ele>
        <time>2014-09-28T09:30:43Z</time>
      </trkpt>
      <trkpt lat="45.61397" lon="5.27629">
        <ele>231.91069</ele>
        <time>2014-09-28T09:30:48Z</time>
      </trkpt>
      <trkpt lat="45.61392" lon="5.27633">
        <ele>232.869</ele>
        <time>2014-09-28T09:30:53Z</time>
      </trkpt>
      <trkpt lat="45.61383" lon="5.27637">
        <ele>233.74013</ele>
        <time>2014-09-28T09:30:58Z</time>
      </trkpt>
      <trkpt lat="45.61379" lon="5.27638">
        <ele>233.74013</ele>
        <time>2014-09-28T09:31:03Z</time>
      </trkpt>
      <trkpt lat="45.61374" lon="5.27641">
        <ele>234.86179</ele>
        <time>2014-09-28T09:31:08Z</time>
      </trkpt>
      <trkpt lat="45.61369" lon="5.27644">
        <ele>234.86179</ele>
        <time>2014-09-28T09:31:13Z</time>
      </trkpt>
      <trkpt lat="45.61364" lon="5.27647">
        <ele>236.09625</ele>
        <time>2014-09-28T09:31:18Z</time>
      </trkpt>
      <trkpt lat="45.61362" lon="5.27649">
        <ele>236.09625</ele>
        <time>2014-09-28T09:31:23Z</time>
      </trkpt>
      <trkpt lat="45.61357" lon="5.27651">
        <ele>236.09625</ele>
        <time>2014-09-28T09:31:28Z</time>
      </trkpt>
      <trkpt lat="45.61351" lon="5.27652">
        <ele>237.14264</ele>
        <time>2014-09-28T09:31:33Z</time>
      </trkpt>
      <trkpt lat="45.61341" lon="5.27652">
        <ele>238.12825</ele>
        <time>2014-09-28T09:31:38Z</time>
      </trkpt>
      <trkpt lat="45.61334" lon="5.27652">
        <ele>238.12825</ele>
        <time>2014-09-28T09:31:43Z</time>
      </trkpt>
      <trkpt lat="45.6133" lon="5.27654">
        <ele>239.18527</ele>
        <time>2014-09-28T09:31:48Z</time>
      </trkpt>
      <trkpt lat="45.6132" lon="5.27659">
        <ele>240.13261</ele>
        <time>2014-09-28T09:31:53Z</time>
      </trkpt>
      <trkpt lat="45.61312" lon="5.27659">
        <ele>240.13261</ele>
        <time>2014-09-28T09:31:58Z</time>
      </trkpt>
      <trkpt lat="45.61307" lon="5.27662">
        <ele>241.14946</ele>
        <time>2014-09-28T09:32:03Z</time>
      </trkpt>
      <trkpt lat="45.61301" lon="5.2767">
        <ele>241.14946</ele>
        <time>2014-09-28T09:32:08Z</time>
      </trkpt>
      <trkpt lat="45.61295" lon="5.27681">
        <ele>242.18506</ele>
        <time>2014-09-28T09:32:13Z</time>
      </trkpt>
      <trkpt lat="45.61294" lon="5.27689">
        <ele>242.18506</ele>
        <time>2014-09-28T09:32:18Z</time>
      </trkpt>
      <trkpt lat="45.61293" lon="5.27699">
        <ele>243.23573</ele>
        <time>2014-09-28T09:32:23Z</time>
      </trkpt>
      <trkpt lat="45.61293" lon="5.27709">
        <ele>243.23573</ele>
        <time>2014-09-28T09:32:28Z</time>
      </trkpt>
      <trkpt lat="45.61293" lon="5.2772">
        <ele>244.41344</ele>
        <time>2014-09-28T09:32:33Z</time>
      </trkpt>
      <trkpt lat="45.61294" lon="5.2773">
        <ele>244.41344</ele>
        <time>2014-09-28T09:32:38Z</time>
      </trkpt>
      <trkpt lat="45.61297" lon="5.27742">
        <ele>245.83603</ele>
        <time>2014-09-28T09:32:43Z</time>
      </trkpt>
      <trkpt lat="45.61298" lon="5.27751">
        <ele>245.83603</ele>
        <time>2014-09-28T09:32:48Z</time>
      </trkpt>
      <trkpt lat="45.61299" lon="5.27762">
        <ele>247.23718</ele>
        <time>2014-09-28T09:32:53Z</time>
      </trkpt>
      <trkpt lat="45.61298" lon="5.27772">
        <ele>247.23718</ele>
        <time>2014-09-28T09:32:58Z</time>
      </trkpt>
      <trkpt lat="45.61301" lon="5.27782">
        <ele>248.71635</ele>
        <time>2014-09-28T09:33:03Z</time>
      </trkpt>
      <trkpt lat="45.61303" lon="5.27791">
        <ele>248.71635</ele>
        <time>2014-09-28T09:33:08Z</time>
      </trkpt>
      <trkpt lat="45.61305" lon="5.27801">
        <ele>250.14932</ele>
        <time>2014-09-28T09:33:13Z</time>
      </trkpt>
      <trkpt lat="45.61308" lon="5.2781">
        <ele>250.14932</ele>
        <time>2014-09-28T09:33:18Z</time>
      </trkpt>
      <trkpt lat="45.61311" lon="5.2782">
        <ele>251.47882</ele>
        <time>2014-09-28T09:33:23Z</time>
      </trkpt>
      <trkpt lat="45.6131" lon="5.27828">
        <ele>251.47882</ele>
        <time>2014-09-28T09:33:28Z</time>
      </trkpt>
      <trkpt lat="45.61307" lon="5.27836">
        <ele>252.68103</ele>
        <time>2014-09-28T09:33:33Z</time>
      </trkpt>
      <trkpt lat="45.61309" lon="5.27844">
        <ele>252.68103</ele>
        <time>2014-09-28T09:33:38Z</time>
      </trkpt>
      <trkpt lat="45.61312" lon="5.27855">
        <ele>253.66219</ele>
        <time>2014-09-28T09:33:43Z</time>
      </trkpt>
      <trkpt lat="45.61317" lon="5.27867">
        <ele>254.84082</ele>
        <time>2014-09-28T09:33:48Z</time>
      </trkpt>
      <trkpt lat="45.61322" lon="5.27878">
        <ele>254.84082</ele>
        <time>2014-09-28T09:33:53Z</time>
      </trkpt>
      <trkpt lat="45.61325" lon="5.27887">
        <ele>256.15732</ele>
        <time>2014-09-28T09:33:58Z</time>
      </trkpt>
      <trkpt lat="45.61327" lon="5.27898">
        <ele>256.15732</ele>
        <time>2014-09-28T09:34:03Z</time>
      </trkpt>
      <trkpt lat="45.61328" lon="5.27909">
        <ele>257.55603</ele>
        <time>2014-09-28T09:34:08Z</time>
      </trkpt>
      <trkpt lat="45.61327" lon="5.2792">
        <ele>257.55603</ele>
        <time>2014-09-28T09:34:13Z</time>
      </trkpt>
      <trkpt lat="45.61325" lon="5.27929">
        <ele>258.84113</ele>
        <time>2014-09-28T09:34:18Z</time>
      </trkpt>
      <trkpt lat="45.61324" lon="5.27934">
        <ele>258.84113</ele>
        <time>2014-09-28T09:34:23Z</time>
      </trkpt>
      <trkpt lat="45.61323" lon="5.27934">
        <ele>258.84113</ele>
        <time>2014-09-28T09:34:28Z</time>
      </trkpt>
      <trkpt lat="45.61323" lon="5.27937">
        <ele>258.84113</ele>
        <time>2014-09-28T09:34:33Z</time>
      </trkpt>
      <trkpt lat="45.61321" lon="5.27944">
        <ele>260.45166</ele>
        <time>2014-09-28T09:34:38Z</time>
      </trkpt>
      <trkpt lat="45.61316" lon="5.27951">
        <ele>260.45166</ele>
        <time>2014-09-28T09:34:43Z</time>
      </trkpt>
      <trkpt lat="45.61312" lon="5.27958">
        <ele>262.28888</ele>
        <time>2014-09-28T09:34:48Z</time>
      </trkpt>
      <trkpt lat="45.61307" lon="5.27963">
        <ele>262.28888</ele>
        <time>2014-09-28T09:34:53Z</time>
      </trkpt>
      <trkpt lat="45.61302" lon="5.2797">
        <ele>264.1741</ele>
        <time>2014-09-28T09:34:58Z</time>
      </trkpt>
      <trkpt lat="45.61297" lon="5.27978">
        <ele>264.1741</ele>
        <time>2014-09-28T09:35:03Z</time>
      </trkpt>
      <trkpt lat="45.61293" lon="5.27987">
        <ele>266.02835</ele>
        <time>2014-09-28T09:35:08Z</time>
      </trkpt>
      <trkpt lat="45.61289" lon="5.27994">
        <ele>266.02835</ele>
        <time>2014-09-28T09:35:13Z</time>
      </trkpt>
      <trkpt lat="45.61285" lon="5.28">
        <ele>267.8074</ele>
        <time>2014-09-28T09:35:18Z</time>
      </trkpt>
      <trkpt lat="45.6128" lon="5.28005">
        <ele>267.8074</ele>
        <time>2014-09-28T09:35:23Z</time>
      </trkpt>
      <trkpt lat="45.61274" lon="5.28009">
        <ele>269.71588</ele>
        <time>2014-09-28T09:35:28Z</time>
      </trkpt>
      <trkpt lat="45.61269" lon="5.2801">
        <ele>269.71588</ele>
        <time>2014-09-28T09:35:33Z</time>
      </trkpt>
      <trkpt lat="45.61263" lon="5.28007">
        <ele>271.7267</ele>
        <time>2014-09-28T09:35:38Z</time>
      </trkpt>
      <trkpt lat="45.61258" lon="5.28002">
        <ele>271.7267</ele>
        <time>2014-09-28T09:35:43Z</time>
      </trkpt>
      <trkpt lat="45.61252" lon="5.27994">
        <ele>273.7425</ele>
        <time>2014-09-28T09:35:48Z</time>
      </trkpt>
      <trkpt lat="45.61247" lon="5.27985">
        <ele>273.7425</ele>
        <time>2014-09-28T09:35:53Z</time>
      </trkpt>
      <trkpt lat="45.61243" lon="5.27976">
        <ele>275.90384</ele>
        <time>2014-09-28T09:35:58Z</time>
      </trkpt>
      <trkpt lat="45.61238" lon="5.27968">
        <ele>275.90384</ele>
        <time>2014-09-28T09:36:03Z</time>
      </trkpt>
      <trkpt lat="45.61233" lon="5.27959">
        <ele>278.15323</ele>
        <time>2014-09-28T09:36:08Z</time>
      </trkpt>
      <trkpt lat="45.61228" lon="5.27953">
        <ele>278.15323</ele>
        <time>2014-09-28T09:36:13Z</time>
      </trkpt>
      <trkpt lat="45.61224" lon="5.27948">
        <ele>280.6248</ele>
        <time>2014-09-28T09:36:18Z</time>
      </trkpt>
      <trkpt lat="45.61218" lon="5.27943">
        <ele>280.6248</ele>
        <time>2014-09-28T09:36:23Z</time>
      </trkpt>
      <trkpt lat="45.61211" lon="5.27938">
        <ele>283.25464</ele>
        <time>2014-09-28T09:36:28Z</time>
      </trkpt>
      <trkpt lat="45.61207" lon="5.27935">
        <ele>283.25464</ele>
        <time>2014-09-28T09:36:33Z</time>
      </trkpt>
      <trkpt lat="45.612" lon="5.27929">
        <ele>285.7671</ele>
        <time>2014-09-28T09:36:38Z</time>
      </trkpt>
      <trkpt lat="45.61194" lon="5.27923">
        <ele>285.7671</ele>
        <time>2014-09-28T09:36:43Z</time>
      </trkpt>
      <trkpt lat="45.6119" lon="5.27917">
        <ele>288.39743</ele>
        <time>2014-09-28T09:36:48Z</time>
      </trkpt>
      <trkpt lat="45.61187" lon="5.27914">
        <ele>288.39743</ele>
        <time>2014-09-28T09:36:53Z</time>
      </trkpt>
      <trkpt lat="45.61185" lon="5.27911">
        <ele>288.39743</ele>
        <time>2014-09-28T09:36:58Z</time>
      </trkpt>
      <trkpt lat="45.61182" lon="5.2791">
        <ele>290.9164</ele>
        <time>2014-09-28T09:37:03Z</time>
      </trkpt>
      <trkpt lat="45.61177" lon="5.27907">
        <ele>290.9164</ele>
        <time>2014-09-28T09:37:08Z</time>
      </trkpt>
      <trkpt lat="45.61172" lon="5.279">
        <ele>293.21304</ele>
        <time>2014-09-28T09:37:13Z</time>
      </trkpt>
      <trkpt lat="45.61169" lon="5.27895">
        <ele>293.21304</ele>
        <time>2014-09-28T09:37:18Z</time>
      </trkpt>
      <trkpt lat="45.6116" lon="5.27889">
        <ele>295.40158</ele>
        <time>2014-09-28T09:37:23Z</time>
      </trkpt>
      <trkpt lat="45.61156" lon="5.27882">
        <ele>295.40158</ele>
        <time>2014-09-28T09:37:28Z</time>
      </trkpt>
      <trkpt lat="45.61156" lon="5.27873">
        <ele>297.32867</ele>
        <time>2014-09-28T09:37:33Z</time>
      </trkpt>
      <trkpt lat="45.61159" lon="5.27866">
        <ele>297.32867</ele>
        <time>2014-09-28T09:37:38Z</time>
      </trkpt>
      <trkpt lat="45.61158" lon="5.2786">
        <ele>299.06952</ele>
        <time>2014-09-28T09:37:43Z</time>
      </trkpt>
      <trkpt lat="45.61159" lon="5.27849">
        <ele>299.06952</ele>
        <time>2014-09-28T09:37:48Z</time>
      </trkpt>
      <trkpt lat="45.61151" lon="5.2784">
        <ele>300.59335</ele>
        <time>2014-09-28T09:37:53Z</time>
      </trkpt>
      <trkpt lat="45.61146" lon="5.27831">
        <ele>300.59335</ele>
        <time>2014-09-28T09:37:58Z</time>
      </trkpt>
      <trkpt lat="45.6114" lon="5.27824">
        <ele>301.80045</ele>
        <time>2014-09-28T09:38:03Z</time>
      </trkpt>
      <trkpt lat="45.61135" lon="5.27818">
        <ele>301.80045</ele>
        <time>2014-09-28T09:38:08Z</time>
      </trkpt>
      <trkpt lat="45.61137" lon="5.27814">
        <ele>302.94525</ele>
        <time>2014-09-28T09:38:13Z</time>
      </trkpt>
      <trkpt lat="45.61134" lon="5.2781">
        <ele>302.94525</ele>
        <time>2014-09-28T09:38:18Z</time>
      </trkpt>
      <trkpt lat="45.61128" lon="5.27807">
        <ele>303.83142</ele>
        <time>2014-09-28T09:38:23Z</time>
      </trkpt>
      <trkpt lat="45.61123" lon="5.27804">
        <ele>303.83142</ele>
        <time>2014-09-28T09:38:28Z</time>
      </trkpt>
      <trkpt lat="45.61105" lon="5.27795">
        <ele>304.53726</ele>
        <time>2014-09-28T09:38:33Z</time>
      </trkpt>
      <trkpt lat="45.61096" lon="5.27793">
        <ele>305.39536</ele>
        <time>2014-09-28T09:38:38Z</time>
      </trkpt>
      <trkpt lat="45.61091" lon="5.27791">
        <ele>305.39536</ele>
        <time>2014-09-28T09:38:43Z</time>
      </trkpt>
      <trkpt lat="45.61087" lon="5.27792">
        <ele>305.39536</ele>
        <time>2014-09-28T09:38:48Z</time>
      </trkpt>
      <trkpt lat="45.61079" lon="5.27788">
        <ele>306.42517</ele>
        <time>2014-09-28T09:38:53Z</time>
      </trkpt>
      <trkpt lat="45.61072" lon="5.27783">
        <ele>306.42517</ele>
        <time>2014-09-28T09:38:58Z</time>
      </trkpt>
      <trkpt lat="45.61067" lon="5.27783">
        <ele>307.5579</ele>
        <time>2014-09-28T09:39:03Z</time>
      </trkpt>
      <trkpt lat="45.61063" lon="5.2778">
        <ele>307.5579</ele>
        <time>2014-09-28T09:39:08Z</time>
      </trkpt>
      <trkpt lat="45.61056" lon="5.27773">
        <ele>308.8304</ele>
        <time>2014-09-28T09:39:13Z</time>
      </trkpt>
      <trkpt lat="45.61049" lon="5.2777">
        <ele>308.8304</ele>
        <time>2014-09-28T09:39:18Z</time>
      </trkpt>
      <trkpt lat="45.61044" lon="5.27767">
        <ele>310.2188</ele>
        <time>2014-09-28T09:39:23Z</time>
      </trkpt>
      <trkpt lat="45.61038" lon="5.27762">
        <ele>310.2188</ele>
        <time>2014-09-28T09:39:28Z</time>
      </trkpt>
      <trkpt lat="45.61031" lon="5.27758">
        <ele>311.78726</ele>
        <time>2014-09-28T09:39:33Z</time>
      </trkpt>
      <trkpt lat="45.61023" lon="5.27757">
        <ele>311.78726</ele>
        <time>2014-09-28T09:39:38Z</time>
      </trkpt>
      <trkpt lat="45.61018" lon="5.27755">
        <ele>313.39285</ele>
        <time>2014-09-28T09:39:43Z</time>
      </trkpt>
      <trkpt lat="45.61012" lon="5.27753">
        <ele>313.39285</ele>
        <time>2014-09-28T09:39:48Z</time>
      </trkpt>
      <trkpt lat="45.61005" lon="5.2775">
        <ele>314.8167</ele>
        <time>2014-09-28T09:39:53Z</time>
      </trkpt>
      <trkpt lat="45.60994" lon="5.27744">
        <ele>316.04388</ele>
        <time>2014-09-28T09:39:58Z</time>
      </trkpt>
      <trkpt lat="45.60982" lon="5.27736">
        <ele>316.87378</ele>
        <time>2014-09-28T09:40:03Z</time>
      </trkpt>
      <trkpt lat="45.60974" lon="5.27724">
        <ele>317.33777</ele>
        <time>2014-09-28T09:40:08Z</time>
      </trkpt>
      <trkpt lat="45.60966" lon="5.27712">
        <ele>317.6534</ele>
        <time>2014-09-28T09:40:13Z</time>
      </trkpt>
      <trkpt lat="45.60953" lon="5.27702">
        <ele>317.34525</ele>
        <time>2014-09-28T09:40:18Z</time>
      </trkpt>
      <trkpt lat="45.60944" lon="5.27692">
        <ele>316.7095</ele>
        <time>2014-09-28T09:40:23Z</time>
      </trkpt>
      <trkpt lat="45.60938" lon="5.27684">
        <ele>316.7095</ele>
        <time>2014-09-28T09:40:28Z</time>
      </trkpt>
      <trkpt lat="45.60931" lon="5.27677">
        <ele>316.00717</ele>
        <time>2014-09-28T09:40:33Z</time>
      </trkpt>
      <trkpt lat="45.60925" lon="5.27671">
        <ele>316.00717</ele>
        <time>2014-09-28T09:40:38Z</time>
      </trkpt>
      <trkpt lat="45.60917" lon="5.27663">
        <ele>315.6098</ele>
        <time>2014-09-28T09:40:43Z</time>
      </trkpt>
      <trkpt lat="45.60909" lon="5.27655">
        <ele>315.28436</ele>
        <time>2014-09-28T09:40:48Z</time>
      </trkpt>
      <trkpt lat="45.60903" lon="5.27648">
        <ele>315.28436</ele>
        <time>2014-09-28T09:40:53Z</time>
      </trkpt>
      <trkpt lat="45.609" lon="5.27644">
        <ele>315.08847</ele>
        <time>2014-09-28T09:40:58Z</time>
      </trkpt>
      <trkpt lat="45.6089" lon="5.27637">
        <ele>314.8445</ele>
        <time>2014-09-28T09:41:03Z</time>
      </trkpt>
      <trkpt lat="45.60881" lon="5.27632">
        <ele>314.64728</ele>
        <time>2014-09-28T09:41:08Z</time>
      </trkpt>
      <trkpt lat="45.60872" lon="5.27628">
        <ele>314.46915</ele>
        <time>2014-09-28T09:41:13Z</time>
      </trkpt>
      <trkpt lat="45.60863" lon="5.27625">
        <ele>314.46915</ele>
        <time>2014-09-28T09:41:18Z</time>
      </trkpt>
      <trkpt lat="45.60855" lon="5.27622">
        <ele>314.1691</ele>
        <time>2014-09-28T09:41:23Z</time>
      </trkpt>
      <trkpt lat="45.60848" lon="5.27618">
        <ele>314.1691</ele>
        <time>2014-09-28T09:41:28Z</time>
      </trkpt>
      <trkpt lat="45.60842" lon="5.27617">
        <ele>313.68866</ele>
        <time>2014-09-28T09:41:33Z</time>
      </trkpt>
      <trkpt lat="45.60834" lon="5.27616">
        <ele>313.68866</ele>
        <time>2014-09-28T09:41:38Z</time>
      </trkpt>
      <trkpt lat="45.60825" lon="5.27616">
        <ele>313.00296</ele>
        <time>2014-09-28T09:41:43Z</time>
      </trkpt>
      <trkpt lat="45.60817" lon="5.27615">
        <ele>313.00296</ele>
        <time>2014-09-28T09:41:48Z</time>
      </trkpt>
      <trkpt lat="45.60809" lon="5.27617">
        <ele>312.1182</ele>
        <time>2014-09-28T09:41:53Z</time>
      </trkpt>
      <trkpt lat="45.60803" lon="5.27618">
        <ele>312.1182</ele>
        <time>2014-09-28T09:41:58Z</time>
      </trkpt>
      <trkpt lat="45.60797" lon="5.27625">
        <ele>311.0261</ele>
        <time>2014-09-28T09:42:03Z</time>
      </trkpt>
      <trkpt lat="45.60794" lon="5.27633">
        <ele>311.0261</ele>
        <time>2014-09-28T09:42:08Z</time>
      </trkpt>
      <trkpt lat="45.60792" lon="5.27644">
        <ele>309.66187</ele>
        <time>2014-09-28T09:42:13Z</time>
      </trkpt>
      <trkpt lat="45.60795" lon="5.27656">
        <ele>309.66187</ele>
        <time>2014-09-28T09:42:18Z</time>
      </trkpt>
      <trkpt lat="45.60799" lon="5.27668">
        <ele>308.26862</ele>
        <time>2014-09-28T09:42:23Z</time>
      </trkpt>
      <trkpt lat="45.60803" lon="5.27679">
        <ele>308.26862</ele>
        <time>2014-09-28T09:42:28Z</time>
      </trkpt>
      <trkpt lat="45.60805" lon="5.27688">
        <ele>307.0716</ele>
        <time>2014-09-28T09:42:33Z</time>
      </trkpt>
      <trkpt lat="45.60802" lon="5.27695">
        <ele>307.0716</ele>
        <time>2014-09-28T09:42:38Z</time>
      </trkpt>
      <trkpt lat="45.60799" lon="5.27704">
        <ele>306.0194</ele>
        <time>2014-09-28T09:42:43Z</time>
      </trkpt>
      <trkpt lat="45.60797" lon="5.27714">
        <ele>306.0194</ele>
        <time>2014-09-28T09:42:48Z</time>
      </trkpt>
      <trkpt lat="45.60795" lon="5.27723">
        <ele>305.0494</ele>
        <time>2014-09-28T09:42:53Z</time>
      </trkpt>
      <trkpt lat="45.60792" lon="5.27732">
        <ele>305.0494</ele>
        <time>2014-09-28T09:42:58Z</time>
      </trkpt>
      <trkpt lat="45.60794" lon="5.2774">
        <ele>304.20398</ele>
        <time>2014-09-28T09:43:03Z</time>
      </trkpt>
      <trkpt lat="45.60795" lon="5.27749">
        <ele>304.20398</ele>
        <time>2014-09-28T09:43:08Z</time>
      </trkpt>
      <trkpt lat="45.60797" lon="5.27757">
        <ele>303.55078</ele>
        <time>2014-09-28T09:43:13Z</time>
      </trkpt>
      <trkpt lat="45.60796" lon="5.27767">
        <ele>303.55078</ele>
        <time>2014-09-28T09:43:18Z</time>
      </trkpt>
      <trkpt lat="45.60792" lon="5.27774">
        <ele>303.19495</ele>
        <time>2014-09-28T09:43:23Z</time>
      </trkpt>
      <trkpt lat="45.6079" lon="5.27782">
        <ele>303.19495</ele>
        <time>2014-09-28T09:43:28Z</time>
      </trkpt>
      <trkpt lat="45.60788" lon="5.27792">
        <ele>302.9735</ele>
        <time>2014-09-28T09:43:33Z</time>
      </trkpt>
      <trkpt lat="45.60787" lon="5.27803">
        <ele>302.9735</ele>
        <time>2014-09-28T09:43:38Z</time>
      </trkpt>
      <trkpt lat="45.60787" lon="5.27814">
        <ele>303.03754</ele>
        <time>2014-09-28T09:43:43Z</time>
      </trkpt>
      <trkpt lat="45.60788" lon="5.27825">
        <ele>303.03754</ele>
        <time>2014-09-28T09:43:48Z</time>
      </trkpt>
      <trkpt lat="45.60788" lon="5.27833">
        <ele>302.90637</ele>
        <time>2014-09-28T09:43:53Z</time>
      </trkpt>
      <trkpt lat="45.60794" lon="5.27846">
        <ele>302.92764</ele>
        <time>2014-09-28T09:43:58Z</time>
      </trkpt>
      <trkpt lat="45.608" lon="5.27859">
        <ele>303.005</ele>
        <time>2014-09-28T09:44:03Z</time>
      </trkpt>
      <trkpt lat="45.60802" lon="5.2787">
        <ele>303.005</ele>
        <time>2014-09-28T09:44:08Z</time>
      </trkpt>
      <trkpt lat="45.60804" lon="5.27881">
        <ele>303.2217</ele>
        <time>2014-09-28T09:44:13Z</time>
      </trkpt>
      <trkpt lat="45.60807" lon="5.27891">
        <ele>303.2217</ele>
        <time>2014-09-28T09:44:18Z</time>
      </trkpt>
      <trkpt lat="45.60808" lon="5.279">
        <ele>303.48157</ele>
        <time>2014-09-28T09:44:23Z</time>
      </trkpt>
      <trkpt lat="45.60808" lon="5.27909">
        <ele>303.48157</ele>
        <time>2014-09-28T09:44:28Z</time>
      </trkpt>
      <trkpt lat="45.60806" lon="5.2792">
        <ele>303.83917</ele>
        <time>2014-09-28T09:44:33Z</time>
      </trkpt>
      <trkpt lat="45.60807" lon="5.27931">
        <ele>303.83917</ele>
        <time>2014-09-28T09:44:38Z</time>
      </trkpt>
      <trkpt lat="45.6081" lon="5.2794">
        <ele>304.47455</ele>
        <time>2014-09-28T09:44:43Z</time>
      </trkpt>
      <trkpt lat="45.60816" lon="5.2795">
        <ele>304.47455</ele>
        <time>2014-09-28T09:44:48Z</time>
      </trkpt>
      <trkpt lat="45.60813" lon="5.27958">
        <ele>305.10678</ele>
        <time>2014-09-28T09:44:53Z</time>
      </trkpt>
      <trkpt lat="45.60814" lon="5.27967">
        <ele>305.10678</ele>
        <time>2014-09-28T09:44:58Z</time>
      </trkpt>
      <trkpt lat="45.60812" lon="5.27976">
        <ele>305.9367</ele>
        <time>2014-09-28T09:45:03Z</time>
      </trkpt>
      <trkpt lat="45.6081" lon="5.27987">
        <ele>305.9367</ele>
        <time>2014-09-28T09:45:08Z</time>
      </trkpt>
      <trkpt lat="45.60809" lon="5.27997">
        <ele>306.57324</ele>
        <time>2014-09-28T09:45:13Z</time>
      </trkpt>
      <trkpt lat="45.60807" lon="5.28006">
        <ele>306.57324</ele>
        <time>2014-09-28T09:45:18Z</time>
      </trkpt>
      <trkpt lat="45.60805" lon="5.28016">
        <ele>307.02933</ele>
        <time>2014-09-28T09:45:23Z</time>
      </trkpt>
      <trkpt lat="45.60804" lon="5.28026">
        <ele>307.02933</ele>
        <time>2014-09-28T09:45:28Z</time>
      </trkpt>
      <trkpt lat="45.60805" lon="5.28031">
        <ele>307.51898</ele>
        <time>2014-09-28T09:45:33Z</time>
      </trkpt>
      <trkpt lat="45.60803" lon="5.28038">
        <ele>307.51898</ele>
        <time>2014-09-28T09:45:38Z</time>
      </trkpt>
      <trkpt lat="45.608" lon="5.28046">
        <ele>307.9811</ele>
        <time>2014-09-28T09:45:43Z</time>
      </trkpt>
      <trkpt lat="45.60798" lon="5.28055">
        <ele>307.9811</ele>
        <time>2014-09-28T09:45:48Z</time>
      </trkpt>
      <trkpt lat="45.60793" lon="5.28064">
        <ele>308.45993</ele>
        <time>2014-09-28T09:45:53Z</time>
      </trkpt>
      <trkpt lat="45.60795" lon="5.28072">
        <ele>308.45993</ele>
        <time>2014-09-28T09:45:58Z</time>
      </trkpt>
      <trkpt lat="45.60793" lon="5.28084">
        <ele>309.25568</ele>
        <time>2014-09-28T09:46:03Z</time>
      </trkpt>
      <trkpt lat="45.60791" lon="5.28096">
        <ele>309.25568</ele>
        <time>2014-09-28T09:46:08Z</time>
      </trkpt>
      <trkpt lat="45.6079" lon="5.28108">
        <ele>310.2422</ele>
        <time>2014-09-28T09:46:13Z</time>
      </trkpt>
      <trkpt lat="45.60784" lon="5.28118">
        <ele>311.24432</ele>
        <time>2014-09-28T09:46:18Z</time>
      </trkpt>
      <trkpt lat="45.60778" lon="5.28128">
        <ele>312.20065</ele>
        <time>2014-09-28T09:46:23Z</time>
      </trkpt>
      <trkpt lat="45.60772" lon="5.28138">
        <ele>312.20065</ele>
        <time>2014-09-28T09:46:28Z</time>
      </trkpt>
      <trkpt lat="45.60768" lon="5.28148">
        <ele>313.35693</ele>
        <time>2014-09-28T09:46:33Z</time>
      </trkpt>
      <trkpt lat="45.60764" lon="5.28153">
        <ele>313.35693</ele>
        <time>2014-09-28T09:46:38Z</time>
      </trkpt>
      <trkpt lat="45.60761" lon="5.28161">
        <ele>314.436</ele>
        <time>2014-09-28T09:46:43Z</time>
      </trkpt>
      <trkpt lat="45.60759" lon="5.28169">
        <ele>314.436</ele>
        <time>2014-09-28T09:46:48Z</time>
      </trkpt>
      <trkpt lat="45.60761" lon="5.28177">
        <ele>315.68564</ele>
        <time>2014-09-28T09:46:53Z</time>
      </trkpt>
      <trkpt lat="45.60764" lon="5.28187">
        <ele>315.68564</ele>
        <time>2014-09-28T09:46:58Z</time>
      </trkpt>
      <trkpt lat="45.60763" lon="5.28196">
        <ele>317.42142</ele>
        <time>2014-09-28T09:47:03Z</time>
      </trkpt>
      <trkpt lat="45.60757" lon="5.28203">
        <ele>317.42142</ele>
        <time>2014-09-28T09:47:08Z</time>
      </trkpt>
      <trkpt lat="45.6075" lon="5.28212">
        <ele>319.02655</ele>
        <time>2014-09-28T09:47:13Z</time>
      </trkpt>
      <trkpt lat="45.60745" lon="5.28218">
        <ele>319.02655</ele>
        <time>2014-09-28T09:47:18Z</time>
      </trkpt>
      <trkpt lat="45.6074" lon="5.28224">
        <ele>320.4919</ele>
        <time>2014-09-28T09:47:23Z</time>
      </trkpt>
      <trkpt lat="45.60735" lon="5.28232">
        <ele>320.4919</ele>
        <time>2014-09-28T09:47:28Z</time>
      </trkpt>
      <trkpt lat="45.60731" lon="5.28238">
        <ele>321.91046</ele>
        <time>2014-09-28T09:47:33Z</time>
      </trkpt>
      <trkpt lat="45.60726" lon="5.28245">
        <ele>321.91046</ele>
        <time>2014-09-28T09:47:38Z</time>
      </trkpt>
      <trkpt lat="45.60722" lon="5.28252">
        <ele>323.1955</ele>
        <time>2014-09-28T09:47:43Z</time>
      </trkpt>
      <trkpt lat="45.60718" lon="5.28261">
        <ele>323.1955</ele>
        <time>2014-09-28T09:47:48Z</time>
      </trkpt>
      <trkpt lat="45.60715" lon="5.2827">
        <ele>324.28156</ele>
        <time>2014-09-28T09:47:53Z</time>
      </trkpt>
      <trkpt lat="45.60713" lon="5.28278">
        <ele>324.28156</ele>
        <time>2014-09-28T09:47:58Z</time>
      </trkpt>
      <trkpt lat="45.60716" lon="5.2829">
        <ele>325.1951</ele>
        <time>2014-09-28T09:48:03Z</time>
      </trkpt>
      <trkpt lat="45.6072" lon="5.28302">
        <ele>325.1951</ele>
        <time>2014-09-28T09:48:08Z</time>
      </trkpt>
      <trkpt lat="45.60715" lon="5.28313">
        <ele>326.53763</ele>
        <time>2014-09-28T09:48:13Z</time>
      </trkpt>
      <trkpt lat="45.60713" lon="5.28323">
        <ele>326.53763</ele>
        <time>2014-09-28T09:48:18Z</time>
      </trkpt>
      <trkpt lat="45.60713" lon="5.28335">
        <ele>327.8998</ele>
        <time>2014-09-28T09:48:23Z</time>
      </trkpt>
      <trkpt lat="45.60711" lon="5.28345">
        <ele>327.8998</ele>
        <time>2014-09-28T09:48:28Z</time>
      </trkpt>
      <trkpt lat="45.60708" lon="5.28355">
        <ele>329.26263</ele>
        <time>2014-09-28T09:48:33Z</time>
      </trkpt>
      <trkpt lat="45.60704" lon="5.28364">
        <ele>329.26263</ele>
        <time>2014-09-28T09:48:38Z</time>
      </trkpt>
      <trkpt lat="45.60699" lon="5.28374">
        <ele>330.86798</ele>
        <time>2014-09-28T09:48:43Z</time>
      </trkpt>
      <trkpt lat="45.60696" lon="5.28383">
        <ele>330.86798</ele>
        <time>2014-09-28T09:48:48Z</time>
      </trkpt>
      <trkpt lat="45.60693" lon="5.28392">
        <ele>332.55026</ele>
        <time>2014-09-28T09:48:53Z</time>
      </trkpt>
      <trkpt lat="45.60689" lon="5.28402">
        <ele>332.55026</ele>
        <time>2014-09-28T09:48:58Z</time>
      </trkpt>
      <trkpt lat="45.60685" lon="5.28411">
        <ele>334.12714</ele>
        <time>2014-09-28T09:49:03Z</time>
      </trkpt>
      <trkpt lat="45.60681" lon="5.2842">
        <ele>334.12714</ele>
        <time>2014-09-28T09:49:08Z</time>
      </trkpt>
      <trkpt lat="45.60677" lon="5.28429">
        <ele>335.48767</ele>
        <time>2014-09-28T09:49:13Z</time>
      </trkpt>
      <trkpt lat="45.60674" lon="5.28438">
        <ele>335.48767</ele>
        <time>2014-09-28T09:49:18Z</time>
      </trkpt>
      <trkpt lat="45.6067" lon="5.28447">
        <ele>336.77472</ele>
        <time>2014-09-28T09:49:23Z</time>
      </trkpt>
      <trkpt lat="45.60666" lon="5.28456">
        <ele>336.77472</ele>
        <time>2014-09-28T09:49:28Z</time>
      </trkpt>
      <trkpt lat="45.60662" lon="5.28465">
        <ele>338.00574</ele>
        <time>2014-09-28T09:49:33Z</time>
      </trkpt>
      <trkpt lat="45.60658" lon="5.28474">
        <ele>338.00574</ele>
        <time>2014-09-28T09:49:38Z</time>
      </trkpt>
      <trkpt lat="45.60654" lon="5.28484">
        <ele>339.12506</ele>
        <time>2014-09-28T09:49:43Z</time>
      </trkpt>
      <trkpt lat="45.60651" lon="5.28493">
        <ele>339.12506</ele>
        <time>2014-09-28T09:49:48Z</time>
      </trkpt>
      <trkpt lat="45.60647" lon="5.28503">
        <ele>340.06708</ele>
        <time>2014-09-28T09:49:53Z</time>
      </trkpt>
      <trkpt lat="45.60648" lon="5.2851">
        <ele>340.06708</ele>
        <time>2014-09-28T09:49:58Z</time>
      </trkpt>
      <trkpt lat="45.6065" lon="5.28512">
        <ele>340.06708</ele>
        <time>2014-09-28T09:50:03Z</time>
      </trkpt>
      <trkpt lat="45.6065" lon="5.28512">
        <ele>340.06708</ele>
        <time>2014-09-28T09:50:08Z</time>
      </trkpt>
      <trkpt lat="45.60653" lon="5.28511">
        <ele>340.98776</ele>
        <time>2014-09-28T09:50:13Z</time>
      </trkpt>
      <trkpt lat="45.6066" lon="5.28512">
        <ele>340.98776</ele>
        <time>2014-09-28T09:50:18Z</time>
      </trkpt>
      <trkpt lat="45.6067" lon="5.28515">
        <ele>341.8013</ele>
        <time>2014-09-28T09:50:23Z</time>
      </trkpt>
      <trkpt lat="45.60691" lon="5.28521">
        <ele>342.45724</ele>
        <time>2014-09-28T09:50:28Z</time>
      </trkpt>
      <trkpt lat="45.60711" lon="5.28529">
        <ele>343.0103</ele>
        <time>2014-09-28T09:50:33Z</time>
      </trkpt>
      <trkpt lat="45.60733" lon="5.28537">
        <ele>343.46838</ele>
        <time>2014-09-28T09:50:38Z</time>
      </trkpt>
      <trkpt lat="45.60754" lon="5.28544">
        <ele>343.86786</ele>
        <time>2014-09-28T09:50:43Z</time>
      </trkpt>
      <trkpt lat="45.60777" lon="5.28553">
        <ele>344.24268</ele>
        <time>2014-09-28T09:50:48Z</time>
      </trkpt>
      <trkpt lat="45.60804" lon="5.28567">
        <ele>344.59564</ele>
        <time>2014-09-28T09:50:53Z</time>
      </trkpt>
      <trkpt lat="45.60835" lon="5.28586">
        <ele>345.1888</ele>
        <time>2014-09-28T09:50:58Z</time>
      </trkpt>
      <trkpt lat="45.6086" lon="5.28601">
        <ele>346.20673</ele>
        <time>2014-09-28T09:51:03Z</time>
      </trkpt>
      <trkpt lat="45.60886" lon="5.28614">
        <ele>347.61746</ele>
        <time>2014-09-28T09:51:08Z</time>
      </trkpt>
      <trkpt lat="45.6091" lon="5.28625">
        <ele>349.4337</ele>
        <time>2014-09-28T09:51:13Z</time>
      </trkpt>
      <trkpt lat="45.60922" lon="5.28634">
        <ele>351.39206</ele>
        <time>2014-09-28T09:51:18Z</time>
      </trkpt>
      <trkpt lat="45.60924" lon="5.28645">
        <ele>351.39206</ele>
        <time>2014-09-28T09:51:23Z</time>
      </trkpt>
      <trkpt lat="45.60924" lon="5.28658">
        <ele>353.5078</ele>
        <time>2014-09-28T09:51:28Z</time>
      </trkpt>
      <trkpt lat="45.60924" lon="5.28671">
        <ele>355.63605</ele>
        <time>2014-09-28T09:51:33Z</time>
      </trkpt>
      <trkpt lat="45.60922" lon="5.28684">
        <ele>355.63605</ele>
        <time>2014-09-28T09:51:38Z</time>
      </trkpt>
      <trkpt lat="45.60921" lon="5.28695">
        <ele>357.65695</ele>
        <time>2014-09-28T09:51:43Z</time>
      </trkpt>
      <trkpt lat="45.60919" lon="5.28707">
        <ele>357.65695</ele>
        <time>2014-09-28T09:51:48Z</time>
      </trkpt>
      <trkpt lat="45.60917" lon="5.28718">
        <ele>359.51752</ele>
        <time>2014-09-28T09:51:53Z</time>
      </trkpt>
      <trkpt lat="45.60915" lon="5.28729">
        <ele>359.51752</ele>
        <time>2014-09-28T09:51:58Z</time>
      </trkpt>
      <trkpt lat="45.60912" lon="5.28741">
        <ele>361.1692</ele>
        <time>2014-09-28T09:52:03Z</time>
      </trkpt>
      <trkpt lat="45.60911" lon="5.28752">
        <ele>361.1692</ele>
        <time>2014-09-28T09:52:08Z</time>
      </trkpt>
      <trkpt lat="45.60909" lon="5.28765">
        <ele>362.7117</ele>
        <time>2014-09-28T09:52:13Z</time>
      </trkpt>
      <trkpt lat="45.60907" lon="5.28777">
        <ele>362.7117</ele>
        <time>2014-09-28T09:52:18Z</time>
      </trkpt>
      <trkpt lat="45.60905" lon="5.28789">
        <ele>364.09375</ele>
        <time>2014-09-28T09:52:23Z</time>
      </trkpt>
      <trkpt lat="45.60903" lon="5.288">
        <ele>364.09375</ele>
        <time>2014-09-28T09:52:28Z</time>
      </trkpt>
      <trkpt lat="45.60901" lon="5.28811">
        <ele>365.3836</ele>
        <time>2014-09-28T09:52:33Z</time>
      </trkpt>
      <trkpt lat="45.609" lon="5.28822">
        <ele>365.3836</ele>
        <time>2014-09-28T09:52:38Z</time>
      </trkpt>
      <trkpt lat="45.60898" lon="5.28833">
        <ele>366.51517</ele>
        <time>2014-09-28T09:52:43Z</time>
      </trkpt>
      <trkpt lat="45.60895" lon="5.28845">
        <ele>366.51517</ele>
        <time>2014-09-28T09:52:48Z</time>
      </trkpt>
      <trkpt lat="45.60894" lon="5.28857">
        <ele>367.54294</ele>
        <time>2014-09-28T09:52:53Z</time>
      </trkpt>
      <trkpt lat="45.60897" lon="5.28867">
        <ele>367.54294</ele>
        <time>2014-09-28T09:52:58Z</time>
      </trkpt>
      <trkpt lat="45.60905" lon="5.28871">
        <ele>368.37372</ele>
        <time>2014-09-28T09:53:03Z</time>
      </trkpt>
      <trkpt lat="45.60913" lon="5.28873">
        <ele>368.37372</ele>
        <time>2014-09-28T09:53:08Z</time>
      </trkpt>
      <trkpt lat="45.60921" lon="5.28877">
        <ele>369.1235</ele>
        <time>2014-09-28T09:53:14Z</time>
      </trkpt>
      <trkpt lat="45.60928" lon="5.28879">
        <ele>369.1235</ele>
        <time>2014-09-28T09:53:18Z</time>
      </trkpt>
      <trkpt lat="45.60935" lon="5.28884">
        <ele>369.77032</ele>
        <time>2014-09-28T09:53:23Z</time>
      </trkpt>
      <trkpt lat="45.60943" lon="5.28887">
        <ele>369.77032</ele>
        <time>2014-09-28T09:53:28Z</time>
      </trkpt>
      <trkpt lat="45.60952" lon="5.2889">
        <ele>370.4239</ele>
        <time>2014-09-28T09:53:33Z</time>
      </trkpt>
      <trkpt lat="45.60959" lon="5.28893">
        <ele>370.4239</ele>
        <time>2014-09-28T09:53:38Z</time>
      </trkpt>
      <trkpt lat="45.60967" lon="5.28896">
        <ele>371.07056</ele>
        <time>2014-09-28T09:53:43Z</time>
      </trkpt>
      <trkpt lat="45.60975" lon="5.28899">
        <ele>371.07056</ele>
        <time>2014-09-28T09:53:48Z</time>
      </trkpt>
      <trkpt lat="45.60983" lon="5.28902">
        <ele>371.68332</ele>
        <time>2014-09-28T09:53:53Z</time>
      </trkpt>
      <trkpt lat="45.6099" lon="5.28904">
        <ele>371.68332</ele>
        <time>2014-09-28T09:53:58Z</time>
      </trkpt>
      <trkpt lat="45.60997" lon="5.28906">
        <ele>372.17966</ele>
        <time>2014-09-28T09:54:03Z</time>
      </trkpt>
      <trkpt lat="45.61005" lon="5.28909">
        <ele>372.17966</ele>
        <time>2014-09-28T09:54:08Z</time>
      </trkpt>
      <trkpt lat="45.61014" lon="5.28912">
        <ele>372.48343</ele>
        <time>2014-09-28T09:54:13Z</time>
      </trkpt>
      <trkpt lat="45.61023" lon="5.28915">
        <ele>372.48343</ele>
        <time>2014-09-28T09:54:18Z</time>
      </trkpt>
      <trkpt lat="45.61031" lon="5.28918">
        <ele>372.72644</ele>
        <time>2014-09-28T09:54:23Z</time>
      </trkpt>
      <trkpt lat="45.61039" lon="5.2892">
        <ele>372.72644</ele>
        <time>2014-09-28T09:54:28Z</time>
      </trkpt>
      <trkpt lat="45.61046" lon="5.28923">
        <ele>372.87238</ele>
        <time>2014-09-28T09:54:33Z</time>
      </trkpt>
      <trkpt lat="45.61053" lon="5.28927">
        <ele>372.87238</ele>
        <time>2014-09-28T09:54:38Z</time>
      </trkpt>
      <trkpt lat="45.61062" lon="5.2893">
        <ele>372.85913</ele>
        <time>2014-09-28T09:54:43Z</time>
      </trkpt>
      <trkpt lat="45.6107" lon="5.28933">
        <ele>372.75925</ele>
        <time>2014-09-28T09:54:48Z</time>
      </trkpt>
      <trkpt lat="45.61079" lon="5.28937">
        <ele>372.49606</ele>
        <time>2014-09-28T09:54:53Z</time>
      </trkpt>
      <trkpt lat="45.61087" lon="5.2894">
        <ele>372.49606</ele>
        <time>2014-09-28T09:54:58Z</time>
      </trkpt>
      <trkpt lat="45.61096" lon="5.28944">
        <ele>372.12866</ele>
        <time>2014-09-28T09:55:03Z</time>
      </trkpt>
      <trkpt lat="45.61106" lon="5.28948">
        <ele>371.59674</ele>
        <time>2014-09-28T09:55:08Z</time>
      </trkpt>
      <trkpt lat="45.61105" lon="5.28948">
        <ele>371.59674</ele>
        <time>2014-09-28T09:55:13Z</time>
      </trkpt>
      <trkpt lat="45.61107" lon="5.28949">
        <ele>371.59674</ele>
        <time>2014-09-28T09:55:18Z</time>
      </trkpt>
      <trkpt lat="45.61114" lon="5.2895">
        <ele>370.81607</ele>
        <time>2014-09-28T09:55:23Z</time>
      </trkpt>
      <trkpt lat="45.61122" lon="5.28953">
        <ele>370.81607</ele>
        <time>2014-09-28T09:55:28Z</time>
      </trkpt>
      <trkpt lat="45.6113" lon="5.28956">
        <ele>369.79562</ele>
        <time>2014-09-28T09:55:33Z</time>
      </trkpt>
      <trkpt lat="45.61139" lon="5.28959">
        <ele>369.79562</ele>
        <time>2014-09-28T09:55:38Z</time>
      </trkpt>
      <trkpt lat="45.61147" lon="5.28961">
        <ele>368.53003</ele>
        <time>2014-09-28T09:55:43Z</time>
      </trkpt>
      <trkpt lat="45.61149" lon="5.28963">
        <ele>368.53003</ele>
        <time>2014-09-28T09:55:48Z</time>
      </trkpt>
      <trkpt lat="45.61155" lon="5.28969">
        <ele>367.37506</ele>
        <time>2014-09-28T09:55:53Z</time>
      </trkpt>
      <trkpt lat="45.61156" lon="5.28978">
        <ele>367.37506</ele>
        <time>2014-09-28T09:55:58Z</time>
      </trkpt>
      <trkpt lat="45.61157" lon="5.28983">
        <ele>366.24213</ele>
        <time>2014-09-28T09:56:03Z</time>
      </trkpt>
      <trkpt lat="45.61157" lon="5.28992">
        <ele>366.24213</ele>
        <time>2014-09-28T09:56:08Z</time>
      </trkpt>
      <trkpt lat="45.61157" lon="5.29001">
        <ele>365.19302</ele>
        <time>2014-09-28T09:56:13Z</time>
      </trkpt>
      <trkpt lat="45.61158" lon="5.2901">
        <ele>365.19302</ele>
        <time>2014-09-28T09:56:18Z</time>
      </trkpt>
      <trkpt lat="45.61156" lon="5.29016">
        <ele>364.4</ele>
        <time>2014-09-28T09:56:23Z</time>
      </trkpt>
      <trkpt lat="45.61158" lon="5.29021">
        <ele>364.4</ele>
        <time>2014-09-28T09:56:28Z</time>
      </trkpt>
      <trkpt lat="45.6116" lon="5.29023">
        <ele>364.4</ele>
        <time>2014-09-28T09:56:33Z</time>
      </trkpt>
      <trkpt lat="45.6116" lon="5.29025">
        <ele>364.4</ele>
        <time>2014-09-28T09:56:38Z</time>
      </trkpt>
      <trkpt lat="45.6116" lon="5.29025">
        <ele>364.4</ele>
        <time>2014-09-28T09:56:43Z</time>
      </trkpt>
      <trkpt lat="45.61164" lon="5.29025">
        <ele>363.34445</ele>
        <time>2014-09-28T09:56:48Z</time>
      </trkpt>
      <trkpt lat="45.6117" lon="5.29026">
        <ele>363.34445</ele>
        <time>2014-09-28T09:56:53Z</time>
      </trkpt>
      <trkpt lat="45.61176" lon="5.29027">
        <ele>362.3247</ele>
        <time>2014-09-28T09:56:58Z</time>
      </trkpt>
      <trkpt lat="45.61181" lon="5.29025">
        <ele>362.3247</ele>
        <time>2014-09-28T09:57:03Z</time>
      </trkpt>
      <trkpt lat="45.61183" lon="5.29029">
        <ele>362.3247</ele>
        <time>2014-09-28T09:57:08Z</time>
      </trkpt>
      <trkpt lat="45.61184" lon="5.29037">
        <ele>361.4728</ele>
        <time>2014-09-28T09:57:13Z</time>
      </trkpt>
      <trkpt lat="45.61189" lon="5.29041">
        <ele>361.4728</ele>
        <time>2014-09-28T09:57:18Z</time>
      </trkpt>
      <trkpt lat="45.61201" lon="5.29046">
        <ele>360.42053</ele>
        <time>2014-09-28T09:57:23Z</time>
      </trkpt>
      <trkpt lat="45.6121" lon="5.29049">
        <ele>360.42053</ele>
        <time>2014-09-28T09:57:28Z</time>
      </trkpt>
      <trkpt lat="45.61212" lon="5.29058">
        <ele>359.40356</ele>
        <time>2014-09-28T09:57:33Z</time>
      </trkpt>
      <trkpt lat="45.61216" lon="5.29062">
        <ele>359.40356</ele>
        <time>2014-09-28T09:57:38Z</time>
      </trkpt>
      <trkpt lat="45.6122" lon="5.29063">
        <ele>359.40356</ele>
        <time>2014-09-28T09:57:43Z</time>
      </trkpt>
      <trkpt lat="45.61223" lon="5.29067">
        <ele>358.4527</ele>
        <time>2014-09-28T09:57:48Z</time>
      </trkpt>
      <trkpt lat="45.61225" lon="5.29072">
        <ele>358.4527</ele>
        <time>2014-09-28T09:57:53Z</time>
      </trkpt>
      <trkpt lat="45.61227" lon="5.29073">
        <ele>358.4527</ele>
        <time>2014-09-28T09:57:58Z</time>
      </trkpt>
      <trkpt lat="45.61227" lon="5.29075">
        <ele>358.4527</ele>
        <time>2014-09-28T09:58:03Z</time>
      </trkpt>
      <trkpt lat="45.61233" lon="5.29083">
        <ele>357.50964</ele>
        <time>2014-09-28T09:58:08Z</time>
      </trkpt>
      <trkpt lat="45.61232" lon="5.29089">
        <ele>357.50964</ele>
        <time>2014-09-28T09:58:13Z</time>
      </trkpt>
      <trkpt lat="45.61231" lon="5.29091">
        <ele>357.50964</ele>
        <time>2014-09-28T09:58:18Z</time>
      </trkpt>
      <trkpt lat="45.61229" lon="5.29099">
        <ele>356.43375</ele>
        <time>2014-09-28T09:58:23Z</time>
      </trkpt>
      <trkpt lat="45.61232" lon="5.29103">
        <ele>356.43375</ele>
        <time>2014-09-28T09:58:28Z</time>
      </trkpt>
      <trkpt lat="45.6124" lon="5.29109">
        <ele>355.29672</ele>
        <time>2014-09-28T09:58:33Z</time>
      </trkpt>
      <trkpt lat="45.61245" lon="5.29116">
        <ele>355.29672</ele>
        <time>2014-09-28T09:58:38Z</time>
      </trkpt>
      <trkpt lat="45.61247" lon="5.29119">
        <ele>354.03528</ele>
        <time>2014-09-28T09:58:43Z</time>
      </trkpt>
      <trkpt lat="45.61247" lon="5.29124">
        <ele>354.03528</ele>
        <time>2014-09-28T09:58:48Z</time>
      </trkpt>
      <trkpt lat="45.61251" lon="5.29125">
        <ele>354.03528</ele>
        <time>2014-09-28T09:58:53Z</time>
      </trkpt>
      <trkpt lat="45.6125" lon="5.29131">
        <ele>352.36038</ele>
        <time>2014-09-28T09:58:58Z</time>
      </trkpt>
      <trkpt lat="45.61254" lon="5.29137">
        <ele>352.36038</ele>
        <time>2014-09-28T09:59:03Z</time>
      </trkpt>
      <trkpt lat="45.61262" lon="5.29145">
        <ele>350.5097</ele>
        <time>2014-09-28T09:59:08Z</time>
      </trkpt>
      <trkpt lat="45.61267" lon="5.2915">
        <ele>350.5097</ele>
        <time>2014-09-28T09:59:13Z</time>
      </trkpt>
      <trkpt lat="45.61268" lon="5.29158">
        <ele>348.6893</ele>
        <time>2014-09-28T09:59:18Z</time>
      </trkpt>
      <trkpt lat="45.6127" lon="5.29164">
        <ele>348.6893</ele>
        <time>2014-09-28T09:59:23Z</time>
      </trkpt>
      <trkpt lat="45.61273" lon="5.29174">
        <ele>346.29724</ele>
        <time>2014-09-28T09:59:28Z</time>
      </trkpt>
      <trkpt lat="45.61274" lon="5.29174">
        <ele>346.29724</ele>
        <time>2014-09-28T09:59:33Z</time>
      </trkpt>
      <trkpt lat="45.61276" lon="5.29176">
        <ele>346.29724</ele>
        <time>2014-09-28T09:59:38Z</time>
      </trkpt>
      <trkpt lat="45.61277" lon="5.2918">
        <ele>346.29724</ele>
        <time>2014-09-28T09:59:43Z</time>
      </trkpt>
      <trkpt lat="45.6128" lon="5.29181">
        <ele>343.32486</ele>
        <time>2014-09-28T09:59:48Z</time>
      </trkpt>
      <trkpt lat="45.61284" lon="5.29185">
        <ele>343.32486</ele>
        <time>2014-09-28T09:59:53Z</time>
      </trkpt>
      <trkpt lat="45.61287" lon="5.29193">
        <ele>340.16916</ele>
        <time>2014-09-28T09:59:58Z</time>
      </trkpt>
      <trkpt lat="45.61292" lon="5.29201">
        <ele>340.16916</ele>
        <time>2014-09-28T10:00:03Z</time>
      </trkpt>
      <trkpt lat="45.61296" lon="5.29205">
        <ele>336.98206</ele>
        <time>2014-09-28T10:00:08Z</time>
      </trkpt>
      <trkpt lat="45.61296" lon="5.29205">
        <ele>336.98206</ele>
        <time>2014-09-28T10:00:13Z</time>
      </trkpt>
      <trkpt lat="45.61287" lon="5.29207">
        <ele>333.83215</ele>
        <time>2014-09-28T10:00:33Z</time>
      </trkpt>
      <trkpt lat="45.61285" lon="5.2921">
        <ele>333.83215</ele>
        <time>2014-09-28T10:00:38Z</time>
      </trkpt>
      <trkpt lat="45.61284" lon="5.29211">
        <ele>333.83215</ele>
        <time>2014-09-28T10:00:43Z</time>
      </trkpt>
      <trkpt lat="45.61283" lon="5.29211">
        <ele>333.83215</ele>
        <time>2014-09-28T10:00:48Z</time>
      </trkpt>
      <trkpt lat="45.61288" lon="5.29211">
        <ele>330.37918</ele>
        <time>2014-09-28T10:01:28Z</time>
      </trkpt>
      <trkpt lat="45.61288" lon="5.29212">
        <ele>330.37918</ele>
        <time>2014-09-28T10:01:33Z</time>
      </trkpt>
      <trkpt lat="45.61291" lon="5.29212">
        <ele>330.37918</ele>
        <time>2014-09-28T10:01:43Z</time>
      </trkpt>
      <trkpt lat="45.61292" lon="5.29217">
        <ele>330.37918</ele>
        <time>2014-09-28T10:01:48Z</time>
      </trkpt>
      <trkpt lat="45.61291" lon="5.29222">
        <ele>326.58237</ele>
        <time>2014-09-28T10:01:53Z</time>
      </trkpt>
      <trkpt lat="45.61288" lon="5.29228">
        <ele>326.58237</ele>
        <time>2014-09-28T10:01:58Z</time>
      </trkpt>
      <trkpt lat="45.61288" lon="5.29228">
        <ele>326.58237</ele>
        <time>2014-09-28T10:02:03Z</time>
      </trkpt>
      <trkpt lat="45.61286" lon="5.29228">
        <ele>326.58237</ele>
        <time>2014-09-28T10:02:08Z</time>
      </trkpt>
      <trkpt lat="45.61286" lon="5.29227">
        <ele>326.58237</ele>
        <time>2014-09-28T10:02:13Z</time>
      </trkpt>
      <trkpt lat="45.61286" lon="5.29228">
        <ele>326.58237</ele>
        <time>2014-09-28T10:02:18Z</time>
      </trkpt>
      <trkpt lat="45.61287" lon="5.29224">
        <ele>322.46222</ele>
        <time>2014-09-28T10:02:23Z</time>
      </trkpt>
      <trkpt lat="45.61287" lon="5.2923">
        <ele>322.46222</ele>
        <time>2014-09-28T10:02:28Z</time>
      </trkpt>
      <trkpt lat="45.61288" lon="5.29234">
        <ele>322.46222</ele>
        <time>2014-09-28T10:02:33Z</time>
      </trkpt>
      <trkpt lat="45.61292" lon="5.29238">
        <ele>318.1105</ele>
        <time>2014-09-28T10:02:38Z</time>
      </trkpt>
      <trkpt lat="45.61294" lon="5.29244">
        <ele>318.1105</ele>
        <time>2014-09-28T10:02:43Z</time>
      </trkpt>
      <trkpt lat="45.61292" lon="5.29255">
        <ele>313.1515</ele>
        <time>2014-09-28T10:02:48Z</time>
      </trkpt>
      <trkpt lat="45.61289" lon="5.29263">
        <ele>313.1515</ele>
        <time>2014-09-28T10:02:53Z</time>
      </trkpt>
      <trkpt lat="45.61285" lon="5.2927">
        <ele>307.85815</ele>
        <time>2014-09-28T10:02:58Z</time>
      </trkpt>
      <trkpt lat="45.61285" lon="5.29278">
        <ele>307.85815</ele>
        <time>2014-09-28T10:03:03Z</time>
      </trkpt>
      <trkpt lat="45.61287" lon="5.29286">
        <ele>302.9596</ele>
        <time>2014-09-28T10:03:08Z</time>
      </trkpt>
      <trkpt lat="45.61289" lon="5.29293">
        <ele>302.9596</ele>
        <time>2014-09-28T10:03:13Z</time>
      </trkpt>
      <trkpt lat="45.61289" lon="5.293">
        <ele>298.13565</ele>
        <time>2014-09-28T10:03:18Z</time>
      </trkpt>
      <trkpt lat="45.6129" lon="5.29303">
        <ele>298.13565</ele>
        <time>2014-09-28T10:03:23Z</time>
      </trkpt>
      <trkpt lat="45.61294" lon="5.29304">
        <ele>298.13565</ele>
        <time>2014-09-28T10:03:33Z</time>
      </trkpt>
      <trkpt lat="45.61295" lon="5.29304">
        <ele>298.13565</ele>
        <time>2014-09-28T10:03:38Z</time>
      </trkpt>
      <trkpt lat="45.61299" lon="5.29301">
        <ele>293.85287</ele>
        <time>2014-09-28T10:03:48Z</time>
      </trkpt>
      <trkpt lat="45.61298" lon="5.29317">
        <ele>289.8068</ele>
        <time>2014-09-28T10:03:53Z</time>
      </trkpt>
      <trkpt lat="45.61299" lon="5.29323">
        <ele>289.8068</ele>
        <time>2014-09-28T10:03:58Z</time>
      </trkpt>
      <trkpt lat="45.61302" lon="5.29332">
        <ele>285.9881</ele>
        <time>2014-09-28T10:04:03Z</time>
      </trkpt>
      <trkpt lat="45.61304" lon="5.29343">
        <ele>285.9881</ele>
        <time>2014-09-28T10:04:08Z</time>
      </trkpt>
      <trkpt lat="45.61302" lon="5.29355">
        <ele>282.76193</ele>
        <time>2014-09-28T10:04:13Z</time>
      </trkpt>
      <trkpt lat="45.61301" lon="5.29367">
        <ele>282.76193</ele>
        <time>2014-09-28T10:04:18Z</time>
      </trkpt>
      <trkpt lat="45.61301" lon="5.29377">
        <ele>280.1331</ele>
        <time>2014-09-28T10:04:23Z</time>
      </trkpt>
      <trkpt lat="45.613" lon="5.29386">
        <ele>280.1331</ele>
        <time>2014-09-28T10:04:28Z</time>
      </trkpt>
      <trkpt lat="45.61299" lon="5.29397">
        <ele>277.9312</ele>
        <time>2014-09-28T10:04:33Z</time>
      </trkpt>
      <trkpt lat="45.61298" lon="5.29407">
        <ele>277.9312</ele>
        <time>2014-09-28T10:04:38Z</time>
      </trkpt>
      <trkpt lat="45.61299" lon="5.29417">
        <ele>276.12656</ele>
        <time>2014-09-28T10:04:43Z</time>
      </trkpt>
      <trkpt lat="45.61302" lon="5.29426">
        <ele>276.12656</ele>
        <time>2014-09-28T10:04:48Z</time>
      </trkpt>
      <trkpt lat="45.61304" lon="5.29435">
        <ele>274.4885</ele>
        <time>2014-09-28T10:04:53Z</time>
      </trkpt>
      <trkpt lat="45.61309" lon="5.29444">
        <ele>274.4885</ele>
        <time>2014-09-28T10:04:58Z</time>
      </trkpt>
      <trkpt lat="45.61315" lon="5.29449">
        <ele>272.51434</ele>
        <time>2014-09-28T10:05:03Z</time>
      </trkpt>
      <trkpt lat="45.61322" lon="5.2945">
        <ele>272.51434</ele>
        <time>2014-09-28T10:05:08Z</time>
      </trkpt>
      <trkpt lat="45.61329" lon="5.29451">
        <ele>270.73343</ele>
        <time>2014-09-28T10:05:13Z</time>
      </trkpt>
      <trkpt lat="45.61334" lon="5.29454">
        <ele>270.73343</ele>
        <time>2014-09-28T10:05:18Z</time>
      </trkpt>
      <trkpt lat="45.61343" lon="5.29453">
        <ele>269.07343</ele>
        <time>2014-09-28T10:05:23Z</time>
      </trkpt>
      <trkpt lat="45.6135" lon="5.29453">
        <ele>269.07343</ele>
        <time>2014-09-28T10:05:28Z</time>
      </trkpt>
      <trkpt lat="45.61356" lon="5.29456">
        <ele>267.65402</ele>
        <time>2014-09-28T10:05:33Z</time>
      </trkpt>
      <trkpt lat="45.61364" lon="5.29457">
        <ele>267.65402</ele>
        <time>2014-09-28T10:05:38Z</time>
      </trkpt>
      <trkpt lat="45.61372" lon="5.29458">
        <ele>266.35483</ele>
        <time>2014-09-28T10:05:43Z</time>
      </trkpt>
      <trkpt lat="45.61379" lon="5.29458">
        <ele>266.35483</ele>
        <time>2014-09-28T10:05:48Z</time>
      </trkpt>
      <trkpt lat="45.61386" lon="5.29457">
        <ele>265.51044</ele>
        <time>2014-09-28T10:05:53Z</time>
      </trkpt>
      <trkpt lat="45.61388" lon="5.29451">
        <ele>265.51044</ele>
        <time>2014-09-28T10:05:58Z</time>
      </trkpt>
      <trkpt lat="45.61389" lon="5.29439">
        <ele>264.8962</ele>
        <time>2014-09-28T10:06:03Z</time>
      </trkpt>
      <trkpt lat="45.61391" lon="5.29428">
        <ele>264.8962</ele>
        <time>2014-09-28T10:06:08Z</time>
      </trkpt>
      <trkpt lat="45.6139" lon="5.29418">
        <ele>264.54837</ele>
        <time>2014-09-28T10:06:13Z</time>
      </trkpt>
      <trkpt lat="45.61392" lon="5.29408">
        <ele>264.54837</ele>
        <time>2014-09-28T10:06:18Z</time>
      </trkpt>
      <trkpt lat="45.61394" lon="5.294">
        <ele>264.5139</ele>
        <time>2014-09-28T10:06:23Z</time>
      </trkpt>
      <trkpt lat="45.61396" lon="5.29391">
        <ele>264.5139</ele>
        <time>2014-09-28T10:06:28Z</time>
      </trkpt>
      <trkpt lat="45.61398" lon="5.29381">
        <ele>264.66248</ele>
        <time>2014-09-28T10:06:33Z</time>
      </trkpt>
      <trkpt lat="45.61398" lon="5.29373">
        <ele>264.66248</ele>
        <time>2014-09-28T10:06:38Z</time>
      </trkpt>
      <trkpt lat="45.61399" lon="5.29362">
        <ele>265.00256</ele>
        <time>2014-09-28T10:06:43Z</time>
      </trkpt>
      <trkpt lat="45.61402" lon="5.29353">
        <ele>265.00256</ele>
        <time>2014-09-28T10:06:48Z</time>
      </trkpt>
      <trkpt lat="45.61407" lon="5.29344">
        <ele>265.44052</ele>
        <time>2014-09-28T10:06:53Z</time>
      </trkpt>
      <trkpt lat="45.6141" lon="5.29334">
        <ele>265.44052</ele>
        <time>2014-09-28T10:06:58Z</time>
      </trkpt>
      <trkpt lat="45.61415" lon="5.29325">
        <ele>265.9901</ele>
        <time>2014-09-28T10:07:03Z</time>
      </trkpt>
      <trkpt lat="45.61419" lon="5.29316">
        <ele>265.9901</ele>
        <time>2014-09-28T10:07:08Z</time>
      </trkpt>
      <trkpt lat="45.61423" lon="5.29306">
        <ele>266.64954</ele>
        <time>2014-09-28T10:07:13Z</time>
      </trkpt>
      <trkpt lat="45.61426" lon="5.29296">
        <ele>266.64954</ele>
        <time>2014-09-28T10:07:18Z</time>
      </trkpt>
      <trkpt lat="45.61429" lon="5.29287">
        <ele>267.54645</ele>
        <time>2014-09-28T10:07:23Z</time>
      </trkpt>
      <trkpt lat="45.61434" lon="5.2928">
        <ele>267.54645</ele>
        <time>2014-09-28T10:07:28Z</time>
      </trkpt>
      <trkpt lat="45.61442" lon="5.2928">
        <ele>268.33737</ele>
        <time>2014-09-28T10:07:33Z</time>
      </trkpt>
      <trkpt lat="45.61449" lon="5.29285">
        <ele>268.33737</ele>
        <time>2014-09-28T10:07:38Z</time>
      </trkpt>
      <trkpt lat="45.61456" lon="5.29292">
        <ele>269.1657</ele>
        <time>2014-09-28T10:07:43Z</time>
      </trkpt>
      <trkpt lat="45.61462" lon="5.29298">
        <ele>269.1657</ele>
        <time>2014-09-28T10:07:48Z</time>
      </trkpt>
      <trkpt lat="45.61467" lon="5.29305">
        <ele>270.19302</ele>
        <time>2014-09-28T10:07:53Z</time>
      </trkpt>
      <trkpt lat="45.61474" lon="5.29309">
        <ele>270.19302</ele>
        <time>2014-09-28T10:07:58Z</time>
      </trkpt>
      <trkpt lat="45.61482" lon="5.29314">
        <ele>271.6263</ele>
        <time>2014-09-28T10:08:03Z</time>
      </trkpt>
      <trkpt lat="45.61485" lon="5.29316">
        <ele>271.6263</ele>
        <time>2014-09-28T10:08:08Z</time>
      </trkpt>
      <trkpt lat="45.61491" lon="5.29321">
        <ele>273.35373</ele>
        <time>2014-09-28T10:08:13Z</time>
      </trkpt>
      <trkpt lat="45.61497" lon="5.29325">
        <ele>273.35373</ele>
        <time>2014-09-28T10:08:18Z</time>
      </trkpt>
      <trkpt lat="45.61503" lon="5.29323">
        <ele>275.06915</ele>
        <time>2014-09-28T10:08:23Z</time>
      </trkpt>
      <trkpt lat="45.61508" lon="5.29318">
        <ele>275.06915</ele>
        <time>2014-09-28T10:08:28Z</time>
      </trkpt>
      <trkpt lat="45.61513" lon="5.2931">
        <ele>276.70544</ele>
        <time>2014-09-28T10:08:33Z</time>
      </trkpt>
      <trkpt lat="45.61516" lon="5.29301">
        <ele>276.70544</ele>
        <time>2014-09-28T10:08:38Z</time>
      </trkpt>
      <trkpt lat="45.61523" lon="5.29292">
        <ele>278.18634</ele>
        <time>2014-09-28T10:08:43Z</time>
      </trkpt>
      <trkpt lat="45.61529" lon="5.29284">
        <ele>278.18634</ele>
        <time>2014-09-28T10:08:48Z</time>
      </trkpt>
      <trkpt lat="45.61533" lon="5.29277">
        <ele>279.6436</ele>
        <time>2014-09-28T10:08:53Z</time>
      </trkpt>
      <trkpt lat="45.6154" lon="5.29271">
        <ele>279.6436</ele>
        <time>2014-09-28T10:08:58Z</time>
      </trkpt>
      <trkpt lat="45.61543" lon="5.29265">
        <ele>281.08423</ele>
        <time>2014-09-28T10:09:03Z</time>
      </trkpt>
      <trkpt lat="45.61546" lon="5.29258">
        <ele>281.08423</ele>
        <time>2014-09-28T10:09:08Z</time>
      </trkpt>
      <trkpt lat="45.6155" lon="5.2925">
        <ele>282.48636</ele>
        <time>2014-09-28T10:09:13Z</time>
      </trkpt>
      <trkpt lat="45.61557" lon="5.29243">
        <ele>282.48636</ele>
        <time>2014-09-28T10:09:18Z</time>
      </trkpt>
      <trkpt lat="45.61562" lon="5.29234">
        <ele>283.8011</ele>
        <time>2014-09-28T10:09:23Z</time>
      </trkpt>
      <trkpt lat="45.61567" lon="5.29226">
        <ele>283.8011</ele>
        <time>2014-09-28T10:09:28Z</time>
      </trkpt>
      <trkpt lat="45.61572" lon="5.29218">
        <ele>285.0702</ele>
        <time>2014-09-28T10:09:33Z</time>
      </trkpt>
      <trkpt lat="45.61577" lon="5.2921">
        <ele>285.0702</ele>
        <time>2014-09-28T10:09:38Z</time>
      </trkpt>
      <trkpt lat="45.61584" lon="5.29203">
        <ele>286.2894</ele>
        <time>2014-09-28T10:09:43Z</time>
      </trkpt>
      <trkpt lat="45.61589" lon="5.29196">
        <ele>286.2894</ele>
        <time>2014-09-28T10:09:48Z</time>
      </trkpt>
      <trkpt lat="45.61596" lon="5.29189">
        <ele>287.4697</ele>
        <time>2014-09-28T10:09:53Z</time>
      </trkpt>
      <trkpt lat="45.61603" lon="5.29182">
        <ele>287.4697</ele>
        <time>2014-09-28T10:09:58Z</time>
      </trkpt>
      <trkpt lat="45.61607" lon="5.29176">
        <ele>288.65036</ele>
        <time>2014-09-28T10:10:03Z</time>
      </trkpt>
      <trkpt lat="45.61612" lon="5.29172">
        <ele>288.65036</ele>
        <time>2014-09-28T10:10:08Z</time>
      </trkpt>
      <trkpt lat="45.6162" lon="5.29167">
        <ele>289.8969</ele>
        <time>2014-09-28T10:10:13Z</time>
      </trkpt>
      <trkpt lat="45.61627" lon="5.29165">
        <ele>289.8969</ele>
        <time>2014-09-28T10:10:18Z</time>
      </trkpt>
      <trkpt lat="45.61634" lon="5.29162">
        <ele>291.054</ele>
        <time>2014-09-28T10:10:23Z</time>
      </trkpt>
      <trkpt lat="45.6164" lon="5.29159">
        <ele>291.054</ele>
        <time>2014-09-28T10:10:28Z</time>
      </trkpt>
      <trkpt lat="45.61645" lon="5.29154">
        <ele>292.06454</ele>
        <time>2014-09-28T10:10:33Z</time>
      </trkpt>
      <trkpt lat="45.61649" lon="5.29149">
        <ele>292.06454</ele>
        <time>2014-09-28T10:10:38Z</time>
      </trkpt>
      <trkpt lat="45.61656" lon="5.29138">
        <ele>292.96295</ele>
        <time>2014-09-28T10:10:43Z</time>
      </trkpt>
      <trkpt lat="45.61658" lon="5.29124">
        <ele>293.76712</ele>
        <time>2014-09-28T10:10:48Z</time>
      </trkpt>
      <trkpt lat="45.61661" lon="5.29112">
        <ele>293.76712</ele>
        <time>2014-09-28T10:10:53Z</time>
      </trkpt>
      <trkpt lat="45.61665" lon="5.29105">
        <ele>294.5087</ele>
        <time>2014-09-28T10:10:58Z</time>
      </trkpt>
      <trkpt lat="45.61666" lon="5.29096">
        <ele>294.5087</ele>
        <time>2014-09-28T10:11:03Z</time>
      </trkpt>
      <trkpt lat="45.61667" lon="5.29088">
        <ele>295.1308</ele>
        <time>2014-09-28T10:11:08Z</time>
      </trkpt>
      <trkpt lat="45.61667" lon="5.29078">
        <ele>295.1308</ele>
        <time>2014-09-28T10:11:13Z</time>
      </trkpt>
      <trkpt lat="45.61668" lon="5.29066">
        <ele>295.6679</ele>
        <time>2014-09-28T10:11:18Z</time>
      </trkpt>
      <trkpt lat="45.61668" lon="5.29057">
        <ele>295.6679</ele>
        <time>2014-09-28T10:11:23Z</time>
      </trkpt>
      <trkpt lat="45.61671" lon="5.29047">
        <ele>296.05148</ele>
        <time>2014-09-28T10:11:28Z</time>
      </trkpt>
      <trkpt lat="45.61672" lon="5.29037">
        <ele>296.05148</ele>
        <time>2014-09-28T10:11:33Z</time>
      </trkpt>
      <trkpt lat="45.61672" lon="5.29026">
        <ele>296.49246</ele>
        <time>2014-09-28T10:11:38Z</time>
      </trkpt>
      <trkpt lat="45.61672" lon="5.29016">
        <ele>296.49246</ele>
        <time>2014-09-28T10:11:43Z</time>
      </trkpt>
      <trkpt lat="45.61676" lon="5.29006">
        <ele>297.04227</ele>
        <time>2014-09-28T10:11:48Z</time>
      </trkpt>
      <trkpt lat="45.61678" lon="5.28999">
        <ele>297.04227</ele>
        <time>2014-09-28T10:11:53Z</time>
      </trkpt>
      <trkpt lat="45.61678" lon="5.28998">
        <ele>297.04227</ele>
        <time>2014-09-28T10:11:58Z</time>
      </trkpt>
      <trkpt lat="45.61682" lon="5.28994">
        <ele>297.76282</ele>
        <time>2014-09-28T10:12:03Z</time>
      </trkpt>
      <trkpt lat="45.61686" lon="5.28987">
        <ele>297.76282</ele>
        <time>2014-09-28T10:12:08Z</time>
      </trkpt>
      <trkpt lat="45.61694" lon="5.28974">
        <ele>298.39423</ele>
        <time>2014-09-28T10:12:13Z</time>
      </trkpt>
      <trkpt lat="45.61701" lon="5.28965">
        <ele>299.01306</ele>
        <time>2014-09-28T10:12:18Z</time>
      </trkpt>
      <trkpt lat="45.61706" lon="5.28961">
        <ele>299.01306</ele>
        <time>2014-09-28T10:12:23Z</time>
      </trkpt>
      <trkpt lat="45.6171" lon="5.28956">
        <ele>299.80588</ele>
        <time>2014-09-28T10:12:28Z</time>
      </trkpt>
      <trkpt lat="45.61716" lon="5.2895">
        <ele>299.80588</ele>
        <time>2014-09-28T10:12:33Z</time>
      </trkpt>
      <trkpt lat="45.61721" lon="5.28946">
        <ele>301.56476</ele>
        <time>2014-09-28T10:12:38Z</time>
      </trkpt>
      <trkpt lat="45.61728" lon="5.28942">
        <ele>301.56476</ele>
        <time>2014-09-28T10:12:43Z</time>
      </trkpt>
      <trkpt lat="45.61736" lon="5.28939">
        <ele>303.47922</ele>
        <time>2014-09-28T10:12:48Z</time>
      </trkpt>
      <trkpt lat="45.6174" lon="5.28937">
        <ele>303.47922</ele>
        <time>2014-09-28T10:12:53Z</time>
      </trkpt>
      <trkpt lat="45.6175" lon="5.28933">
        <ele>305.31668</ele>
        <time>2014-09-28T10:12:58Z</time>
      </trkpt>
      <trkpt lat="45.61758" lon="5.28931">
        <ele>305.31668</ele>
        <time>2014-09-28T10:13:03Z</time>
      </trkpt>
      <trkpt lat="45.61766" lon="5.28928">
        <ele>307.16483</ele>
        <time>2014-09-28T10:13:08Z</time>
      </trkpt>
      <trkpt lat="45.61774" lon="5.28923">
        <ele>307.16483</ele>
        <time>2014-09-28T10:13:13Z</time>
      </trkpt>
      <trkpt lat="45.61781" lon="5.28921">
        <ele>309.04724</ele>
        <time>2014-09-28T10:13:18Z</time>
      </trkpt>
      <trkpt lat="45.61788" lon="5.28917">
        <ele>309.04724</ele>
        <time>2014-09-28T10:13:23Z</time>
      </trkpt>
      <trkpt lat="45.61796" lon="5.28914">
        <ele>311.11563</ele>
        <time>2014-09-28T10:13:28Z</time>
      </trkpt>
      <trkpt lat="45.61804" lon="5.28913">
        <ele>311.11563</ele>
        <time>2014-09-28T10:13:33Z</time>
      </trkpt>
      <trkpt lat="45.61811" lon="5.28911">
        <ele>313.1643</ele>
        <time>2014-09-28T10:13:38Z</time>
      </trkpt>
      <trkpt lat="45.61819" lon="5.2891">
        <ele>313.1643</ele>
        <time>2014-09-28T10:13:43Z</time>
      </trkpt>
      <trkpt lat="45.61826" lon="5.2891">
        <ele>315.0606</ele>
        <time>2014-09-28T10:13:48Z</time>
      </trkpt>
      <trkpt lat="45.61832" lon="5.28911">
        <ele>315.0606</ele>
        <time>2014-09-28T10:13:53Z</time>
      </trkpt>
      <trkpt lat="45.61839" lon="5.2891">
        <ele>316.65335</ele>
        <time>2014-09-28T10:13:58Z</time>
      </trkpt>
      <trkpt lat="45.61845" lon="5.28908">
        <ele>316.65335</ele>
        <time>2014-09-28T10:14:03Z</time>
      </trkpt>
      <trkpt lat="45.61851" lon="5.28904">
        <ele>317.94754</ele>
        <time>2014-09-28T10:14:08Z</time>
      </trkpt>
      <trkpt lat="45.61857" lon="5.28898">
        <ele>317.94754</ele>
        <time>2014-09-28T10:14:13Z</time>
      </trkpt>
      <trkpt lat="45.61865" lon="5.28893">
        <ele>318.87683</ele>
        <time>2014-09-28T10:14:18Z</time>
      </trkpt>
      <trkpt lat="45.61871" lon="5.28887">
        <ele>318.87683</ele>
        <time>2014-09-28T10:14:23Z</time>
      </trkpt>
      <trkpt lat="45.61876" lon="5.28884">
        <ele>319.8997</ele>
        <time>2014-09-28T10:14:28Z</time>
      </trkpt>
      <trkpt lat="45.61881" lon="5.28882">
        <ele>319.8997</ele>
        <time>2014-09-28T10:14:33Z</time>
      </trkpt>
      <trkpt lat="45.61889" lon="5.28879">
        <ele>320.6338</ele>
        <time>2014-09-28T10:14:38Z</time>
      </trkpt>
      <trkpt lat="45.61896" lon="5.28879">
        <ele>320.6338</ele>
        <time>2014-09-28T10:14:43Z</time>
      </trkpt>
      <trkpt lat="45.61904" lon="5.28878">
        <ele>320.91318</ele>
        <time>2014-09-28T10:14:48Z</time>
      </trkpt>
      <trkpt lat="45.61912" lon="5.28879">
        <ele>320.91318</ele>
        <time>2014-09-28T10:14:53Z</time>
      </trkpt>
      <trkpt lat="45.61919" lon="5.28878">
        <ele>321.04663</ele>
        <time>2014-09-28T10:14:58Z</time>
      </trkpt>
      <trkpt lat="45.61927" lon="5.28878">
        <ele>321.04663</ele>
        <time>2014-09-28T10:15:03Z</time>
      </trkpt>
      <trkpt lat="45.61934" lon="5.28878">
        <ele>321.119</ele>
        <time>2014-09-28T10:15:08Z</time>
      </trkpt>
      <trkpt lat="45.6194" lon="5.28877">
        <ele>321.119</ele>
        <time>2014-09-28T10:15:13Z</time>
      </trkpt>
      <trkpt lat="45.61947" lon="5.28876">
        <ele>321.02185</ele>
        <time>2014-09-28T10:15:18Z</time>
      </trkpt>
      <trkpt lat="45.61954" lon="5.28872">
        <ele>321.02185</ele>
        <time>2014-09-28T10:15:23Z</time>
      </trkpt>
      <trkpt lat="45.61961" lon="5.28867">
        <ele>320.74173</ele>
        <time>2014-09-28T10:15:28Z</time>
      </trkpt>
      <trkpt lat="45.61966" lon="5.28861">
        <ele>320.74173</ele>
        <time>2014-09-28T10:15:33Z</time>
      </trkpt>
      <trkpt lat="45.61972" lon="5.28856">
        <ele>320.25238</ele>
        <time>2014-09-28T10:15:38Z</time>
      </trkpt>
      <trkpt lat="45.61978" lon="5.28851">
        <ele>320.25238</ele>
        <time>2014-09-28T10:15:43Z</time>
      </trkpt>
      <trkpt lat="45.61982" lon="5.28845">
        <ele>319.4868</ele>
        <time>2014-09-28T10:15:48Z</time>
      </trkpt>
      <trkpt lat="45.61985" lon="5.28839">
        <ele>319.4868</ele>
        <time>2014-09-28T10:15:53Z</time>
      </trkpt>
      <trkpt lat="45.61987" lon="5.28833">
        <ele>318.47018</ele>
        <time>2014-09-28T10:15:58Z</time>
      </trkpt>
      <trkpt lat="45.6199" lon="5.28826">
        <ele>318.47018</ele>
        <time>2014-09-28T10:16:03Z</time>
      </trkpt>
      <trkpt lat="45.61992" lon="5.2882">
        <ele>317.342</ele>
        <time>2014-09-28T10:16:08Z</time>
      </trkpt>
      <trkpt lat="45.61998" lon="5.28811">
        <ele>317.342</ele>
        <time>2014-09-28T10:16:13Z</time>
      </trkpt>
      <trkpt lat="45.62006" lon="5.28804">
        <ele>315.85703</ele>
        <time>2014-09-28T10:16:18Z</time>
      </trkpt>
      <trkpt lat="45.62009" lon="5.28802">
        <ele>315.85703</ele>
        <time>2014-09-28T10:16:23Z</time>
      </trkpt>
      <trkpt lat="45.62013" lon="5.28801">
        <ele>315.85703</ele>
        <time>2014-09-28T10:16:28Z</time>
      </trkpt>
      <trkpt lat="45.62019" lon="5.28804">
        <ele>314.2213</ele>
        <time>2014-09-28T10:16:33Z</time>
      </trkpt>
      <trkpt lat="45.62027" lon="5.2881">
        <ele>314.2213</ele>
        <time>2014-09-28T10:16:38Z</time>
      </trkpt>
      <trkpt lat="45.62035" lon="5.28814">
        <ele>312.338</ele>
        <time>2014-09-28T10:16:43Z</time>
      </trkpt>
      <trkpt lat="45.62043" lon="5.28818">
        <ele>312.338</ele>
        <time>2014-09-28T10:16:48Z</time>
      </trkpt>
      <trkpt lat="45.62058" lon="5.28822">
        <ele>310.40622</ele>
        <time>2014-09-28T10:16:53Z</time>
      </trkpt>
      <trkpt lat="45.62081" lon="5.28827">
        <ele>308.5384</ele>
        <time>2014-09-28T10:16:58Z</time>
      </trkpt>
      <trkpt lat="45.62093" lon="5.2883">
        <ele>306.76645</ele>
        <time>2014-09-28T10:17:03Z</time>
      </trkpt>
      <trkpt lat="45.62102" lon="5.28832">
        <ele>305.09073</ele>
        <time>2014-09-28T10:17:08Z</time>
      </trkpt>
      <trkpt lat="45.6211" lon="5.28835">
        <ele>305.09073</ele>
        <time>2014-09-28T10:17:13Z</time>
      </trkpt>
      <trkpt lat="45.6212" lon="5.28836">
        <ele>303.41025</ele>
        <time>2014-09-28T10:17:18Z</time>
      </trkpt>
      <trkpt lat="45.62127" lon="5.2884">
        <ele>303.41025</ele>
        <time>2014-09-28T10:17:23Z</time>
      </trkpt>
      <trkpt lat="45.62135" lon="5.28845">
        <ele>301.8043</ele>
        <time>2014-09-28T10:17:28Z</time>
      </trkpt>
      <trkpt lat="45.62142" lon="5.28851">
        <ele>301.8043</ele>
        <time>2014-09-28T10:17:33Z</time>
      </trkpt>
      <trkpt lat="45.62147" lon="5.28859">
        <ele>300.3748</ele>
        <time>2014-09-28T10:17:38Z</time>
      </trkpt>
      <trkpt lat="45.62152" lon="5.28866">
        <ele>300.3748</ele>
        <time>2014-09-28T10:17:43Z</time>
      </trkpt>
      <trkpt lat="45.62156" lon="5.28874">
        <ele>299.05698</ele>
        <time>2014-09-28T10:17:48Z</time>
      </trkpt>
      <trkpt lat="45.6216" lon="5.2888">
        <ele>299.05698</ele>
        <time>2014-09-28T10:17:53Z</time>
      </trkpt>
      <trkpt lat="45.62164" lon="5.28888">
        <ele>297.92007</ele>
        <time>2014-09-28T10:17:58Z</time>
      </trkpt>
      <trkpt lat="45.62166" lon="5.28899">
        <ele>297.92007</ele>
        <time>2014-09-28T10:18:03Z</time>
      </trkpt>
      <trkpt lat="45.6217" lon="5.28904">
        <ele>296.95557</ele>
        <time>2014-09-28T10:18:08Z</time>
      </trkpt>
      <trkpt lat="45.62176" lon="5.28912">
        <ele>296.95557</ele>
        <time>2014-09-28T10:18:13Z</time>
      </trkpt>
      <trkpt lat="45.6218" lon="5.2892">
        <ele>296.31332</ele>
        <time>2014-09-28T10:18:18Z</time>
      </trkpt>
      <trkpt lat="45.62183" lon="5.28926">
        <ele>296.31332</ele>
        <time>2014-09-28T10:18:23Z</time>
      </trkpt>
      <trkpt lat="45.62184" lon="5.28933">
        <ele>295.69888</ele>
        <time>2014-09-28T10:18:28Z</time>
      </trkpt>
      <trkpt lat="45.62185" lon="5.2894">
        <ele>295.69888</ele>
        <time>2014-09-28T10:18:33Z</time>
      </trkpt>
      <trkpt lat="45.62189" lon="5.2895">
        <ele>295.04092</ele>
        <time>2014-09-28T10:18:38Z</time>
      </trkpt>
      <trkpt lat="45.62198" lon="5.28962">
        <ele>293.75446</ele>
        <time>2014-09-28T10:18:43Z</time>
      </trkpt>
      <trkpt lat="45.62205" lon="5.28971">
        <ele>292.26468</ele>
        <time>2014-09-28T10:18:48Z</time>
      </trkpt>
      <trkpt lat="45.6221" lon="5.2898">
        <ele>292.26468</ele>
        <time>2014-09-28T10:18:53Z</time>
      </trkpt>
      <trkpt lat="45.62215" lon="5.28986">
        <ele>290.69217</ele>
        <time>2014-09-28T10:18:58Z</time>
      </trkpt>
      <trkpt lat="45.62216" lon="5.28995">
        <ele>290.69217</ele>
        <time>2014-09-28T10:19:03Z</time>
      </trkpt>
      <trkpt lat="45.62218" lon="5.29004">
        <ele>289.6098</ele>
        <time>2014-09-28T10:19:08Z</time>
      </trkpt>
      <trkpt lat="45.62221" lon="5.29012">
        <ele>289.6098</ele>
        <time>2014-09-28T10:19:13Z</time>
      </trkpt>
      <trkpt lat="45.62222" lon="5.29024">
        <ele>288.69666</ele>
        <time>2014-09-28T10:19:18Z</time>
      </trkpt>
      <trkpt lat="45.62221" lon="5.29034">
        <ele>288.69666</ele>
        <time>2014-09-28T10:19:23Z</time>
      </trkpt>
      <trkpt lat="45.6222" lon="5.29044">
        <ele>288.1591</ele>
        <time>2014-09-28T10:19:28Z</time>
      </trkpt>
      <trkpt lat="45.62222" lon="5.29053">
        <ele>288.1591</ele>
        <time>2014-09-28T10:19:33Z</time>
      </trkpt>
      <trkpt lat="45.62225" lon="5.29062">
        <ele>287.79803</ele>
        <time>2014-09-28T10:19:38Z</time>
      </trkpt>
      <trkpt lat="45.62224" lon="5.29071">
        <ele>287.79803</ele>
        <time>2014-09-28T10:19:43Z</time>
      </trkpt>
      <trkpt lat="45.62224" lon="5.29082">
        <ele>287.57248</ele>
        <time>2014-09-28T10:19:48Z</time>
      </trkpt>
      <trkpt lat="45.62222" lon="5.29094">
        <ele>287.48718</ele>
        <time>2014-09-28T10:19:53Z</time>
      </trkpt>
      <trkpt lat="45.62224" lon="5.29105">
        <ele>287.48718</ele>
        <time>2014-09-28T10:19:58Z</time>
      </trkpt>
      <trkpt lat="45.62224" lon="5.29114">
        <ele>287.51715</ele>
        <time>2014-09-28T10:20:03Z</time>
      </trkpt>
      <trkpt lat="45.62227" lon="5.29121">
        <ele>287.51715</ele>
        <time>2014-09-28T10:20:08Z</time>
      </trkpt>
      <trkpt lat="45.62237" lon="5.29131">
        <ele>287.00476</ele>
        <time>2014-09-28T10:20:13Z</time>
      </trkpt>
      <trkpt lat="45.62239" lon="5.29141">
        <ele>287.00476</ele>
        <time>2014-09-28T10:20:18Z</time>
      </trkpt>
      <trkpt lat="45.62241" lon="5.2915">
        <ele>286.50937</ele>
        <time>2014-09-28T10:20:23Z</time>
      </trkpt>
      <trkpt lat="45.62242" lon="5.29161">
        <ele>286.50937</ele>
        <time>2014-09-28T10:20:28Z</time>
      </trkpt>
      <trkpt lat="45.62243" lon="5.29171">
        <ele>286.0159</ele>
        <time>2014-09-28T10:20:33Z</time>
      </trkpt>
      <trkpt lat="45.62243" lon="5.29181">
        <ele>286.0159</ele>
        <time>2014-09-28T10:20:38Z</time>
      </trkpt>
      <trkpt lat="45.62248" lon="5.29194">
        <ele>284.58795</ele>
        <time>2014-09-28T10:20:43Z</time>
      </trkpt>
      <trkpt lat="45.62253" lon="5.29205">
        <ele>284.58795</ele>
        <time>2014-09-28T10:20:48Z</time>
      </trkpt>
      <trkpt lat="45.62254" lon="5.29214">
        <ele>282.88803</ele>
        <time>2014-09-28T10:20:53Z</time>
      </trkpt>
      <trkpt lat="45.62254" lon="5.29223">
        <ele>282.88803</ele>
        <time>2014-09-28T10:20:58Z</time>
      </trkpt>
      <trkpt lat="45.62255" lon="5.29232">
        <ele>281.57388</ele>
        <time>2014-09-28T10:21:03Z</time>
      </trkpt>
      <trkpt lat="45.62255" lon="5.29241">
        <ele>281.57388</ele>
        <time>2014-09-28T10:21:08Z</time>
      </trkpt>
      <trkpt lat="45.6226" lon="5.29253">
        <ele>279.95673</ele>
        <time>2014-09-28T10:21:13Z</time>
      </trkpt>
      <trkpt lat="45.62262" lon="5.29261">
        <ele>279.95673</ele>
        <time>2014-09-28T10:21:18Z</time>
      </trkpt>
      <trkpt lat="45.62264" lon="5.29269">
        <ele>278.37915</ele>
        <time>2014-09-28T10:21:23Z</time>
      </trkpt>
      <trkpt lat="45.62265" lon="5.29278">
        <ele>278.37915</ele>
        <time>2014-09-28T10:21:28Z</time>
      </trkpt>
      <trkpt lat="45.62265" lon="5.29288">
        <ele>276.99976</ele>
        <time>2014-09-28T10:21:33Z</time>
      </trkpt>
      <trkpt lat="45.62264" lon="5.29296">
        <ele>276.99976</ele>
        <time>2014-09-28T10:21:38Z</time>
      </trkpt>
      <trkpt lat="45.62269" lon="5.29314">
        <ele>275.05707</ele>
        <time>2014-09-28T10:21:43Z</time>
      </trkpt>
      <trkpt lat="45.62274" lon="5.29327">
        <ele>272.75476</ele>
        <time>2014-09-28T10:21:48Z</time>
      </trkpt>
      <trkpt lat="45.62278" lon="5.29337">
        <ele>272.75476</ele>
        <time>2014-09-28T10:21:53Z</time>
      </trkpt>
      <trkpt lat="45.6228" lon="5.29346">
        <ele>270.46994</ele>
        <time>2014-09-28T10:21:58Z</time>
      </trkpt>
      <trkpt lat="45.62276" lon="5.29353">
        <ele>270.46994</ele>
        <time>2014-09-28T10:22:03Z</time>
      </trkpt>
      <trkpt lat="45.62271" lon="5.29362">
        <ele>268.60944</ele>
        <time>2014-09-28T10:22:08Z</time>
      </trkpt>
      <trkpt lat="45.62268" lon="5.2937">
        <ele>268.60944</ele>
        <time>2014-09-28T10:22:13Z</time>
      </trkpt>
      <trkpt lat="45.62267" lon="5.29377">
        <ele>266.98682</ele>
        <time>2014-09-28T10:22:18Z</time>
      </trkpt>
      <trkpt lat="45.62267" lon="5.29385">
        <ele>266.98682</ele>
        <time>2014-09-28T10:22:23Z</time>
      </trkpt>
      <trkpt lat="45.62266" lon="5.29396">
        <ele>265.7745</ele>
        <time>2014-09-28T10:22:28Z</time>
      </trkpt>
      <trkpt lat="45.62267" lon="5.29406">
        <ele>265.7745</ele>
        <time>2014-09-28T10:22:33Z</time>
      </trkpt>
      <trkpt lat="45.62267" lon="5.29415">
        <ele>264.78506</ele>
        <time>2014-09-28T10:22:38Z</time>
      </trkpt>
      <trkpt lat="45.62271" lon="5.29424">
        <ele>264.78506</ele>
        <time>2014-09-28T10:22:43Z</time>
      </trkpt>
      <trkpt lat="45.62274" lon="5.29429">
        <ele>263.98825</ele>
        <time>2014-09-28T10:22:48Z</time>
      </trkpt>
      <trkpt lat="45.62279" lon="5.29435">
        <ele>263.98825</ele>
        <time>2014-09-28T10:22:53Z</time>
      </trkpt>
      <trkpt lat="45.62284" lon="5.2944">
        <ele>263.31216</ele>
        <time>2014-09-28T10:22:58Z</time>
      </trkpt>
      <trkpt lat="45.6229" lon="5.29444">
        <ele>263.31216</ele>
        <time>2014-09-28T10:23:03Z</time>
      </trkpt>
      <trkpt lat="45.62294" lon="5.29447">
        <ele>262.84827</ele>
        <time>2014-09-28T10:23:08Z</time>
      </trkpt>
      <trkpt lat="45.62304" lon="5.29453">
        <ele>262.4644</ele>
        <time>2014-09-28T10:23:13Z</time>
      </trkpt>
      <trkpt lat="45.62311" lon="5.29458">
        <ele>262.4644</ele>
        <time>2014-09-28T10:23:18Z</time>
      </trkpt>
      <trkpt lat="45.62316" lon="5.29461">
        <ele>262.09552</ele>
        <time>2014-09-28T10:23:23Z</time>
      </trkpt>
      <trkpt lat="45.62327" lon="5.29464">
        <ele>260.87424</ele>
        <time>2014-09-28T10:23:28Z</time>
      </trkpt>
      <trkpt lat="45.62333" lon="5.29467">
        <ele>260.87424</ele>
        <time>2014-09-28T10:23:33Z</time>
      </trkpt>
      <trkpt lat="45.6234" lon="5.2947">
        <ele>259.0656</ele>
        <time>2014-09-28T10:23:38Z</time>
      </trkpt>
      <trkpt lat="45.62349" lon="5.29473">
        <ele>259.0656</ele>
        <time>2014-09-28T10:23:43Z</time>
      </trkpt>
      <trkpt lat="45.62351" lon="5.2948">
        <ele>256.35474</ele>
        <time>2014-09-28T10:23:48Z</time>
      </trkpt>
      <trkpt lat="45.62351" lon="5.29489">
        <ele>256.35474</ele>
        <time>2014-09-28T10:23:53Z</time>
      </trkpt>
      <trkpt lat="45.62352" lon="5.29498">
        <ele>253.80707</ele>
        <time>2014-09-28T10:23:58Z</time>
      </trkpt>
      <trkpt lat="45.62352" lon="5.29509">
        <ele>253.80707</ele>
        <time>2014-09-28T10:24:03Z</time>
      </trkpt>
      <trkpt lat="45.62353" lon="5.29519">
        <ele>251.4292</ele>
        <time>2014-09-28T10:24:08Z</time>
      </trkpt>
      <trkpt lat="45.62353" lon="5.29534">
        <ele>249.025</ele>
        <time>2014-09-28T10:24:13Z</time>
      </trkpt>
      <trkpt lat="45.62354" lon="5.29547">
        <ele>246.72975</ele>
        <time>2014-09-28T10:24:18Z</time>
      </trkpt>
      <trkpt lat="45.62356" lon="5.29559">
        <ele>246.72975</ele>
        <time>2014-09-28T10:24:23Z</time>
      </trkpt>
      <trkpt lat="45.62357" lon="5.29571">
        <ele>244.582</ele>
        <time>2014-09-28T10:24:28Z</time>
      </trkpt>
      <trkpt lat="45.62359" lon="5.29583">
        <ele>244.582</ele>
        <time>2014-09-28T10:24:33Z</time>
      </trkpt>
      <trkpt lat="45.6236" lon="5.29594">
        <ele>242.60248</ele>
        <time>2014-09-28T10:24:38Z</time>
      </trkpt>
      <trkpt lat="45.62361" lon="5.29602">
        <ele>242.60248</ele>
        <time>2014-09-28T10:24:43Z</time>
      </trkpt>
      <trkpt lat="45.62362" lon="5.29611">
        <ele>240.78105</ele>
        <time>2014-09-28T10:24:48Z</time>
      </trkpt>
      <trkpt lat="45.62362" lon="5.2962">
        <ele>240.78105</ele>
        <time>2014-09-28T10:24:53Z</time>
      </trkpt>
      <trkpt lat="45.62361" lon="5.29633">
        <ele>239.0934</ele>
        <time>2014-09-28T10:24:58Z</time>
      </trkpt>
      <trkpt lat="45.62362" lon="5.29644">
        <ele>239.0934</ele>
        <time>2014-09-28T10:25:03Z</time>
      </trkpt>
      <trkpt lat="45.62363" lon="5.29655">
        <ele>237.40118</ele>
        <time>2014-09-28T10:25:08Z</time>
      </trkpt>
      <trkpt lat="45.62363" lon="5.29666">
        <ele>237.40118</ele>
        <time>2014-09-28T10:25:13Z</time>
      </trkpt>
      <trkpt lat="45.62363" lon="5.29677">
        <ele>236.08061</ele>
        <time>2014-09-28T10:25:18Z</time>
      </trkpt>
      <trkpt lat="45.62364" lon="5.29687">
        <ele>236.08061</ele>
        <time>2014-09-28T10:25:23Z</time>
      </trkpt>
      <trkpt lat="45.62365" lon="5.29697">
        <ele>234.80176</ele>
        <time>2014-09-28T10:25:28Z</time>
      </trkpt>
      <trkpt lat="45.62368" lon="5.29707">
        <ele>234.80176</ele>
        <time>2014-09-28T10:25:33Z</time>
      </trkpt>
      <trkpt lat="45.6237" lon="5.29718">
        <ele>233.76315</ele>
        <time>2014-09-28T10:25:38Z</time>
      </trkpt>
      <trkpt lat="45.62373" lon="5.29732">
        <ele>232.93184</ele>
        <time>2014-09-28T10:25:43Z</time>
      </trkpt>
      <trkpt lat="45.62373" lon="5.29745">
        <ele>232.19016</ele>
        <time>2014-09-28T10:25:48Z</time>
      </trkpt>
      <trkpt lat="45.62373" lon="5.29757">
        <ele>232.19016</ele>
        <time>2014-09-28T10:25:53Z</time>
      </trkpt>
      <trkpt lat="45.62376" lon="5.29769">
        <ele>231.74585</ele>
        <time>2014-09-28T10:25:58Z</time>
      </trkpt>
      <trkpt lat="45.62377" lon="5.29782">
        <ele>231.5311</ele>
        <time>2014-09-28T10:26:03Z</time>
      </trkpt>
      <trkpt lat="45.62378" lon="5.29793">
        <ele>231.5311</ele>
        <time>2014-09-28T10:26:08Z</time>
      </trkpt>
      <trkpt lat="45.62379" lon="5.29803">
        <ele>231.5689</ele>
        <time>2014-09-28T10:26:13Z</time>
      </trkpt>
      <trkpt lat="45.6238" lon="5.29815">
        <ele>231.5689</ele>
        <time>2014-09-28T10:26:18Z</time>
      </trkpt>
      <trkpt lat="45.6238" lon="5.29826">
        <ele>231.75009</ele>
        <time>2014-09-28T10:26:23Z</time>
      </trkpt>
      <trkpt lat="45.62382" lon="5.29836">
        <ele>231.75009</ele>
        <time>2014-09-28T10:26:28Z</time>
      </trkpt>
      <trkpt lat="45.62383" lon="5.29848">
        <ele>232.01637</ele>
        <time>2014-09-28T10:26:33Z</time>
      </trkpt>
      <trkpt lat="45.62384" lon="5.29859">
        <ele>232.01637</ele>
        <time>2014-09-28T10:26:38Z</time>
      </trkpt>
      <trkpt lat="45.62383" lon="5.29862">
        <ele>232.37115</ele>
        <time>2014-09-28T10:26:43Z</time>
      </trkpt>
      <trkpt lat="45.62383" lon="5.29862">
        <ele>232.37115</ele>
        <time>2014-09-28T10:26:48Z</time>
      </trkpt>
      <trkpt lat="45.62384" lon="5.29866">
        <ele>232.37115</ele>
        <time>2014-09-28T10:26:58Z</time>
      </trkpt>
      <trkpt lat="45.62385" lon="5.29871">
        <ele>232.37115</ele>
        <time>2014-09-28T10:27:03Z</time>
      </trkpt>
      <trkpt lat="45.62386" lon="5.29879">
        <ele>232.78856</ele>
        <time>2014-09-28T10:27:08Z</time>
      </trkpt>
      <trkpt lat="45.62387" lon="5.29891">
        <ele>232.78856</ele>
        <time>2014-09-28T10:27:13Z</time>
      </trkpt>
      <trkpt lat="45.62389" lon="5.29902">
        <ele>233.3597</ele>
        <time>2014-09-28T10:27:18Z</time>
      </trkpt>
      <trkpt lat="45.62391" lon="5.29912">
        <ele>233.3597</ele>
        <time>2014-09-28T10:27:23Z</time>
      </trkpt>
      <trkpt lat="45.62394" lon="5.29922">
        <ele>233.83723</ele>
        <time>2014-09-28T10:27:28Z</time>
      </trkpt>
      <trkpt lat="45.62398" lon="5.29931">
        <ele>233.83723</ele>
        <time>2014-09-28T10:27:33Z</time>
      </trkpt>
      <trkpt lat="45.62402" lon="5.29943">
        <ele>234.03549</ele>
        <time>2014-09-28T10:27:38Z</time>
      </trkpt>
      <trkpt lat="45.62403" lon="5.29955">
        <ele>234.03549</ele>
        <time>2014-09-28T10:27:43Z</time>
      </trkpt>
      <trkpt lat="45.62405" lon="5.29967">
        <ele>233.79773</ele>
        <time>2014-09-28T10:27:48Z</time>
      </trkpt>
      <trkpt lat="45.62407" lon="5.29979">
        <ele>233.79773</ele>
        <time>2014-09-28T10:27:53Z</time>
      </trkpt>
      <trkpt lat="45.62408" lon="5.29991">
        <ele>233.4412</ele>
        <time>2014-09-28T10:27:58Z</time>
      </trkpt>
      <trkpt lat="45.6241" lon="5.30003">
        <ele>233.4412</ele>
        <time>2014-09-28T10:28:03Z</time>
      </trkpt>
      <trkpt lat="45.62412" lon="5.30013">
        <ele>233.0152</ele>
        <time>2014-09-28T10:28:08Z</time>
      </trkpt>
      <trkpt lat="45.62413" lon="5.30024">
        <ele>233.0152</ele>
        <time>2014-09-28T10:28:13Z</time>
      </trkpt>
      <trkpt lat="45.62413" lon="5.30035">
        <ele>232.65224</ele>
        <time>2014-09-28T10:28:18Z</time>
      </trkpt>
      <trkpt lat="45.62414" lon="5.30046">
        <ele>232.65224</ele>
        <time>2014-09-28T10:28:23Z</time>
      </trkpt>
      <trkpt lat="45.62416" lon="5.30056">
        <ele>232.22997</ele>
        <time>2014-09-28T10:28:28Z</time>
      </trkpt>
      <trkpt lat="45.62422" lon="5.30059">
        <ele>232.22997</ele>
        <time>2014-09-28T10:28:33Z</time>
      </trkpt>
      <trkpt lat="45.62426" lon="5.30057">
        <ele>231.6929</ele>
        <time>2014-09-28T10:28:38Z</time>
      </trkpt>
      <trkpt lat="45.62426" lon="5.30054">
        <ele>231.6929</ele>
        <time>2014-09-28T10:28:43Z</time>
      </trkpt>
      <trkpt lat="45.62429" lon="5.30053">
        <ele>231.6929</ele>
        <time>2014-09-28T10:28:48Z</time>
      </trkpt>
      <trkpt lat="45.62433" lon="5.30052">
        <ele>231.6929</ele>
        <time>2014-09-28T10:28:53Z</time>
      </trkpt>
      <trkpt lat="45.62438" lon="5.30049">
        <ele>230.96127</ele>
        <time>2014-09-28T10:28:58Z</time>
      </trkpt>
      <trkpt lat="45.62447" lon="5.30045">
        <ele>230.10588</ele>
        <time>2014-09-28T10:29:03Z</time>
      </trkpt>
      <trkpt lat="45.62456" lon="5.30045">
        <ele>229.32245</ele>
        <time>2014-09-28T10:29:08Z</time>
      </trkpt>
      <trkpt lat="45.62466" lon="5.30045">
        <ele>228.76338</ele>
        <time>2014-09-28T10:29:13Z</time>
      </trkpt>
      <trkpt lat="45.62478" lon="5.30042">
        <ele>228.19467</ele>
        <time>2014-09-28T10:29:18Z</time>
      </trkpt>
      <trkpt lat="45.62486" lon="5.30041">
        <ele>228.19467</ele>
        <time>2014-09-28T10:29:23Z</time>
      </trkpt>
      <trkpt lat="45.62494" lon="5.3004">
        <ele>227.45718</ele>
        <time>2014-09-28T10:29:28Z</time>
      </trkpt>
      <trkpt lat="45.62502" lon="5.30041">
        <ele>227.45718</ele>
        <time>2014-09-28T10:29:33Z</time>
      </trkpt>
      <trkpt lat="45.62504" lon="5.30041">
        <ele>226.7932</ele>
        <time>2014-09-28T10:29:38Z</time>
      </trkpt>
      <trkpt lat="45.62507" lon="5.30041">
        <ele>226.7932</ele>
        <time>2014-09-28T10:29:48Z</time>
      </trkpt>
      <trkpt lat="45.62511" lon="5.30048">
        <ele>226.7932</ele>
        <time>2014-09-28T10:29:53Z</time>
      </trkpt>
      <trkpt lat="45.62512" lon="5.30055">
        <ele>226.09554</ele>
        <time>2014-09-28T10:29:58Z</time>
      </trkpt>
      <trkpt lat="45.62514" lon="5.30065">
        <ele>226.09554</ele>
        <time>2014-09-28T10:30:03Z</time>
      </trkpt>
      <trkpt lat="45.62517" lon="5.30077">
        <ele>225.35155</ele>
        <time>2014-09-28T10:30:08Z</time>
      </trkpt>
      <trkpt lat="45.62519" lon="5.30088">
        <ele>225.35155</ele>
        <time>2014-09-28T10:30:13Z</time>
      </trkpt>
      <trkpt lat="45.62522" lon="5.30099">
        <ele>224.49207</ele>
        <time>2014-09-28T10:30:18Z</time>
      </trkpt>
      <trkpt lat="45.62524" lon="5.30111">
        <ele>224.49207</ele>
        <time>2014-09-28T10:30:23Z</time>
      </trkpt>
      <trkpt lat="45.62528" lon="5.30122">
        <ele>223.55426</ele>
        <time>2014-09-28T10:30:28Z</time>
      </trkpt>
      <trkpt lat="45.62531" lon="5.30132">
        <ele>223.55426</ele>
        <time>2014-09-28T10:30:33Z</time>
      </trkpt>
      <trkpt lat="45.62534" lon="5.30143">
        <ele>222.70253</ele>
        <time>2014-09-28T10:30:38Z</time>
      </trkpt>
      <trkpt lat="45.62537" lon="5.30154">
        <ele>222.70253</ele>
        <time>2014-09-28T10:30:43Z</time>
      </trkpt>
      <trkpt lat="45.6254" lon="5.30164">
        <ele>221.90169</ele>
        <time>2014-09-28T10:30:48Z</time>
      </trkpt>
      <trkpt lat="45.62542" lon="5.30176">
        <ele>221.4793</ele>
        <time>2014-09-28T10:30:53Z</time>
      </trkpt>
      <trkpt lat="45.62544" lon="5.30188">
        <ele>221.4793</ele>
        <time>2014-09-28T10:30:58Z</time>
      </trkpt>
      <trkpt lat="45.62547" lon="5.30199">
        <ele>221.27667</ele>
        <time>2014-09-28T10:31:03Z</time>
      </trkpt>
      <trkpt lat="45.62551" lon="5.30209">
        <ele>221.27667</ele>
        <time>2014-09-28T10:31:08Z</time>
      </trkpt>
      <trkpt lat="45.62553" lon="5.30219">
        <ele>221.08862</ele>
        <time>2014-09-28T10:31:13Z</time>
      </trkpt>
      <trkpt lat="45.62556" lon="5.30229">
        <ele>221.08862</ele>
        <time>2014-09-28T10:31:18Z</time>
      </trkpt>
      <trkpt lat="45.62559" lon="5.30239">
        <ele>220.89792</ele>
        <time>2014-09-28T10:31:23Z</time>
      </trkpt>
      <trkpt lat="45.62562" lon="5.3025">
        <ele>220.89792</ele>
        <time>2014-09-28T10:31:28Z</time>
      </trkpt>
      <trkpt lat="45.62565" lon="5.30261">
        <ele>220.68866</ele>
        <time>2014-09-28T10:31:33Z</time>
      </trkpt>
      <trkpt lat="45.62568" lon="5.30272">
        <ele>220.68866</ele>
        <time>2014-09-28T10:31:38Z</time>
      </trkpt>
      <trkpt lat="45.6257" lon="5.30284">
        <ele>220.37419</ele>
        <time>2014-09-28T10:31:43Z</time>
      </trkpt>
      <trkpt lat="45.62572" lon="5.30295">
        <ele>220.37419</ele>
        <time>2014-09-28T10:31:48Z</time>
      </trkpt>
      <trkpt lat="45.62574" lon="5.30306">
        <ele>220.1195</ele>
        <time>2014-09-28T10:31:53Z</time>
      </trkpt>
      <trkpt lat="45.62576" lon="5.30317">
        <ele>220.1195</ele>
        <time>2014-09-28T10:31:58Z</time>
      </trkpt>
      <trkpt lat="45.62579" lon="5.30327">
        <ele>219.89006</ele>
        <time>2014-09-28T10:32:03Z</time>
      </trkpt>
      <trkpt lat="45.62583" lon="5.30337">
        <ele>219.89006</ele>
        <time>2014-09-28T10:32:08Z</time>
      </trkpt>
      <trkpt lat="45.62589" lon="5.30343">
        <ele>219.84116</ele>
        <time>2014-09-28T10:32:13Z</time>
      </trkpt>
      <trkpt lat="45.62597" lon="5.30345">
        <ele>219.84116</ele>
        <time>2014-09-28T10:32:18Z</time>
      </trkpt>
      <trkpt lat="45.62605" lon="5.30346">
        <ele>219.92888</ele>
        <time>2014-09-28T10:32:23Z</time>
      </trkpt>
      <trkpt lat="45.6261" lon="5.30347">
        <ele>219.92888</ele>
        <time>2014-09-28T10:32:28Z</time>
      </trkpt>
      <trkpt lat="45.62614" lon="5.30347">
        <ele>220.05458</ele>
        <time>2014-09-28T10:32:33Z</time>
      </trkpt>
      <trkpt lat="45.62622" lon="5.30348">
        <ele>220.05458</ele>
        <time>2014-09-28T10:32:38Z</time>
      </trkpt>
      <trkpt lat="45.62627" lon="5.30353">
        <ele>220.32855</ele>
        <time>2014-09-28T10:32:43Z</time>
      </trkpt>
      <trkpt lat="45.62635" lon="5.30358">
        <ele>220.32855</ele>
        <time>2014-09-28T10:32:48Z</time>
      </trkpt>
      <trkpt lat="45.6264" lon="5.30363">
        <ele>220.65086</ele>
        <time>2014-09-28T10:32:53Z</time>
      </trkpt>
      <trkpt lat="45.62644" lon="5.30362">
        <ele>220.65086</ele>
        <time>2014-09-28T10:32:58Z</time>
      </trkpt>
      <trkpt lat="45.62645" lon="5.30362">
        <ele>220.65086</ele>
        <time>2014-09-28T10:33:03Z</time>
      </trkpt>
      <trkpt lat="45.62647" lon="5.30363">
        <ele>220.65086</ele>
        <time>2014-09-28T10:33:08Z</time>
      </trkpt>
      <trkpt lat="45.6265" lon="5.30362">
        <ele>221.4621</ele>
        <time>2014-09-28T10:33:18Z</time>
      </trkpt>
      <trkpt lat="45.62656" lon="5.30363">
        <ele>221.4621</ele>
        <time>2014-09-28T10:33:23Z</time>
      </trkpt>
      <trkpt lat="45.62657" lon="5.30364">
        <ele>221.4621</ele>
        <time>2014-09-28T10:33:28Z</time>
      </trkpt>
      <trkpt lat="45.62658" lon="5.30367">
        <ele>222.16032</ele>
        <time>2014-09-28T10:33:33Z</time>
      </trkpt>
      <trkpt lat="45.6266" lon="5.30367">
        <ele>222.16032</ele>
        <time>2014-09-28T10:33:38Z</time>
      </trkpt>
      <trkpt lat="45.62661" lon="5.30365">
        <ele>222.16032</ele>
        <time>2014-09-28T10:33:43Z</time>
      </trkpt>
      <trkpt lat="45.62663" lon="5.30366">
        <ele>222.16032</ele>
        <time>2014-09-28T10:33:48Z</time>
      </trkpt>
      <trkpt lat="45.62669" lon="5.3037">
        <ele>222.83679</ele>
        <time>2014-09-28T10:33:53Z</time>
      </trkpt>
      <trkpt lat="45.62673" lon="5.30376">
        <ele>222.83679</ele>
        <time>2014-09-28T10:33:58Z</time>
      </trkpt>
      <trkpt lat="45.62676" lon="5.30383">
        <ele>223.43202</ele>
        <time>2014-09-28T10:34:03Z</time>
      </trkpt>
      <trkpt lat="45.62682" lon="5.30391">
        <ele>223.43202</ele>
        <time>2014-09-28T10:34:08Z</time>
      </trkpt>
      <trkpt lat="45.62688" lon="5.30399">
        <ele>223.67508</ele>
        <time>2014-09-28T10:34:13Z</time>
      </trkpt>
      <trkpt lat="45.62691" lon="5.30407">
        <ele>223.67508</ele>
        <time>2014-09-28T10:34:18Z</time>
      </trkpt>
      <trkpt lat="45.62695" lon="5.30416">
        <ele>224.13739</ele>
        <time>2014-09-28T10:34:23Z</time>
      </trkpt>
      <trkpt lat="45.62697" lon="5.30425">
        <ele>224.13739</ele>
        <time>2014-09-28T10:34:28Z</time>
      </trkpt>
      <trkpt lat="45.62698" lon="5.30435">
        <ele>224.59853</ele>
        <time>2014-09-28T10:34:33Z</time>
      </trkpt>
      <trkpt lat="45.62699" lon="5.30447">
        <ele>224.59853</ele>
        <time>2014-09-28T10:34:38Z</time>
      </trkpt>
      <trkpt lat="45.62698" lon="5.30458">
        <ele>225.09935</ele>
        <time>2014-09-28T10:34:43Z</time>
      </trkpt>
      <trkpt lat="45.62698" lon="5.3047">
        <ele>225.09935</ele>
        <time>2014-09-28T10:34:48Z</time>
      </trkpt>
      <trkpt lat="45.62698" lon="5.30482">
        <ele>225.70648</ele>
        <time>2014-09-28T10:34:53Z</time>
      </trkpt>
      <trkpt lat="45.627" lon="5.30493">
        <ele>225.70648</ele>
        <time>2014-09-28T10:34:58Z</time>
      </trkpt>
      <trkpt lat="45.62705" lon="5.30501">
        <ele>226.12115</ele>
        <time>2014-09-28T10:35:03Z</time>
      </trkpt>
      <trkpt lat="45.62711" lon="5.30508">
        <ele>226.12115</ele>
        <time>2014-09-28T10:35:08Z</time>
      </trkpt>
      <trkpt lat="45.62718" lon="5.30512">
        <ele>226.22575</ele>
        <time>2014-09-28T10:35:13Z</time>
      </trkpt>
      <trkpt lat="45.62725" lon="5.30516">
        <ele>226.22575</ele>
        <time>2014-09-28T10:35:18Z</time>
      </trkpt>
      <trkpt lat="45.62732" lon="5.30519">
        <ele>226.24365</ele>
        <time>2014-09-28T10:35:23Z</time>
      </trkpt>
      <trkpt lat="45.62739" lon="5.30521">
        <ele>226.24365</ele>
        <time>2014-09-28T10:35:28Z</time>
      </trkpt>
      <trkpt lat="45.62746" lon="5.30526">
        <ele>226.4398</ele>
        <time>2014-09-28T10:35:33Z</time>
      </trkpt>
      <trkpt lat="45.62754" lon="5.30529">
        <ele>226.4398</ele>
        <time>2014-09-28T10:35:38Z</time>
      </trkpt>
      <trkpt lat="45.62762" lon="5.30532">
        <ele>226.69905</ele>
        <time>2014-09-28T10:35:43Z</time>
      </trkpt>
      <trkpt lat="45.62769" lon="5.30536">
        <ele>226.69905</ele>
        <time>2014-09-28T10:35:48Z</time>
      </trkpt>
      <trkpt lat="45.62777" lon="5.30539">
        <ele>226.92892</ele>
        <time>2014-09-28T10:35:53Z</time>
      </trkpt>
      <trkpt lat="45.62785" lon="5.30542">
        <ele>226.92892</ele>
        <time>2014-09-28T10:35:58Z</time>
      </trkpt>
      <trkpt lat="45.62792" lon="5.3055">
        <ele>227.18811</ele>
        <time>2014-09-28T10:36:03Z</time>
      </trkpt>
      <trkpt lat="45.62799" lon="5.30554">
        <ele>227.18811</ele>
        <time>2014-09-28T10:36:08Z</time>
      </trkpt>
      <trkpt lat="45.62806" lon="5.30557">
        <ele>227.47325</ele>
        <time>2014-09-28T10:36:13Z</time>
      </trkpt>
      <trkpt lat="45.62812" lon="5.3056">
        <ele>227.47325</ele>
        <time>2014-09-28T10:36:18Z</time>
      </trkpt>
      <trkpt lat="45.62818" lon="5.30565">
        <ele>227.93979</ele>
        <time>2014-09-28T10:36:23Z</time>
      </trkpt>
      <trkpt lat="45.62823" lon="5.30569">
        <ele>227.93979</ele>
        <time>2014-09-28T10:36:28Z</time>
      </trkpt>
      <trkpt lat="45.62829" lon="5.30575">
        <ele>228.35666</ele>
        <time>2014-09-28T10:36:33Z</time>
      </trkpt>
      <trkpt lat="45.62835" lon="5.30578">
        <ele>228.35666</ele>
        <time>2014-09-28T10:36:38Z</time>
      </trkpt>
      <trkpt lat="45.62845" lon="5.30579">
        <ele>228.61078</ele>
        <time>2014-09-28T10:36:43Z</time>
      </trkpt>
      <trkpt lat="45.62852" lon="5.3058">
        <ele>228.61078</ele>
        <time>2014-09-28T10:36:48Z</time>
      </trkpt>
      <trkpt lat="45.62859" lon="5.30581">
        <ele>228.97266</ele>
        <time>2014-09-28T10:36:53Z</time>
      </trkpt>
      <trkpt lat="45.62868" lon="5.30583">
        <ele>228.97266</ele>
        <time>2014-09-28T10:36:58Z</time>
      </trkpt>
      <trkpt lat="45.62871" lon="5.30588">
        <ele>229.46207</ele>
        <time>2014-09-28T10:37:03Z</time>
      </trkpt>
      <trkpt lat="45.6288" lon="5.3059">
        <ele>229.46207</ele>
        <time>2014-09-28T10:37:08Z</time>
      </trkpt>
      <trkpt lat="45.62888" lon="5.30593">
        <ele>230.19795</ele>
        <time>2014-09-28T10:37:13Z</time>
      </trkpt>
      <trkpt lat="45.62894" lon="5.30592">
        <ele>230.19795</ele>
        <time>2014-09-28T10:37:18Z</time>
      </trkpt>
      <trkpt lat="45.62894" lon="5.30592">
        <ele>230.19795</ele>
        <time>2014-09-28T10:37:23Z</time>
      </trkpt>
      <trkpt lat="45.62899" lon="5.3059">
        <ele>231.03047</ele>
        <time>2014-09-28T10:37:33Z</time>
      </trkpt>
      <trkpt lat="45.62899" lon="5.3059">
        <ele>231.03047</ele>
        <time>2014-09-28T10:37:38Z</time>
      </trkpt>
      <trkpt lat="45.629" lon="5.30588">
        <ele>231.03047</ele>
        <time>2014-09-28T10:38:08Z</time>
      </trkpt>
      <trkpt lat="45.629" lon="5.30583">
        <ele>231.03047</ele>
        <time>2014-09-28T10:38:38Z</time>
      </trkpt>
      <trkpt lat="45.62904" lon="5.30582">
        <ele>231.76295</ele>
        <time>2014-09-28T10:38:43Z</time>
      </trkpt>
      <trkpt lat="45.62909" lon="5.30584">
        <ele>231.76295</ele>
        <time>2014-09-28T10:38:48Z</time>
      </trkpt>
      <trkpt lat="45.62915" lon="5.30587">
        <ele>232.53055</ele>
        <time>2014-09-28T10:38:53Z</time>
      </trkpt>
      <trkpt lat="45.62921" lon="5.30589">
        <ele>232.53055</ele>
        <time>2014-09-28T10:38:58Z</time>
      </trkpt>
      <trkpt lat="45.62929" lon="5.3059">
        <ele>233.04053</ele>
        <time>2014-09-28T10:39:03Z</time>
      </trkpt>
      <trkpt lat="45.62937" lon="5.30591">
        <ele>233.04053</ele>
        <time>2014-09-28T10:39:08Z</time>
      </trkpt>
      <trkpt lat="45.62944" lon="5.30593">
        <ele>233.77185</ele>
        <time>2014-09-28T10:39:13Z</time>
      </trkpt>
      <trkpt lat="45.62952" lon="5.30596">
        <ele>233.77185</ele>
        <time>2014-09-28T10:39:18Z</time>
      </trkpt>
      <trkpt lat="45.62959" lon="5.30602">
        <ele>234.54805</ele>
        <time>2014-09-28T10:39:23Z</time>
      </trkpt>
      <trkpt lat="45.62965" lon="5.30606">
        <ele>234.54805</ele>
        <time>2014-09-28T10:39:28Z</time>
      </trkpt>
      <trkpt lat="45.62972" lon="5.30611">
        <ele>235.45056</ele>
        <time>2014-09-28T10:39:33Z</time>
      </trkpt>
      <trkpt lat="45.62979" lon="5.30614">
        <ele>235.45056</ele>
        <time>2014-09-28T10:39:38Z</time>
      </trkpt>
      <trkpt lat="45.62986" lon="5.30615">
        <ele>236.38159</ele>
        <time>2014-09-28T10:39:43Z</time>
      </trkpt>
      <trkpt lat="45.62993" lon="5.30614">
        <ele>236.38159</ele>
        <time>2014-09-28T10:39:48Z</time>
      </trkpt>
      <trkpt lat="45.62997" lon="5.30612">
        <ele>237.7261</ele>
        <time>2014-09-28T10:39:53Z</time>
      </trkpt>
      <trkpt lat="45.62998" lon="5.30611">
        <ele>237.7261</ele>
        <time>2014-09-28T10:39:58Z</time>
      </trkpt>
      <trkpt lat="45.63001" lon="5.30604">
        <ele>237.7261</ele>
        <time>2014-09-28T10:40:03Z</time>
      </trkpt>
      <trkpt lat="45.63004" lon="5.30599">
        <ele>239.29208</ele>
        <time>2014-09-28T10:40:08Z</time>
      </trkpt>
      <trkpt lat="45.63004" lon="5.30596">
        <ele>239.29208</ele>
        <time>2014-09-28T10:40:13Z</time>
      </trkpt>
      <trkpt lat="45.63003" lon="5.30592">
        <ele>239.29208</ele>
        <time>2014-09-28T10:40:18Z</time>
      </trkpt>
      <trkpt lat="45.63005" lon="5.30589">
        <ele>239.29208</ele>
        <time>2014-09-28T10:40:23Z</time>
      </trkpt>
      <trkpt lat="45.63006" lon="5.30587">
        <ele>240.85782</ele>
        <time>2014-09-28T10:40:28Z</time>
      </trkpt>
      <trkpt lat="45.63005" lon="5.3059">
        <ele>240.85782</ele>
        <time>2014-09-28T10:40:33Z</time>
      </trkpt>
      <trkpt lat="45.63004" lon="5.30588">
        <ele>240.85782</ele>
        <time>2014-09-28T10:40:38Z</time>
      </trkpt>
      <trkpt lat="45.63003" lon="5.30588">
        <ele>240.85782</ele>
        <time>2014-09-28T10:40:43Z</time>
      </trkpt>
      <trkpt lat="45.63002" lon="5.30585">
        <ele>240.85782</ele>
        <time>2014-09-28T10:40:48Z</time>
      </trkpt>
      <trkpt lat="45.63006" lon="5.30585">
        <ele>242.0018</ele>
        <time>2014-09-28T10:40:53Z</time>
      </trkpt>
      <trkpt lat="45.63008" lon="5.30585">
        <ele>242.0018</ele>
        <time>2014-09-28T10:40:58Z</time>
      </trkpt>
      <trkpt lat="45.63005" lon="5.30583">
        <ele>242.0018</ele>
        <time>2014-09-28T10:41:03Z</time>
      </trkpt>
      <trkpt lat="45.63005" lon="5.30574">
        <ele>243.37236</ele>
        <time>2014-09-28T10:41:08Z</time>
      </trkpt>
      <trkpt lat="45.63005" lon="5.30563">
        <ele>243.37236</ele>
        <time>2014-09-28T10:41:13Z</time>
      </trkpt>
      <trkpt lat="45.63009" lon="5.30553">
        <ele>244.83467</ele>
        <time>2014-09-28T10:41:18Z</time>
      </trkpt>
      <trkpt lat="45.63011" lon="5.30545">
        <ele>244.83467</ele>
        <time>2014-09-28T10:41:23Z</time>
      </trkpt>
      <trkpt lat="45.63013" lon="5.30536">
        <ele>246.20602</ele>
        <time>2014-09-28T10:41:28Z</time>
      </trkpt>
      <trkpt lat="45.63014" lon="5.30528">
        <ele>246.20602</ele>
        <time>2014-09-28T10:41:33Z</time>
      </trkpt>
      <trkpt lat="45.63015" lon="5.30518">
        <ele>247.31743</ele>
        <time>2014-09-28T10:41:38Z</time>
      </trkpt>
      <trkpt lat="45.63017" lon="5.30507">
        <ele>247.31743</ele>
        <time>2014-09-28T10:41:43Z</time>
      </trkpt>
      <trkpt lat="45.63018" lon="5.30496">
        <ele>248.22931</ele>
        <time>2014-09-28T10:41:48Z</time>
      </trkpt>
      <trkpt lat="45.63022" lon="5.30485">
        <ele>248.22931</ele>
        <time>2014-09-28T10:41:53Z</time>
      </trkpt>
      <trkpt lat="45.63025" lon="5.30475">
        <ele>249.18568</ele>
        <time>2014-09-28T10:41:58Z</time>
      </trkpt>
      <trkpt lat="45.63026" lon="5.30462">
        <ele>250.15315</ele>
        <time>2014-09-28T10:42:03Z</time>
      </trkpt>
      <trkpt lat="45.63027" lon="5.30453">
        <ele>250.15315</ele>
        <time>2014-09-28T10:42:08Z</time>
      </trkpt>
      <trkpt lat="45.6303" lon="5.30443">
        <ele>251.20172</ele>
        <time>2014-09-28T10:42:13Z</time>
      </trkpt>
      <trkpt lat="45.63034" lon="5.30432">
        <ele>251.20172</ele>
        <time>2014-09-28T10:42:18Z</time>
      </trkpt>
      <trkpt lat="45.63037" lon="5.30422">
        <ele>252.13672</ele>
        <time>2014-09-28T10:42:23Z</time>
      </trkpt>
      <trkpt lat="45.63039" lon="5.30412">
        <ele>252.13672</ele>
        <time>2014-09-28T10:42:28Z</time>
      </trkpt>
      <trkpt lat="45.63042" lon="5.30403">
        <ele>252.87903</ele>
        <time>2014-09-28T10:42:33Z</time>
      </trkpt>
      <trkpt lat="45.63046" lon="5.30394">
        <ele>252.87903</ele>
        <time>2014-09-28T10:42:38Z</time>
      </trkpt>
      <trkpt lat="45.6305" lon="5.30384">
        <ele>253.31273</ele>
        <time>2014-09-28T10:42:43Z</time>
      </trkpt>
      <trkpt lat="45.63056" lon="5.30373">
        <ele>253.70605</ele>
        <time>2014-09-28T10:42:48Z</time>
      </trkpt>
      <trkpt lat="45.6306" lon="5.30365">
        <ele>253.70605</ele>
        <time>2014-09-28T10:42:53Z</time>
      </trkpt>
      <trkpt lat="45.63064" lon="5.30356">
        <ele>253.80333</ele>
        <time>2014-09-28T10:42:58Z</time>
      </trkpt>
      <trkpt lat="45.63067" lon="5.30346">
        <ele>253.80333</ele>
        <time>2014-09-28T10:43:03Z</time>
      </trkpt>
      <trkpt lat="45.63071" lon="5.30337">
        <ele>253.8873</ele>
        <time>2014-09-28T10:43:08Z</time>
      </trkpt>
      <trkpt lat="45.63075" lon="5.30329">
        <ele>253.8873</ele>
        <time>2014-09-28T10:43:13Z</time>
      </trkpt>
      <trkpt lat="45.63081" lon="5.30321">
        <ele>253.90302</ele>
        <time>2014-09-28T10:43:18Z</time>
      </trkpt>
      <trkpt lat="45.63085" lon="5.30313">
        <ele>253.90302</ele>
        <time>2014-09-28T10:43:23Z</time>
      </trkpt>
      <trkpt lat="45.63089" lon="5.30305">
        <ele>253.84305</ele>
        <time>2014-09-28T10:43:28Z</time>
      </trkpt>
      <trkpt lat="45.63092" lon="5.30295">
        <ele>253.84305</ele>
        <time>2014-09-28T10:43:33Z</time>
      </trkpt>
      <trkpt lat="45.63096" lon="5.30286">
        <ele>253.67189</ele>
        <time>2014-09-28T10:43:38Z</time>
      </trkpt>
      <trkpt lat="45.63097" lon="5.30276">
        <ele>253.67189</ele>
        <time>2014-09-28T10:43:43Z</time>
      </trkpt>
      <trkpt lat="45.63099" lon="5.30266">
        <ele>253.18405</ele>
        <time>2014-09-28T10:43:48Z</time>
      </trkpt>
      <trkpt lat="45.63104" lon="5.30255">
        <ele>253.18405</ele>
        <time>2014-09-28T10:43:53Z</time>
      </trkpt>
      <trkpt lat="45.63108" lon="5.30245">
        <ele>252.6224</ele>
        <time>2014-09-28T10:43:58Z</time>
      </trkpt>
      <trkpt lat="45.63113" lon="5.30235">
        <ele>252.6224</ele>
        <time>2014-09-28T10:44:03Z</time>
      </trkpt>
      <trkpt lat="45.63118" lon="5.30223">
        <ele>252.25539</ele>
        <time>2014-09-28T10:44:08Z</time>
      </trkpt>
      <trkpt lat="45.63124" lon="5.30213">
        <ele>251.88441</ele>
        <time>2014-09-28T10:44:13Z</time>
      </trkpt>
      <trkpt lat="45.63131" lon="5.30201">
        <ele>251.4408</ele>
        <time>2014-09-28T10:44:18Z</time>
      </trkpt>
      <trkpt lat="45.63138" lon="5.30192">
        <ele>251.13486</ele>
        <time>2014-09-28T10:44:23Z</time>
      </trkpt>
      <trkpt lat="45.63144" lon="5.30183">
        <ele>251.13486</ele>
        <time>2014-09-28T10:44:28Z</time>
      </trkpt>
      <trkpt lat="45.63147" lon="5.3018">
        <ele>250.90167</ele>
        <time>2014-09-28T10:44:33Z</time>
      </trkpt>
      <trkpt lat="45.6315" lon="5.30175">
        <ele>250.90167</ele>
        <time>2014-09-28T10:44:38Z</time>
      </trkpt>
      <trkpt lat="45.63159" lon="5.30167">
        <ele>250.63757</ele>
        <time>2014-09-28T10:44:43Z</time>
      </trkpt>
      <trkpt lat="45.63168" lon="5.3016">
        <ele>250.40512</ele>
        <time>2014-09-28T10:44:48Z</time>
      </trkpt>
      <trkpt lat="45.63174" lon="5.30153">
        <ele>250.40512</ele>
        <time>2014-09-28T10:44:53Z</time>
      </trkpt>
      <trkpt lat="45.6318" lon="5.30146">
        <ele>250.37738</ele>
        <time>2014-09-28T10:44:58Z</time>
      </trkpt>
      <trkpt lat="45.63188" lon="5.30138">
        <ele>250.39706</ele>
        <time>2014-09-28T10:45:03Z</time>
      </trkpt>
      <trkpt lat="45.63193" lon="5.30132">
        <ele>250.39706</ele>
        <time>2014-09-28T10:45:08Z</time>
      </trkpt>
      <trkpt lat="45.63197" lon="5.30125">
        <ele>250.44795</ele>
        <time>2014-09-28T10:45:13Z</time>
      </trkpt>
      <trkpt lat="45.63204" lon="5.30118">
        <ele>250.44795</ele>
        <time>2014-09-28T10:45:18Z</time>
      </trkpt>
      <trkpt lat="45.6321" lon="5.30111">
        <ele>250.52927</ele>
        <time>2014-09-28T10:45:23Z</time>
      </trkpt>
      <trkpt lat="45.63217" lon="5.30102">
        <ele>250.45282</ele>
        <time>2014-09-28T10:45:28Z</time>
      </trkpt>
      <trkpt lat="45.63221" lon="5.30092">
        <ele>250.45282</ele>
        <time>2014-09-28T10:45:33Z</time>
      </trkpt>
      <trkpt lat="45.63227" lon="5.30083">
        <ele>250.18874</ele>
        <time>2014-09-28T10:45:38Z</time>
      </trkpt>
      <trkpt lat="45.63232" lon="5.30074">
        <ele>250.18874</ele>
        <time>2014-09-28T10:45:43Z</time>
      </trkpt>
      <trkpt lat="45.63238" lon="5.30067">
        <ele>249.79625</ele>
        <time>2014-09-28T10:45:48Z</time>
      </trkpt>
      <trkpt lat="45.63242" lon="5.30059">
        <ele>249.79625</ele>
        <time>2014-09-28T10:45:53Z</time>
      </trkpt>
      <trkpt lat="45.63247" lon="5.30053">
        <ele>249.40263</ele>
        <time>2014-09-28T10:45:58Z</time>
      </trkpt>
      <trkpt lat="45.63253" lon="5.30048">
        <ele>249.40263</ele>
        <time>2014-09-28T10:46:03Z</time>
      </trkpt>
      <trkpt lat="45.6326" lon="5.30045">
        <ele>248.75105</ele>
        <time>2014-09-28T10:46:08Z</time>
      </trkpt>
      <trkpt lat="45.63267" lon="5.30041">
        <ele>248.75105</ele>
        <time>2014-09-28T10:46:13Z</time>
      </trkpt>
      <trkpt lat="45.63274" lon="5.30038">
        <ele>248.03651</ele>
        <time>2014-09-28T10:46:18Z</time>
      </trkpt>
      <trkpt lat="45.63282" lon="5.30033">
        <ele>248.03651</ele>
        <time>2014-09-28T10:46:23Z</time>
      </trkpt>
      <trkpt lat="45.63289" lon="5.30029">
        <ele>247.39658</ele>
        <time>2014-09-28T10:46:28Z</time>
      </trkpt>
      <trkpt lat="45.63296" lon="5.30025">
        <ele>247.39658</ele>
        <time>2014-09-28T10:46:33Z</time>
      </trkpt>
      <trkpt lat="45.63303" lon="5.30019">
        <ele>246.64139</ele>
        <time>2014-09-28T10:46:38Z</time>
      </trkpt>
      <trkpt lat="45.6331" lon="5.30014">
        <ele>246.64139</ele>
        <time>2014-09-28T10:46:43Z</time>
      </trkpt>
      <trkpt lat="45.63318" lon="5.30009">
        <ele>245.96994</ele>
        <time>2014-09-28T10:46:48Z</time>
      </trkpt>
      <trkpt lat="45.63325" lon="5.30003">
        <ele>245.96994</ele>
        <time>2014-09-28T10:46:53Z</time>
      </trkpt>
      <trkpt lat="45.63332" lon="5.29998">
        <ele>245.43665</ele>
        <time>2014-09-28T10:46:58Z</time>
      </trkpt>
      <trkpt lat="45.6334" lon="5.29995">
        <ele>245.43665</ele>
        <time>2014-09-28T10:47:03Z</time>
      </trkpt>
      <trkpt lat="45.63349" lon="5.29993">
        <ele>245.14903</ele>
        <time>2014-09-28T10:47:08Z</time>
      </trkpt>
      <trkpt lat="45.63358" lon="5.2999">
        <ele>244.75926</ele>
        <time>2014-09-28T10:47:13Z</time>
      </trkpt>
      <trkpt lat="45.63365" lon="5.29989">
        <ele>244.75926</ele>
        <time>2014-09-28T10:47:18Z</time>
      </trkpt>
      <trkpt lat="45.63374" lon="5.29986">
        <ele>244.17578</ele>
        <time>2014-09-28T10:47:23Z</time>
      </trkpt>
      <trkpt lat="45.63382" lon="5.29983">
        <ele>244.17578</ele>
        <time>2014-09-28T10:47:28Z</time>
      </trkpt>
      <trkpt lat="45.63391" lon="5.29982">
        <ele>243.44398</ele>
        <time>2014-09-28T10:47:33Z</time>
      </trkpt>
      <trkpt lat="45.63402" lon="5.2998">
        <ele>242.72148</ele>
        <time>2014-09-28T10:47:38Z</time>
      </trkpt>
      <trkpt lat="45.63412" lon="5.29978">
        <ele>242.05338</ele>
        <time>2014-09-28T10:47:43Z</time>
      </trkpt>
      <trkpt lat="45.63419" lon="5.29977">
        <ele>242.05338</ele>
        <time>2014-09-28T10:47:48Z</time>
      </trkpt>
      <trkpt lat="45.63427" lon="5.29975">
        <ele>241.39471</ele>
        <time>2014-09-28T10:47:53Z</time>
      </trkpt>
      <trkpt lat="45.63437" lon="5.29973">
        <ele>240.84787</ele>
        <time>2014-09-28T10:47:58Z</time>
      </trkpt>
      <trkpt lat="45.63445" lon="5.29971">
        <ele>240.84787</ele>
        <time>2014-09-28T10:48:03Z</time>
      </trkpt>
      <trkpt lat="45.63455" lon="5.29969">
        <ele>240.36317</ele>
        <time>2014-09-28T10:48:08Z</time>
      </trkpt>
      <trkpt lat="45.63462" lon="5.29965">
        <ele>240.36317</ele>
        <time>2014-09-28T10:48:13Z</time>
      </trkpt>
      <trkpt lat="45.6347" lon="5.29962">
        <ele>239.83669</ele>
        <time>2014-09-28T10:48:18Z</time>
      </trkpt>
      <trkpt lat="45.63477" lon="5.29958">
        <ele>239.83669</ele>
        <time>2014-09-28T10:48:23Z</time>
      </trkpt>
      <trkpt lat="45.63485" lon="5.29954">
        <ele>239.31627</ele>
        <time>2014-09-28T10:48:28Z</time>
      </trkpt>
      <trkpt lat="45.63493" lon="5.29949">
        <ele>239.31627</ele>
        <time>2014-09-28T10:48:33Z</time>
      </trkpt>
      <trkpt lat="45.63503" lon="5.29946">
        <ele>238.80293</ele>
        <time>2014-09-28T10:48:38Z</time>
      </trkpt>
      <trkpt lat="45.63511" lon="5.29943">
        <ele>238.80293</ele>
        <time>2014-09-28T10:48:43Z</time>
      </trkpt>
      <trkpt lat="45.63519" lon="5.2994">
        <ele>238.32634</ele>
        <time>2014-09-28T10:48:48Z</time>
      </trkpt>
      <trkpt lat="45.63527" lon="5.29938">
        <ele>238.32634</ele>
        <time>2014-09-28T10:48:53Z</time>
      </trkpt>
      <trkpt lat="45.63537" lon="5.29935">
        <ele>237.97142</ele>
        <time>2014-09-28T10:48:58Z</time>
      </trkpt>
      <trkpt lat="45.63546" lon="5.29934">
        <ele>237.71559</ele>
        <time>2014-09-28T10:49:03Z</time>
      </trkpt>
      <trkpt lat="45.63555" lon="5.29932">
        <ele>237.71559</ele>
        <time>2014-09-28T10:49:08Z</time>
      </trkpt>
      <trkpt lat="45.63564" lon="5.2993">
        <ele>237.76814</ele>
        <time>2014-09-28T10:49:13Z</time>
      </trkpt>
      <trkpt lat="45.63573" lon="5.29931">
        <ele>237.93297</ele>
        <time>2014-09-28T10:49:18Z</time>
      </trkpt>
      <trkpt lat="45.63583" lon="5.29931">
        <ele>238.21535</ele>
        <time>2014-09-28T10:49:23Z</time>
      </trkpt>
      <trkpt lat="45.63594" lon="5.29931">
        <ele>238.5477</ele>
        <time>2014-09-28T10:49:28Z</time>
      </trkpt>
      <trkpt lat="45.63604" lon="5.29934">
        <ele>238.88167</ele>
        <time>2014-09-28T10:49:33Z</time>
      </trkpt>
      <trkpt lat="45.63612" lon="5.29936">
        <ele>238.88167</ele>
        <time>2014-09-28T10:49:38Z</time>
      </trkpt>
      <trkpt lat="45.63621" lon="5.29939">
        <ele>239.41739</ele>
        <time>2014-09-28T10:49:43Z</time>
      </trkpt>
      <trkpt lat="45.63628" lon="5.29941">
        <ele>239.41739</ele>
        <time>2014-09-28T10:49:48Z</time>
      </trkpt>
      <trkpt lat="45.63636" lon="5.29943">
        <ele>240.1235</ele>
        <time>2014-09-28T10:49:53Z</time>
      </trkpt>
      <trkpt lat="45.63644" lon="5.29945">
        <ele>240.1235</ele>
        <time>2014-09-28T10:49:58Z</time>
      </trkpt>
      <trkpt lat="45.63652" lon="5.29946">
        <ele>240.91286</ele>
        <time>2014-09-28T10:50:03Z</time>
      </trkpt>
      <trkpt lat="45.6366" lon="5.29949">
        <ele>240.91286</ele>
        <time>2014-09-28T10:50:08Z</time>
      </trkpt>
      <trkpt lat="45.63667" lon="5.29951">
        <ele>241.73323</ele>
        <time>2014-09-28T10:50:13Z</time>
      </trkpt>
      <trkpt lat="45.63674" lon="5.29953">
        <ele>241.73323</ele>
        <time>2014-09-28T10:50:18Z</time>
      </trkpt>
      <trkpt lat="45.6368" lon="5.29955">
        <ele>242.50739</ele>
        <time>2014-09-28T10:50:23Z</time>
      </trkpt>
      <trkpt lat="45.63685" lon="5.29959">
        <ele>242.50739</ele>
        <time>2014-09-28T10:50:28Z</time>
      </trkpt>
      <trkpt lat="45.63689" lon="5.29968">
        <ele>243.13503</ele>
        <time>2014-09-28T10:50:33Z</time>
      </trkpt>
      <trkpt lat="45.63689" lon="5.29969">
        <ele>243.13503</ele>
        <time>2014-09-28T10:50:38Z</time>
      </trkpt>
      <trkpt lat="45.6369" lon="5.29969">
        <ele>243.13503</ele>
        <time>2014-09-28T10:50:44Z</time>
      </trkpt>
      <trkpt lat="45.6369" lon="5.29969">
        <ele>243.13503</ele>
        <time>2014-09-28T10:50:48Z</time>
      </trkpt>
      <trkpt lat="45.63694" lon="5.29966">
        <ele>243.13503</ele>
        <time>2014-09-28T10:50:53Z</time>
      </trkpt>
      <trkpt lat="45.637" lon="5.29965">
        <ele>243.92715</ele>
        <time>2014-09-28T10:50:58Z</time>
      </trkpt>
      <trkpt lat="45.63709" lon="5.29963">
        <ele>243.92715</ele>
        <time>2014-09-28T10:51:03Z</time>
      </trkpt>
      <trkpt lat="45.63715" lon="5.29965">
        <ele>244.76802</ele>
        <time>2014-09-28T10:51:08Z</time>
      </trkpt>
      <trkpt lat="45.63721" lon="5.29964">
        <ele>244.76802</ele>
        <time>2014-09-28T10:51:13Z</time>
      </trkpt>
      <trkpt lat="45.6373" lon="5.29965">
        <ele>245.44933</ele>
        <time>2014-09-28T10:51:18Z</time>
      </trkpt>
      <trkpt lat="45.63738" lon="5.29967">
        <ele>245.44933</ele>
        <time>2014-09-28T10:51:23Z</time>
      </trkpt>
      <trkpt lat="45.63746" lon="5.29968">
        <ele>245.96597</ele>
        <time>2014-09-28T10:51:28Z</time>
      </trkpt>
      <trkpt lat="45.63753" lon="5.29971">
        <ele>245.96597</ele>
        <time>2014-09-28T10:51:33Z</time>
      </trkpt>
      <trkpt lat="45.63763" lon="5.29968">
        <ele>246.38573</ele>
        <time>2014-09-28T10:51:38Z</time>
      </trkpt>
      <trkpt lat="45.63772" lon="5.29969">
        <ele>246.38573</ele>
        <time>2014-09-28T10:51:43Z</time>
      </trkpt>
      <trkpt lat="45.63781" lon="5.29967">
        <ele>246.62761</ele>
        <time>2014-09-28T10:51:48Z</time>
      </trkpt>
      <trkpt lat="45.63786" lon="5.29969">
        <ele>246.62761</ele>
        <time>2014-09-28T10:51:53Z</time>
      </trkpt>
      <trkpt lat="45.6379" lon="5.29969">
        <ele>246.89096</ele>
        <time>2014-09-28T10:51:58Z</time>
      </trkpt>
      <trkpt lat="45.63797" lon="5.29967">
        <ele>246.89096</ele>
        <time>2014-09-28T10:52:03Z</time>
      </trkpt>
      <trkpt lat="45.63804" lon="5.29967">
        <ele>247.24512</ele>
        <time>2014-09-28T10:52:08Z</time>
      </trkpt>
      <trkpt lat="45.63811" lon="5.29968">
        <ele>247.24512</ele>
        <time>2014-09-28T10:52:13Z</time>
      </trkpt>
      <trkpt lat="45.63821" lon="5.29967">
        <ele>247.68211</ele>
        <time>2014-09-28T10:52:18Z</time>
      </trkpt>
      <trkpt lat="45.63831" lon="5.29965">
        <ele>248.02142</ele>
        <time>2014-09-28T10:52:23Z</time>
      </trkpt>
      <trkpt lat="45.63842" lon="5.29964">
        <ele>248.38431</ele>
        <time>2014-09-28T10:52:28Z</time>
      </trkpt>
      <trkpt lat="45.63851" lon="5.29963">
        <ele>248.72461</ele>
        <time>2014-09-28T10:52:33Z</time>
      </trkpt>
      <trkpt lat="45.63859" lon="5.29963">
        <ele>248.72461</ele>
        <time>2014-09-28T10:52:38Z</time>
      </trkpt>
      <trkpt lat="45.63867" lon="5.29967">
        <ele>249.2014</ele>
        <time>2014-09-28T10:52:43Z</time>
      </trkpt>
      <trkpt lat="45.63875" lon="5.29973">
        <ele>249.6303</ele>
        <time>2014-09-28T10:52:48Z</time>
      </trkpt>
      <trkpt lat="45.63882" lon="5.29978">
        <ele>249.6303</ele>
        <time>2014-09-28T10:52:53Z</time>
      </trkpt>
      <trkpt lat="45.63888" lon="5.29982">
        <ele>249.89825</ele>
        <time>2014-09-28T10:52:58Z</time>
      </trkpt>
      <trkpt lat="45.63897" lon="5.29983">
        <ele>249.89825</ele>
        <time>2014-09-28T10:53:03Z</time>
      </trkpt>
      <trkpt lat="45.63903" lon="5.29984">
        <ele>250.17488</ele>
        <time>2014-09-28T10:53:08Z</time>
      </trkpt>
      <trkpt lat="45.6391" lon="5.29985">
        <ele>250.17488</ele>
        <time>2014-09-28T10:53:13Z</time>
      </trkpt>
      <trkpt lat="45.63918" lon="5.29985">
        <ele>250.54526</ele>
        <time>2014-09-28T10:53:18Z</time>
      </trkpt>
      <trkpt lat="45.63927" lon="5.29984">
        <ele>251.11684</ele>
        <time>2014-09-28T10:53:23Z</time>
      </trkpt>
      <trkpt lat="45.63935" lon="5.29984">
        <ele>251.11684</ele>
        <time>2014-09-28T10:53:28Z</time>
      </trkpt>
      <trkpt lat="45.63943" lon="5.29985">
        <ele>251.74367</ele>
        <time>2014-09-28T10:53:33Z</time>
      </trkpt>
      <trkpt lat="45.6395" lon="5.29986">
        <ele>251.74367</ele>
        <time>2014-09-28T10:53:38Z</time>
      </trkpt>
      <trkpt lat="45.63956" lon="5.29989">
        <ele>252.92448</ele>
        <time>2014-09-28T10:53:43Z</time>
      </trkpt>
      <trkpt lat="45.63962" lon="5.29992">
        <ele>252.92448</ele>
        <time>2014-09-28T10:53:48Z</time>
      </trkpt>
      <trkpt lat="45.63968" lon="5.29998">
        <ele>253.88055</ele>
        <time>2014-09-28T10:53:53Z</time>
      </trkpt>
      <trkpt lat="45.63973" lon="5.30004">
        <ele>253.88055</ele>
        <time>2014-09-28T10:53:58Z</time>
      </trkpt>
      <trkpt lat="45.63977" lon="5.30011">
        <ele>254.72684</ele>
        <time>2014-09-28T10:54:03Z</time>
      </trkpt>
      <trkpt lat="45.63982" lon="5.30016">
        <ele>254.72684</ele>
        <time>2014-09-28T10:54:08Z</time>
      </trkpt>
      <trkpt lat="45.63989" lon="5.30022">
        <ele>255.67114</ele>
        <time>2014-09-28T10:54:13Z</time>
      </trkpt>
      <trkpt lat="45.63995" lon="5.30027">
        <ele>255.67114</ele>
        <time>2014-09-28T10:54:18Z</time>
      </trkpt>
      <trkpt lat="45.64003" lon="5.30032">
        <ele>256.68954</ele>
        <time>2014-09-28T10:54:23Z</time>
      </trkpt>
      <trkpt lat="45.6401" lon="5.30037">
        <ele>256.68954</ele>
        <time>2014-09-28T10:54:28Z</time>
      </trkpt>
      <trkpt lat="45.64017" lon="5.3004">
        <ele>257.41397</ele>
        <time>2014-09-28T10:54:33Z</time>
      </trkpt>
      <trkpt lat="45.64025" lon="5.30044">
        <ele>257.41397</ele>
        <time>2014-09-28T10:54:38Z</time>
      </trkpt>
      <trkpt lat="45.64033" lon="5.30049">
        <ele>257.92212</ele>
        <time>2014-09-28T10:54:43Z</time>
      </trkpt>
      <trkpt lat="45.6404" lon="5.30052">
        <ele>257.92212</ele>
        <time>2014-09-28T10:54:48Z</time>
      </trkpt>
      <trkpt lat="45.64046" lon="5.30055">
        <ele>258.30106</ele>
        <time>2014-09-28T10:54:53Z</time>
      </trkpt>
      <trkpt lat="45.64057" lon="5.30062">
        <ele>258.5022</ele>
        <time>2014-09-28T10:54:58Z</time>
      </trkpt>
      <trkpt lat="45.64075" lon="5.30075">
        <ele>258.4955</ele>
        <time>2014-09-28T10:55:03Z</time>
      </trkpt>
      <trkpt lat="45.64096" lon="5.30093">
        <ele>258.36908</ele>
        <time>2014-09-28T10:55:08Z</time>
      </trkpt>
      <trkpt lat="45.64116" lon="5.30111">
        <ele>258.17603</ele>
        <time>2014-09-28T10:55:13Z</time>
      </trkpt>
      <trkpt lat="45.64127" lon="5.30117">
        <ele>257.96585</ele>
        <time>2014-09-28T10:55:18Z</time>
      </trkpt>
      <trkpt lat="45.64135" lon="5.30121">
        <ele>257.96585</ele>
        <time>2014-09-28T10:55:23Z</time>
      </trkpt>
      <trkpt lat="45.64142" lon="5.30127">
        <ele>257.74127</ele>
        <time>2014-09-28T10:55:28Z</time>
      </trkpt>
      <trkpt lat="45.64149" lon="5.30132">
        <ele>257.74127</ele>
        <time>2014-09-28T10:55:33Z</time>
      </trkpt>
      <trkpt lat="45.64157" lon="5.30138">
        <ele>257.5769</ele>
        <time>2014-09-28T10:55:38Z</time>
      </trkpt>
      <trkpt lat="45.64164" lon="5.30145">
        <ele>257.5769</ele>
        <time>2014-09-28T10:55:43Z</time>
      </trkpt>
      <trkpt lat="45.64171" lon="5.30149">
        <ele>257.35437</ele>
        <time>2014-09-28T10:55:48Z</time>
      </trkpt>
      <trkpt lat="45.64178" lon="5.30154">
        <ele>257.35437</ele>
        <time>2014-09-28T10:55:53Z</time>
      </trkpt>
      <trkpt lat="45.64185" lon="5.3016">
        <ele>256.8633</ele>
        <time>2014-09-28T10:55:58Z</time>
      </trkpt>
      <trkpt lat="45.64191" lon="5.30165">
        <ele>256.8633</ele>
        <time>2014-09-28T10:56:03Z</time>
      </trkpt>
      <trkpt lat="45.64198" lon="5.30171">
        <ele>256.2411</ele>
        <time>2014-09-28T10:56:08Z</time>
      </trkpt>
      <trkpt lat="45.64203" lon="5.30175">
        <ele>256.2411</ele>
        <time>2014-09-28T10:56:13Z</time>
      </trkpt>
      <trkpt lat="45.64208" lon="5.30181">
        <ele>255.52875</ele>
        <time>2014-09-28T10:56:18Z</time>
      </trkpt>
      <trkpt lat="45.64215" lon="5.30188">
        <ele>255.52875</ele>
        <time>2014-09-28T10:56:23Z</time>
      </trkpt>
      <trkpt lat="45.64221" lon="5.30196">
        <ele>254.43321</ele>
        <time>2014-09-28T10:56:28Z</time>
      </trkpt>
      <trkpt lat="45.64228" lon="5.30206">
        <ele>253.34685</ele>
        <time>2014-09-28T10:56:33Z</time>
      </trkpt>
      <trkpt lat="45.64233" lon="5.30216">
        <ele>253.34685</ele>
        <time>2014-09-28T10:56:38Z</time>
      </trkpt>
      <trkpt lat="45.64238" lon="5.30226">
        <ele>252.40262</ele>
        <time>2014-09-28T10:56:43Z</time>
      </trkpt>
      <trkpt lat="45.64242" lon="5.30236">
        <ele>252.40262</ele>
        <time>2014-09-28T10:56:48Z</time>
      </trkpt>
      <trkpt lat="45.64246" lon="5.30245">
        <ele>251.49266</ele>
        <time>2014-09-28T10:56:53Z</time>
      </trkpt>
      <trkpt lat="45.64251" lon="5.30254">
        <ele>251.49266</ele>
        <time>2014-09-28T10:56:58Z</time>
      </trkpt>
      <trkpt lat="45.64256" lon="5.30265">
        <ele>250.43045</ele>
        <time>2014-09-28T10:57:03Z</time>
      </trkpt>
      <trkpt lat="45.6426" lon="5.30277">
        <ele>250.43045</ele>
        <time>2014-09-28T10:57:08Z</time>
      </trkpt>
      <trkpt lat="45.64263" lon="5.30289">
        <ele>249.41823</ele>
        <time>2014-09-28T10:57:13Z</time>
      </trkpt>
      <trkpt lat="45.64265" lon="5.30301">
        <ele>249.41823</ele>
        <time>2014-09-28T10:57:18Z</time>
      </trkpt>
      <trkpt lat="45.64268" lon="5.30312">
        <ele>248.39818</ele>
        <time>2014-09-28T10:57:23Z</time>
      </trkpt>
      <trkpt lat="45.64271" lon="5.30324">
        <ele>248.39818</ele>
        <time>2014-09-28T10:57:28Z</time>
      </trkpt>
      <trkpt lat="45.64273" lon="5.30335">
        <ele>247.46082</ele>
        <time>2014-09-28T10:57:33Z</time>
      </trkpt>
      <trkpt lat="45.64276" lon="5.30346">
        <ele>247.46082</ele>
        <time>2014-09-28T10:57:38Z</time>
      </trkpt>
      <trkpt lat="45.64277" lon="5.30358">
        <ele>246.53119</ele>
        <time>2014-09-28T10:57:43Z</time>
      </trkpt>
      <trkpt lat="45.64279" lon="5.3037">
        <ele>246.53119</ele>
        <time>2014-09-28T10:57:48Z</time>
      </trkpt>
      <trkpt lat="45.64281" lon="5.30381">
        <ele>245.75589</ele>
        <time>2014-09-28T10:57:53Z</time>
      </trkpt>
      <trkpt lat="45.64283" lon="5.30391">
        <ele>245.75589</ele>
        <time>2014-09-28T10:57:58Z</time>
      </trkpt>
      <trkpt lat="45.64285" lon="5.30401">
        <ele>244.99646</ele>
        <time>2014-09-28T10:58:03Z</time>
      </trkpt>
      <trkpt lat="45.64288" lon="5.3041">
        <ele>244.99646</ele>
        <time>2014-09-28T10:58:08Z</time>
      </trkpt>
      <trkpt lat="45.64291" lon="5.30419">
        <ele>244.36946</ele>
        <time>2014-09-28T10:58:13Z</time>
      </trkpt>
      <trkpt lat="45.64292" lon="5.3042">
        <ele>244.36946</ele>
        <time>2014-09-28T10:58:18Z</time>
      </trkpt>
      <trkpt lat="45.64295" lon="5.3043">
        <ele>243.5501</ele>
        <time>2014-09-28T10:58:23Z</time>
      </trkpt>
      <trkpt lat="45.64299" lon="5.30441">
        <ele>243.5501</ele>
        <time>2014-09-28T10:58:28Z</time>
      </trkpt>
      <trkpt lat="45.64302" lon="5.30452">
        <ele>242.7567</ele>
        <time>2014-09-28T10:58:33Z</time>
      </trkpt>
      <trkpt lat="45.64306" lon="5.30463">
        <ele>242.7567</ele>
        <time>2014-09-28T10:58:38Z</time>
      </trkpt>
      <trkpt lat="45.64309" lon="5.30473">
        <ele>242.10495</ele>
        <time>2014-09-28T10:58:43Z</time>
      </trkpt>
      <trkpt lat="45.64311" lon="5.30483">
        <ele>242.10495</ele>
        <time>2014-09-28T10:58:48Z</time>
      </trkpt>
      <trkpt lat="45.64314" lon="5.30494">
        <ele>241.48537</ele>
        <time>2014-09-28T10:58:53Z</time>
      </trkpt>
      <trkpt lat="45.64317" lon="5.30505">
        <ele>241.48537</ele>
        <time>2014-09-28T10:58:58Z</time>
      </trkpt>
      <trkpt lat="45.64321" lon="5.30515">
        <ele>240.79636</ele>
        <time>2014-09-28T10:59:03Z</time>
      </trkpt>
      <trkpt lat="45.64324" lon="5.30525">
        <ele>240.79636</ele>
        <time>2014-09-28T10:59:08Z</time>
      </trkpt>
      <trkpt lat="45.64327" lon="5.30536">
        <ele>240.07358</ele>
        <time>2014-09-28T10:59:13Z</time>
      </trkpt>
      <trkpt lat="45.6433" lon="5.30547">
        <ele>240.07358</ele>
        <time>2014-09-28T10:59:18Z</time>
      </trkpt>
      <trkpt lat="45.64333" lon="5.30558">
        <ele>239.39334</ele>
        <time>2014-09-28T10:59:23Z</time>
      </trkpt>
      <trkpt lat="45.64336" lon="5.30569">
        <ele>239.39334</ele>
        <time>2014-09-28T10:59:28Z</time>
      </trkpt>
      <trkpt lat="45.64339" lon="5.30579">
        <ele>238.68204</ele>
        <time>2014-09-28T10:59:33Z</time>
      </trkpt>
      <trkpt lat="45.64342" lon="5.30589">
        <ele>238.68204</ele>
        <time>2014-09-28T10:59:38Z</time>
      </trkpt>
      <trkpt lat="45.64345" lon="5.30599">
        <ele>237.90028</ele>
        <time>2014-09-28T10:59:43Z</time>
      </trkpt>
      <trkpt lat="45.64349" lon="5.30609">
        <ele>237.90028</ele>
        <time>2014-09-28T10:59:48Z</time>
      </trkpt>
      <trkpt lat="45.64352" lon="5.3062">
        <ele>237.14142</ele>
        <time>2014-09-28T10:59:53Z</time>
      </trkpt>
      <trkpt lat="45.64355" lon="5.30631">
        <ele>237.14142</ele>
        <time>2014-09-28T10:59:58Z</time>
      </trkpt>
      <trkpt lat="45.64358" lon="5.3064">
        <ele>236.49179</ele>
        <time>2014-09-28T11:00:03Z</time>
      </trkpt>
      <trkpt lat="45.6436" lon="5.3065">
        <ele>236.49179</ele>
        <time>2014-09-28T11:00:08Z</time>
      </trkpt>
      <trkpt lat="45.64362" lon="5.30662">
        <ele>235.68517</ele>
        <time>2014-09-28T11:00:13Z</time>
      </trkpt>
      <trkpt lat="45.64363" lon="5.30674">
        <ele>235.68517</ele>
        <time>2014-09-28T11:00:18Z</time>
      </trkpt>
      <trkpt lat="45.64365" lon="5.30689">
        <ele>234.96518</ele>
        <time>2014-09-28T11:00:23Z</time>
      </trkpt>
      <trkpt lat="45.64366" lon="5.30699">
        <ele>234.96518</ele>
        <time>2014-09-28T11:00:28Z</time>
      </trkpt>
      <trkpt lat="45.64369" lon="5.30711">
        <ele>234.25465</ele>
        <time>2014-09-28T11:00:33Z</time>
      </trkpt>
      <trkpt lat="45.64372" lon="5.30722">
        <ele>234.25465</ele>
        <time>2014-09-28T11:00:38Z</time>
      </trkpt>
      <trkpt lat="45.64373" lon="5.30724">
        <ele>233.40991</ele>
        <time>2014-09-28T11:00:43Z</time>
      </trkpt>
      <trkpt lat="45.64374" lon="5.30728">
        <ele>233.40991</ele>
        <time>2014-09-28T11:00:53Z</time>
      </trkpt>
      <trkpt lat="45.64373" lon="5.30728">
        <ele>233.40991</ele>
        <time>2014-09-28T11:00:58Z</time>
      </trkpt>
      <trkpt lat="45.64374" lon="5.3073">
        <ele>233.40991</ele>
        <time>2014-09-28T11:01:03Z</time>
      </trkpt>
      <trkpt lat="45.64374" lon="5.3073">
        <ele>233.40991</ele>
        <time>2014-09-28T11:01:08Z</time>
      </trkpt>
      <trkpt lat="45.64376" lon="5.30731">
        <ele>233.40991</ele>
        <time>2014-09-28T11:01:28Z</time>
      </trkpt>
      <trkpt lat="45.64376" lon="5.30732">
        <ele>233.40991</ele>
        <time>2014-09-28T11:01:33Z</time>
      </trkpt>
      <trkpt lat="45.64378" lon="5.30735">
        <ele>232.22607</ele>
        <time>2014-09-28T11:01:38Z</time>
      </trkpt>
      <trkpt lat="45.64383" lon="5.30743">
        <ele>232.22607</ele>
        <time>2014-09-28T11:01:43Z</time>
      </trkpt>
      <trkpt lat="45.64387" lon="5.3075">
        <ele>231.16272</ele>
        <time>2014-09-28T11:01:48Z</time>
      </trkpt>
      <trkpt lat="45.64392" lon="5.30755">
        <ele>231.16272</ele>
        <time>2014-09-28T11:01:53Z</time>
      </trkpt>
      <trkpt lat="45.64398" lon="5.30759">
        <ele>230.1985</ele>
        <time>2014-09-28T11:01:58Z</time>
      </trkpt>
      <trkpt lat="45.64401" lon="5.3077">
        <ele>230.1985</ele>
        <time>2014-09-28T11:02:03Z</time>
      </trkpt>
      <trkpt lat="45.64404" lon="5.3078">
        <ele>229.37094</ele>
        <time>2014-09-28T11:02:08Z</time>
      </trkpt>
      <trkpt lat="45.64406" lon="5.3079">
        <ele>229.37094</ele>
        <time>2014-09-28T11:02:13Z</time>
      </trkpt>
      <trkpt lat="45.64408" lon="5.30801">
        <ele>228.59906</ele>
        <time>2014-09-28T11:02:18Z</time>
      </trkpt>
      <trkpt lat="45.64409" lon="5.30812">
        <ele>228.59906</ele>
        <time>2014-09-28T11:02:23Z</time>
      </trkpt>
      <trkpt lat="45.64411" lon="5.30823">
        <ele>227.87967</ele>
        <time>2014-09-28T11:02:28Z</time>
      </trkpt>
      <trkpt lat="45.64411" lon="5.30834">
        <ele>227.87967</ele>
        <time>2014-09-28T11:02:33Z</time>
      </trkpt>
      <trkpt lat="45.64412" lon="5.30845">
        <ele>227.16634</ele>
        <time>2014-09-28T11:02:38Z</time>
      </trkpt>
      <trkpt lat="45.64413" lon="5.30856">
        <ele>227.16634</ele>
        <time>2014-09-28T11:02:43Z</time>
      </trkpt>
      <trkpt lat="45.64413" lon="5.30867">
        <ele>226.50249</ele>
        <time>2014-09-28T11:02:48Z</time>
      </trkpt>
      <trkpt lat="45.64414" lon="5.30877">
        <ele>226.50249</ele>
        <time>2014-09-28T11:02:53Z</time>
      </trkpt>
      <trkpt lat="45.64413" lon="5.30889">
        <ele>225.89928</ele>
        <time>2014-09-28T11:02:58Z</time>
      </trkpt>
      <trkpt lat="45.64412" lon="5.309">
        <ele>225.89928</ele>
        <time>2014-09-28T11:03:03Z</time>
      </trkpt>
      <trkpt lat="45.64412" lon="5.30911">
        <ele>225.38129</ele>
        <time>2014-09-28T11:03:08Z</time>
      </trkpt>
      <trkpt lat="45.64412" lon="5.30922">
        <ele>225.38129</ele>
        <time>2014-09-28T11:03:13Z</time>
      </trkpt>
      <trkpt lat="45.64413" lon="5.30934">
        <ele>225.02858</ele>
        <time>2014-09-28T11:03:18Z</time>
      </trkpt>
      <trkpt lat="45.64413" lon="5.30945">
        <ele>225.02858</ele>
        <time>2014-09-28T11:03:23Z</time>
      </trkpt>
      <trkpt lat="45.64415" lon="5.30956">
        <ele>224.74194</ele>
        <time>2014-09-28T11:03:28Z</time>
      </trkpt>
      <trkpt lat="45.64416" lon="5.30967">
        <ele>224.74194</ele>
        <time>2014-09-28T11:03:33Z</time>
      </trkpt>
      <trkpt lat="45.64418" lon="5.30977">
        <ele>224.60213</ele>
        <time>2014-09-28T11:03:38Z</time>
      </trkpt>
      <trkpt lat="45.64418" lon="5.30988">
        <ele>224.60213</ele>
        <time>2014-09-28T11:03:43Z</time>
      </trkpt>
      <trkpt lat="45.64419" lon="5.30999">
        <ele>224.43857</ele>
        <time>2014-09-28T11:03:48Z</time>
      </trkpt>
      <trkpt lat="45.6442" lon="5.3101">
        <ele>224.43857</ele>
        <time>2014-09-28T11:03:53Z</time>
      </trkpt>
      <trkpt lat="45.64419" lon="5.31019">
        <ele>224.39583</ele>
        <time>2014-09-28T11:03:58Z</time>
      </trkpt>
      <trkpt lat="45.64414" lon="5.3102">
        <ele>224.39583</ele>
        <time>2014-09-28T11:04:03Z</time>
      </trkpt>
      <trkpt lat="45.64414" lon="5.3102">
        <ele>224.39583</ele>
        <time>2014-09-28T11:04:08Z</time>
      </trkpt>
      <trkpt lat="45.64412" lon="5.3102">
        <ele>224.39583</ele>
        <time>2014-09-28T11:04:13Z</time>
      </trkpt>
      <trkpt lat="45.6441" lon="5.31023">
        <ele>224.42018</ele>
        <time>2014-09-28T11:04:18Z</time>
      </trkpt>
      <trkpt lat="45.64405" lon="5.31025">
        <ele>224.42018</ele>
        <time>2014-09-28T11:04:23Z</time>
      </trkpt>
      <trkpt lat="45.64399" lon="5.31026">
        <ele>224.56253</ele>
        <time>2014-09-28T11:04:28Z</time>
      </trkpt>
      <trkpt lat="45.64394" lon="5.31028">
        <ele>224.56253</ele>
        <time>2014-09-28T11:04:33Z</time>
      </trkpt>
      <trkpt lat="45.64388" lon="5.31029">
        <ele>224.82646</ele>
        <time>2014-09-28T11:04:38Z</time>
      </trkpt>
      <trkpt lat="45.64383" lon="5.3103">
        <ele>224.82646</ele>
        <time>2014-09-28T11:04:43Z</time>
      </trkpt>
      <trkpt lat="45.64377" lon="5.3103">
        <ele>225.25815</ele>
        <time>2014-09-28T11:04:48Z</time>
      </trkpt>
      <trkpt lat="45.64371" lon="5.31031">
        <ele>225.25815</ele>
        <time>2014-09-28T11:04:53Z</time>
      </trkpt>
      <trkpt lat="45.64365" lon="5.31031">
        <ele>225.89996</ele>
        <time>2014-09-28T11:04:58Z</time>
      </trkpt>
      <trkpt lat="45.64359" lon="5.31031">
        <ele>225.89996</ele>
        <time>2014-09-28T11:05:03Z</time>
      </trkpt>
      <trkpt lat="45.64353" lon="5.31028">
        <ele>226.7041</ele>
        <time>2014-09-28T11:05:08Z</time>
      </trkpt>
      <trkpt lat="45.64349" lon="5.31022">
        <ele>226.7041</ele>
        <time>2014-09-28T11:05:13Z</time>
      </trkpt>
      <trkpt lat="45.64345" lon="5.31018">
        <ele>227.78435</ele>
        <time>2014-09-28T11:05:18Z</time>
      </trkpt>
      <trkpt lat="45.64341" lon="5.31017">
        <ele>227.78435</ele>
        <time>2014-09-28T11:05:23Z</time>
      </trkpt>
      <trkpt lat="45.64338" lon="5.31016">
        <ele>227.78435</ele>
        <time>2014-09-28T11:05:28Z</time>
      </trkpt>
      <trkpt lat="45.64336" lon="5.31015">
        <ele>229.05806</ele>
        <time>2014-09-28T11:05:33Z</time>
      </trkpt>
      <trkpt lat="45.64335" lon="5.31017">
        <ele>229.05806</ele>
        <time>2014-09-28T11:05:38Z</time>
      </trkpt>
      <trkpt lat="45.64335" lon="5.31019">
        <ele>229.05806</ele>
        <time>2014-09-28T11:05:43Z</time>
      </trkpt>
      <trkpt lat="45.64333" lon="5.31017">
        <ele>229.05806</ele>
        <time>2014-09-28T11:05:48Z</time>
      </trkpt>
      <trkpt lat="45.64332" lon="5.31016">
        <ele>229.05806</ele>
        <time>2014-09-28T11:05:53Z</time>
      </trkpt>
      <trkpt lat="45.64333" lon="5.31015">
        <ele>230.6211</ele>
        <time>2014-09-28T11:05:58Z</time>
      </trkpt>
      <trkpt lat="45.64333" lon="5.31015">
        <ele>230.6211</ele>
        <time>2014-09-28T11:06:03Z</time>
      </trkpt>
      <trkpt lat="45.64333" lon="5.31016">
        <ele>230.6211</ele>
        <time>2014-09-28T11:06:08Z</time>
      </trkpt>
      <trkpt lat="45.64333" lon="5.31016">
        <ele>230.6211</ele>
        <time>2014-09-28T11:06:13Z</time>
      </trkpt>
      <trkpt lat="45.64334" lon="5.31016">
        <ele>230.6211</ele>
        <time>2014-09-28T11:06:18Z</time>
      </trkpt>
      <trkpt lat="45.64334" lon="5.31016">
        <ele>230.6211</ele>
        <time>2014-09-28T11:06:23Z</time>
      </trkpt>
      <trkpt lat="45.64333" lon="5.31015">
        <ele>230.6211</ele>
        <time>2014-09-28T11:06:33Z</time>
      </trkpt>
      <trkpt lat="45.6433" lon="5.31018">
        <ele>230.6211</ele>
        <time>2014-09-28T11:06:38Z</time>
      </trkpt>
      <trkpt lat="45.64327" lon="5.31019">
        <ele>232.11478</ele>
        <time>2014-09-28T11:06:43Z</time>
      </trkpt>
      <trkpt lat="45.6433" lon="5.3102">
        <ele>232.11478</ele>
        <time>2014-09-28T11:06:48Z</time>
      </trkpt>
      <trkpt lat="45.64332" lon="5.31022">
        <ele>232.11478</ele>
        <time>2014-09-28T11:06:53Z</time>
      </trkpt>
      <trkpt lat="45.64331" lon="5.3102">
        <ele>232.11478</ele>
        <time>2014-09-28T11:07:03Z</time>
      </trkpt>
      <trkpt lat="45.64329" lon="5.31018">
        <ele>233.76909</ele>
        <time>2014-09-28T11:07:08Z</time>
      </trkpt>
      <trkpt lat="45.6433" lon="5.31018">
        <ele>233.76909</ele>
        <time>2014-09-28T11:07:13Z</time>
      </trkpt>
      <trkpt lat="45.6433" lon="5.31018">
        <ele>233.76909</ele>
        <time>2014-09-28T11:07:18Z</time>
      </trkpt>
      <trkpt lat="45.6433" lon="5.31017">
        <ele>233.76909</ele>
        <time>2014-09-28T11:07:23Z</time>
      </trkpt>
      <trkpt lat="45.6433" lon="5.31019">
        <ele>233.76909</ele>
        <time>2014-09-28T11:07:38Z</time>
      </trkpt>
      <trkpt lat="45.6433" lon="5.31016">
        <ele>233.76909</ele>
        <time>2014-09-28T11:07:48Z</time>
      </trkpt>
      <trkpt lat="45.6433" lon="5.31013">
        <ele>233.76909</ele>
        <time>2014-09-28T11:07:53Z</time>
      </trkpt>
      <trkpt lat="45.64332" lon="5.31014">
        <ele>234.94646</ele>
        <time>2014-09-28T11:07:58Z</time>
      </trkpt>
      <trkpt lat="45.64333" lon="5.31014">
        <ele>234.94646</ele>
        <time>2014-09-28T11:08:03Z</time>
      </trkpt>
      <trkpt lat="45.64332" lon="5.31014">
        <ele>234.94646</ele>
        <time>2014-09-28T11:08:08Z</time>
      </trkpt>
      <trkpt lat="45.64329" lon="5.31019">
        <ele>234.94646</ele>
        <time>2014-09-28T11:08:13Z</time>
      </trkpt>
      <trkpt lat="45.64326" lon="5.3102">
        <ele>234.94646</ele>
        <time>2014-09-28T11:08:18Z</time>
      </trkpt>
      <trkpt lat="45.64327" lon="5.31014">
        <ele>235.87906</ele>
        <time>2014-09-28T11:08:23Z</time>
      </trkpt>
      <trkpt lat="45.64329" lon="5.3101">
        <ele>235.87906</ele>
        <time>2014-09-28T11:08:28Z</time>
      </trkpt>
      <trkpt lat="45.6433" lon="5.31009">
        <ele>235.87906</ele>
        <time>2014-09-28T11:08:33Z</time>
      </trkpt>
      <trkpt lat="45.64332" lon="5.31012">
        <ele>235.87906</ele>
        <time>2014-09-28T11:08:38Z</time>
      </trkpt>
      <trkpt lat="45.64332" lon="5.31016">
        <ele>236.92686</ele>
        <time>2014-09-28T11:08:43Z</time>
      </trkpt>
      <trkpt lat="45.64326" lon="5.3102">
        <ele>236.92686</ele>
        <time>2014-09-28T11:28:15Z</time>
      </trkpt>
      <trkpt lat="45.64317" lon="5.31019">
        <ele>237.84677</ele>
        <time>2014-09-28T11:28:20Z</time>
      </trkpt>
      <trkpt lat="45.6431" lon="5.31019">
        <ele>237.84677</ele>
        <time>2014-09-28T11:28:25Z</time>
      </trkpt>
      <trkpt lat="45.64303" lon="5.31018">
        <ele>239.16338</ele>
        <time>2014-09-28T11:28:30Z</time>
      </trkpt>
      <trkpt lat="45.64295" lon="5.31019">
        <ele>239.16338</ele>
        <time>2014-09-28T11:28:35Z</time>
      </trkpt>
      <trkpt lat="45.64288" lon="5.31022">
        <ele>240.41058</ele>
        <time>2014-09-28T11:28:40Z</time>
      </trkpt>
      <trkpt lat="45.6428" lon="5.31024">
        <ele>240.41058</ele>
        <time>2014-09-28T11:28:45Z</time>
      </trkpt>
      <trkpt lat="45.64272" lon="5.31028">
        <ele>240.9119</ele>
        <time>2014-09-28T11:28:50Z</time>
      </trkpt>
      <trkpt lat="45.64265" lon="5.31028">
        <ele>240.9119</ele>
        <time>2014-09-28T11:28:55Z</time>
      </trkpt>
      <trkpt lat="45.64258" lon="5.3103">
        <ele>241.62793</ele>
        <time>2014-09-28T11:29:00Z</time>
      </trkpt>
      <trkpt lat="45.64252" lon="5.31033">
        <ele>241.62793</ele>
        <time>2014-09-28T11:29:05Z</time>
      </trkpt>
      <trkpt lat="45.64243" lon="5.31035">
        <ele>242.74208</ele>
        <time>2014-09-28T11:29:10Z</time>
      </trkpt>
      <trkpt lat="45.64236" lon="5.31037">
        <ele>242.74208</ele>
        <time>2014-09-28T11:29:15Z</time>
      </trkpt>
      <trkpt lat="45.64227" lon="5.31039">
        <ele>243.97658</ele>
        <time>2014-09-28T11:29:20Z</time>
      </trkpt>
      <trkpt lat="45.64219" lon="5.31039">
        <ele>243.97658</ele>
        <time>2014-09-28T11:29:25Z</time>
      </trkpt>
      <trkpt lat="45.64212" lon="5.31041">
        <ele>245.66464</ele>
        <time>2014-09-28T11:29:30Z</time>
      </trkpt>
      <trkpt lat="45.6421" lon="5.3105">
        <ele>245.66464</ele>
        <time>2014-09-28T11:29:35Z</time>
      </trkpt>
      <trkpt lat="45.64206" lon="5.31058">
        <ele>247.79689</ele>
        <time>2014-09-28T11:29:40Z</time>
      </trkpt>
      <trkpt lat="45.64204" lon="5.31066">
        <ele>247.79689</ele>
        <time>2014-09-28T11:29:45Z</time>
      </trkpt>
      <trkpt lat="45.64201" lon="5.31075">
        <ele>249.78699</ele>
        <time>2014-09-28T11:29:50Z</time>
      </trkpt>
      <trkpt lat="45.64201" lon="5.31085">
        <ele>249.78699</ele>
        <time>2014-09-28T11:29:55Z</time>
      </trkpt>
      <trkpt lat="45.64205" lon="5.31098">
        <ele>251.85608</ele>
        <time>2014-09-28T11:30:00Z</time>
      </trkpt>
      <trkpt lat="45.64208" lon="5.31118">
        <ele>253.71893</ele>
        <time>2014-09-28T11:30:05Z</time>
      </trkpt>
      <trkpt lat="45.64213" lon="5.31135">
        <ele>255.4579</ele>
        <time>2014-09-28T11:30:10Z</time>
      </trkpt>
      <trkpt lat="45.64218" lon="5.31155">
        <ele>257.193</ele>
        <time>2014-09-28T11:30:15Z</time>
      </trkpt>
      <trkpt lat="45.64222" lon="5.31169">
        <ele>259.09326</ele>
        <time>2014-09-28T11:30:20Z</time>
      </trkpt>
      <trkpt lat="45.64228" lon="5.31179">
        <ele>259.09326</ele>
        <time>2014-09-28T11:30:25Z</time>
      </trkpt>
      <trkpt lat="45.64231" lon="5.31186">
        <ele>260.88266</ele>
        <time>2014-09-28T11:30:30Z</time>
      </trkpt>
      <trkpt lat="45.64232" lon="5.31195">
        <ele>260.88266</ele>
        <time>2014-09-28T11:30:35Z</time>
      </trkpt>
      <trkpt lat="45.64236" lon="5.31202">
        <ele>262.59406</ele>
        <time>2014-09-28T11:30:40Z</time>
      </trkpt>
      <trkpt lat="45.64241" lon="5.31206">
        <ele>262.59406</ele>
        <time>2014-09-28T11:30:45Z</time>
      </trkpt>
      <trkpt lat="45.64248" lon="5.31211">
        <ele>264.35928</ele>
        <time>2014-09-28T11:30:50Z</time>
      </trkpt>
      <trkpt lat="45.64254" lon="5.31217">
        <ele>264.35928</ele>
        <time>2014-09-28T11:30:55Z</time>
      </trkpt>
      <trkpt lat="45.64259" lon="5.31221">
        <ele>266.11307</ele>
        <time>2014-09-28T11:31:00Z</time>
      </trkpt>
      <trkpt lat="45.64266" lon="5.31225">
        <ele>266.11307</ele>
        <time>2014-09-28T11:31:05Z</time>
      </trkpt>
      <trkpt lat="45.64274" lon="5.31232">
        <ele>267.62216</ele>
        <time>2014-09-28T11:31:10Z</time>
      </trkpt>
      <trkpt lat="45.64281" lon="5.31238">
        <ele>267.62216</ele>
        <time>2014-09-28T11:31:15Z</time>
      </trkpt>
      <trkpt lat="45.64285" lon="5.31247">
        <ele>269.00278</ele>
        <time>2014-09-28T11:31:20Z</time>
      </trkpt>
      <trkpt lat="45.64287" lon="5.31256">
        <ele>269.00278</ele>
        <time>2014-09-28T11:31:25Z</time>
      </trkpt>
      <trkpt lat="45.64292" lon="5.31261">
        <ele>270.39197</ele>
        <time>2014-09-28T11:31:30Z</time>
      </trkpt>
      <trkpt lat="45.64296" lon="5.31267">
        <ele>270.39197</ele>
        <time>2014-09-28T11:31:35Z</time>
      </trkpt>
      <trkpt lat="45.64302" lon="5.3127">
        <ele>271.80148</ele>
        <time>2014-09-28T11:31:40Z</time>
      </trkpt>
      <trkpt lat="45.64307" lon="5.31273">
        <ele>271.80148</ele>
        <time>2014-09-28T11:31:45Z</time>
      </trkpt>
      <trkpt lat="45.64312" lon="5.31278">
        <ele>272.8676</ele>
        <time>2014-09-28T11:31:50Z</time>
      </trkpt>
      <trkpt lat="45.64315" lon="5.31287">
        <ele>272.8676</ele>
        <time>2014-09-28T11:31:55Z</time>
      </trkpt>
      <trkpt lat="45.64324" lon="5.31294">
        <ele>273.7733</ele>
        <time>2014-09-28T11:32:00Z</time>
      </trkpt>
      <trkpt lat="45.6433" lon="5.31301">
        <ele>273.7733</ele>
        <time>2014-09-28T11:32:05Z</time>
      </trkpt>
      <trkpt lat="45.64335" lon="5.31313">
        <ele>274.61652</ele>
        <time>2014-09-28T11:32:10Z</time>
      </trkpt>
      <trkpt lat="45.64339" lon="5.31322">
        <ele>274.61652</ele>
        <time>2014-09-28T11:32:15Z</time>
      </trkpt>
      <trkpt lat="45.6434" lon="5.3133">
        <ele>275.2434</ele>
        <time>2014-09-28T11:32:20Z</time>
      </trkpt>
      <trkpt lat="45.64341" lon="5.31337">
        <ele>275.2434</ele>
        <time>2014-09-28T11:32:25Z</time>
      </trkpt>
      <trkpt lat="45.64343" lon="5.31347">
        <ele>275.6129</ele>
        <time>2014-09-28T11:32:30Z</time>
      </trkpt>
      <trkpt lat="45.64348" lon="5.31357">
        <ele>275.6129</ele>
        <time>2014-09-28T11:32:35Z</time>
      </trkpt>
      <trkpt lat="45.64353" lon="5.31369">
        <ele>275.05386</ele>
        <time>2014-09-28T11:32:40Z</time>
      </trkpt>
      <trkpt lat="45.64356" lon="5.31382">
        <ele>274.44568</ele>
        <time>2014-09-28T11:32:45Z</time>
      </trkpt>
      <trkpt lat="45.64357" lon="5.31394">
        <ele>274.44568</ele>
        <time>2014-09-28T11:32:50Z</time>
      </trkpt>
      <trkpt lat="45.64358" lon="5.31403">
        <ele>273.60913</ele>
        <time>2014-09-28T11:32:55Z</time>
      </trkpt>
      <trkpt lat="45.64358" lon="5.31413">
        <ele>273.60913</ele>
        <time>2014-09-28T11:33:00Z</time>
      </trkpt>
      <trkpt lat="45.64352" lon="5.31425">
        <ele>272.76788</ele>
        <time>2014-09-28T11:33:05Z</time>
      </trkpt>
      <trkpt lat="45.64348" lon="5.31436">
        <ele>272.76788</ele>
        <time>2014-09-28T11:33:10Z</time>
      </trkpt>
      <trkpt lat="45.64346" lon="5.31448">
        <ele>271.66806</ele>
        <time>2014-09-28T11:33:15Z</time>
      </trkpt>
      <trkpt lat="45.64342" lon="5.3146">
        <ele>271.66806</ele>
        <time>2014-09-28T11:33:20Z</time>
      </trkpt>
      <trkpt lat="45.64341" lon="5.31473">
        <ele>270.78137</ele>
        <time>2014-09-28T11:33:25Z</time>
      </trkpt>
      <trkpt lat="45.64341" lon="5.31485">
        <ele>270.78137</ele>
        <time>2014-09-28T11:33:30Z</time>
      </trkpt>
      <trkpt lat="45.64343" lon="5.315">
        <ele>269.766</ele>
        <time>2014-09-28T11:33:35Z</time>
      </trkpt>
      <trkpt lat="45.64343" lon="5.31516">
        <ele>268.6803</ele>
        <time>2014-09-28T11:33:40Z</time>
      </trkpt>
      <trkpt lat="45.64346" lon="5.31531">
        <ele>267.11734</ele>
        <time>2014-09-28T11:33:45Z</time>
      </trkpt>
      <trkpt lat="45.64346" lon="5.31549">
        <ele>265.3643</ele>
        <time>2014-09-28T11:33:50Z</time>
      </trkpt>
      <trkpt lat="45.64345" lon="5.31565">
        <ele>263.54355</ele>
        <time>2014-09-28T11:33:55Z</time>
      </trkpt>
      <trkpt lat="45.64346" lon="5.31583">
        <ele>261.99918</ele>
        <time>2014-09-28T11:34:00Z</time>
      </trkpt>
      <trkpt lat="45.64346" lon="5.31604">
        <ele>260.4151</ele>
        <time>2014-09-28T11:34:05Z</time>
      </trkpt>
      <trkpt lat="45.64347" lon="5.31625">
        <ele>259.03152</ele>
        <time>2014-09-28T11:34:10Z</time>
      </trkpt>
      <trkpt lat="45.64346" lon="5.31646">
        <ele>257.4652</ele>
        <time>2014-09-28T11:34:15Z</time>
      </trkpt>
      <trkpt lat="45.64345" lon="5.31661">
        <ele>255.60628</ele>
        <time>2014-09-28T11:34:20Z</time>
      </trkpt>
      <trkpt lat="45.64346" lon="5.31677">
        <ele>254.26161</ele>
        <time>2014-09-28T11:34:25Z</time>
      </trkpt>
      <trkpt lat="45.64349" lon="5.3169">
        <ele>253.37013</ele>
        <time>2014-09-28T11:34:30Z</time>
      </trkpt>
      <trkpt lat="45.6435" lon="5.31703">
        <ele>252.70094</ele>
        <time>2014-09-28T11:34:35Z</time>
      </trkpt>
      <trkpt lat="45.64348" lon="5.31715">
        <ele>252.70094</ele>
        <time>2014-09-28T11:34:40Z</time>
      </trkpt>
      <trkpt lat="45.64347" lon="5.31725">
        <ele>252.24104</ele>
        <time>2014-09-28T11:34:45Z</time>
      </trkpt>
      <trkpt lat="45.64344" lon="5.31735">
        <ele>252.24104</ele>
        <time>2014-09-28T11:34:50Z</time>
      </trkpt>
      <trkpt lat="45.64342" lon="5.31741">
        <ele>251.9488</ele>
        <time>2014-09-28T11:34:55Z</time>
      </trkpt>
      <trkpt lat="45.64339" lon="5.31747">
        <ele>251.9488</ele>
        <time>2014-09-28T11:35:00Z</time>
      </trkpt>
      <trkpt lat="45.64335" lon="5.31752">
        <ele>251.88596</ele>
        <time>2014-09-28T11:35:05Z</time>
      </trkpt>
      <trkpt lat="45.64332" lon="5.31761">
        <ele>251.88596</ele>
        <time>2014-09-28T11:35:10Z</time>
      </trkpt>
      <trkpt lat="45.64328" lon="5.3177">
        <ele>251.92152</ele>
        <time>2014-09-28T11:35:15Z</time>
      </trkpt>
      <trkpt lat="45.64322" lon="5.31781">
        <ele>251.89052</ele>
        <time>2014-09-28T11:35:20Z</time>
      </trkpt>
      <trkpt lat="45.64318" lon="5.31789">
        <ele>251.89052</ele>
        <time>2014-09-28T11:35:25Z</time>
      </trkpt>
      <trkpt lat="45.64314" lon="5.31798">
        <ele>251.8851</ele>
        <time>2014-09-28T11:35:30Z</time>
      </trkpt>
      <trkpt lat="45.64309" lon="5.31807">
        <ele>251.8851</ele>
        <time>2014-09-28T11:35:35Z</time>
      </trkpt>
      <trkpt lat="45.64304" lon="5.31819">
        <ele>252.10576</ele>
        <time>2014-09-28T11:35:40Z</time>
      </trkpt>
      <trkpt lat="45.643" lon="5.31831">
        <ele>252.4637</ele>
        <time>2014-09-28T11:35:45Z</time>
      </trkpt>
      <trkpt lat="45.64297" lon="5.31841">
        <ele>252.4637</ele>
        <time>2014-09-28T11:35:50Z</time>
      </trkpt>
      <trkpt lat="45.64292" lon="5.31851">
        <ele>253.26526</ele>
        <time>2014-09-28T11:35:55Z</time>
      </trkpt>
      <trkpt lat="45.64287" lon="5.31861">
        <ele>253.26526</ele>
        <time>2014-09-28T11:36:00Z</time>
      </trkpt>
      <trkpt lat="45.64284" lon="5.3187">
        <ele>254.2741</ele>
        <time>2014-09-28T11:36:05Z</time>
      </trkpt>
      <trkpt lat="45.64281" lon="5.31878">
        <ele>254.2741</ele>
        <time>2014-09-28T11:36:10Z</time>
      </trkpt>
      <trkpt lat="45.64278" lon="5.31889">
        <ele>255.64531</ele>
        <time>2014-09-28T11:36:15Z</time>
      </trkpt>
      <trkpt lat="45.64275" lon="5.31901">
        <ele>255.64531</ele>
        <time>2014-09-28T11:36:20Z</time>
      </trkpt>
      <trkpt lat="45.64273" lon="5.3191">
        <ele>256.97388</ele>
        <time>2014-09-28T11:36:25Z</time>
      </trkpt>
      <trkpt lat="45.64272" lon="5.31918">
        <ele>256.97388</ele>
        <time>2014-09-28T11:36:30Z</time>
      </trkpt>
      <trkpt lat="45.64273" lon="5.31928">
        <ele>258.41776</ele>
        <time>2014-09-28T11:36:35Z</time>
      </trkpt>
      <trkpt lat="45.64276" lon="5.31938">
        <ele>258.41776</ele>
        <time>2014-09-28T11:36:40Z</time>
      </trkpt>
      <trkpt lat="45.64279" lon="5.31949">
        <ele>259.86362</ele>
        <time>2014-09-28T11:36:45Z</time>
      </trkpt>
      <trkpt lat="45.64282" lon="5.31961">
        <ele>261.24963</ele>
        <time>2014-09-28T11:36:50Z</time>
      </trkpt>
      <trkpt lat="45.64284" lon="5.31972">
        <ele>261.24963</ele>
        <time>2014-09-28T11:36:55Z</time>
      </trkpt>
      <trkpt lat="45.64284" lon="5.31979">
        <ele>262.63394</ele>
        <time>2014-09-28T11:37:00Z</time>
      </trkpt>
      <trkpt lat="45.64289" lon="5.31989">
        <ele>262.63394</ele>
        <time>2014-09-28T11:37:05Z</time>
      </trkpt>
      <trkpt lat="45.64291" lon="5.32001">
        <ele>263.99835</ele>
        <time>2014-09-28T11:37:10Z</time>
      </trkpt>
      <trkpt lat="45.64294" lon="5.32013">
        <ele>265.2829</ele>
        <time>2014-09-28T11:37:15Z</time>
      </trkpt>
      <trkpt lat="45.64296" lon="5.32021">
        <ele>265.2829</ele>
        <time>2014-09-28T11:37:20Z</time>
      </trkpt>
      <trkpt lat="45.64297" lon="5.32031">
        <ele>266.72046</ele>
        <time>2014-09-28T11:37:25Z</time>
      </trkpt>
      <trkpt lat="45.64296" lon="5.32039">
        <ele>266.72046</ele>
        <time>2014-09-28T11:37:30Z</time>
      </trkpt>
      <trkpt lat="45.64298" lon="5.3205">
        <ele>268.06525</ele>
        <time>2014-09-28T11:37:35Z</time>
      </trkpt>
      <trkpt lat="45.64299" lon="5.3206">
        <ele>268.06525</ele>
        <time>2014-09-28T11:37:40Z</time>
      </trkpt>
      <trkpt lat="45.64298" lon="5.32069">
        <ele>269.23398</ele>
        <time>2014-09-28T11:37:45Z</time>
      </trkpt>
      <trkpt lat="45.64297" lon="5.32079">
        <ele>269.23398</ele>
        <time>2014-09-28T11:37:50Z</time>
      </trkpt>
      <trkpt lat="45.64294" lon="5.32088">
        <ele>270.29407</ele>
        <time>2014-09-28T11:37:55Z</time>
      </trkpt>
      <trkpt lat="45.64291" lon="5.32099">
        <ele>270.29407</ele>
        <time>2014-09-28T11:38:00Z</time>
      </trkpt>
      <trkpt lat="45.64287" lon="5.32111">
        <ele>271.29404</ele>
        <time>2014-09-28T11:38:05Z</time>
      </trkpt>
      <trkpt lat="45.64284" lon="5.32121">
        <ele>271.29404</ele>
        <time>2014-09-28T11:38:10Z</time>
      </trkpt>
      <trkpt lat="45.64281" lon="5.32132">
        <ele>272.4375</ele>
        <time>2014-09-28T11:38:15Z</time>
      </trkpt>
      <trkpt lat="45.64279" lon="5.32143">
        <ele>272.4375</ele>
        <time>2014-09-28T11:38:20Z</time>
      </trkpt>
      <trkpt lat="45.64277" lon="5.32153">
        <ele>273.40842</ele>
        <time>2014-09-28T11:38:25Z</time>
      </trkpt>
      <trkpt lat="45.64277" lon="5.32167">
        <ele>274.33246</ele>
        <time>2014-09-28T11:38:30Z</time>
      </trkpt>
      <trkpt lat="45.64278" lon="5.32181">
        <ele>275.09567</ele>
        <time>2014-09-28T11:38:35Z</time>
      </trkpt>
      <trkpt lat="45.64282" lon="5.3219">
        <ele>275.09567</ele>
        <time>2014-09-28T11:38:40Z</time>
      </trkpt>
      <trkpt lat="45.64286" lon="5.322">
        <ele>275.593</ele>
        <time>2014-09-28T11:38:45Z</time>
      </trkpt>
      <trkpt lat="45.64288" lon="5.32212">
        <ele>275.593</ele>
        <time>2014-09-28T11:38:50Z</time>
      </trkpt>
      <trkpt lat="45.64291" lon="5.32222">
        <ele>275.78546</ele>
        <time>2014-09-28T11:38:55Z</time>
      </trkpt>
      <trkpt lat="45.64288" lon="5.32232">
        <ele>275.78546</ele>
        <time>2014-09-28T11:39:00Z</time>
      </trkpt>
      <trkpt lat="45.64284" lon="5.32242">
        <ele>275.59485</ele>
        <time>2014-09-28T11:39:05Z</time>
      </trkpt>
      <trkpt lat="45.64281" lon="5.32252">
        <ele>275.59485</ele>
        <time>2014-09-28T11:39:10Z</time>
      </trkpt>
      <trkpt lat="45.64277" lon="5.32262">
        <ele>275.06488</ele>
        <time>2014-09-28T11:39:15Z</time>
      </trkpt>
      <trkpt lat="45.64272" lon="5.32272">
        <ele>275.06488</ele>
        <time>2014-09-28T11:39:20Z</time>
      </trkpt>
      <trkpt lat="45.64266" lon="5.32283">
        <ele>273.71844</ele>
        <time>2014-09-28T11:39:25Z</time>
      </trkpt>
      <trkpt lat="45.64259" lon="5.32293">
        <ele>272.09564</ele>
        <time>2014-09-28T11:39:30Z</time>
      </trkpt>
      <trkpt lat="45.64254" lon="5.32299">
        <ele>272.09564</ele>
        <time>2014-09-28T11:39:35Z</time>
      </trkpt>
      <trkpt lat="45.64251" lon="5.32303">
        <ele>270.55368</ele>
        <time>2014-09-28T11:39:40Z</time>
      </trkpt>
      <trkpt lat="45.64247" lon="5.3231">
        <ele>270.55368</ele>
        <time>2014-09-28T11:39:45Z</time>
      </trkpt>
      <trkpt lat="45.64242" lon="5.32322">
        <ele>269.61057</ele>
        <time>2014-09-28T11:39:50Z</time>
      </trkpt>
      <trkpt lat="45.64232" lon="5.32342">
        <ele>268.59174</ele>
        <time>2014-09-28T11:39:55Z</time>
      </trkpt>
      <trkpt lat="45.64226" lon="5.32352">
        <ele>267.49207</ele>
        <time>2014-09-28T11:40:00Z</time>
      </trkpt>
      <trkpt lat="45.64215" lon="5.32373">
        <ele>266.06192</ele>
        <time>2014-09-28T11:40:15Z</time>
      </trkpt>
      <trkpt lat="45.64213" lon="5.32377">
        <ele>266.06192</ele>
        <time>2014-09-28T11:40:20Z</time>
      </trkpt>
      <trkpt lat="45.6421" lon="5.32381">
        <ele>266.06192</ele>
        <time>2014-09-28T11:40:25Z</time>
      </trkpt>
      <trkpt lat="45.64209" lon="5.32382">
        <ele>266.06192</ele>
        <time>2014-09-28T11:40:30Z</time>
      </trkpt>
      <trkpt lat="45.64209" lon="5.32385">
        <ele>264.3448</ele>
        <time>2014-09-28T11:40:35Z</time>
      </trkpt>
      <trkpt lat="45.64209" lon="5.32385">
        <ele>264.3448</ele>
        <time>2014-09-28T11:40:40Z</time>
      </trkpt>
      <trkpt lat="45.64212" lon="5.32388">
        <ele>264.3448</ele>
        <time>2014-09-28T11:40:45Z</time>
      </trkpt>
      <trkpt lat="45.64213" lon="5.32396">
        <ele>262.6411</ele>
        <time>2014-09-28T11:40:50Z</time>
      </trkpt>
      <trkpt lat="45.64211" lon="5.32414">
        <ele>261.02737</ele>
        <time>2014-09-28T11:40:55Z</time>
      </trkpt>
      <trkpt lat="45.64208" lon="5.3243">
        <ele>259.41562</ele>
        <time>2014-09-28T11:41:00Z</time>
      </trkpt>
      <trkpt lat="45.64203" lon="5.32444">
        <ele>257.70984</ele>
        <time>2014-09-28T11:41:05Z</time>
      </trkpt>
      <trkpt lat="45.64199" lon="5.32455">
        <ele>257.70984</ele>
        <time>2014-09-28T11:41:10Z</time>
      </trkpt>
      <trkpt lat="45.64196" lon="5.32467">
        <ele>256.0518</ele>
        <time>2014-09-28T11:41:15Z</time>
      </trkpt>
      <trkpt lat="45.64194" lon="5.32478">
        <ele>256.0518</ele>
        <time>2014-09-28T11:41:20Z</time>
      </trkpt>
      <trkpt lat="45.64191" lon="5.32485">
        <ele>254.37091</ele>
        <time>2014-09-28T11:41:25Z</time>
      </trkpt>
      <trkpt lat="45.64188" lon="5.32494">
        <ele>254.37091</ele>
        <time>2014-09-28T11:41:30Z</time>
      </trkpt>
      <trkpt lat="45.64186" lon="5.32503">
        <ele>252.70256</ele>
        <time>2014-09-28T11:41:35Z</time>
      </trkpt>
      <trkpt lat="45.64185" lon="5.3251">
        <ele>252.70256</ele>
        <time>2014-09-28T11:41:40Z</time>
      </trkpt>
      <trkpt lat="45.64183" lon="5.32519">
        <ele>251.31001</ele>
        <time>2014-09-28T11:41:45Z</time>
      </trkpt>
      <trkpt lat="45.6418" lon="5.32531">
        <ele>249.75893</ele>
        <time>2014-09-28T11:41:50Z</time>
      </trkpt>
      <trkpt lat="45.6418" lon="5.32543">
        <ele>249.75893</ele>
        <time>2014-09-28T11:41:55Z</time>
      </trkpt>
      <trkpt lat="45.64179" lon="5.32556">
        <ele>248.18044</ele>
        <time>2014-09-28T11:42:00Z</time>
      </trkpt>
      <trkpt lat="45.64178" lon="5.32567">
        <ele>248.18044</ele>
        <time>2014-09-28T11:42:05Z</time>
      </trkpt>
      <trkpt lat="45.64177" lon="5.32576">
        <ele>246.6383</ele>
        <time>2014-09-28T11:42:10Z</time>
      </trkpt>
      <trkpt lat="45.64177" lon="5.32587">
        <ele>246.6383</ele>
        <time>2014-09-28T11:42:15Z</time>
      </trkpt>
      <trkpt lat="45.64178" lon="5.32596">
        <ele>245.13379</ele>
        <time>2014-09-28T11:42:20Z</time>
      </trkpt>
      <trkpt lat="45.64179" lon="5.32606">
        <ele>245.13379</ele>
        <time>2014-09-28T11:42:25Z</time>
      </trkpt>
      <trkpt lat="45.6418" lon="5.32615">
        <ele>244.12895</ele>
        <time>2014-09-28T11:42:30Z</time>
      </trkpt>
      <trkpt lat="45.64184" lon="5.3262">
        <ele>244.12895</ele>
        <time>2014-09-28T11:42:35Z</time>
      </trkpt>
      <trkpt lat="45.64189" lon="5.32624">
        <ele>243.30098</ele>
        <time>2014-09-28T11:42:40Z</time>
      </trkpt>
      <trkpt lat="45.64192" lon="5.3263">
        <ele>243.30098</ele>
        <time>2014-09-28T11:42:45Z</time>
      </trkpt>
      <trkpt lat="45.64199" lon="5.32634">
        <ele>242.624</ele>
        <time>2014-09-28T11:42:50Z</time>
      </trkpt>
      <trkpt lat="45.64207" lon="5.32638">
        <ele>242.624</ele>
        <time>2014-09-28T11:42:55Z</time>
      </trkpt>
      <trkpt lat="45.64216" lon="5.32645">
        <ele>241.56906</ele>
        <time>2014-09-28T11:43:00Z</time>
      </trkpt>
      <trkpt lat="45.6422" lon="5.32654">
        <ele>241.56906</ele>
        <time>2014-09-28T11:43:05Z</time>
      </trkpt>
      <trkpt lat="45.64218" lon="5.32664">
        <ele>240.45407</ele>
        <time>2014-09-28T11:43:10Z</time>
      </trkpt>
      <trkpt lat="45.64216" lon="5.32674">
        <ele>240.45407</ele>
        <time>2014-09-28T11:43:15Z</time>
      </trkpt>
      <trkpt lat="45.64216" lon="5.32681">
        <ele>239.5304</ele>
        <time>2014-09-28T11:43:20Z</time>
      </trkpt>
      <trkpt lat="45.64214" lon="5.32693">
        <ele>239.5304</ele>
        <time>2014-09-28T11:43:25Z</time>
      </trkpt>
      <trkpt lat="45.64212" lon="5.32704">
        <ele>239.01587</ele>
        <time>2014-09-28T11:43:30Z</time>
      </trkpt>
      <trkpt lat="45.64209" lon="5.32714">
        <ele>239.01587</ele>
        <time>2014-09-28T11:43:35Z</time>
      </trkpt>
      <trkpt lat="45.64207" lon="5.32726">
        <ele>238.80844</ele>
        <time>2014-09-28T11:43:40Z</time>
      </trkpt>
      <trkpt lat="45.64204" lon="5.32738">
        <ele>238.75494</ele>
        <time>2014-09-28T11:43:45Z</time>
      </trkpt>
      <trkpt lat="45.64203" lon="5.32749">
        <ele>238.75494</ele>
        <time>2014-09-28T11:43:50Z</time>
      </trkpt>
      <trkpt lat="45.64201" lon="5.3276">
        <ele>238.71297</ele>
        <time>2014-09-28T11:43:55Z</time>
      </trkpt>
      <trkpt lat="45.64198" lon="5.32771">
        <ele>238.71297</ele>
        <time>2014-09-28T11:44:00Z</time>
      </trkpt>
      <trkpt lat="45.64196" lon="5.32782">
        <ele>238.6369</ele>
        <time>2014-09-28T11:44:05Z</time>
      </trkpt>
      <trkpt lat="45.64193" lon="5.32795">
        <ele>238.49893</ele>
        <time>2014-09-28T11:44:10Z</time>
      </trkpt>
      <trkpt lat="45.64191" lon="5.32806">
        <ele>238.49893</ele>
        <time>2014-09-28T11:44:15Z</time>
      </trkpt>
      <trkpt lat="45.6419" lon="5.32815">
        <ele>238.43192</ele>
        <time>2014-09-28T11:44:20Z</time>
      </trkpt>
      <trkpt lat="45.6419" lon="5.32825">
        <ele>238.43192</ele>
        <time>2014-09-28T11:44:25Z</time>
      </trkpt>
      <trkpt lat="45.64188" lon="5.32836">
        <ele>238.40019</ele>
        <time>2014-09-28T11:44:30Z</time>
      </trkpt>
      <trkpt lat="45.64187" lon="5.32847">
        <ele>238.40019</ele>
        <time>2014-09-28T11:44:35Z</time>
      </trkpt>
      <trkpt lat="45.64186" lon="5.32857">
        <ele>238.34175</ele>
        <time>2014-09-28T11:44:40Z</time>
      </trkpt>
      <trkpt lat="45.64185" lon="5.32868">
        <ele>238.34175</ele>
        <time>2014-09-28T11:44:45Z</time>
      </trkpt>
      <trkpt lat="45.64183" lon="5.32878">
        <ele>238.25684</ele>
        <time>2014-09-28T11:44:50Z</time>
      </trkpt>
      <trkpt lat="45.64181" lon="5.32891">
        <ele>238.20335</ele>
        <time>2014-09-28T11:44:55Z</time>
      </trkpt>
      <trkpt lat="45.6418" lon="5.32903">
        <ele>238.20335</ele>
        <time>2014-09-28T11:45:00Z</time>
      </trkpt>
      <trkpt lat="45.64178" lon="5.32913">
        <ele>238.19164</ele>
        <time>2014-09-28T11:45:05Z</time>
      </trkpt>
      <trkpt lat="45.64176" lon="5.32923">
        <ele>238.19164</ele>
        <time>2014-09-28T11:45:10Z</time>
      </trkpt>
      <trkpt lat="45.64175" lon="5.32934">
        <ele>238.33197</ele>
        <time>2014-09-28T11:45:15Z</time>
      </trkpt>
      <trkpt lat="45.64173" lon="5.32945">
        <ele>238.33197</ele>
        <time>2014-09-28T11:45:20Z</time>
      </trkpt>
      <trkpt lat="45.64171" lon="5.32959">
        <ele>238.58203</ele>
        <time>2014-09-28T11:45:25Z</time>
      </trkpt>
      <trkpt lat="45.6417" lon="5.3297">
        <ele>238.58203</ele>
        <time>2014-09-28T11:45:30Z</time>
      </trkpt>
      <trkpt lat="45.64168" lon="5.32979">
        <ele>238.94554</ele>
        <time>2014-09-28T11:45:35Z</time>
      </trkpt>
      <trkpt lat="45.64166" lon="5.32987">
        <ele>238.94554</ele>
        <time>2014-09-28T11:45:40Z</time>
      </trkpt>
      <trkpt lat="45.64164" lon="5.32996">
        <ele>239.29591</ele>
        <time>2014-09-28T11:45:45Z</time>
      </trkpt>
      <trkpt lat="45.64161" lon="5.33008">
        <ele>239.29591</ele>
        <time>2014-09-28T11:45:50Z</time>
      </trkpt>
      <trkpt lat="45.64159" lon="5.33021">
        <ele>239.70328</ele>
        <time>2014-09-28T11:45:55Z</time>
      </trkpt>
      <trkpt lat="45.64157" lon="5.33036">
        <ele>240.21808</ele>
        <time>2014-09-28T11:46:00Z</time>
      </trkpt>
      <trkpt lat="45.64156" lon="5.33048">
        <ele>240.21808</ele>
        <time>2014-09-28T11:46:05Z</time>
      </trkpt>
      <trkpt lat="45.64155" lon="5.33061">
        <ele>240.80028</ele>
        <time>2014-09-28T11:46:10Z</time>
      </trkpt>
      <trkpt lat="45.64154" lon="5.33073">
        <ele>240.80028</ele>
        <time>2014-09-28T11:46:15Z</time>
      </trkpt>
      <trkpt lat="45.64153" lon="5.33085">
        <ele>241.41269</ele>
        <time>2014-09-28T11:46:20Z</time>
      </trkpt>
      <trkpt lat="45.64153" lon="5.33096">
        <ele>241.41269</ele>
        <time>2014-09-28T11:46:25Z</time>
      </trkpt>
      <trkpt lat="45.64154" lon="5.33109">
        <ele>242.26576</ele>
        <time>2014-09-28T11:46:30Z</time>
      </trkpt>
      <trkpt lat="45.64153" lon="5.33122">
        <ele>243.20802</ele>
        <time>2014-09-28T11:46:35Z</time>
      </trkpt>
      <trkpt lat="45.64154" lon="5.33129">
        <ele>243.20802</ele>
        <time>2014-09-28T11:46:40Z</time>
      </trkpt>
      <trkpt lat="45.64155" lon="5.3314">
        <ele>244.11336</ele>
        <time>2014-09-28T11:46:45Z</time>
      </trkpt>
      <trkpt lat="45.64155" lon="5.3315">
        <ele>244.11336</ele>
        <time>2014-09-28T11:46:50Z</time>
      </trkpt>
      <trkpt lat="45.64154" lon="5.33165">
        <ele>245.02359</ele>
        <time>2014-09-28T11:46:55Z</time>
      </trkpt>
      <trkpt lat="45.64154" lon="5.3318">
        <ele>245.93433</ele>
        <time>2014-09-28T11:47:00Z</time>
      </trkpt>
      <trkpt lat="45.6415" lon="5.33197">
        <ele>246.74068</ele>
        <time>2014-09-28T11:47:05Z</time>
      </trkpt>
      <trkpt lat="45.64149" lon="5.33209">
        <ele>246.74068</ele>
        <time>2014-09-28T11:47:10Z</time>
      </trkpt>
      <trkpt lat="45.64147" lon="5.33219">
        <ele>247.5332</ele>
        <time>2014-09-28T11:47:15Z</time>
      </trkpt>
      <trkpt lat="45.64146" lon="5.33229">
        <ele>247.5332</ele>
        <time>2014-09-28T11:47:20Z</time>
      </trkpt>
      <trkpt lat="45.64144" lon="5.33241">
        <ele>248.1942</ele>
        <time>2014-09-28T11:47:25Z</time>
      </trkpt>
      <trkpt lat="45.64143" lon="5.33252">
        <ele>248.1942</ele>
        <time>2014-09-28T11:47:30Z</time>
      </trkpt>
      <trkpt lat="45.64143" lon="5.33262">
        <ele>248.68709</ele>
        <time>2014-09-28T11:47:35Z</time>
      </trkpt>
      <trkpt lat="45.64143" lon="5.33274">
        <ele>248.68709</ele>
        <time>2014-09-28T11:47:40Z</time>
      </trkpt>
      <trkpt lat="45.64143" lon="5.33286">
        <ele>249.05064</ele>
        <time>2014-09-28T11:47:45Z</time>
      </trkpt>
      <trkpt lat="45.64145" lon="5.33297">
        <ele>249.05064</ele>
        <time>2014-09-28T11:47:50Z</time>
      </trkpt>
      <trkpt lat="45.64146" lon="5.33309">
        <ele>249.4077</ele>
        <time>2014-09-28T11:47:55Z</time>
      </trkpt>
      <trkpt lat="45.64147" lon="5.33319">
        <ele>249.4077</ele>
        <time>2014-09-28T11:48:00Z</time>
      </trkpt>
      <trkpt lat="45.64148" lon="5.33332">
        <ele>249.65602</ele>
        <time>2014-09-28T11:48:05Z</time>
      </trkpt>
      <trkpt lat="45.6415" lon="5.33344">
        <ele>249.84538</ele>
        <time>2014-09-28T11:48:10Z</time>
      </trkpt>
      <trkpt lat="45.64151" lon="5.33357">
        <ele>249.84538</ele>
        <time>2014-09-28T11:48:15Z</time>
      </trkpt>
      <trkpt lat="45.64155" lon="5.3337">
        <ele>250.03658</ele>
        <time>2014-09-28T11:48:20Z</time>
      </trkpt>
      <trkpt lat="45.64158" lon="5.3338">
        <ele>250.03658</ele>
        <time>2014-09-28T11:48:25Z</time>
      </trkpt>
      <trkpt lat="45.64161" lon="5.33389">
        <ele>250.18515</ele>
        <time>2014-09-28T11:48:30Z</time>
      </trkpt>
      <trkpt lat="45.64164" lon="5.33399">
        <ele>250.18515</ele>
        <time>2014-09-28T11:48:35Z</time>
      </trkpt>
      <trkpt lat="45.64168" lon="5.33413">
        <ele>250.2213</ele>
        <time>2014-09-28T11:48:40Z</time>
      </trkpt>
      <trkpt lat="45.64169" lon="5.33423">
        <ele>250.2213</ele>
        <time>2014-09-28T11:48:45Z</time>
      </trkpt>
      <trkpt lat="45.64171" lon="5.33433">
        <ele>250.29688</ele>
        <time>2014-09-28T11:48:50Z</time>
      </trkpt>
      <trkpt lat="45.6418" lon="5.33444">
        <ele>250.49493</ele>
        <time>2014-09-28T11:48:55Z</time>
      </trkpt>
      <trkpt lat="45.64183" lon="5.33455">
        <ele>250.74802</ele>
        <time>2014-09-28T11:49:00Z</time>
      </trkpt>
      <trkpt lat="45.64187" lon="5.33466">
        <ele>250.74802</ele>
        <time>2014-09-28T11:49:05Z</time>
      </trkpt>
      <trkpt lat="45.6419" lon="5.33477">
        <ele>251.05122</ele>
        <time>2014-09-28T11:49:10Z</time>
      </trkpt>
      <trkpt lat="45.64194" lon="5.33488">
        <ele>251.05122</ele>
        <time>2014-09-28T11:49:15Z</time>
      </trkpt>
      <trkpt lat="45.64196" lon="5.33498">
        <ele>251.14052</ele>
        <time>2014-09-28T11:49:20Z</time>
      </trkpt>
      <trkpt lat="45.64197" lon="5.33507">
        <ele>251.14052</ele>
        <time>2014-09-28T11:49:25Z</time>
      </trkpt>
      <trkpt lat="45.642" lon="5.33518">
        <ele>250.916</ele>
        <time>2014-09-28T11:49:30Z</time>
      </trkpt>
      <trkpt lat="45.64205" lon="5.33532">
        <ele>250.68962</ele>
        <time>2014-09-28T11:49:35Z</time>
      </trkpt>
      <trkpt lat="45.64208" lon="5.33546">
        <ele>250.4334</ele>
        <time>2014-09-28T11:49:40Z</time>
      </trkpt>
      <trkpt lat="45.64212" lon="5.33557">
        <ele>250.4334</ele>
        <time>2014-09-28T11:49:45Z</time>
      </trkpt>
      <trkpt lat="45.64215" lon="5.33569">
        <ele>249.8333</ele>
        <time>2014-09-28T11:49:50Z</time>
      </trkpt>
      <trkpt lat="45.64219" lon="5.33579">
        <ele>249.8333</ele>
        <time>2014-09-28T11:49:55Z</time>
      </trkpt>
      <trkpt lat="45.64222" lon="5.33592">
        <ele>249.30554</ele>
        <time>2014-09-28T11:50:00Z</time>
      </trkpt>
      <trkpt lat="45.64224" lon="5.33604">
        <ele>249.30554</ele>
        <time>2014-09-28T11:50:05Z</time>
      </trkpt>
      <trkpt lat="45.64224" lon="5.33614">
        <ele>248.80324</ele>
        <time>2014-09-28T11:50:10Z</time>
      </trkpt>
      <trkpt lat="45.64227" lon="5.33623">
        <ele>248.80324</ele>
        <time>2014-09-28T11:50:15Z</time>
      </trkpt>
      <trkpt lat="45.64228" lon="5.33633">
        <ele>248.16763</ele>
        <time>2014-09-28T11:50:20Z</time>
      </trkpt>
      <trkpt lat="45.64229" lon="5.33643">
        <ele>248.16763</ele>
        <time>2014-09-28T11:50:25Z</time>
      </trkpt>
      <trkpt lat="45.6423" lon="5.33649">
        <ele>247.69875</ele>
        <time>2014-09-28T11:50:30Z</time>
      </trkpt>
      <trkpt lat="45.6423" lon="5.33657">
        <ele>247.69875</ele>
        <time>2014-09-28T11:50:35Z</time>
      </trkpt>
      <trkpt lat="45.64228" lon="5.33667">
        <ele>246.56448</ele>
        <time>2014-09-28T11:50:40Z</time>
      </trkpt>
      <trkpt lat="45.64228" lon="5.33673">
        <ele>246.56448</ele>
        <time>2014-09-28T11:50:45Z</time>
      </trkpt>
      <trkpt lat="45.64226" lon="5.33681">
        <ele>245.20622</ele>
        <time>2014-09-28T11:50:50Z</time>
      </trkpt>
      <trkpt lat="45.64225" lon="5.33689">
        <ele>245.20622</ele>
        <time>2014-09-28T11:50:55Z</time>
      </trkpt>
      <trkpt lat="45.64222" lon="5.33702">
        <ele>243.87508</ele>
        <time>2014-09-28T11:51:00Z</time>
      </trkpt>
      <trkpt lat="45.64222" lon="5.33714">
        <ele>243.87508</ele>
        <time>2014-09-28T11:51:05Z</time>
      </trkpt>
      <trkpt lat="45.6422" lon="5.33724">
        <ele>242.51535</ele>
        <time>2014-09-28T11:51:10Z</time>
      </trkpt>
      <trkpt lat="45.64219" lon="5.33737">
        <ele>241.21962</ele>
        <time>2014-09-28T11:51:15Z</time>
      </trkpt>
      <trkpt lat="45.64224" lon="5.33746">
        <ele>241.21962</ele>
        <time>2014-09-28T11:51:20Z</time>
      </trkpt>
      <trkpt lat="45.6423" lon="5.33752">
        <ele>240.01581</ele>
        <time>2014-09-28T11:51:25Z</time>
      </trkpt>
      <trkpt lat="45.64237" lon="5.33756">
        <ele>240.01581</ele>
        <time>2014-09-28T11:51:30Z</time>
      </trkpt>
      <trkpt lat="45.64243" lon="5.33758">
        <ele>238.843</ele>
        <time>2014-09-28T11:51:35Z</time>
      </trkpt>
      <trkpt lat="45.6425" lon="5.33758">
        <ele>238.843</ele>
        <time>2014-09-28T11:51:40Z</time>
      </trkpt>
      <trkpt lat="45.64259" lon="5.33761">
        <ele>237.55818</ele>
        <time>2014-09-28T11:51:45Z</time>
      </trkpt>
      <trkpt lat="45.64268" lon="5.33766">
        <ele>236.30287</ele>
        <time>2014-09-28T11:51:50Z</time>
      </trkpt>
      <trkpt lat="45.64277" lon="5.33769">
        <ele>236.30287</ele>
        <time>2014-09-28T11:51:55Z</time>
      </trkpt>
      <trkpt lat="45.64285" lon="5.33772">
        <ele>235.17923</ele>
        <time>2014-09-28T11:52:00Z</time>
      </trkpt>
      <trkpt lat="45.64291" lon="5.33773">
        <ele>235.17923</ele>
        <time>2014-09-28T11:52:05Z</time>
      </trkpt>
      <trkpt lat="45.64298" lon="5.33773">
        <ele>234.16621</ele>
        <time>2014-09-28T11:52:10Z</time>
      </trkpt>
      <trkpt lat="45.64306" lon="5.33775">
        <ele>234.16621</ele>
        <time>2014-09-28T11:52:15Z</time>
      </trkpt>
      <trkpt lat="45.64313" lon="5.33778">
        <ele>233.31595</ele>
        <time>2014-09-28T11:52:20Z</time>
      </trkpt>
      <trkpt lat="45.6432" lon="5.33781">
        <ele>233.31595</ele>
        <time>2014-09-28T11:52:25Z</time>
      </trkpt>
      <trkpt lat="45.64327" lon="5.33783">
        <ele>232.40244</ele>
        <time>2014-09-28T11:52:30Z</time>
      </trkpt>
      <trkpt lat="45.64336" lon="5.33784">
        <ele>232.40244</ele>
        <time>2014-09-28T11:52:35Z</time>
      </trkpt>
      <trkpt lat="45.64343" lon="5.33787">
        <ele>231.47575</ele>
        <time>2014-09-28T11:52:40Z</time>
      </trkpt>
      <trkpt lat="45.6435" lon="5.33788">
        <ele>231.47575</ele>
        <time>2014-09-28T11:52:45Z</time>
      </trkpt>
      <trkpt lat="45.64356" lon="5.33789">
        <ele>230.69754</ele>
        <time>2014-09-28T11:52:50Z</time>
      </trkpt>
      <trkpt lat="45.64367" lon="5.3379">
        <ele>229.91444</ele>
        <time>2014-09-28T11:52:55Z</time>
      </trkpt>
      <trkpt lat="45.64377" lon="5.33792">
        <ele>229.11401</ele>
        <time>2014-09-28T11:53:00Z</time>
      </trkpt>
      <trkpt lat="45.64386" lon="5.33795">
        <ele>229.11401</ele>
        <time>2014-09-28T11:53:05Z</time>
      </trkpt>
      <trkpt lat="45.64395" lon="5.33798">
        <ele>228.48645</ele>
        <time>2014-09-28T11:53:10Z</time>
      </trkpt>
      <trkpt lat="45.64404" lon="5.33801">
        <ele>228.14975</ele>
        <time>2014-09-28T11:53:15Z</time>
      </trkpt>
      <trkpt lat="45.64412" lon="5.33803">
        <ele>228.14975</ele>
        <time>2014-09-28T11:53:20Z</time>
      </trkpt>
      <trkpt lat="45.64418" lon="5.33805">
        <ele>227.90976</ele>
        <time>2014-09-28T11:53:25Z</time>
      </trkpt>
      <trkpt lat="45.64425" lon="5.33806">
        <ele>227.90976</ele>
        <time>2014-09-28T11:53:30Z</time>
      </trkpt>
      <trkpt lat="45.64429" lon="5.33809">
        <ele>227.86002</ele>
        <time>2014-09-28T11:53:35Z</time>
      </trkpt>
      <trkpt lat="45.64433" lon="5.33813">
        <ele>227.86002</ele>
        <time>2014-09-28T11:53:40Z</time>
      </trkpt>
      <trkpt lat="45.64441" lon="5.33814">
        <ele>227.95694</ele>
        <time>2014-09-28T11:53:45Z</time>
      </trkpt>
      <trkpt lat="45.64448" lon="5.33814">
        <ele>227.95694</ele>
        <time>2014-09-28T11:53:50Z</time>
      </trkpt>
      <trkpt lat="45.6446" lon="5.33816">
        <ele>228.33257</ele>
        <time>2014-09-28T11:53:55Z</time>
      </trkpt>
      <trkpt lat="45.6447" lon="5.33816">
        <ele>228.77701</ele>
        <time>2014-09-28T11:54:00Z</time>
      </trkpt>
      <trkpt lat="45.64478" lon="5.33814">
        <ele>228.77701</ele>
        <time>2014-09-28T11:54:05Z</time>
      </trkpt>
      <trkpt lat="45.64485" lon="5.33812">
        <ele>229.42697</ele>
        <time>2014-09-28T11:54:10Z</time>
      </trkpt>
      <trkpt lat="45.64491" lon="5.33813">
        <ele>229.42697</ele>
        <time>2014-09-28T11:54:15Z</time>
      </trkpt>
      <trkpt lat="45.64498" lon="5.33812">
        <ele>230.12032</ele>
        <time>2014-09-28T11:54:20Z</time>
      </trkpt>
      <trkpt lat="45.64507" lon="5.3381">
        <ele>230.90843</ele>
        <time>2014-09-28T11:54:25Z</time>
      </trkpt>
      <trkpt lat="45.64514" lon="5.33807">
        <ele>230.90843</ele>
        <time>2014-09-28T11:54:30Z</time>
      </trkpt>
      <trkpt lat="45.64523" lon="5.33807">
        <ele>231.7522</ele>
        <time>2014-09-28T11:54:35Z</time>
      </trkpt>
      <trkpt lat="45.64532" lon="5.33803">
        <ele>232.49991</ele>
        <time>2014-09-28T11:54:40Z</time>
      </trkpt>
      <trkpt lat="45.6454" lon="5.33799">
        <ele>232.49991</ele>
        <time>2014-09-28T11:54:45Z</time>
      </trkpt>
      <trkpt lat="45.64546" lon="5.33795">
        <ele>233.29955</ele>
        <time>2014-09-28T11:54:50Z</time>
      </trkpt>
      <trkpt lat="45.64553" lon="5.33791">
        <ele>233.29955</ele>
        <time>2014-09-28T11:54:55Z</time>
      </trkpt>
      <trkpt lat="45.64559" lon="5.33787">
        <ele>234.02866</ele>
        <time>2014-09-28T11:55:00Z</time>
      </trkpt>
      <trkpt lat="45.64568" lon="5.33781">
        <ele>234.6749</ele>
        <time>2014-09-28T11:55:05Z</time>
      </trkpt>
      <trkpt lat="45.64577" lon="5.33775">
        <ele>235.1839</ele>
        <time>2014-09-28T11:55:10Z</time>
      </trkpt>
      <trkpt lat="45.64585" lon="5.33775">
        <ele>235.1839</ele>
        <time>2014-09-28T11:55:15Z</time>
      </trkpt>
      <trkpt lat="45.64593" lon="5.33767">
        <ele>235.44804</ele>
        <time>2014-09-28T11:55:20Z</time>
      </trkpt>
      <trkpt lat="45.64598" lon="5.33764">
        <ele>235.44804</ele>
        <time>2014-09-28T11:55:25Z</time>
      </trkpt>
      <trkpt lat="45.64604" lon="5.33761">
        <ele>235.57011</ele>
        <time>2014-09-28T11:55:30Z</time>
      </trkpt>
      <trkpt lat="45.64613" lon="5.33758">
        <ele>235.57011</ele>
        <time>2014-09-28T11:55:35Z</time>
      </trkpt>
      <trkpt lat="45.64625" lon="5.33755">
        <ele>235.58813</ele>
        <time>2014-09-28T11:55:40Z</time>
      </trkpt>
      <trkpt lat="45.64636" lon="5.33755">
        <ele>235.49448</ele>
        <time>2014-09-28T11:55:45Z</time>
      </trkpt>
      <trkpt lat="45.64641" lon="5.33754">
        <ele>235.49448</ele>
        <time>2014-09-28T11:55:50Z</time>
      </trkpt>
      <trkpt lat="45.64649" lon="5.33752">
        <ele>235.46973</ele>
        <time>2014-09-28T11:55:55Z</time>
      </trkpt>
      <trkpt lat="45.64657" lon="5.33756">
        <ele>235.46973</ele>
        <time>2014-09-28T11:56:00Z</time>
      </trkpt>
      <trkpt lat="45.64667" lon="5.3376">
        <ele>235.42172</ele>
        <time>2014-09-28T11:56:05Z</time>
      </trkpt>
      <trkpt lat="45.6468" lon="5.33761">
        <ele>235.56773</ele>
        <time>2014-09-28T11:56:10Z</time>
      </trkpt>
      <trkpt lat="45.64694" lon="5.33763">
        <ele>235.95015</ele>
        <time>2014-09-28T11:56:15Z</time>
      </trkpt>
      <trkpt lat="45.64698" lon="5.33771">
        <ele>235.95015</ele>
        <time>2014-09-28T11:56:20Z</time>
      </trkpt>
      <trkpt lat="45.64696" lon="5.3378">
        <ele>235.9302</ele>
        <time>2014-09-28T11:56:25Z</time>
      </trkpt>
      <trkpt lat="45.64696" lon="5.33787">
        <ele>235.9302</ele>
        <time>2014-09-28T11:56:30Z</time>
      </trkpt>
      <trkpt lat="45.64695" lon="5.33801">
        <ele>236.1134</ele>
        <time>2014-09-28T11:56:35Z</time>
      </trkpt>
      <trkpt lat="45.64692" lon="5.33819">
        <ele>236.23883</ele>
        <time>2014-09-28T11:56:40Z</time>
      </trkpt>
      <trkpt lat="45.64687" lon="5.33833">
        <ele>236.41075</ele>
        <time>2014-09-28T11:56:45Z</time>
      </trkpt>
      <trkpt lat="45.64686" lon="5.33846">
        <ele>236.61043</ele>
        <time>2014-09-28T11:56:50Z</time>
      </trkpt>
      <trkpt lat="45.64684" lon="5.33856">
        <ele>236.61043</ele>
        <time>2014-09-28T11:56:55Z</time>
      </trkpt>
      <trkpt lat="45.64682" lon="5.33869">
        <ele>236.8493</ele>
        <time>2014-09-28T11:57:00Z</time>
      </trkpt>
      <trkpt lat="45.64681" lon="5.33882">
        <ele>237.03699</ele>
        <time>2014-09-28T11:57:05Z</time>
      </trkpt>
      <trkpt lat="45.64678" lon="5.33905">
        <ele>237.26288</ele>
        <time>2014-09-28T11:57:10Z</time>
      </trkpt>
      <trkpt lat="45.64677" lon="5.33925">
        <ele>237.45122</ele>
        <time>2014-09-28T11:57:15Z</time>
      </trkpt>
      <trkpt lat="45.64676" lon="5.33952">
        <ele>237.53197</ele>
        <time>2014-09-28T11:57:20Z</time>
      </trkpt>
      <trkpt lat="45.64676" lon="5.33982">
        <ele>237.42612</ele>
        <time>2014-09-28T11:57:25Z</time>
      </trkpt>
      <trkpt lat="45.64674" lon="5.34016">
        <ele>237.14754</ele>
        <time>2014-09-28T11:57:30Z</time>
      </trkpt>
      <trkpt lat="45.64677" lon="5.34043">
        <ele>236.85368</ele>
        <time>2014-09-28T11:57:35Z</time>
      </trkpt>
      <trkpt lat="45.64669" lon="5.34069">
        <ele>236.56084</ele>
        <time>2014-09-28T11:57:40Z</time>
      </trkpt>
      <trkpt lat="45.64668" lon="5.34097">
        <ele>236.26967</ele>
        <time>2014-09-28T11:57:45Z</time>
      </trkpt>
      <trkpt lat="45.6467" lon="5.34135">
        <ele>235.86554</ele>
        <time>2014-09-28T11:57:50Z</time>
      </trkpt>
      <trkpt lat="45.64674" lon="5.34173">
        <ele>235.45874</ele>
        <time>2014-09-28T11:57:55Z</time>
      </trkpt>
      <trkpt lat="45.6468" lon="5.34214">
        <ele>235.06499</ele>
        <time>2014-09-28T11:58:00Z</time>
      </trkpt>
      <trkpt lat="45.64686" lon="5.34259">
        <ele>234.68445</ele>
        <time>2014-09-28T11:58:05Z</time>
      </trkpt>
      <trkpt lat="45.64693" lon="5.3429">
        <ele>234.31721</ele>
        <time>2014-09-28T11:58:10Z</time>
      </trkpt>
      <trkpt lat="45.64682" lon="5.34309">
        <ele>234.10744</ele>
        <time>2014-09-28T11:58:15Z</time>
      </trkpt>
      <trkpt lat="45.64675" lon="5.34324">
        <ele>233.84238</ele>
        <time>2014-09-28T11:58:20Z</time>
      </trkpt>
      <trkpt lat="45.64673" lon="5.34339">
        <ele>233.54126</ele>
        <time>2014-09-28T11:58:25Z</time>
      </trkpt>
      <trkpt lat="45.64672" lon="5.34351">
        <ele>233.54126</ele>
        <time>2014-09-28T11:58:30Z</time>
      </trkpt>
      <trkpt lat="45.64676" lon="5.34367">
        <ele>233.00581</ele>
        <time>2014-09-28T11:58:35Z</time>
      </trkpt>
      <trkpt lat="45.64679" lon="5.34381">
        <ele>232.48529</ele>
        <time>2014-09-28T11:58:40Z</time>
      </trkpt>
      <trkpt lat="45.64681" lon="5.34394">
        <ele>232.48529</ele>
        <time>2014-09-28T11:58:45Z</time>
      </trkpt>
      <trkpt lat="45.64682" lon="5.34406">
        <ele>232.26826</ele>
        <time>2014-09-28T11:58:50Z</time>
      </trkpt>
      <trkpt lat="45.64685" lon="5.34417">
        <ele>232.26826</ele>
        <time>2014-09-28T11:58:55Z</time>
      </trkpt>
      <trkpt lat="45.64685" lon="5.3443">
        <ele>231.91507</ele>
        <time>2014-09-28T11:59:00Z</time>
      </trkpt>
      <trkpt lat="45.64686" lon="5.34441">
        <ele>231.91507</ele>
        <time>2014-09-28T11:59:05Z</time>
      </trkpt>
      <trkpt lat="45.64687" lon="5.34452">
        <ele>231.5231</ele>
        <time>2014-09-28T11:59:10Z</time>
      </trkpt>
      <trkpt lat="45.64687" lon="5.34461">
        <ele>231.5231</ele>
        <time>2014-09-28T11:59:15Z</time>
      </trkpt>
      <trkpt lat="45.64689" lon="5.34473">
        <ele>231.26917</ele>
        <time>2014-09-28T11:59:20Z</time>
      </trkpt>
      <trkpt lat="45.64694" lon="5.34496">
        <ele>231.04286</ele>
        <time>2014-09-28T11:59:25Z</time>
      </trkpt>
      <trkpt lat="45.64692" lon="5.34525">
        <ele>230.81384</ele>
        <time>2014-09-28T11:59:30Z</time>
      </trkpt>
      <trkpt lat="45.64692" lon="5.34546">
        <ele>230.58281</ele>
        <time>2014-09-28T11:59:35Z</time>
      </trkpt>
      <trkpt lat="45.64697" lon="5.34561">
        <ele>230.60982</ele>
        <time>2014-09-28T11:59:40Z</time>
      </trkpt>
      <trkpt lat="45.647" lon="5.34575">
        <ele>230.86124</ele>
        <time>2014-09-28T11:59:45Z</time>
      </trkpt>
      <trkpt lat="45.64701" lon="5.3459">
        <ele>231.14676</ele>
        <time>2014-09-28T11:59:50Z</time>
      </trkpt>
      <trkpt lat="45.64703" lon="5.34606">
        <ele>231.47728</ele>
        <time>2014-09-28T11:59:55Z</time>
      </trkpt>
      <trkpt lat="45.64707" lon="5.34624">
        <ele>231.84836</ele>
        <time>2014-09-28T12:00:00Z</time>
      </trkpt>
      <trkpt lat="45.6471" lon="5.34641">
        <ele>232.31339</ele>
        <time>2014-09-28T12:00:05Z</time>
      </trkpt>
      <trkpt lat="45.6471" lon="5.34656">
        <ele>232.70543</ele>
        <time>2014-09-28T12:00:10Z</time>
      </trkpt>
      <trkpt lat="45.64709" lon="5.3467">
        <ele>233.01411</ele>
        <time>2014-09-28T12:00:15Z</time>
      </trkpt>
      <trkpt lat="45.64709" lon="5.34683">
        <ele>233.01411</ele>
        <time>2014-09-28T12:00:20Z</time>
      </trkpt>
      <trkpt lat="45.64713" lon="5.34693">
        <ele>233.20126</ele>
        <time>2014-09-28T12:00:25Z</time>
      </trkpt>
      <trkpt lat="45.64714" lon="5.34704">
        <ele>233.20126</ele>
        <time>2014-09-28T12:00:30Z</time>
      </trkpt>
      <trkpt lat="45.64712" lon="5.34716">
        <ele>233.40475</ele>
        <time>2014-09-28T12:00:35Z</time>
      </trkpt>
      <trkpt lat="45.64714" lon="5.34729">
        <ele>233.65149</ele>
        <time>2014-09-28T12:00:40Z</time>
      </trkpt>
      <trkpt lat="45.64716" lon="5.34738">
        <ele>233.65149</ele>
        <time>2014-09-28T12:00:45Z</time>
      </trkpt>
      <trkpt lat="45.64716" lon="5.34745">
        <ele>234.12473</ele>
        <time>2014-09-28T12:00:50Z</time>
      </trkpt>
      <trkpt lat="45.64715" lon="5.34754">
        <ele>234.12473</ele>
        <time>2014-09-28T12:00:55Z</time>
      </trkpt>
      <trkpt lat="45.64718" lon="5.34766">
        <ele>234.74873</ele>
        <time>2014-09-28T12:01:00Z</time>
      </trkpt>
      <trkpt lat="45.64722" lon="5.34782">
        <ele>235.27992</ele>
        <time>2014-09-28T12:01:05Z</time>
      </trkpt>
      <trkpt lat="45.64725" lon="5.34803">
        <ele>235.78119</ele>
        <time>2014-09-28T12:01:10Z</time>
      </trkpt>
      <trkpt lat="45.64734" lon="5.34834">
        <ele>236.23878</ele>
        <time>2014-09-28T12:01:15Z</time>
      </trkpt>
      <trkpt lat="45.64742" lon="5.34864">
        <ele>236.669</ele>
        <time>2014-09-28T12:01:20Z</time>
      </trkpt>
      <trkpt lat="45.64753" lon="5.34894">
        <ele>237.00055</ele>
        <time>2014-09-28T12:01:25Z</time>
      </trkpt>
      <trkpt lat="45.64764" lon="5.3493">
        <ele>237.29736</ele>
        <time>2014-09-28T12:01:30Z</time>
      </trkpt>
      <trkpt lat="45.64763" lon="5.34971">
        <ele>237.5324</ele>
        <time>2014-09-28T12:01:35Z</time>
      </trkpt>
      <trkpt lat="45.64762" lon="5.35009">
        <ele>237.6375</ele>
        <time>2014-09-28T12:01:40Z</time>
      </trkpt>
      <trkpt lat="45.64765" lon="5.35047">
        <ele>237.75172</ele>
        <time>2014-09-28T12:01:45Z</time>
      </trkpt>
      <trkpt lat="45.64762" lon="5.35077">
        <ele>237.94624</ele>
        <time>2014-09-28T12:01:50Z</time>
      </trkpt>
      <trkpt lat="45.64758" lon="5.35097">
        <ele>238.11389</ele>
        <time>2014-09-28T12:01:55Z</time>
      </trkpt>
      <trkpt lat="45.64756" lon="5.35111">
        <ele>238.37163</ele>
        <time>2014-09-28T12:02:00Z</time>
      </trkpt>
      <trkpt lat="45.64757" lon="5.35124">
        <ele>238.61142</ele>
        <time>2014-09-28T12:02:05Z</time>
      </trkpt>
      <trkpt lat="45.64758" lon="5.35136">
        <ele>238.61142</ele>
        <time>2014-09-28T12:02:10Z</time>
      </trkpt>
      <trkpt lat="45.64755" lon="5.35145">
        <ele>238.96387</ele>
        <time>2014-09-28T12:02:15Z</time>
      </trkpt>
      <trkpt lat="45.64759" lon="5.35157">
        <ele>238.96387</ele>
        <time>2014-09-28T12:02:20Z</time>
      </trkpt>
      <trkpt lat="45.6476" lon="5.35167">
        <ele>239.27582</ele>
        <time>2014-09-28T12:02:25Z</time>
      </trkpt>
      <trkpt lat="45.64761" lon="5.35177">
        <ele>239.27582</ele>
        <time>2014-09-28T12:02:30Z</time>
      </trkpt>
      <trkpt lat="45.64763" lon="5.35186">
        <ele>239.65053</ele>
        <time>2014-09-28T12:02:35Z</time>
      </trkpt>
      <trkpt lat="45.64763" lon="5.35195">
        <ele>239.65053</ele>
        <time>2014-09-28T12:02:40Z</time>
      </trkpt>
      <trkpt lat="45.64761" lon="5.35204">
        <ele>240.02501</ele>
        <time>2014-09-28T12:02:45Z</time>
      </trkpt>
      <trkpt lat="45.64761" lon="5.35207">
        <ele>240.02501</ele>
        <time>2014-09-28T12:02:50Z</time>
      </trkpt>
      <trkpt lat="45.6476" lon="5.35215">
        <ele>240.02501</ele>
        <time>2014-09-28T12:02:55Z</time>
      </trkpt>
      <trkpt lat="45.6476" lon="5.35221">
        <ele>240.28325</ele>
        <time>2014-09-28T12:03:00Z</time>
      </trkpt>
      <trkpt lat="45.64761" lon="5.35223">
        <ele>240.28325</ele>
        <time>2014-09-28T12:03:05Z</time>
      </trkpt>
      <trkpt lat="45.64763" lon="5.35233">
        <ele>240.33252</ele>
        <time>2014-09-28T12:03:10Z</time>
      </trkpt>
      <trkpt lat="45.64762" lon="5.35244">
        <ele>240.33252</ele>
        <time>2014-09-28T12:03:15Z</time>
      </trkpt>
      <trkpt lat="45.64764" lon="5.35255">
        <ele>240.4046</ele>
        <time>2014-09-28T12:03:20Z</time>
      </trkpt>
      <trkpt lat="45.64763" lon="5.35264">
        <ele>240.4046</ele>
        <time>2014-09-28T12:03:25Z</time>
      </trkpt>
      <trkpt lat="45.64763" lon="5.35271">
        <ele>240.36832</ele>
        <time>2014-09-28T12:03:30Z</time>
      </trkpt>
      <trkpt lat="45.64762" lon="5.35284">
        <ele>240.37622</ele>
        <time>2014-09-28T12:03:35Z</time>
      </trkpt>
      <trkpt lat="45.64762" lon="5.35297">
        <ele>240.37622</ele>
        <time>2014-09-28T12:03:40Z</time>
      </trkpt>
      <trkpt lat="45.64763" lon="5.3531">
        <ele>240.33904</ele>
        <time>2014-09-28T12:03:45Z</time>
      </trkpt>
      <trkpt lat="45.64763" lon="5.35319">
        <ele>240.33904</ele>
        <time>2014-09-28T12:03:50Z</time>
      </trkpt>
      <trkpt lat="45.6476" lon="5.35329">
        <ele>240.33267</ele>
        <time>2014-09-28T12:03:55Z</time>
      </trkpt>
      <trkpt lat="45.64759" lon="5.35339">
        <ele>240.33267</ele>
        <time>2014-09-28T12:04:00Z</time>
      </trkpt>
      <trkpt lat="45.64758" lon="5.35352">
        <ele>240.16801</ele>
        <time>2014-09-28T12:04:05Z</time>
      </trkpt>
      <trkpt lat="45.64758" lon="5.3536">
        <ele>240.16801</ele>
        <time>2014-09-28T12:04:10Z</time>
      </trkpt>
      <trkpt lat="45.64756" lon="5.35376">
        <ele>239.82877</ele>
        <time>2014-09-28T12:04:15Z</time>
      </trkpt>
      <trkpt lat="45.64756" lon="5.35389">
        <ele>239.40126</ele>
        <time>2014-09-28T12:04:20Z</time>
      </trkpt>
      <trkpt lat="45.64755" lon="5.35401">
        <ele>239.40126</ele>
        <time>2014-09-28T12:04:25Z</time>
      </trkpt>
      <trkpt lat="45.64756" lon="5.35417">
        <ele>238.8504</ele>
        <time>2014-09-28T12:04:30Z</time>
      </trkpt>
      <trkpt lat="45.64755" lon="5.35437">
        <ele>238.25934</ele>
        <time>2014-09-28T12:04:35Z</time>
      </trkpt>
      <trkpt lat="45.64751" lon="5.35457">
        <ele>237.67635</ele>
        <time>2014-09-28T12:04:40Z</time>
      </trkpt>
      <trkpt lat="45.64748" lon="5.35474">
        <ele>237.21822</ele>
        <time>2014-09-28T12:04:45Z</time>
      </trkpt>
      <trkpt lat="45.64746" lon="5.35492">
        <ele>236.80544</ele>
        <time>2014-09-28T12:04:50Z</time>
      </trkpt>
      <trkpt lat="45.64743" lon="5.35504">
        <ele>236.47945</ele>
        <time>2014-09-28T12:04:55Z</time>
      </trkpt>
      <trkpt lat="45.64741" lon="5.35521">
        <ele>236.4225</ele>
        <time>2014-09-28T12:05:00Z</time>
      </trkpt>
      <trkpt lat="45.64741" lon="5.35533">
        <ele>236.58655</ele>
        <time>2014-09-28T12:05:05Z</time>
      </trkpt>
      <trkpt lat="45.6474" lon="5.35545">
        <ele>236.58655</ele>
        <time>2014-09-28T12:05:10Z</time>
      </trkpt>
      <trkpt lat="45.6474" lon="5.35557">
        <ele>236.91196</ele>
        <time>2014-09-28T12:05:15Z</time>
      </trkpt>
      <trkpt lat="45.64737" lon="5.35577">
        <ele>237.1845</ele>
        <time>2014-09-28T12:05:20Z</time>
      </trkpt>
      <trkpt lat="45.64735" lon="5.35601">
        <ele>237.24905</ele>
        <time>2014-09-28T12:05:25Z</time>
      </trkpt>
      <trkpt lat="45.64734" lon="5.35626">
        <ele>237.10655</ele>
        <time>2014-09-28T12:05:30Z</time>
      </trkpt>
      <trkpt lat="45.64739" lon="5.35651">
        <ele>236.84491</ele>
        <time>2014-09-28T12:05:35Z</time>
      </trkpt>
      <trkpt lat="45.64739" lon="5.35683">
        <ele>236.68997</ele>
        <time>2014-09-28T12:05:40Z</time>
      </trkpt>
      <trkpt lat="45.64733" lon="5.35719">
        <ele>236.56247</ele>
        <time>2014-09-28T12:05:45Z</time>
      </trkpt>
      <trkpt lat="45.64728" lon="5.35752">
        <ele>236.34566</ele>
        <time>2014-09-28T12:05:50Z</time>
      </trkpt>
      <trkpt lat="45.6473" lon="5.35787">
        <ele>235.90274</ele>
        <time>2014-09-28T12:05:55Z</time>
      </trkpt>
      <trkpt lat="45.64736" lon="5.35816">
        <ele>235.53992</ele>
        <time>2014-09-28T12:06:00Z</time>
      </trkpt>
      <trkpt lat="45.64744" lon="5.35846">
        <ele>235.13715</ele>
        <time>2014-09-28T12:06:05Z</time>
      </trkpt>
      <trkpt lat="45.64751" lon="5.35868">
        <ele>234.75621</ele>
        <time>2014-09-28T12:06:10Z</time>
      </trkpt>
      <trkpt lat="45.64726" lon="5.35904">
        <ele>234.4399</ele>
        <time>2014-09-28T12:06:15Z</time>
      </trkpt>
      <trkpt lat="45.64713" lon="5.35933">
        <ele>234.32845</ele>
        <time>2014-09-28T12:06:20Z</time>
      </trkpt>
      <trkpt lat="45.64709" lon="5.35957">
        <ele>234.09012</ele>
        <time>2014-09-28T12:06:25Z</time>
      </trkpt>
      <trkpt lat="45.64705" lon="5.35974">
        <ele>233.9366</ele>
        <time>2014-09-28T12:06:30Z</time>
      </trkpt>
      <trkpt lat="45.64701" lon="5.35988">
        <ele>234.02058</ele>
        <time>2014-09-28T12:06:35Z</time>
      </trkpt>
      <trkpt lat="45.64701" lon="5.36003">
        <ele>234.02168</ele>
        <time>2014-09-28T12:06:40Z</time>
      </trkpt>
      <trkpt lat="45.647" lon="5.36015">
        <ele>234.02168</ele>
        <time>2014-09-28T12:06:45Z</time>
      </trkpt>
      <trkpt lat="45.647" lon="5.36027">
        <ele>233.97469</ele>
        <time>2014-09-28T12:06:50Z</time>
      </trkpt>
      <trkpt lat="45.64698" lon="5.36038">
        <ele>233.97469</ele>
        <time>2014-09-28T12:06:55Z</time>
      </trkpt>
      <trkpt lat="45.64696" lon="5.36051">
        <ele>233.76785</ele>
        <time>2014-09-28T12:07:00Z</time>
      </trkpt>
      <trkpt lat="45.64696" lon="5.36059">
        <ele>233.76785</ele>
        <time>2014-09-28T12:07:05Z</time>
      </trkpt>
      <trkpt lat="45.64694" lon="5.36066">
        <ele>233.51424</ele>
        <time>2014-09-28T12:07:10Z</time>
      </trkpt>
      <trkpt lat="45.64692" lon="5.36072">
        <ele>233.51424</ele>
        <time>2014-09-28T12:07:15Z</time>
      </trkpt>
      <trkpt lat="45.64689" lon="5.36076">
        <ele>233.51424</ele>
        <time>2014-09-28T12:07:20Z</time>
      </trkpt>
      <trkpt lat="45.64682" lon="5.36076">
        <ele>233.63574</ele>
        <time>2014-09-28T12:07:25Z</time>
      </trkpt>
      <trkpt lat="45.64675" lon="5.36076">
        <ele>233.63574</ele>
        <time>2014-09-28T12:07:30Z</time>
      </trkpt>
      <trkpt lat="45.64668" lon="5.36076">
        <ele>233.52786</ele>
        <time>2014-09-28T12:07:35Z</time>
      </trkpt>
      <trkpt lat="45.64659" lon="5.36076">
        <ele>233.52786</ele>
        <time>2014-09-28T12:07:40Z</time>
      </trkpt>
      <trkpt lat="45.64653" lon="5.36077">
        <ele>233.39488</ele>
        <time>2014-09-28T12:07:45Z</time>
      </trkpt>
      <trkpt lat="45.64647" lon="5.36074">
        <ele>233.39488</ele>
        <time>2014-09-28T12:07:50Z</time>
      </trkpt>
      <trkpt lat="45.64641" lon="5.36073">
        <ele>233.25322</ele>
        <time>2014-09-28T12:07:55Z</time>
      </trkpt>
      <trkpt lat="45.64636" lon="5.36074">
        <ele>233.25322</ele>
        <time>2014-09-28T12:08:00Z</time>
      </trkpt>
      <trkpt lat="45.64626" lon="5.36074">
        <ele>233.20454</ele>
        <time>2014-09-28T12:08:05Z</time>
      </trkpt>
      <trkpt lat="45.64615" lon="5.36075">
        <ele>232.98254</ele>
        <time>2014-09-28T12:08:10Z</time>
      </trkpt>
      <trkpt lat="45.64607" lon="5.36073">
        <ele>232.98254</ele>
        <time>2014-09-28T12:08:15Z</time>
      </trkpt>
      <trkpt lat="45.64599" lon="5.36074">
        <ele>232.57147</ele>
        <time>2014-09-28T12:08:20Z</time>
      </trkpt>
      <trkpt lat="45.64591" lon="5.36079">
        <ele>232.57147</ele>
        <time>2014-09-28T12:08:25Z</time>
      </trkpt>
      <trkpt lat="45.64583" lon="5.36082">
        <ele>232.00052</ele>
        <time>2014-09-28T12:08:30Z</time>
      </trkpt>
      <trkpt lat="45.64575" lon="5.36086">
        <ele>232.00052</ele>
        <time>2014-09-28T12:08:35Z</time>
      </trkpt>
      <trkpt lat="45.64568" lon="5.3609">
        <ele>231.38362</ele>
        <time>2014-09-28T12:08:40Z</time>
      </trkpt>
      <trkpt lat="45.64561" lon="5.36094">
        <ele>231.38362</ele>
        <time>2014-09-28T12:08:45Z</time>
      </trkpt>
      <trkpt lat="45.64553" lon="5.36098">
        <ele>230.72557</ele>
        <time>2014-09-28T12:08:50Z</time>
      </trkpt>
      <trkpt lat="45.64547" lon="5.36101">
        <ele>230.72557</ele>
        <time>2014-09-28T12:08:55Z</time>
      </trkpt>
      <trkpt lat="45.6454" lon="5.36105">
        <ele>230.03091</ele>
        <time>2014-09-28T12:09:00Z</time>
      </trkpt>
      <trkpt lat="45.64533" lon="5.36109">
        <ele>230.03091</ele>
        <time>2014-09-28T12:09:05Z</time>
      </trkpt>
      <trkpt lat="45.64529" lon="5.36114">
        <ele>229.376</ele>
        <time>2014-09-28T12:09:10Z</time>
      </trkpt>
      <trkpt lat="45.64526" lon="5.36125">
        <ele>229.376</ele>
        <time>2014-09-28T12:09:15Z</time>
      </trkpt>
      <trkpt lat="45.64525" lon="5.36135">
        <ele>228.8026</ele>
        <time>2014-09-28T12:09:20Z</time>
      </trkpt>
      <trkpt lat="45.64524" lon="5.36146">
        <ele>228.8026</ele>
        <time>2014-09-28T12:09:25Z</time>
      </trkpt>
      <trkpt lat="45.64523" lon="5.36156">
        <ele>228.26268</ele>
        <time>2014-09-28T12:09:30Z</time>
      </trkpt>
      <trkpt lat="45.64522" lon="5.36167">
        <ele>228.26268</ele>
        <time>2014-09-28T12:09:35Z</time>
      </trkpt>
      <trkpt lat="45.64522" lon="5.36177">
        <ele>227.87018</ele>
        <time>2014-09-28T12:09:40Z</time>
      </trkpt>
      <trkpt lat="45.64521" lon="5.36189">
        <ele>227.87018</ele>
        <time>2014-09-28T12:09:45Z</time>
      </trkpt>
      <trkpt lat="45.64519" lon="5.362">
        <ele>227.60046</ele>
        <time>2014-09-28T12:09:50Z</time>
      </trkpt>
      <trkpt lat="45.64519" lon="5.3621">
        <ele>227.60046</ele>
        <time>2014-09-28T12:09:55Z</time>
      </trkpt>
      <trkpt lat="45.64518" lon="5.3622">
        <ele>227.45921</ele>
        <time>2014-09-28T12:10:00Z</time>
      </trkpt>
      <trkpt lat="45.64516" lon="5.36231">
        <ele>227.45921</ele>
        <time>2014-09-28T12:10:05Z</time>
      </trkpt>
      <trkpt lat="45.64516" lon="5.36243">
        <ele>227.66742</ele>
        <time>2014-09-28T12:10:10Z</time>
      </trkpt>
      <trkpt lat="45.64514" lon="5.36256">
        <ele>227.66742</ele>
        <time>2014-09-28T12:10:15Z</time>
      </trkpt>
      <trkpt lat="45.64512" lon="5.36265">
        <ele>228.0686</ele>
        <time>2014-09-28T12:10:20Z</time>
      </trkpt>
      <trkpt lat="45.64509" lon="5.36276">
        <ele>228.0686</ele>
        <time>2014-09-28T12:10:25Z</time>
      </trkpt>
      <trkpt lat="45.64507" lon="5.36287">
        <ele>228.50276</ele>
        <time>2014-09-28T12:10:30Z</time>
      </trkpt>
      <trkpt lat="45.64504" lon="5.363">
        <ele>229.03773</ele>
        <time>2014-09-28T12:10:35Z</time>
      </trkpt>
      <trkpt lat="45.64502" lon="5.36312">
        <ele>229.03773</ele>
        <time>2014-09-28T12:10:40Z</time>
      </trkpt>
      <trkpt lat="45.645" lon="5.36325">
        <ele>229.72168</ele>
        <time>2014-09-28T12:10:45Z</time>
      </trkpt>
      <trkpt lat="45.64499" lon="5.36338">
        <ele>230.39703</ele>
        <time>2014-09-28T12:10:50Z</time>
      </trkpt>
      <trkpt lat="45.64495" lon="5.36352">
        <ele>231.04753</ele>
        <time>2014-09-28T12:10:55Z</time>
      </trkpt>
      <trkpt lat="45.64494" lon="5.36365">
        <ele>231.04753</ele>
        <time>2014-09-28T12:11:00Z</time>
      </trkpt>
      <trkpt lat="45.64492" lon="5.36377">
        <ele>231.61496</ele>
        <time>2014-09-28T12:11:05Z</time>
      </trkpt>
      <trkpt lat="45.64489" lon="5.36388">
        <ele>231.61496</ele>
        <time>2014-09-28T12:11:10Z</time>
      </trkpt>
      <trkpt lat="45.64488" lon="5.364">
        <ele>232.04562</ele>
        <time>2014-09-28T12:11:15Z</time>
      </trkpt>
      <trkpt lat="45.64485" lon="5.36411">
        <ele>232.04562</ele>
        <time>2014-09-28T12:11:20Z</time>
      </trkpt>
      <trkpt lat="45.64483" lon="5.36423">
        <ele>232.43431</ele>
        <time>2014-09-28T12:11:25Z</time>
      </trkpt>
      <trkpt lat="45.64481" lon="5.36433">
        <ele>232.43431</ele>
        <time>2014-09-28T12:11:30Z</time>
      </trkpt>
      <trkpt lat="45.6448" lon="5.36444">
        <ele>232.72488</ele>
        <time>2014-09-28T12:11:35Z</time>
      </trkpt>
      <trkpt lat="45.64477" lon="5.36454">
        <ele>232.72488</ele>
        <time>2014-09-28T12:11:40Z</time>
      </trkpt>
      <trkpt lat="45.64476" lon="5.36463">
        <ele>232.93765</ele>
        <time>2014-09-28T12:11:45Z</time>
      </trkpt>
      <trkpt lat="45.64474" lon="5.36474">
        <ele>232.93765</ele>
        <time>2014-09-28T12:11:50Z</time>
      </trkpt>
      <trkpt lat="45.64471" lon="5.36485">
        <ele>233.13495</ele>
        <time>2014-09-28T12:11:55Z</time>
      </trkpt>
      <trkpt lat="45.64468" lon="5.36497">
        <ele>233.13495</ele>
        <time>2014-09-28T12:12:00Z</time>
      </trkpt>
      <trkpt lat="45.64468" lon="5.36509">
        <ele>233.31696</ele>
        <time>2014-09-28T12:12:05Z</time>
      </trkpt>
      <trkpt lat="45.64466" lon="5.36519">
        <ele>233.31696</ele>
        <time>2014-09-28T12:12:10Z</time>
      </trkpt>
      <trkpt lat="45.64465" lon="5.3653">
        <ele>233.42625</ele>
        <time>2014-09-28T12:12:15Z</time>
      </trkpt>
      <trkpt lat="45.6446" lon="5.36538">
        <ele>233.42625</ele>
        <time>2014-09-28T12:12:20Z</time>
      </trkpt>
      <trkpt lat="45.64452" lon="5.36543">
        <ele>233.46756</ele>
        <time>2014-09-28T12:12:25Z</time>
      </trkpt>
      <trkpt lat="45.64444" lon="5.36547">
        <ele>233.46756</ele>
        <time>2014-09-28T12:12:30Z</time>
      </trkpt>
      <trkpt lat="45.64437" lon="5.36551">
        <ele>233.56071</ele>
        <time>2014-09-28T12:12:35Z</time>
      </trkpt>
      <trkpt lat="45.64429" lon="5.36551">
        <ele>233.56071</ele>
        <time>2014-09-28T12:12:40Z</time>
      </trkpt>
      <trkpt lat="45.64422" lon="5.36551">
        <ele>233.51404</ele>
        <time>2014-09-28T12:12:45Z</time>
      </trkpt>
      <trkpt lat="45.64414" lon="5.3655">
        <ele>233.51404</ele>
        <time>2014-09-28T12:12:50Z</time>
      </trkpt>
      <trkpt lat="45.64404" lon="5.3655">
        <ele>233.4962</ele>
        <time>2014-09-28T12:12:55Z</time>
      </trkpt>
      <trkpt lat="45.64396" lon="5.36553">
        <ele>233.4962</ele>
        <time>2014-09-28T12:13:00Z</time>
      </trkpt>
      <trkpt lat="45.64389" lon="5.36555">
        <ele>233.60582</ele>
        <time>2014-09-28T12:13:05Z</time>
      </trkpt>
      <trkpt lat="45.64382" lon="5.36559">
        <ele>233.60582</ele>
        <time>2014-09-28T12:13:10Z</time>
      </trkpt>
      <trkpt lat="45.64377" lon="5.36564">
        <ele>233.73213</ele>
        <time>2014-09-28T12:13:15Z</time>
      </trkpt>
      <trkpt lat="45.64376" lon="5.36578">
        <ele>233.859</ele>
        <time>2014-09-28T12:13:20Z</time>
      </trkpt>
      <trkpt lat="45.64375" lon="5.36591">
        <ele>233.85619</ele>
        <time>2014-09-28T12:13:25Z</time>
      </trkpt>
      <trkpt lat="45.64375" lon="5.36603">
        <ele>233.85619</ele>
        <time>2014-09-28T12:13:30Z</time>
      </trkpt>
      <trkpt lat="45.64374" lon="5.36615">
        <ele>233.92046</ele>
        <time>2014-09-28T12:13:35Z</time>
      </trkpt>
      <trkpt lat="45.64374" lon="5.36625">
        <ele>233.92046</ele>
        <time>2014-09-28T12:13:40Z</time>
      </trkpt>
      <trkpt lat="45.64371" lon="5.36634">
        <ele>234.08986</ele>
        <time>2014-09-28T12:13:45Z</time>
      </trkpt>
      <trkpt lat="45.64368" lon="5.36644">
        <ele>234.08986</ele>
        <time>2014-09-28T12:13:50Z</time>
      </trkpt>
      <trkpt lat="45.64366" lon="5.36649">
        <ele>234.16878</ele>
        <time>2014-09-28T12:13:55Z</time>
      </trkpt>
      <trkpt lat="45.6436" lon="5.36648">
        <ele>234.16878</ele>
        <time>2014-09-28T12:14:00Z</time>
      </trkpt>
      <trkpt lat="45.64357" lon="5.36646">
        <ele>233.39656</ele>
        <time>2014-09-28T12:19:20Z</time>
      </trkpt>
      <trkpt lat="45.64382" lon="5.36647">
        <ele>233.23582</ele>
        <time>2014-09-28T12:19:25Z</time>
      </trkpt>
      <trkpt lat="45.64412" lon="5.36652">
        <ele>233.07152</ele>
        <time>2014-09-28T12:19:30Z</time>
      </trkpt>
      <trkpt lat="45.64442" lon="5.36659">
        <ele>232.87569</ele>
        <time>2014-09-28T12:19:35Z</time>
      </trkpt>
      <trkpt lat="45.64471" lon="5.36667">
        <ele>232.73775</ele>
        <time>2014-09-28T12:19:40Z</time>
      </trkpt>
      <trkpt lat="45.64504" lon="5.36674">
        <ele>232.52423</ele>
        <time>2014-09-28T12:19:45Z</time>
      </trkpt>
      <trkpt lat="45.64538" lon="5.36681">
        <ele>232.29904</ele>
        <time>2014-09-28T12:19:50Z</time>
      </trkpt>
      <trkpt lat="45.64575" lon="5.36686">
        <ele>231.93404</ele>
        <time>2014-09-28T12:19:55Z</time>
      </trkpt>
      <trkpt lat="45.6461" lon="5.36685">
        <ele>231.55586</ele>
        <time>2014-09-28T12:20:00Z</time>
      </trkpt>
      <trkpt lat="45.64638" lon="5.36685">
        <ele>231.28189</ele>
        <time>2014-09-28T12:20:05Z</time>
      </trkpt>
      <trkpt lat="45.64657" lon="5.36682">
        <ele>231.04762</ele>
        <time>2014-09-28T12:20:10Z</time>
      </trkpt>
      <trkpt lat="45.64668" lon="5.36683">
        <ele>230.80759</ele>
        <time>2014-09-28T12:20:15Z</time>
      </trkpt>
      <trkpt lat="45.64678" lon="5.36682">
        <ele>230.6061</ele>
        <time>2014-09-28T12:20:20Z</time>
      </trkpt>
      <trkpt lat="45.6469" lon="5.36679">
        <ele>230.45529</ele>
        <time>2014-09-28T12:20:25Z</time>
      </trkpt>
      <trkpt lat="45.647" lon="5.36677">
        <ele>230.39505</ele>
        <time>2014-09-28T12:20:30Z</time>
      </trkpt>
      <trkpt lat="45.6471" lon="5.36672">
        <ele>230.1162</ele>
        <time>2014-09-28T12:20:35Z</time>
      </trkpt>
      <trkpt lat="45.64718" lon="5.36665">
        <ele>229.7796</ele>
        <time>2014-09-28T12:20:40Z</time>
      </trkpt>
      <trkpt lat="45.64725" lon="5.3666">
        <ele>229.7796</ele>
        <time>2014-09-28T12:20:45Z</time>
      </trkpt>
      <trkpt lat="45.64731" lon="5.36658">
        <ele>229.66417</ele>
        <time>2014-09-28T12:20:50Z</time>
      </trkpt>
      <trkpt lat="45.64737" lon="5.36666">
        <ele>229.66417</ele>
        <time>2014-09-28T12:20:55Z</time>
      </trkpt>
      <trkpt lat="45.64738" lon="5.36679">
        <ele>229.55211</ele>
        <time>2014-09-28T12:21:00Z</time>
      </trkpt>
      <trkpt lat="45.64741" lon="5.36691">
        <ele>229.55211</ele>
        <time>2014-09-28T12:21:05Z</time>
      </trkpt>
      <trkpt lat="45.64742" lon="5.36703">
        <ele>229.5154</ele>
        <time>2014-09-28T12:21:10Z</time>
      </trkpt>
      <trkpt lat="45.64745" lon="5.36715">
        <ele>229.5154</ele>
        <time>2014-09-28T12:21:15Z</time>
      </trkpt>
      <trkpt lat="45.64748" lon="5.36725">
        <ele>229.57726</ele>
        <time>2014-09-28T12:21:20Z</time>
      </trkpt>
      <trkpt lat="45.64747" lon="5.36736">
        <ele>229.57726</ele>
        <time>2014-09-28T12:21:25Z</time>
      </trkpt>
      <trkpt lat="45.64749" lon="5.36752">
        <ele>229.64366</ele>
        <time>2014-09-28T12:21:30Z</time>
      </trkpt>
      <trkpt lat="45.6475" lon="5.36764">
        <ele>229.64366</ele>
        <time>2014-09-28T12:21:35Z</time>
      </trkpt>
      <trkpt lat="45.64751" lon="5.36775">
        <ele>229.858</ele>
        <time>2014-09-28T12:21:40Z</time>
      </trkpt>
      <trkpt lat="45.64751" lon="5.36787">
        <ele>229.858</ele>
        <time>2014-09-28T12:21:45Z</time>
      </trkpt>
      <trkpt lat="45.64752" lon="5.36798">
        <ele>230.28069</ele>
        <time>2014-09-28T12:21:50Z</time>
      </trkpt>
      <trkpt lat="45.64757" lon="5.36809">
        <ele>230.80853</ele>
        <time>2014-09-28T12:21:55Z</time>
      </trkpt>
      <trkpt lat="45.6476" lon="5.3682">
        <ele>230.80853</ele>
        <time>2014-09-28T12:22:00Z</time>
      </trkpt>
      <trkpt lat="45.64762" lon="5.36832">
        <ele>231.31683</ele>
        <time>2014-09-28T12:22:05Z</time>
      </trkpt>
      <trkpt lat="45.64762" lon="5.36842">
        <ele>231.31683</ele>
        <time>2014-09-28T12:22:10Z</time>
      </trkpt>
      <trkpt lat="45.64764" lon="5.36856">
        <ele>231.57484</ele>
        <time>2014-09-28T12:22:15Z</time>
      </trkpt>
      <trkpt lat="45.64763" lon="5.36868">
        <ele>231.57484</ele>
        <time>2014-09-28T12:22:20Z</time>
      </trkpt>
      <trkpt lat="45.64762" lon="5.3688">
        <ele>231.80176</ele>
        <time>2014-09-28T12:22:25Z</time>
      </trkpt>
      <trkpt lat="45.64761" lon="5.36891">
        <ele>231.80176</ele>
        <time>2014-09-28T12:22:30Z</time>
      </trkpt>
      <trkpt lat="45.64761" lon="5.36903">
        <ele>232.05669</ele>
        <time>2014-09-28T12:22:35Z</time>
      </trkpt>
      <trkpt lat="45.64761" lon="5.36915">
        <ele>232.05669</ele>
        <time>2014-09-28T12:22:40Z</time>
      </trkpt>
      <trkpt lat="45.64763" lon="5.36929">
        <ele>232.53842</ele>
        <time>2014-09-28T12:22:45Z</time>
      </trkpt>
      <trkpt lat="45.64765" lon="5.36942">
        <ele>233.12791</ele>
        <time>2014-09-28T12:22:50Z</time>
      </trkpt>
      <trkpt lat="45.64768" lon="5.36952">
        <ele>233.12791</ele>
        <time>2014-09-28T12:22:55Z</time>
      </trkpt>
      <trkpt lat="45.6477" lon="5.36962">
        <ele>233.70015</ele>
        <time>2014-09-28T12:23:00Z</time>
      </trkpt>
      <trkpt lat="45.6477" lon="5.36974">
        <ele>233.70015</ele>
        <time>2014-09-28T12:23:05Z</time>
      </trkpt>
      <trkpt lat="45.6477" lon="5.36985">
        <ele>234.15378</ele>
        <time>2014-09-28T12:23:10Z</time>
      </trkpt>
      <trkpt lat="45.64771" lon="5.36996">
        <ele>234.15378</ele>
        <time>2014-09-28T12:23:15Z</time>
      </trkpt>
      <trkpt lat="45.64772" lon="5.3701">
        <ele>234.32318</ele>
        <time>2014-09-28T12:23:20Z</time>
      </trkpt>
      <trkpt lat="45.6477" lon="5.37022">
        <ele>234.32318</ele>
        <time>2014-09-28T12:23:25Z</time>
      </trkpt>
      <trkpt lat="45.64773" lon="5.37034">
        <ele>234.56017</ele>
        <time>2014-09-28T12:23:30Z</time>
      </trkpt>
      <trkpt lat="45.64776" lon="5.37046">
        <ele>234.56017</ele>
        <time>2014-09-28T12:23:35Z</time>
      </trkpt>
      <trkpt lat="45.64779" lon="5.37056">
        <ele>234.8158</ele>
        <time>2014-09-28T12:23:40Z</time>
      </trkpt>
      <trkpt lat="45.64779" lon="5.37068">
        <ele>234.8158</ele>
        <time>2014-09-28T12:23:45Z</time>
      </trkpt>
      <trkpt lat="45.64779" lon="5.37078">
        <ele>235.08794</ele>
        <time>2014-09-28T12:23:50Z</time>
      </trkpt>
      <trkpt lat="45.64779" lon="5.3709">
        <ele>235.08794</ele>
        <time>2014-09-28T12:23:55Z</time>
      </trkpt>
      <trkpt lat="45.6478" lon="5.371">
        <ele>235.30258</ele>
        <time>2014-09-28T12:24:00Z</time>
      </trkpt>
      <trkpt lat="45.64781" lon="5.3711">
        <ele>235.30258</ele>
        <time>2014-09-28T12:24:05Z</time>
      </trkpt>
      <trkpt lat="45.64776" lon="5.37119">
        <ele>235.46335</ele>
        <time>2014-09-28T12:24:10Z</time>
      </trkpt>
      <trkpt lat="45.6477" lon="5.37122">
        <ele>235.46335</ele>
        <time>2014-09-28T12:24:15Z</time>
      </trkpt>
      <trkpt lat="45.64763" lon="5.37124">
        <ele>235.55939</ele>
        <time>2014-09-28T12:24:20Z</time>
      </trkpt>
      <trkpt lat="45.64754" lon="5.37123">
        <ele>235.55939</ele>
        <time>2014-09-28T12:24:25Z</time>
      </trkpt>
      <trkpt lat="45.64746" lon="5.3712">
        <ele>235.58084</ele>
        <time>2014-09-28T12:24:30Z</time>
      </trkpt>
      <trkpt lat="45.64738" lon="5.37115">
        <ele>235.58084</ele>
        <time>2014-09-28T12:24:35Z</time>
      </trkpt>
      <trkpt lat="45.64731" lon="5.37113">
        <ele>235.30266</ele>
        <time>2014-09-28T12:24:40Z</time>
      </trkpt>
      <trkpt lat="45.64723" lon="5.37112">
        <ele>235.30266</ele>
        <time>2014-09-28T12:24:45Z</time>
      </trkpt>
      <trkpt lat="45.64715" lon="5.37109">
        <ele>235.18007</ele>
        <time>2014-09-28T12:24:50Z</time>
      </trkpt>
      <trkpt lat="45.64709" lon="5.37107">
        <ele>235.18007</ele>
        <time>2014-09-28T12:24:55Z</time>
      </trkpt>
      <trkpt lat="45.64701" lon="5.37104">
        <ele>235.07243</ele>
        <time>2014-09-28T12:25:00Z</time>
      </trkpt>
      <trkpt lat="45.64694" lon="5.37103">
        <ele>235.07243</ele>
        <time>2014-09-28T12:25:05Z</time>
      </trkpt>
      <trkpt lat="45.64687" lon="5.371">
        <ele>234.77733</ele>
        <time>2014-09-28T12:25:10Z</time>
      </trkpt>
      <trkpt lat="45.6468" lon="5.37098">
        <ele>234.77733</ele>
        <time>2014-09-28T12:25:15Z</time>
      </trkpt>
      <trkpt lat="45.64672" lon="5.37095">
        <ele>234.56894</ele>
        <time>2014-09-28T12:25:20Z</time>
      </trkpt>
      <trkpt lat="45.64666" lon="5.3709">
        <ele>234.56894</ele>
        <time>2014-09-28T12:25:25Z</time>
      </trkpt>
      <trkpt lat="45.6466" lon="5.37086">
        <ele>234.29753</ele>
        <time>2014-09-28T12:25:30Z</time>
      </trkpt>
      <trkpt lat="45.64653" lon="5.37083">
        <ele>234.29753</ele>
        <time>2014-09-28T12:25:35Z</time>
      </trkpt>
      <trkpt lat="45.64645" lon="5.37081">
        <ele>234.19925</ele>
        <time>2014-09-28T12:25:40Z</time>
      </trkpt>
      <trkpt lat="45.64638" lon="5.37077">
        <ele>234.19925</ele>
        <time>2014-09-28T12:25:45Z</time>
      </trkpt>
      <trkpt lat="45.6463" lon="5.37075">
        <ele>234.26183</ele>
        <time>2014-09-28T12:25:50Z</time>
      </trkpt>
      <trkpt lat="45.64623" lon="5.37071">
        <ele>234.26183</ele>
        <time>2014-09-28T12:25:55Z</time>
      </trkpt>
      <trkpt lat="45.64615" lon="5.37067">
        <ele>234.54553</ele>
        <time>2014-09-28T12:26:00Z</time>
      </trkpt>
      <trkpt lat="45.64609" lon="5.37063">
        <ele>234.54553</ele>
        <time>2014-09-28T12:26:05Z</time>
      </trkpt>
      <trkpt lat="45.64601" lon="5.37061">
        <ele>235.0479</ele>
        <time>2014-09-28T12:26:10Z</time>
      </trkpt>
      <trkpt lat="45.64594" lon="5.37059">
        <ele>235.0479</ele>
        <time>2014-09-28T12:26:15Z</time>
      </trkpt>
      <trkpt lat="45.64586" lon="5.37056">
        <ele>235.83812</ele>
        <time>2014-09-28T12:26:20Z</time>
      </trkpt>
      <trkpt lat="45.6458" lon="5.37053">
        <ele>235.83812</ele>
        <time>2014-09-28T12:26:25Z</time>
      </trkpt>
      <trkpt lat="45.64575" lon="5.37047">
        <ele>236.67686</ele>
        <time>2014-09-28T12:26:30Z</time>
      </trkpt>
      <trkpt lat="45.64572" lon="5.37041">
        <ele>236.67686</ele>
        <time>2014-09-28T12:26:35Z</time>
      </trkpt>
      <trkpt lat="45.64567" lon="5.37037">
        <ele>237.42873</ele>
        <time>2014-09-28T12:26:40Z</time>
      </trkpt>
      <trkpt lat="45.64561" lon="5.37034">
        <ele>237.42873</ele>
        <time>2014-09-28T12:26:45Z</time>
      </trkpt>
      <trkpt lat="45.64552" lon="5.37029">
        <ele>238.14143</ele>
        <time>2014-09-28T12:26:50Z</time>
      </trkpt>
      <trkpt lat="45.64546" lon="5.37024">
        <ele>238.14143</ele>
        <time>2014-09-28T12:26:55Z</time>
      </trkpt>
      <trkpt lat="45.64539" lon="5.3702">
        <ele>238.62877</ele>
        <time>2014-09-28T12:27:00Z</time>
      </trkpt>
      <trkpt lat="45.64531" lon="5.37018">
        <ele>238.62877</ele>
        <time>2014-09-28T12:27:05Z</time>
      </trkpt>
      <trkpt lat="45.64525" lon="5.37016">
        <ele>239.19441</ele>
        <time>2014-09-28T12:27:10Z</time>
      </trkpt>
      <trkpt lat="45.64519" lon="5.37015">
        <ele>239.19441</ele>
        <time>2014-09-28T12:27:15Z</time>
      </trkpt>
      <trkpt lat="45.64511" lon="5.37013">
        <ele>239.9178</ele>
        <time>2014-09-28T12:27:20Z</time>
      </trkpt>
      <trkpt lat="45.64503" lon="5.37006">
        <ele>240.58386</ele>
        <time>2014-09-28T12:27:25Z</time>
      </trkpt>
      <trkpt lat="45.64497" lon="5.37004">
        <ele>240.58386</ele>
        <time>2014-09-28T12:27:30Z</time>
      </trkpt>
      <trkpt lat="45.64488" lon="5.37001">
        <ele>241.25298</ele>
        <time>2014-09-28T12:27:35Z</time>
      </trkpt>
      <trkpt lat="45.64478" lon="5.36996">
        <ele>241.83693</ele>
        <time>2014-09-28T12:27:40Z</time>
      </trkpt>
      <trkpt lat="45.6447" lon="5.36991">
        <ele>241.83693</ele>
        <time>2014-09-28T12:27:45Z</time>
      </trkpt>
      <trkpt lat="45.64462" lon="5.36989">
        <ele>242.35521</ele>
        <time>2014-09-28T12:27:50Z</time>
      </trkpt>
      <trkpt lat="45.64455" lon="5.36986">
        <ele>242.35521</ele>
        <time>2014-09-28T12:27:55Z</time>
      </trkpt>
      <trkpt lat="45.64448" lon="5.3698">
        <ele>242.72516</ele>
        <time>2014-09-28T12:28:00Z</time>
      </trkpt>
      <trkpt lat="45.6444" lon="5.36979">
        <ele>242.72516</ele>
        <time>2014-09-28T12:28:05Z</time>
      </trkpt>
      <trkpt lat="45.64433" lon="5.36973">
        <ele>242.91393</ele>
        <time>2014-09-28T12:28:10Z</time>
      </trkpt>
      <trkpt lat="45.64426" lon="5.3697">
        <ele>242.91393</ele>
        <time>2014-09-28T12:28:15Z</time>
      </trkpt>
      <trkpt lat="45.64419" lon="5.36967">
        <ele>242.97803</ele>
        <time>2014-09-28T12:28:20Z</time>
      </trkpt>
      <trkpt lat="45.64412" lon="5.36963">
        <ele>242.97803</ele>
        <time>2014-09-28T12:28:25Z</time>
      </trkpt>
      <trkpt lat="45.64406" lon="5.36959">
        <ele>242.84056</ele>
        <time>2014-09-28T12:28:30Z</time>
      </trkpt>
      <trkpt lat="45.64399" lon="5.36955">
        <ele>242.84056</ele>
        <time>2014-09-28T12:28:35Z</time>
      </trkpt>
      <trkpt lat="45.64392" lon="5.36952">
        <ele>242.54613</ele>
        <time>2014-09-28T12:28:40Z</time>
      </trkpt>
      <trkpt lat="45.64386" lon="5.36948">
        <ele>242.54613</ele>
        <time>2014-09-28T12:28:45Z</time>
      </trkpt>
      <trkpt lat="45.64381" lon="5.36946">
        <ele>242.48238</ele>
        <time>2014-09-28T12:28:50Z</time>
      </trkpt>
      <trkpt lat="45.64376" lon="5.36944">
        <ele>242.48238</ele>
        <time>2014-09-28T12:28:55Z</time>
      </trkpt>
      <trkpt lat="45.6437" lon="5.36942">
        <ele>242.2441</ele>
        <time>2014-09-28T12:29:00Z</time>
      </trkpt>
      <trkpt lat="45.64363" lon="5.36941">
        <ele>242.2441</ele>
        <time>2014-09-28T12:29:05Z</time>
      </trkpt>
      <trkpt lat="45.64354" lon="5.36937">
        <ele>241.96071</ele>
        <time>2014-09-28T12:29:10Z</time>
      </trkpt>
      <trkpt lat="45.64348" lon="5.36939">
        <ele>241.96071</ele>
        <time>2014-09-28T12:29:15Z</time>
      </trkpt>
      <trkpt lat="45.64345" lon="5.36946">
        <ele>241.65137</ele>
        <time>2014-09-28T12:29:20Z</time>
      </trkpt>
      <trkpt lat="45.64343" lon="5.36954">
        <ele>241.65137</ele>
        <time>2014-09-28T12:29:25Z</time>
      </trkpt>
      <trkpt lat="45.64338" lon="5.36961">
        <ele>241.18983</ele>
        <time>2014-09-28T12:29:30Z</time>
      </trkpt>
      <trkpt lat="45.64336" lon="5.36971">
        <ele>241.18983</ele>
        <time>2014-09-28T12:29:35Z</time>
      </trkpt>
      <trkpt lat="45.64337" lon="5.36984">
        <ele>240.32983</ele>
        <time>2014-09-28T12:29:40Z</time>
      </trkpt>
      <trkpt lat="45.64337" lon="5.36996">
        <ele>240.32983</ele>
        <time>2014-09-28T12:29:45Z</time>
      </trkpt>
      <trkpt lat="45.64336" lon="5.37007">
        <ele>239.11812</ele>
        <time>2014-09-28T12:29:50Z</time>
      </trkpt>
      <trkpt lat="45.64336" lon="5.37024">
        <ele>237.90158</ele>
        <time>2014-09-28T12:29:55Z</time>
      </trkpt>
      <trkpt lat="45.64336" lon="5.37035">
        <ele>237.90158</ele>
        <time>2014-09-28T12:30:00Z</time>
      </trkpt>
      <trkpt lat="45.64335" lon="5.37052">
        <ele>236.62697</ele>
        <time>2014-09-28T12:30:05Z</time>
      </trkpt>
      <trkpt lat="45.64335" lon="5.37066">
        <ele>235.4756</ele>
        <time>2014-09-28T12:30:10Z</time>
      </trkpt>
      <trkpt lat="45.64335" lon="5.37081">
        <ele>234.37015</ele>
        <time>2014-09-28T12:30:15Z</time>
      </trkpt>
      <trkpt lat="45.64335" lon="5.37093">
        <ele>234.37015</ele>
        <time>2014-09-28T12:30:20Z</time>
      </trkpt>
      <trkpt lat="45.64335" lon="5.37105">
        <ele>233.31079</ele>
        <time>2014-09-28T12:30:25Z</time>
      </trkpt>
      <trkpt lat="45.64334" lon="5.37116">
        <ele>233.31079</ele>
        <time>2014-09-28T12:30:30Z</time>
      </trkpt>
      <trkpt lat="45.64333" lon="5.37129">
        <ele>232.39842</ele>
        <time>2014-09-28T12:30:35Z</time>
      </trkpt>
      <trkpt lat="45.64332" lon="5.3714">
        <ele>232.39842</ele>
        <time>2014-09-28T12:30:40Z</time>
      </trkpt>
      <trkpt lat="45.64331" lon="5.37151">
        <ele>231.7116</ele>
        <time>2014-09-28T12:30:45Z</time>
      </trkpt>
      <trkpt lat="45.6433" lon="5.37163">
        <ele>231.7116</ele>
        <time>2014-09-28T12:30:50Z</time>
      </trkpt>
      <trkpt lat="45.64329" lon="5.37176">
        <ele>231.20714</ele>
        <time>2014-09-28T12:30:55Z</time>
      </trkpt>
      <trkpt lat="45.64329" lon="5.37187">
        <ele>231.20714</ele>
        <time>2014-09-28T12:31:00Z</time>
      </trkpt>
      <trkpt lat="45.64328" lon="5.37198">
        <ele>230.77238</ele>
        <time>2014-09-28T12:31:05Z</time>
      </trkpt>
      <trkpt lat="45.64325" lon="5.37209">
        <ele>230.77238</ele>
        <time>2014-09-28T12:31:10Z</time>
      </trkpt>
      <trkpt lat="45.64326" lon="5.37219">
        <ele>230.20181</ele>
        <time>2014-09-28T12:31:15Z</time>
      </trkpt>
      <trkpt lat="45.64326" lon="5.3723">
        <ele>230.20181</ele>
        <time>2014-09-28T12:31:20Z</time>
      </trkpt>
      <trkpt lat="45.64326" lon="5.37245">
        <ele>229.60796</ele>
        <time>2014-09-28T12:31:25Z</time>
      </trkpt>
      <trkpt lat="45.64324" lon="5.37258">
        <ele>229.1383</ele>
        <time>2014-09-28T12:31:30Z</time>
      </trkpt>
      <trkpt lat="45.64324" lon="5.37272">
        <ele>228.72731</ele>
        <time>2014-09-28T12:31:35Z</time>
      </trkpt>
      <trkpt lat="45.64324" lon="5.37285">
        <ele>228.38611</ele>
        <time>2014-09-28T12:31:40Z</time>
      </trkpt>
      <trkpt lat="45.64324" lon="5.37298">
        <ele>228.0671</ele>
        <time>2014-09-28T12:31:45Z</time>
      </trkpt>
      <trkpt lat="45.64322" lon="5.37309">
        <ele>228.0671</ele>
        <time>2014-09-28T12:31:50Z</time>
      </trkpt>
      <trkpt lat="45.64321" lon="5.37321">
        <ele>227.95659</ele>
        <time>2014-09-28T12:31:55Z</time>
      </trkpt>
      <trkpt lat="45.64321" lon="5.37333">
        <ele>227.95659</ele>
        <time>2014-09-28T12:32:00Z</time>
      </trkpt>
      <trkpt lat="45.64319" lon="5.37345">
        <ele>227.96722</ele>
        <time>2014-09-28T12:32:05Z</time>
      </trkpt>
      <trkpt lat="45.64317" lon="5.37356">
        <ele>227.96722</ele>
        <time>2014-09-28T12:32:10Z</time>
      </trkpt>
      <trkpt lat="45.64315" lon="5.37368">
        <ele>228.0032</ele>
        <time>2014-09-28T12:32:15Z</time>
      </trkpt>
      <trkpt lat="45.64313" lon="5.37378">
        <ele>228.0032</ele>
        <time>2014-09-28T12:32:20Z</time>
      </trkpt>
      <trkpt lat="45.64313" lon="5.3739">
        <ele>228.19185</ele>
        <time>2014-09-28T12:32:25Z</time>
      </trkpt>
      <trkpt lat="45.64311" lon="5.37402">
        <ele>228.19185</ele>
        <time>2014-09-28T12:32:30Z</time>
      </trkpt>
      <trkpt lat="45.64313" lon="5.37417">
        <ele>228.13185</ele>
        <time>2014-09-28T12:32:35Z</time>
      </trkpt>
      <trkpt lat="45.64312" lon="5.37429">
        <ele>228.13185</ele>
        <time>2014-09-28T12:32:40Z</time>
      </trkpt>
      <trkpt lat="45.6431" lon="5.37439">
        <ele>228.14374</ele>
        <time>2014-09-28T12:32:45Z</time>
      </trkpt>
      <trkpt lat="45.64309" lon="5.37453">
        <ele>228.36578</ele>
        <time>2014-09-28T12:32:50Z</time>
      </trkpt>
      <trkpt lat="45.64309" lon="5.37467">
        <ele>228.60841</ele>
        <time>2014-09-28T12:32:55Z</time>
      </trkpt>
      <trkpt lat="45.64312" lon="5.37483">
        <ele>228.7247</ele>
        <time>2014-09-28T12:33:00Z</time>
      </trkpt>
      <trkpt lat="45.64309" lon="5.37497">
        <ele>228.93918</ele>
        <time>2014-09-28T12:33:05Z</time>
      </trkpt>
      <trkpt lat="45.64302" lon="5.37505">
        <ele>228.93918</ele>
        <time>2014-09-28T12:33:10Z</time>
      </trkpt>
      <trkpt lat="45.64294" lon="5.37509">
        <ele>229.20015</ele>
        <time>2014-09-28T12:33:15Z</time>
      </trkpt>
      <trkpt lat="45.64285" lon="5.37512">
        <ele>229.54607</ele>
        <time>2014-09-28T12:33:20Z</time>
      </trkpt>
      <trkpt lat="45.64277" lon="5.37515">
        <ele>229.54607</ele>
        <time>2014-09-28T12:33:25Z</time>
      </trkpt>
      <trkpt lat="45.64274" lon="5.37524">
        <ele>229.7673</ele>
        <time>2014-09-28T12:33:30Z</time>
      </trkpt>
      <trkpt lat="45.64277" lon="5.37535">
        <ele>229.7673</ele>
        <time>2014-09-28T12:33:35Z</time>
      </trkpt>
      <trkpt lat="45.64278" lon="5.37539">
        <ele>230.07352</ele>
        <time>2014-09-28T12:33:40Z</time>
      </trkpt>
      <trkpt lat="45.64282" lon="5.37549">
        <ele>230.07352</ele>
        <time>2014-09-28T12:33:45Z</time>
      </trkpt>
      <trkpt lat="45.6429" lon="5.37571">
        <ele>230.32727</ele>
        <time>2014-09-28T12:33:50Z</time>
      </trkpt>
      <trkpt lat="45.64298" lon="5.37592">
        <ele>230.47343</ele>
        <time>2014-09-28T12:33:55Z</time>
      </trkpt>
      <trkpt lat="45.64312" lon="5.37629">
        <ele>230.60533</ele>
        <time>2014-09-28T12:34:00Z</time>
      </trkpt>
      <trkpt lat="45.64324" lon="5.37661">
        <ele>230.76627</ele>
        <time>2014-09-28T12:34:05Z</time>
      </trkpt>
      <trkpt lat="45.64335" lon="5.37691">
        <ele>230.89545</ele>
        <time>2014-09-28T12:34:10Z</time>
      </trkpt>
      <trkpt lat="45.64347" lon="5.37723">
        <ele>230.97983</ele>
        <time>2014-09-28T12:34:15Z</time>
      </trkpt>
      <trkpt lat="45.64359" lon="5.37758">
        <ele>231.1084</ele>
        <time>2014-09-28T12:34:20Z</time>
      </trkpt>
      <trkpt lat="45.64372" lon="5.37791">
        <ele>231.2626</ele>
        <time>2014-09-28T12:34:25Z</time>
      </trkpt>
      <trkpt lat="45.6438" lon="5.37813">
        <ele>231.33873</ele>
        <time>2014-09-28T12:34:30Z</time>
      </trkpt>
      <trkpt lat="45.64391" lon="5.37842">
        <ele>231.4427</ele>
        <time>2014-09-28T12:34:35Z</time>
      </trkpt>
      <trkpt lat="45.64403" lon="5.37875">
        <ele>231.51408</ele>
        <time>2014-09-28T12:34:40Z</time>
      </trkpt>
      <trkpt lat="45.64416" lon="5.37905">
        <ele>231.5546</ele>
        <time>2014-09-28T12:34:45Z</time>
      </trkpt>
      <trkpt lat="45.64432" lon="5.37938">
        <ele>231.566</ele>
        <time>2014-09-28T12:34:50Z</time>
      </trkpt>
      <trkpt lat="45.64448" lon="5.37976">
        <ele>231.62206</ele>
        <time>2014-09-28T12:34:55Z</time>
      </trkpt>
      <trkpt lat="45.64459" lon="5.38012">
        <ele>231.60367</ele>
        <time>2014-09-28T12:35:00Z</time>
      </trkpt>
      <trkpt lat="45.64466" lon="5.38034">
        <ele>231.68895</ele>
        <time>2014-09-28T12:35:05Z</time>
      </trkpt>
      <trkpt lat="45.64468" lon="5.38047">
        <ele>231.82648</ele>
        <time>2014-09-28T12:35:10Z</time>
      </trkpt>
      <trkpt lat="45.6447" lon="5.38058">
        <ele>231.82648</ele>
        <time>2014-09-28T12:35:15Z</time>
      </trkpt>
      <trkpt lat="45.64472" lon="5.38069">
        <ele>231.93968</ele>
        <time>2014-09-28T12:35:20Z</time>
      </trkpt>
      <trkpt lat="45.64474" lon="5.3808">
        <ele>231.93968</ele>
        <time>2014-09-28T12:35:25Z</time>
      </trkpt>
      <trkpt lat="45.64476" lon="5.38091">
        <ele>232.27472</ele>
        <time>2014-09-28T12:35:30Z</time>
      </trkpt>
      <trkpt lat="45.64476" lon="5.38093">
        <ele>232.27472</ele>
        <time>2014-09-28T12:35:35Z</time>
      </trkpt>
      <trkpt lat="45.64477" lon="5.38099">
        <ele>232.27472</ele>
        <time>2014-09-28T12:35:40Z</time>
      </trkpt>
      <trkpt lat="45.64477" lon="5.38109">
        <ele>232.79971</ele>
        <time>2014-09-28T12:35:45Z</time>
      </trkpt>
      <trkpt lat="45.64471" lon="5.38115">
        <ele>232.79971</ele>
        <time>2014-09-28T12:35:50Z</time>
      </trkpt>
      <trkpt lat="45.64461" lon="5.38116">
        <ele>233.3837</ele>
        <time>2014-09-28T12:35:55Z</time>
      </trkpt>
      <trkpt lat="45.64455" lon="5.38116">
        <ele>233.3837</ele>
        <time>2014-09-28T12:36:00Z</time>
      </trkpt>
      <trkpt lat="45.64445" lon="5.38117">
        <ele>233.96288</ele>
        <time>2014-09-28T12:36:05Z</time>
      </trkpt>
      <trkpt lat="45.64439" lon="5.38117">
        <ele>233.96288</ele>
        <time>2014-09-28T12:36:10Z</time>
      </trkpt>
      <trkpt lat="45.6443" lon="5.38118">
        <ele>234.60783</ele>
        <time>2014-09-28T12:36:15Z</time>
      </trkpt>
      <trkpt lat="45.64423" lon="5.38117">
        <ele>234.60783</ele>
        <time>2014-09-28T12:36:20Z</time>
      </trkpt>
      <trkpt lat="45.64415" lon="5.38116">
        <ele>235.19653</ele>
        <time>2014-09-28T12:36:25Z</time>
      </trkpt>
      <trkpt lat="45.64407" lon="5.38118">
        <ele>235.19653</ele>
        <time>2014-09-28T12:36:30Z</time>
      </trkpt>
      <trkpt lat="45.64399" lon="5.38119">
        <ele>235.74574</ele>
        <time>2014-09-28T12:36:35Z</time>
      </trkpt>
      <trkpt lat="45.64392" lon="5.38121">
        <ele>235.74574</ele>
        <time>2014-09-28T12:36:40Z</time>
      </trkpt>
      <trkpt lat="45.64384" lon="5.38121">
        <ele>236.21355</ele>
        <time>2014-09-28T12:36:45Z</time>
      </trkpt>
      <trkpt lat="45.64377" lon="5.38123">
        <ele>236.21355</ele>
        <time>2014-09-28T12:36:50Z</time>
      </trkpt>
      <trkpt lat="45.6437" lon="5.38124">
        <ele>236.70547</ele>
        <time>2014-09-28T12:36:55Z</time>
      </trkpt>
      <trkpt lat="45.64362" lon="5.38125">
        <ele>236.70547</ele>
        <time>2014-09-28T12:37:00Z</time>
      </trkpt>
      <trkpt lat="45.64356" lon="5.38126">
        <ele>237.27603</ele>
        <time>2014-09-28T12:37:05Z</time>
      </trkpt>
      <trkpt lat="45.64348" lon="5.38127">
        <ele>237.27603</ele>
        <time>2014-09-28T12:37:10Z</time>
      </trkpt>
      <trkpt lat="45.64341" lon="5.38128">
        <ele>237.77379</ele>
        <time>2014-09-28T12:37:15Z</time>
      </trkpt>
      <trkpt lat="45.64334" lon="5.38129">
        <ele>237.77379</ele>
        <time>2014-09-28T12:37:20Z</time>
      </trkpt>
      <trkpt lat="45.64326" lon="5.38128">
        <ele>238.37578</ele>
        <time>2014-09-28T12:37:25Z</time>
      </trkpt>
      <trkpt lat="45.64319" lon="5.38129">
        <ele>238.37578</ele>
        <time>2014-09-28T12:37:30Z</time>
      </trkpt>
      <trkpt lat="45.64312" lon="5.3813">
        <ele>238.95749</ele>
        <time>2014-09-28T12:37:35Z</time>
      </trkpt>
      <trkpt lat="45.64305" lon="5.38131">
        <ele>238.95749</ele>
        <time>2014-09-28T12:37:40Z</time>
      </trkpt>
      <trkpt lat="45.64297" lon="5.38131">
        <ele>239.61987</ele>
        <time>2014-09-28T12:37:45Z</time>
      </trkpt>
      <trkpt lat="45.6429" lon="5.38131">
        <ele>239.61987</ele>
        <time>2014-09-28T12:37:50Z</time>
      </trkpt>
      <trkpt lat="45.64283" lon="5.38133">
        <ele>240.32658</ele>
        <time>2014-09-28T12:37:55Z</time>
      </trkpt>
      <trkpt lat="45.64277" lon="5.38134">
        <ele>240.32658</ele>
        <time>2014-09-28T12:38:00Z</time>
      </trkpt>
      <trkpt lat="45.64272" lon="5.38135">
        <ele>240.95738</ele>
        <time>2014-09-28T12:38:05Z</time>
      </trkpt>
      <trkpt lat="45.64271" lon="5.38135">
        <ele>240.95738</ele>
        <time>2014-09-28T12:38:10Z</time>
      </trkpt>
      <trkpt lat="45.6427" lon="5.38135">
        <ele>240.95738</ele>
        <time>2014-09-28T12:38:15Z</time>
      </trkpt>
      <trkpt lat="45.64269" lon="5.38138">
        <ele>240.95738</ele>
        <time>2014-09-28T12:38:20Z</time>
      </trkpt>
      <trkpt lat="45.64263" lon="5.38139">
        <ele>241.60289</ele>
        <time>2014-09-28T12:38:25Z</time>
      </trkpt>
      <trkpt lat="45.64263" lon="5.38139">
        <ele>241.60289</ele>
        <time>2014-09-28T12:38:30Z</time>
      </trkpt>
      <trkpt lat="45.64264" lon="5.38137">
        <ele>241.60289</ele>
        <time>2014-09-28T12:38:35Z</time>
      </trkpt>
      <trkpt lat="45.64264" lon="5.38138">
        <ele>241.60289</ele>
        <time>2014-09-28T12:38:40Z</time>
      </trkpt>
      <trkpt lat="45.64259" lon="5.38137">
        <ele>241.60289</ele>
        <time>2014-09-28T12:38:45Z</time>
      </trkpt>
      <trkpt lat="45.64255" lon="5.38137">
        <ele>241.91476</ele>
        <time>2014-09-28T12:38:50Z</time>
      </trkpt>
      <trkpt lat="45.64249" lon="5.38136">
        <ele>241.91476</ele>
        <time>2014-09-28T12:38:55Z</time>
      </trkpt>
      <trkpt lat="45.64243" lon="5.38137">
        <ele>242.29176</ele>
        <time>2014-09-28T12:39:00Z</time>
      </trkpt>
      <trkpt lat="45.64236" lon="5.38139">
        <ele>242.29176</ele>
        <time>2014-09-28T12:39:05Z</time>
      </trkpt>
      <trkpt lat="45.6423" lon="5.38139">
        <ele>242.62769</ele>
        <time>2014-09-28T12:39:10Z</time>
      </trkpt>
      <trkpt lat="45.64223" lon="5.38141">
        <ele>242.62769</ele>
        <time>2014-09-28T12:39:15Z</time>
      </trkpt>
      <trkpt lat="45.64218" lon="5.38145">
        <ele>242.98277</ele>
        <time>2014-09-28T12:39:20Z</time>
      </trkpt>
      <trkpt lat="45.64215" lon="5.38145">
        <ele>242.98277</ele>
        <time>2014-09-28T12:39:25Z</time>
      </trkpt>
      <trkpt lat="45.64213" lon="5.38148">
        <ele>242.98277</ele>
        <time>2014-09-28T12:39:30Z</time>
      </trkpt>
      <trkpt lat="45.64208" lon="5.38148">
        <ele>243.36961</ele>
        <time>2014-09-28T12:39:35Z</time>
      </trkpt>
      <trkpt lat="45.64199" lon="5.38148">
        <ele>243.36961</ele>
        <time>2014-09-28T12:39:40Z</time>
      </trkpt>
      <trkpt lat="45.64192" lon="5.3814">
        <ele>243.91515</ele>
        <time>2014-09-28T12:39:45Z</time>
      </trkpt>
      <trkpt lat="45.64181" lon="5.38133">
        <ele>244.26097</ele>
        <time>2014-09-28T12:39:50Z</time>
      </trkpt>
      <trkpt lat="45.64176" lon="5.38129">
        <ele>244.26097</ele>
        <time>2014-09-28T12:39:55Z</time>
      </trkpt>
      <trkpt lat="45.6417" lon="5.3813">
        <ele>244.60883</ele>
        <time>2014-09-28T12:40:00Z</time>
      </trkpt>
      <trkpt lat="45.64164" lon="5.38129">
        <ele>244.60883</ele>
        <time>2014-09-28T12:40:05Z</time>
      </trkpt>
      <trkpt lat="45.64161" lon="5.38126">
        <ele>244.90073</ele>
        <time>2014-09-28T12:40:10Z</time>
      </trkpt>
      <trkpt lat="45.64161" lon="5.38127">
        <ele>244.90073</ele>
        <time>2014-09-28T12:40:15Z</time>
      </trkpt>
      <trkpt lat="45.6416" lon="5.38127">
        <ele>244.90073</ele>
        <time>2014-09-28T12:40:20Z</time>
      </trkpt>
      <trkpt lat="45.64159" lon="5.38125">
        <ele>244.90073</ele>
        <time>2014-09-28T12:40:25Z</time>
      </trkpt>
      <trkpt lat="45.64157" lon="5.38124">
        <ele>244.90073</ele>
        <time>2014-09-28T12:40:50Z</time>
      </trkpt>
      <trkpt lat="45.64156" lon="5.38124">
        <ele>244.90073</ele>
        <time>2014-09-28T12:40:55Z</time>
      </trkpt>
      <trkpt lat="45.64159" lon="5.38125">
        <ele>244.90073</ele>
        <time>2014-09-28T12:41:10Z</time>
      </trkpt>
      <trkpt lat="45.64159" lon="5.38127">
        <ele>245.80362</ele>
        <time>2014-09-28T12:41:15Z</time>
      </trkpt>
      <trkpt lat="45.64157" lon="5.38129">
        <ele>245.80362</ele>
        <time>2014-09-28T12:41:35Z</time>
      </trkpt>
      <trkpt lat="45.64158" lon="5.38128">
        <ele>245.80362</ele>
        <time>2014-09-28T12:41:40Z</time>
      </trkpt>
      <trkpt lat="45.64157" lon="5.38129">
        <ele>245.80362</ele>
        <time>2014-09-28T12:41:45Z</time>
      </trkpt>
      <trkpt lat="45.64152" lon="5.38124">
        <ele>246.88184</ele>
        <time>2014-09-28T12:42:50Z</time>
      </trkpt>
      <trkpt lat="45.64146" lon="5.38127">
        <ele>246.88184</ele>
        <time>2014-09-28T12:42:55Z</time>
      </trkpt>
      <trkpt lat="45.64139" lon="5.38128">
        <ele>248.14912</ele>
        <time>2014-09-28T12:43:00Z</time>
      </trkpt>
      <trkpt lat="45.64133" lon="5.38128">
        <ele>248.14912</ele>
        <time>2014-09-28T12:43:05Z</time>
      </trkpt>
      <trkpt lat="45.64127" lon="5.3813">
        <ele>249.35837</ele>
        <time>2014-09-28T12:43:10Z</time>
      </trkpt>
      <trkpt lat="45.64121" lon="5.38132">
        <ele>249.35837</ele>
        <time>2014-09-28T12:43:15Z</time>
      </trkpt>
      <trkpt lat="45.64114" lon="5.38133">
        <ele>250.5258</ele>
        <time>2014-09-28T12:43:20Z</time>
      </trkpt>
      <trkpt lat="45.64109" lon="5.38135">
        <ele>250.5258</ele>
        <time>2014-09-28T12:43:25Z</time>
      </trkpt>
      <trkpt lat="45.64105" lon="5.3814">
        <ele>251.78189</ele>
        <time>2014-09-28T12:43:30Z</time>
      </trkpt>
      <trkpt lat="45.64104" lon="5.38146">
        <ele>251.78189</ele>
        <time>2014-09-28T12:43:35Z</time>
      </trkpt>
      <trkpt lat="45.64104" lon="5.38156">
        <ele>252.815</ele>
        <time>2014-09-28T12:43:40Z</time>
      </trkpt>
      <trkpt lat="45.64104" lon="5.38166">
        <ele>252.815</ele>
        <time>2014-09-28T12:43:45Z</time>
      </trkpt>
      <trkpt lat="45.64102" lon="5.38176">
        <ele>253.69736</ele>
        <time>2014-09-28T12:43:50Z</time>
      </trkpt>
      <trkpt lat="45.64099" lon="5.38184">
        <ele>253.69736</ele>
        <time>2014-09-28T12:43:55Z</time>
      </trkpt>
      <trkpt lat="45.64094" lon="5.38193">
        <ele>254.4387</ele>
        <time>2014-09-28T12:44:00Z</time>
      </trkpt>
      <trkpt lat="45.6409" lon="5.382">
        <ele>254.4387</ele>
        <time>2014-09-28T12:44:05Z</time>
      </trkpt>
      <trkpt lat="45.64083" lon="5.38205">
        <ele>255.04854</ele>
        <time>2014-09-28T12:44:10Z</time>
      </trkpt>
      <trkpt lat="45.64078" lon="5.38211">
        <ele>255.04854</ele>
        <time>2014-09-28T12:44:15Z</time>
      </trkpt>
      <trkpt lat="45.64072" lon="5.38215">
        <ele>255.63692</ele>
        <time>2014-09-28T12:44:20Z</time>
      </trkpt>
      <trkpt lat="45.64066" lon="5.38218">
        <ele>255.63692</ele>
        <time>2014-09-28T12:44:25Z</time>
      </trkpt>
      <trkpt lat="45.6406" lon="5.38223">
        <ele>256.27713</ele>
        <time>2014-09-28T12:44:30Z</time>
      </trkpt>
      <trkpt lat="45.64055" lon="5.38228">
        <ele>256.27713</ele>
        <time>2014-09-28T12:44:35Z</time>
      </trkpt>
      <trkpt lat="45.6405" lon="5.3823">
        <ele>256.87848</ele>
        <time>2014-09-28T12:44:40Z</time>
      </trkpt>
      <trkpt lat="45.64043" lon="5.38233">
        <ele>256.87848</ele>
        <time>2014-09-28T12:44:45Z</time>
      </trkpt>
      <trkpt lat="45.64038" lon="5.38234">
        <ele>257.50116</ele>
        <time>2014-09-28T12:44:50Z</time>
      </trkpt>
      <trkpt lat="45.64035" lon="5.38236">
        <ele>257.50116</ele>
        <time>2014-09-28T12:44:55Z</time>
      </trkpt>
      <trkpt lat="45.64028" lon="5.38237">
        <ele>257.95596</ele>
        <time>2014-09-28T12:45:00Z</time>
      </trkpt>
      <trkpt lat="45.6402" lon="5.38237">
        <ele>257.95596</ele>
        <time>2014-09-28T12:45:05Z</time>
      </trkpt>
      <trkpt lat="45.64011" lon="5.38233">
        <ele>258.16898</ele>
        <time>2014-09-28T12:45:10Z</time>
      </trkpt>
      <trkpt lat="45.64008" lon="5.38227">
        <ele>258.16898</ele>
        <time>2014-09-28T12:45:15Z</time>
      </trkpt>
      <trkpt lat="45.64003" lon="5.38225">
        <ele>258.30298</ele>
        <time>2014-09-28T12:45:20Z</time>
      </trkpt>
      <trkpt lat="45.63997" lon="5.38224">
        <ele>258.30298</ele>
        <time>2014-09-28T12:45:25Z</time>
      </trkpt>
      <trkpt lat="45.63992" lon="5.38223">
        <ele>258.71085</ele>
        <time>2014-09-28T12:45:30Z</time>
      </trkpt>
      <trkpt lat="45.63988" lon="5.38221">
        <ele>258.71085</ele>
        <time>2014-09-28T12:45:35Z</time>
      </trkpt>
      <trkpt lat="45.63983" lon="5.38221">
        <ele>259.22876</ele>
        <time>2014-09-28T12:45:40Z</time>
      </trkpt>
      <trkpt lat="45.63978" lon="5.38221">
        <ele>259.22876</ele>
        <time>2014-09-28T12:45:45Z</time>
      </trkpt>
      <trkpt lat="45.63975" lon="5.38216">
        <ele>259.22876</ele>
        <time>2014-09-28T12:45:50Z</time>
      </trkpt>
      <trkpt lat="45.63974" lon="5.38216">
        <ele>259.63263</ele>
        <time>2014-09-28T12:45:55Z</time>
      </trkpt>
      <trkpt lat="45.63974" lon="5.38219">
        <ele>259.63263</ele>
        <time>2014-09-28T12:46:00Z</time>
      </trkpt>
      <trkpt lat="45.63977" lon="5.38219">
        <ele>259.63263</ele>
        <time>2014-09-28T12:46:15Z</time>
      </trkpt>
      <trkpt lat="45.63978" lon="5.38219">
        <ele>259.63263</ele>
        <time>2014-09-28T12:46:20Z</time>
      </trkpt>
      <trkpt lat="45.63978" lon="5.38217">
        <ele>259.63263</ele>
        <time>2014-09-28T12:46:25Z</time>
      </trkpt>
      <trkpt lat="45.63985" lon="5.38216">
        <ele>259.8881</ele>
        <time>2014-09-28T12:46:30Z</time>
      </trkpt>
      <trkpt lat="45.63991" lon="5.38219">
        <ele>259.8881</ele>
        <time>2014-09-28T12:46:35Z</time>
      </trkpt>
      <trkpt lat="45.63998" lon="5.3822">
        <ele>259.94934</ele>
        <time>2014-09-28T12:46:40Z</time>
      </trkpt>
      <trkpt lat="45.64004" lon="5.38221">
        <ele>259.94934</ele>
        <time>2014-09-28T12:46:45Z</time>
      </trkpt>
      <trkpt lat="45.64005" lon="5.3822">
        <ele>259.94934</ele>
        <time>2014-09-28T12:46:50Z</time>
      </trkpt>
      <trkpt lat="45.63997" lon="5.38221">
        <ele>259.87534</ele>
        <time>2014-09-28T12:46:55Z</time>
      </trkpt>
      <trkpt lat="45.63993" lon="5.3822">
        <ele>259.87534</ele>
        <time>2014-09-28T12:47:00Z</time>
      </trkpt>
      <trkpt lat="45.6399" lon="5.3822">
        <ele>259.87534</ele>
        <time>2014-09-28T12:47:05Z</time>
      </trkpt>
      <trkpt lat="45.63983" lon="5.38218">
        <ele>259.99493</ele>
        <time>2014-09-28T12:47:10Z</time>
      </trkpt>
      <trkpt lat="45.63976" lon="5.38215">
        <ele>259.99493</ele>
        <time>2014-09-28T12:47:15Z</time>
      </trkpt>
      <trkpt lat="45.63974" lon="5.38213">
        <ele>260.20877</ele>
        <time>2014-09-28T12:47:20Z</time>
      </trkpt>
      <trkpt lat="45.63976" lon="5.38207">
        <ele>260.20877</ele>
        <time>2014-09-28T12:47:25Z</time>
      </trkpt>
      <trkpt lat="45.63979" lon="5.38205">
        <ele>260.20877</ele>
        <time>2014-09-28T12:47:30Z</time>
      </trkpt>
      <trkpt lat="45.63984" lon="5.38206">
        <ele>260.23715</ele>
        <time>2014-09-28T12:47:35Z</time>
      </trkpt>
      <trkpt lat="45.63991" lon="5.38208">
        <ele>260.23715</ele>
        <time>2014-09-28T12:47:40Z</time>
      </trkpt>
      <trkpt lat="45.63997" lon="5.38209">
        <ele>260.1674</ele>
        <time>2014-09-28T12:47:45Z</time>
      </trkpt>
      <trkpt lat="45.64001" lon="5.3821">
        <ele>260.1674</ele>
        <time>2014-09-28T12:47:50Z</time>
      </trkpt>
      <trkpt lat="45.64003" lon="5.38208">
        <ele>260.1674</ele>
        <time>2014-09-28T12:47:55Z</time>
      </trkpt>
      <trkpt lat="45.64008" lon="5.38208">
        <ele>259.97968</ele>
        <time>2014-09-28T12:48:00Z</time>
      </trkpt>
      <trkpt lat="45.64016" lon="5.38209">
        <ele>259.97968</ele>
        <time>2014-09-28T12:48:05Z</time>
      </trkpt>
      <trkpt lat="45.64021" lon="5.38215">
        <ele>259.72803</ele>
        <time>2014-09-28T12:48:10Z</time>
      </trkpt>
      <trkpt lat="45.64022" lon="5.3822">
        <ele>259.72803</ele>
        <time>2014-09-28T12:48:15Z</time>
      </trkpt>
      <trkpt lat="45.64021" lon="5.38221">
        <ele>259.72803</ele>
        <time>2014-09-28T12:48:20Z</time>
      </trkpt>
      <trkpt lat="45.64021" lon="5.38224">
        <ele>259.72803</ele>
        <time>2014-09-28T12:48:30Z</time>
      </trkpt>
      <trkpt lat="45.64021" lon="5.38225">
        <ele>259.72803</ele>
        <time>2014-09-28T12:48:35Z</time>
      </trkpt>
      <trkpt lat="45.64021" lon="5.38225">
        <ele>259.72803</ele>
        <time>2014-09-28T12:48:40Z</time>
      </trkpt>
      <trkpt lat="45.6402" lon="5.38227">
        <ele>259.1313</ele>
        <time>2014-09-28T12:49:00Z</time>
      </trkpt>
      <trkpt lat="45.64021" lon="5.38227">
        <ele>259.1313</ele>
        <time>2014-09-28T12:49:05Z</time>
      </trkpt>
      <trkpt lat="45.64021" lon="5.38227">
        <ele>259.1313</ele>
        <time>2014-09-28T12:49:15Z</time>
      </trkpt>
      <trkpt lat="45.64022" lon="5.38225">
        <ele>259.1313</ele>
        <time>2014-09-28T12:49:20Z</time>
      </trkpt>
      <trkpt lat="45.64021" lon="5.38225">
        <ele>259.1313</ele>
        <time>2014-09-28T12:49:25Z</time>
      </trkpt>
      <trkpt lat="45.6402" lon="5.38219">
        <ele>259.1313</ele>
        <time>2014-09-28T12:49:30Z</time>
      </trkpt>
      <trkpt lat="45.6402" lon="5.38218">
        <ele>258.50626</ele>
        <time>2014-09-28T12:49:35Z</time>
      </trkpt>
      <trkpt lat="45.64022" lon="5.38217">
        <ele>258.50626</ele>
        <time>2014-09-28T12:49:40Z</time>
      </trkpt>
      <trkpt lat="45.64023" lon="5.38217">
        <ele>258.50626</ele>
        <time>2014-09-28T12:49:45Z</time>
      </trkpt>
      <trkpt lat="45.64024" lon="5.38218">
        <ele>258.50626</ele>
        <time>2014-09-28T12:49:50Z</time>
      </trkpt>
      <trkpt lat="45.64025" lon="5.3822">
        <ele>258.50626</ele>
        <time>2014-09-28T12:49:55Z</time>
      </trkpt>
      <trkpt lat="45.64026" lon="5.3822">
        <ele>258.50626</ele>
        <time>2014-09-28T12:50:00Z</time>
      </trkpt>
      <trkpt lat="45.64026" lon="5.3822">
        <ele>258.50626</ele>
        <time>2014-09-28T12:50:05Z</time>
      </trkpt>
      <trkpt lat="45.64025" lon="5.38223">
        <ele>258.50626</ele>
        <time>2014-09-28T12:50:15Z</time>
      </trkpt>
      <trkpt lat="45.64027" lon="5.38228">
        <ele>257.95923</ele>
        <time>2014-09-28T12:50:20Z</time>
      </trkpt>
      <trkpt lat="45.64025" lon="5.38224">
        <ele>257.95923</ele>
        <time>2014-09-28T12:50:25Z</time>
      </trkpt>
      <trkpt lat="45.64024" lon="5.3822">
        <ele>257.95923</ele>
        <time>2014-09-28T12:50:30Z</time>
      </trkpt>
      <trkpt lat="45.64026" lon="5.3822">
        <ele>257.95923</ele>
        <time>2014-09-28T12:50:35Z</time>
      </trkpt>
      <trkpt lat="45.64023" lon="5.38218">
        <ele>257.4298</ele>
        <time>2014-09-28T12:50:45Z</time>
      </trkpt>
      <trkpt lat="45.64023" lon="5.38213">
        <ele>257.4298</ele>
        <time>2014-09-28T12:50:50Z</time>
      </trkpt>
      <trkpt lat="45.64024" lon="5.38211">
        <ele>257.4298</ele>
        <time>2014-09-28T12:50:55Z</time>
      </trkpt>
      <trkpt lat="45.64024" lon="5.38214">
        <ele>257.4298</ele>
        <time>2014-09-28T12:51:05Z</time>
      </trkpt>
      <trkpt lat="45.64025" lon="5.38219">
        <ele>257.03494</ele>
        <time>2014-09-28T12:51:10Z</time>
      </trkpt>
      <trkpt lat="45.64023" lon="5.38221">
        <ele>257.03494</ele>
        <time>2014-09-28T12:51:15Z</time>
      </trkpt>
      <trkpt lat="45.64022" lon="5.38221">
        <ele>257.03494</ele>
        <time>2014-09-28T12:51:20Z</time>
      </trkpt>
      <trkpt lat="45.64022" lon="5.38222">
        <ele>257.03494</ele>
        <time>2014-09-28T12:51:25Z</time>
      </trkpt>
      <trkpt lat="45.64022" lon="5.38223">
        <ele>257.03494</ele>
        <time>2014-09-28T12:51:35Z</time>
      </trkpt>
      <trkpt lat="45.64021" lon="5.38226">
        <ele>257.03494</ele>
        <time>2014-09-28T12:51:40Z</time>
      </trkpt>
      <trkpt lat="45.64025" lon="5.38227">
        <ele>255.88824</ele>
        <time>2014-09-28T12:52:10Z</time>
      </trkpt>
      <trkpt lat="45.64024" lon="5.38225">
        <ele>255.88824</ele>
        <time>2014-09-28T12:52:15Z</time>
      </trkpt>
      <trkpt lat="45.64025" lon="5.38221">
        <ele>255.88824</ele>
        <time>2014-09-28T12:52:50Z</time>
      </trkpt>
      <trkpt lat="45.64026" lon="5.38222">
        <ele>255.88824</ele>
        <time>2014-09-28T12:52:55Z</time>
      </trkpt>
      <trkpt lat="45.64026" lon="5.38222">
        <ele>255.88824</ele>
        <time>2014-09-28T12:53:00Z</time>
      </trkpt>
      <trkpt lat="45.64023" lon="5.38226">
        <ele>255.87967</ele>
        <time>2014-09-28T12:54:35Z</time>
      </trkpt>
      <trkpt lat="45.64023" lon="5.38226">
        <ele>255.87967</ele>
        <time>2014-09-28T12:54:40Z</time>
      </trkpt>
      <trkpt lat="45.64022" lon="5.38227">
        <ele>255.87967</ele>
        <time>2014-09-28T12:54:55Z</time>
      </trkpt>
      <trkpt lat="45.64022" lon="5.38227">
        <ele>255.87967</ele>
        <time>2014-09-28T12:55:00Z</time>
      </trkpt>
      <trkpt lat="45.64024" lon="5.38225">
        <ele>255.87967</ele>
        <time>2014-09-28T12:55:05Z</time>
      </trkpt>
      <trkpt lat="45.64024" lon="5.38224">
        <ele>255.87967</ele>
        <time>2014-09-28T12:55:10Z</time>
      </trkpt>
      <trkpt lat="45.64023" lon="5.38224">
        <ele>255.87967</ele>
        <time>2014-09-28T12:55:15Z</time>
      </trkpt>
      <trkpt lat="45.64024" lon="5.38221">
        <ele>255.87967</ele>
        <time>2014-09-28T12:55:20Z</time>
      </trkpt>
      <trkpt lat="45.64024" lon="5.38221">
        <ele>255.94699</ele>
        <time>2014-09-28T12:56:05Z</time>
      </trkpt>
      <trkpt lat="45.64025" lon="5.38222">
        <ele>255.94699</ele>
        <time>2014-09-28T12:56:10Z</time>
      </trkpt>
      <trkpt lat="45.64024" lon="5.38222">
        <ele>255.94699</ele>
        <time>2014-09-28T12:56:15Z</time>
      </trkpt>
      <trkpt lat="45.64022" lon="5.38225">
        <ele>255.94699</ele>
        <time>2014-09-28T12:56:20Z</time>
      </trkpt>
      <trkpt lat="45.6402" lon="5.38216">
        <ele>261.4</ele>
        <time>2014-09-28T15:24:03Z</time>
      </trkpt>
      <trkpt lat="45.64024" lon="5.38202">
        <ele>260.871</ele>
        <time>2014-09-28T15:24:08Z</time>
      </trkpt>
      <trkpt lat="45.64029" lon="5.3819">
        <ele>260.86395</ele>
        <time>2014-09-28T15:24:13Z</time>
      </trkpt>
      <trkpt lat="45.64035" lon="5.38179">
        <ele>260.85687</ele>
        <time>2014-09-28T15:24:18Z</time>
      </trkpt>
      <trkpt lat="45.64016" lon="5.3823">
        <ele>260.84982</ele>
        <time>2014-09-28T15:24:28Z</time>
      </trkpt>
      <trkpt lat="45.64014" lon="5.3823">
        <ele>260.84277</ele>
        <time>2014-09-28T15:24:33Z</time>
      </trkpt>
      <trkpt lat="45.64011" lon="5.38232">
        <ele>260.8357</ele>
        <time>2014-09-28T15:24:38Z</time>
      </trkpt>
      <trkpt lat="45.64006" lon="5.38237">
        <ele>260.8357</ele>
        <time>2014-09-28T15:24:43Z</time>
      </trkpt>
      <trkpt lat="45.64006" lon="5.38235">
        <ele>260.8357</ele>
        <time>2014-09-28T15:24:48Z</time>
      </trkpt>
      <trkpt lat="45.64004" lon="5.38234">
        <ele>261.45563</ele>
        <time>2014-09-28T15:25:13Z</time>
      </trkpt>
      <trkpt lat="45.64005" lon="5.38232">
        <ele>261.45563</ele>
        <time>2014-09-28T15:25:18Z</time>
      </trkpt>
      <trkpt lat="45.64005" lon="5.38232">
        <ele>261.45563</ele>
        <time>2014-09-28T15:25:53Z</time>
      </trkpt>
      <trkpt lat="45.64004" lon="5.38233">
        <ele>261.45563</ele>
        <time>2014-09-28T15:25:58Z</time>
      </trkpt>
      <trkpt lat="45.64004" lon="5.38233">
        <ele>261.45563</ele>
        <time>2014-09-28T15:26:03Z</time>
      </trkpt>
      <trkpt lat="45.64001" lon="5.38238">
        <ele>261.45563</ele>
        <time>2014-09-28T15:26:08Z</time>
      </trkpt>
      <trkpt lat="45.63997" lon="5.38237">
        <ele>263.31403</ele>
        <time>2014-09-28T15:26:13Z</time>
      </trkpt>
      <trkpt lat="45.63997" lon="5.38233">
        <ele>263.31403</ele>
        <time>2014-09-28T15:26:18Z</time>
      </trkpt>
      <trkpt lat="45.63996" lon="5.38233">
        <ele>263.31403</ele>
        <time>2014-09-28T15:26:23Z</time>
      </trkpt>
      <trkpt lat="45.63992" lon="5.38233">
        <ele>263.31403</ele>
        <time>2014-09-28T15:26:28Z</time>
      </trkpt>
      <trkpt lat="45.6399" lon="5.38233">
        <ele>264.69</ele>
        <time>2014-09-28T15:26:33Z</time>
      </trkpt>
      <trkpt lat="45.63989" lon="5.38234">
        <ele>264.69</ele>
        <time>2014-09-28T15:26:38Z</time>
      </trkpt>
      <trkpt lat="45.63984" lon="5.38235">
        <ele>264.69</ele>
        <time>2014-09-28T15:26:43Z</time>
      </trkpt>
      <trkpt lat="45.63981" lon="5.38238">
        <ele>265.8685</ele>
        <time>2014-09-28T15:26:48Z</time>
      </trkpt>
      <trkpt lat="45.63978" lon="5.38243">
        <ele>265.8685</ele>
        <time>2014-09-28T15:26:53Z</time>
      </trkpt>
      <trkpt lat="45.63978" lon="5.38241">
        <ele>265.8685</ele>
        <time>2014-09-28T15:26:58Z</time>
      </trkpt>
      <trkpt lat="45.63979" lon="5.38239">
        <ele>265.8685</ele>
        <time>2014-09-28T15:27:03Z</time>
      </trkpt>
      <trkpt lat="45.6398" lon="5.38237">
        <ele>266.9336</ele>
        <time>2014-09-28T15:27:14Z</time>
      </trkpt>
      <trkpt lat="45.63977" lon="5.38237">
        <ele>266.9336</ele>
        <time>2014-09-28T15:27:23Z</time>
      </trkpt>
      <trkpt lat="45.63975" lon="5.38236">
        <ele>266.9336</ele>
        <time>2014-09-28T15:27:28Z</time>
      </trkpt>
      <trkpt lat="45.63973" lon="5.38235">
        <ele>266.9336</ele>
        <time>2014-09-28T15:27:43Z</time>
      </trkpt>
      <trkpt lat="45.63972" lon="5.38235">
        <ele>266.9336</ele>
        <time>2014-09-28T15:27:48Z</time>
      </trkpt>
      <trkpt lat="45.6397" lon="5.38234">
        <ele>267.76434</ele>
        <time>2014-09-28T15:27:53Z</time>
      </trkpt>
      <trkpt lat="45.63971" lon="5.38234">
        <ele>267.76434</ele>
        <time>2014-09-28T15:27:59Z</time>
      </trkpt>
      <trkpt lat="45.63968" lon="5.38239">
        <ele>267.76434</ele>
        <time>2014-09-28T15:28:08Z</time>
      </trkpt>
      <trkpt lat="45.63963" lon="5.38242">
        <ele>268.40207</ele>
        <time>2014-09-28T15:28:13Z</time>
      </trkpt>
      <trkpt lat="45.63958" lon="5.38246">
        <ele>268.40207</ele>
        <time>2014-09-28T15:28:18Z</time>
      </trkpt>
      <trkpt lat="45.63953" lon="5.38247">
        <ele>268.6585</ele>
        <time>2014-09-28T15:28:23Z</time>
      </trkpt>
      <trkpt lat="45.63948" lon="5.38249">
        <ele>268.6585</ele>
        <time>2014-09-28T15:28:28Z</time>
      </trkpt>
      <trkpt lat="45.63942" lon="5.38252">
        <ele>268.70932</ele>
        <time>2014-09-28T15:28:33Z</time>
      </trkpt>
      <trkpt lat="45.63936" lon="5.38257">
        <ele>268.70932</ele>
        <time>2014-09-28T15:28:38Z</time>
      </trkpt>
      <trkpt lat="45.6393" lon="5.38261">
        <ele>268.5765</ele>
        <time>2014-09-28T15:28:43Z</time>
      </trkpt>
      <trkpt lat="45.63927" lon="5.3826">
        <ele>268.5765</ele>
        <time>2014-09-28T15:28:48Z</time>
      </trkpt>
      <trkpt lat="45.63921" lon="5.38261">
        <ele>268.5765</ele>
        <time>2014-09-28T15:28:53Z</time>
      </trkpt>
      <trkpt lat="45.63916" lon="5.38261">
        <ele>268.15607</ele>
        <time>2014-09-28T15:28:58Z</time>
      </trkpt>
      <trkpt lat="45.63911" lon="5.3826">
        <ele>268.15607</ele>
        <time>2014-09-28T15:29:03Z</time>
      </trkpt>
      <trkpt lat="45.63905" lon="5.38263">
        <ele>267.70944</ele>
        <time>2014-09-28T15:29:08Z</time>
      </trkpt>
      <trkpt lat="45.63899" lon="5.38264">
        <ele>267.70944</ele>
        <time>2014-09-28T15:29:13Z</time>
      </trkpt>
      <trkpt lat="45.63894" lon="5.38266">
        <ele>267.16013</ele>
        <time>2014-09-28T15:29:18Z</time>
      </trkpt>
      <trkpt lat="45.63888" lon="5.38267">
        <ele>267.16013</ele>
        <time>2014-09-28T15:29:23Z</time>
      </trkpt>
      <trkpt lat="45.63882" lon="5.38268">
        <ele>266.76822</ele>
        <time>2014-09-28T15:29:28Z</time>
      </trkpt>
      <trkpt lat="45.6388" lon="5.38267">
        <ele>266.76822</ele>
        <time>2014-09-28T15:29:33Z</time>
      </trkpt>
      <trkpt lat="45.6388" lon="5.38267">
        <ele>266.76822</ele>
        <time>2014-09-28T15:29:38Z</time>
      </trkpt>
      <trkpt lat="45.63884" lon="5.38266">
        <ele>266.76822</ele>
        <time>2014-09-28T15:29:53Z</time>
      </trkpt>
      <trkpt lat="45.63885" lon="5.38263">
        <ele>266.4673</ele>
        <time>2014-09-28T15:29:58Z</time>
      </trkpt>
      <trkpt lat="45.63882" lon="5.38263">
        <ele>266.4673</ele>
        <time>2014-09-28T15:30:03Z</time>
      </trkpt>
      <trkpt lat="45.6388" lon="5.38262">
        <ele>266.4673</ele>
        <time>2014-09-28T15:30:18Z</time>
      </trkpt>
      <trkpt lat="45.6388" lon="5.38263">
        <ele>266.4673</ele>
        <time>2014-09-28T15:30:23Z</time>
      </trkpt>
      <trkpt lat="45.6388" lon="5.38264">
        <ele>266.4673</ele>
        <time>2014-09-28T15:30:28Z</time>
      </trkpt>
      <trkpt lat="45.63881" lon="5.38262">
        <ele>266.4673</ele>
        <time>2014-09-28T15:30:33Z</time>
      </trkpt>
      <trkpt lat="45.63882" lon="5.38256">
        <ele>266.8076</ele>
        <time>2014-09-28T15:31:03Z</time>
      </trkpt>
      <trkpt lat="45.63881" lon="5.38247">
        <ele>266.8076</ele>
        <time>2014-09-28T15:31:08Z</time>
      </trkpt>
      <trkpt lat="45.63878" lon="5.38239">
        <ele>267.13342</ele>
        <time>2014-09-28T15:31:13Z</time>
      </trkpt>
      <trkpt lat="45.63874" lon="5.38232">
        <ele>267.13342</ele>
        <time>2014-09-28T15:31:18Z</time>
      </trkpt>
      <trkpt lat="45.63871" lon="5.38224">
        <ele>267.26157</ele>
        <time>2014-09-28T15:31:23Z</time>
      </trkpt>
      <trkpt lat="45.63868" lon="5.38216">
        <ele>267.26157</ele>
        <time>2014-09-28T15:31:28Z</time>
      </trkpt>
      <trkpt lat="45.63864" lon="5.38208">
        <ele>267.3726</ele>
        <time>2014-09-28T15:31:33Z</time>
      </trkpt>
      <trkpt lat="45.6386" lon="5.38202">
        <ele>267.3726</ele>
        <time>2014-09-28T15:31:38Z</time>
      </trkpt>
      <trkpt lat="45.63854" lon="5.38195">
        <ele>267.6079</ele>
        <time>2014-09-28T15:31:43Z</time>
      </trkpt>
      <trkpt lat="45.63847" lon="5.38191">
        <ele>267.6079</ele>
        <time>2014-09-28T15:31:48Z</time>
      </trkpt>
      <trkpt lat="45.63839" lon="5.38188">
        <ele>268.02966</ele>
        <time>2014-09-28T15:31:53Z</time>
      </trkpt>
      <trkpt lat="45.63831" lon="5.38186">
        <ele>268.02966</ele>
        <time>2014-09-28T15:31:58Z</time>
      </trkpt>
      <trkpt lat="45.63824" lon="5.38185">
        <ele>268.66177</ele>
        <time>2014-09-28T15:32:03Z</time>
      </trkpt>
      <trkpt lat="45.63818" lon="5.38185">
        <ele>268.66177</ele>
        <time>2014-09-28T15:32:09Z</time>
      </trkpt>
      <trkpt lat="45.63812" lon="5.38185">
        <ele>269.4374</ele>
        <time>2014-09-28T15:32:13Z</time>
      </trkpt>
      <trkpt lat="45.63805" lon="5.38188">
        <ele>269.4374</ele>
        <time>2014-09-28T15:32:18Z</time>
      </trkpt>
      <trkpt lat="45.638" lon="5.38193">
        <ele>270.3409</ele>
        <time>2014-09-28T15:32:23Z</time>
      </trkpt>
      <trkpt lat="45.63794" lon="5.38199">
        <ele>270.3409</ele>
        <time>2014-09-28T15:32:28Z</time>
      </trkpt>
      <trkpt lat="45.6379" lon="5.38206">
        <ele>271.2021</ele>
        <time>2014-09-28T15:32:33Z</time>
      </trkpt>
      <trkpt lat="45.63787" lon="5.38214">
        <ele>271.2021</ele>
        <time>2014-09-28T15:32:38Z</time>
      </trkpt>
      <trkpt lat="45.63784" lon="5.38223">
        <ele>271.99606</ele>
        <time>2014-09-28T15:32:43Z</time>
      </trkpt>
      <trkpt lat="45.6378" lon="5.38231">
        <ele>271.99606</ele>
        <time>2014-09-28T15:32:48Z</time>
      </trkpt>
      <trkpt lat="45.63775" lon="5.38237">
        <ele>272.82645</ele>
        <time>2014-09-28T15:32:53Z</time>
      </trkpt>
      <trkpt lat="45.6377" lon="5.3824">
        <ele>272.82645</ele>
        <time>2014-09-28T15:32:58Z</time>
      </trkpt>
      <trkpt lat="45.63765" lon="5.38242">
        <ele>273.67532</ele>
        <time>2014-09-28T15:33:03Z</time>
      </trkpt>
      <trkpt lat="45.63761" lon="5.38245">
        <ele>273.67532</ele>
        <time>2014-09-28T15:33:08Z</time>
      </trkpt>
      <trkpt lat="45.63757" lon="5.38248">
        <ele>274.49863</ele>
        <time>2014-09-28T15:33:13Z</time>
      </trkpt>
      <trkpt lat="45.63752" lon="5.38253">
        <ele>274.49863</ele>
        <time>2014-09-28T15:33:18Z</time>
      </trkpt>
      <trkpt lat="45.63744" lon="5.38257">
        <ele>275.2003</ele>
        <time>2014-09-28T15:33:23Z</time>
      </trkpt>
      <trkpt lat="45.63736" lon="5.38262">
        <ele>275.2003</ele>
        <time>2014-09-28T15:33:28Z</time>
      </trkpt>
      <trkpt lat="45.63731" lon="5.38266">
        <ele>275.8577</ele>
        <time>2014-09-28T15:33:33Z</time>
      </trkpt>
      <trkpt lat="45.63725" lon="5.38268">
        <ele>275.8577</ele>
        <time>2014-09-28T15:33:38Z</time>
      </trkpt>
      <trkpt lat="45.63717" lon="5.38273">
        <ele>276.6538</ele>
        <time>2014-09-28T15:33:43Z</time>
      </trkpt>
      <trkpt lat="45.63714" lon="5.38278">
        <ele>276.6538</ele>
        <time>2014-09-28T15:33:48Z</time>
      </trkpt>
      <trkpt lat="45.6371" lon="5.38278">
        <ele>276.6538</ele>
        <time>2014-09-28T15:33:53Z</time>
      </trkpt>
      <trkpt lat="45.63702" lon="5.38284">
        <ele>277.56482</ele>
        <time>2014-09-28T15:33:58Z</time>
      </trkpt>
      <trkpt lat="45.63698" lon="5.38286">
        <ele>277.56482</ele>
        <time>2014-09-28T15:34:03Z</time>
      </trkpt>
      <trkpt lat="45.63691" lon="5.38289">
        <ele>278.26025</ele>
        <time>2014-09-28T15:34:08Z</time>
      </trkpt>
      <trkpt lat="45.63681" lon="5.38292">
        <ele>278.8228</ele>
        <time>2014-09-28T15:34:13Z</time>
      </trkpt>
      <trkpt lat="45.63673" lon="5.38294">
        <ele>278.8228</ele>
        <time>2014-09-28T15:34:18Z</time>
      </trkpt>
      <trkpt lat="45.63667" lon="5.38296">
        <ele>279.44437</ele>
        <time>2014-09-28T15:34:23Z</time>
      </trkpt>
      <trkpt lat="45.6366" lon="5.383">
        <ele>279.44437</ele>
        <time>2014-09-28T15:34:28Z</time>
      </trkpt>
      <trkpt lat="45.63655" lon="5.38304">
        <ele>280.06442</ele>
        <time>2014-09-28T15:34:33Z</time>
      </trkpt>
      <trkpt lat="45.63657" lon="5.38306">
        <ele>280.06442</ele>
        <time>2014-09-28T15:34:38Z</time>
      </trkpt>
      <trkpt lat="45.63655" lon="5.38313">
        <ele>280.06442</ele>
        <time>2014-09-28T15:34:48Z</time>
      </trkpt>
      <trkpt lat="45.63654" lon="5.3832">
        <ele>280.8124</ele>
        <time>2014-09-28T15:34:53Z</time>
      </trkpt>
      <trkpt lat="45.63655" lon="5.38329">
        <ele>280.8124</ele>
        <time>2014-09-28T15:34:58Z</time>
      </trkpt>
      <trkpt lat="45.63656" lon="5.38338">
        <ele>281.24667</ele>
        <time>2014-09-28T15:35:03Z</time>
      </trkpt>
      <trkpt lat="45.63656" lon="5.38348">
        <ele>281.24667</ele>
        <time>2014-09-28T15:35:08Z</time>
      </trkpt>
      <trkpt lat="45.63657" lon="5.38359">
        <ele>281.59006</ele>
        <time>2014-09-28T15:35:13Z</time>
      </trkpt>
      <trkpt lat="45.63658" lon="5.38369">
        <ele>281.59006</ele>
        <time>2014-09-28T15:35:18Z</time>
      </trkpt>
      <trkpt lat="45.6366" lon="5.3838">
        <ele>281.71747</ele>
        <time>2014-09-28T15:35:23Z</time>
      </trkpt>
      <trkpt lat="45.63662" lon="5.38392">
        <ele>281.71747</ele>
        <time>2014-09-28T15:35:28Z</time>
      </trkpt>
      <trkpt lat="45.63664" lon="5.38403">
        <ele>281.48206</ele>
        <time>2014-09-28T15:35:33Z</time>
      </trkpt>
      <trkpt lat="45.63666" lon="5.38414">
        <ele>281.48206</ele>
        <time>2014-09-28T15:35:38Z</time>
      </trkpt>
      <trkpt lat="45.63667" lon="5.38427">
        <ele>281.22174</ele>
        <time>2014-09-28T15:35:43Z</time>
      </trkpt>
      <trkpt lat="45.63668" lon="5.38441">
        <ele>280.95746</ele>
        <time>2014-09-28T15:35:48Z</time>
      </trkpt>
      <trkpt lat="45.6367" lon="5.38455">
        <ele>280.64902</ele>
        <time>2014-09-28T15:35:53Z</time>
      </trkpt>
      <trkpt lat="45.63671" lon="5.38467">
        <ele>280.64902</ele>
        <time>2014-09-28T15:35:58Z</time>
      </trkpt>
      <trkpt lat="45.63671" lon="5.38478">
        <ele>280.37878</ele>
        <time>2014-09-28T15:36:03Z</time>
      </trkpt>
      <trkpt lat="45.63667" lon="5.38485">
        <ele>280.37878</ele>
        <time>2014-09-28T15:36:08Z</time>
      </trkpt>
      <trkpt lat="45.63661" lon="5.38482">
        <ele>279.84732</ele>
        <time>2014-09-28T15:36:13Z</time>
      </trkpt>
      <trkpt lat="45.63655" lon="5.3848">
        <ele>279.84732</ele>
        <time>2014-09-28T15:36:18Z</time>
      </trkpt>
      <trkpt lat="45.63648" lon="5.38477">
        <ele>279.34946</ele>
        <time>2014-09-28T15:36:23Z</time>
      </trkpt>
      <trkpt lat="45.63641" lon="5.38474">
        <ele>279.34946</ele>
        <time>2014-09-28T15:36:28Z</time>
      </trkpt>
      <trkpt lat="45.63635" lon="5.3847">
        <ele>278.827</ele>
        <time>2014-09-28T15:36:33Z</time>
      </trkpt>
      <trkpt lat="45.63628" lon="5.38466">
        <ele>278.827</ele>
        <time>2014-09-28T15:36:38Z</time>
      </trkpt>
      <trkpt lat="45.63621" lon="5.3846">
        <ele>278.4221</ele>
        <time>2014-09-28T15:36:43Z</time>
      </trkpt>
      <trkpt lat="45.63614" lon="5.38455">
        <ele>278.4221</ele>
        <time>2014-09-28T15:36:48Z</time>
      </trkpt>
      <trkpt lat="45.63609" lon="5.38449">
        <ele>277.9935</ele>
        <time>2014-09-28T15:36:53Z</time>
      </trkpt>
      <trkpt lat="45.63603" lon="5.38443">
        <ele>277.9935</ele>
        <time>2014-09-28T15:36:58Z</time>
      </trkpt>
      <trkpt lat="45.63597" lon="5.38438">
        <ele>277.4712</ele>
        <time>2014-09-28T15:37:03Z</time>
      </trkpt>
      <trkpt lat="45.63591" lon="5.38433">
        <ele>277.4712</ele>
        <time>2014-09-28T15:37:08Z</time>
      </trkpt>
      <trkpt lat="45.63586" lon="5.38428">
        <ele>276.91138</ele>
        <time>2014-09-28T15:37:13Z</time>
      </trkpt>
      <trkpt lat="45.6358" lon="5.38422">
        <ele>276.91138</ele>
        <time>2014-09-28T15:37:18Z</time>
      </trkpt>
      <trkpt lat="45.63574" lon="5.38414">
        <ele>276.38077</ele>
        <time>2014-09-28T15:37:23Z</time>
      </trkpt>
      <trkpt lat="45.6357" lon="5.38405">
        <ele>276.38077</ele>
        <time>2014-09-28T15:37:28Z</time>
      </trkpt>
      <trkpt lat="45.63569" lon="5.38395">
        <ele>275.94034</ele>
        <time>2014-09-28T15:37:33Z</time>
      </trkpt>
      <trkpt lat="45.63568" lon="5.38385">
        <ele>275.94034</ele>
        <time>2014-09-28T15:37:38Z</time>
      </trkpt>
      <trkpt lat="45.63569" lon="5.38375">
        <ele>275.76553</ele>
        <time>2014-09-28T15:37:43Z</time>
      </trkpt>
      <trkpt lat="45.6357" lon="5.38364">
        <ele>275.76553</ele>
        <time>2014-09-28T15:37:48Z</time>
      </trkpt>
      <trkpt lat="45.6357" lon="5.38354">
        <ele>275.86636</ele>
        <time>2014-09-28T15:37:53Z</time>
      </trkpt>
      <trkpt lat="45.63567" lon="5.38345">
        <ele>275.86636</ele>
        <time>2014-09-28T15:37:58Z</time>
      </trkpt>
      <trkpt lat="45.63563" lon="5.38337">
        <ele>275.99716</ele>
        <time>2014-09-28T15:38:03Z</time>
      </trkpt>
      <trkpt lat="45.63558" lon="5.38332">
        <ele>275.99716</ele>
        <time>2014-09-28T15:38:08Z</time>
      </trkpt>
      <trkpt lat="45.63551" lon="5.38327">
        <ele>276.3646</ele>
        <time>2014-09-28T15:38:13Z</time>
      </trkpt>
      <trkpt lat="45.63544" lon="5.38324">
        <ele>276.3646</ele>
        <time>2014-09-28T15:38:18Z</time>
      </trkpt>
      <trkpt lat="45.63536" lon="5.38321">
        <ele>276.91953</ele>
        <time>2014-09-28T15:38:23Z</time>
      </trkpt>
      <trkpt lat="45.63529" lon="5.38318">
        <ele>276.91953</ele>
        <time>2014-09-28T15:38:28Z</time>
      </trkpt>
      <trkpt lat="45.63522" lon="5.38317">
        <ele>277.483</ele>
        <time>2014-09-28T15:38:33Z</time>
      </trkpt>
      <trkpt lat="45.63515" lon="5.38317">
        <ele>277.483</ele>
        <time>2014-09-28T15:38:38Z</time>
      </trkpt>
      <trkpt lat="45.63508" lon="5.38316">
        <ele>278.20148</ele>
        <time>2014-09-28T15:38:43Z</time>
      </trkpt>
      <trkpt lat="45.63501" lon="5.38317">
        <ele>278.20148</ele>
        <time>2014-09-28T15:38:48Z</time>
      </trkpt>
      <trkpt lat="45.63494" lon="5.38319">
        <ele>279.0171</ele>
        <time>2014-09-28T15:38:53Z</time>
      </trkpt>
      <trkpt lat="45.63488" lon="5.38322">
        <ele>279.0171</ele>
        <time>2014-09-28T15:38:58Z</time>
      </trkpt>
      <trkpt lat="45.63481" lon="5.38325">
        <ele>279.86185</ele>
        <time>2014-09-28T15:39:03Z</time>
      </trkpt>
      <trkpt lat="45.63474" lon="5.38326">
        <ele>279.86185</ele>
        <time>2014-09-28T15:39:08Z</time>
      </trkpt>
      <trkpt lat="45.63466" lon="5.38327">
        <ele>280.8054</ele>
        <time>2014-09-28T15:39:13Z</time>
      </trkpt>
      <trkpt lat="45.63458" lon="5.38326">
        <ele>280.8054</ele>
        <time>2014-09-28T15:39:18Z</time>
      </trkpt>
      <trkpt lat="45.63452" lon="5.38323">
        <ele>281.94073</ele>
        <time>2014-09-28T15:39:23Z</time>
      </trkpt>
      <trkpt lat="45.63445" lon="5.38321">
        <ele>281.94073</ele>
        <time>2014-09-28T15:39:28Z</time>
      </trkpt>
      <trkpt lat="45.63439" lon="5.38319">
        <ele>282.9435</ele>
        <time>2014-09-28T15:39:33Z</time>
      </trkpt>
      <trkpt lat="45.63432" lon="5.38316">
        <ele>282.9435</ele>
        <time>2014-09-28T15:39:38Z</time>
      </trkpt>
      <trkpt lat="45.63426" lon="5.38313">
        <ele>283.96838</ele>
        <time>2014-09-28T15:39:43Z</time>
      </trkpt>
      <trkpt lat="45.6342" lon="5.38309">
        <ele>283.96838</ele>
        <time>2014-09-28T15:39:48Z</time>
      </trkpt>
      <trkpt lat="45.63414" lon="5.38302">
        <ele>284.83698</ele>
        <time>2014-09-28T15:39:53Z</time>
      </trkpt>
      <trkpt lat="45.63409" lon="5.38297">
        <ele>284.83698</ele>
        <time>2014-09-28T15:39:58Z</time>
      </trkpt>
      <trkpt lat="45.63404" lon="5.3829">
        <ele>285.531</ele>
        <time>2014-09-28T15:40:03Z</time>
      </trkpt>
      <trkpt lat="45.63399" lon="5.38284">
        <ele>285.531</ele>
        <time>2014-09-28T15:40:08Z</time>
      </trkpt>
      <trkpt lat="45.63396" lon="5.38278">
        <ele>286.36798</ele>
        <time>2014-09-28T15:40:13Z</time>
      </trkpt>
      <trkpt lat="45.63396" lon="5.38269">
        <ele>286.36798</ele>
        <time>2014-09-28T15:40:18Z</time>
      </trkpt>
      <trkpt lat="45.63396" lon="5.3826">
        <ele>287.39352</ele>
        <time>2014-09-28T15:40:23Z</time>
      </trkpt>
      <trkpt lat="45.63396" lon="5.38251">
        <ele>287.39352</ele>
        <time>2014-09-28T15:40:28Z</time>
      </trkpt>
      <trkpt lat="45.63396" lon="5.38242">
        <ele>288.44638</ele>
        <time>2014-09-28T15:40:33Z</time>
      </trkpt>
      <trkpt lat="45.63395" lon="5.38232">
        <ele>288.44638</ele>
        <time>2014-09-28T15:40:38Z</time>
      </trkpt>
      <trkpt lat="45.63392" lon="5.38223">
        <ele>289.49356</ele>
        <time>2014-09-28T15:40:43Z</time>
      </trkpt>
      <trkpt lat="45.63391" lon="5.38214">
        <ele>289.49356</ele>
        <time>2014-09-28T15:40:48Z</time>
      </trkpt>
      <trkpt lat="45.6339" lon="5.38208">
        <ele>290.75055</ele>
        <time>2014-09-28T15:40:53Z</time>
      </trkpt>
      <trkpt lat="45.63386" lon="5.38201">
        <ele>290.75055</ele>
        <time>2014-09-28T15:40:58Z</time>
      </trkpt>
      <trkpt lat="45.63382" lon="5.38195">
        <ele>292.04004</ele>
        <time>2014-09-28T15:41:03Z</time>
      </trkpt>
      <trkpt lat="45.63375" lon="5.38191">
        <ele>292.04004</ele>
        <time>2014-09-28T15:41:08Z</time>
      </trkpt>
      <trkpt lat="45.63368" lon="5.38188">
        <ele>293.31372</ele>
        <time>2014-09-28T15:41:13Z</time>
      </trkpt>
      <trkpt lat="45.63362" lon="5.38185">
        <ele>293.31372</ele>
        <time>2014-09-28T15:41:18Z</time>
      </trkpt>
      <trkpt lat="45.63355" lon="5.38183">
        <ele>294.61365</ele>
        <time>2014-09-28T15:41:23Z</time>
      </trkpt>
      <trkpt lat="45.6335" lon="5.38182">
        <ele>294.61365</ele>
        <time>2014-09-28T15:41:28Z</time>
      </trkpt>
      <trkpt lat="45.63342" lon="5.3818">
        <ele>295.86316</ele>
        <time>2014-09-28T15:41:34Z</time>
      </trkpt>
      <trkpt lat="45.63336" lon="5.38177">
        <ele>295.86316</ele>
        <time>2014-09-28T15:41:38Z</time>
      </trkpt>
      <trkpt lat="45.63332" lon="5.38176">
        <ele>297.2512</ele>
        <time>2014-09-28T15:41:43Z</time>
      </trkpt>
      <trkpt lat="45.63327" lon="5.38174">
        <ele>297.2512</ele>
        <time>2014-09-28T15:41:48Z</time>
      </trkpt>
      <trkpt lat="45.63321" lon="5.38175">
        <ele>298.6926</ele>
        <time>2014-09-28T15:41:53Z</time>
      </trkpt>
      <trkpt lat="45.63315" lon="5.38171">
        <ele>298.6926</ele>
        <time>2014-09-28T15:41:58Z</time>
      </trkpt>
      <trkpt lat="45.63309" lon="5.38167">
        <ele>300.28162</ele>
        <time>2014-09-28T15:42:03Z</time>
      </trkpt>
      <trkpt lat="45.63304" lon="5.38163">
        <ele>300.28162</ele>
        <time>2014-09-28T15:42:08Z</time>
      </trkpt>
      <trkpt lat="45.63295" lon="5.38159">
        <ele>302.2925</ele>
        <time>2014-09-28T15:42:13Z</time>
      </trkpt>
      <trkpt lat="45.63287" lon="5.38157">
        <ele>302.2925</ele>
        <time>2014-09-28T15:42:18Z</time>
      </trkpt>
      <trkpt lat="45.63281" lon="5.38158">
        <ele>304.60342</ele>
        <time>2014-09-28T15:42:23Z</time>
      </trkpt>
      <trkpt lat="45.63276" lon="5.38161">
        <ele>304.60342</ele>
        <time>2014-09-28T15:42:28Z</time>
      </trkpt>
      <trkpt lat="45.63269" lon="5.3816">
        <ele>306.82675</ele>
        <time>2014-09-28T15:42:33Z</time>
      </trkpt>
      <trkpt lat="45.63262" lon="5.38157">
        <ele>306.82675</ele>
        <time>2014-09-28T15:42:38Z</time>
      </trkpt>
      <trkpt lat="45.63254" lon="5.38156">
        <ele>309.33908</ele>
        <time>2014-09-28T15:42:43Z</time>
      </trkpt>
      <trkpt lat="45.63243" lon="5.38155">
        <ele>311.69556</ele>
        <time>2014-09-28T15:42:48Z</time>
      </trkpt>
      <trkpt lat="45.63237" lon="5.38154">
        <ele>311.69556</ele>
        <time>2014-09-28T15:42:53Z</time>
      </trkpt>
      <trkpt lat="45.6323" lon="5.38153">
        <ele>314.3352</ele>
        <time>2014-09-28T15:42:58Z</time>
      </trkpt>
      <trkpt lat="45.63222" lon="5.38149">
        <ele>314.3352</ele>
        <time>2014-09-28T15:43:03Z</time>
      </trkpt>
      <trkpt lat="45.63215" lon="5.38145">
        <ele>317.23163</ele>
        <time>2014-09-28T15:43:08Z</time>
      </trkpt>
      <trkpt lat="45.6321" lon="5.38145">
        <ele>317.23163</ele>
        <time>2014-09-28T15:43:13Z</time>
      </trkpt>
      <trkpt lat="45.63204" lon="5.38144">
        <ele>320.30203</ele>
        <time>2014-09-28T15:43:18Z</time>
      </trkpt>
      <trkpt lat="45.63197" lon="5.38145">
        <ele>320.30203</ele>
        <time>2014-09-28T15:43:23Z</time>
      </trkpt>
      <trkpt lat="45.63191" lon="5.38147">
        <ele>323.31067</ele>
        <time>2014-09-28T15:43:28Z</time>
      </trkpt>
      <trkpt lat="45.63185" lon="5.3815">
        <ele>323.31067</ele>
        <time>2014-09-28T15:43:33Z</time>
      </trkpt>
      <trkpt lat="45.63181" lon="5.38152">
        <ele>326.2558</ele>
        <time>2014-09-28T15:43:38Z</time>
      </trkpt>
      <trkpt lat="45.63176" lon="5.38155">
        <ele>326.2558</ele>
        <time>2014-09-28T15:43:43Z</time>
      </trkpt>
      <trkpt lat="45.63171" lon="5.38158">
        <ele>329.10718</ele>
        <time>2014-09-28T15:43:48Z</time>
      </trkpt>
      <trkpt lat="45.63165" lon="5.38159">
        <ele>329.10718</ele>
        <time>2014-09-28T15:43:53Z</time>
      </trkpt>
      <trkpt lat="45.63157" lon="5.3816">
        <ele>331.86612</ele>
        <time>2014-09-28T15:43:58Z</time>
      </trkpt>
      <trkpt lat="45.63151" lon="5.38156">
        <ele>331.86612</ele>
        <time>2014-09-28T15:44:03Z</time>
      </trkpt>
      <trkpt lat="45.63146" lon="5.38151">
        <ele>334.60635</ele>
        <time>2014-09-28T15:44:08Z</time>
      </trkpt>
      <trkpt lat="45.63141" lon="5.38145">
        <ele>334.60635</ele>
        <time>2014-09-28T15:44:13Z</time>
      </trkpt>
      <trkpt lat="45.63136" lon="5.38136">
        <ele>336.8483</ele>
        <time>2014-09-28T15:44:18Z</time>
      </trkpt>
      <trkpt lat="45.63129" lon="5.38129">
        <ele>336.8483</ele>
        <time>2014-09-28T15:44:23Z</time>
      </trkpt>
      <trkpt lat="45.63124" lon="5.38126">
        <ele>338.9714</ele>
        <time>2014-09-28T15:44:28Z</time>
      </trkpt>
      <trkpt lat="45.63118" lon="5.38119">
        <ele>338.9714</ele>
        <time>2014-09-28T15:44:33Z</time>
      </trkpt>
      <trkpt lat="45.63114" lon="5.38114">
        <ele>341.1546</ele>
        <time>2014-09-28T15:44:38Z</time>
      </trkpt>
      <trkpt lat="45.63108" lon="5.38109">
        <ele>341.1546</ele>
        <time>2014-09-28T15:44:43Z</time>
      </trkpt>
      <trkpt lat="45.63102" lon="5.38105">
        <ele>343.49155</ele>
        <time>2014-09-28T15:44:48Z</time>
      </trkpt>
      <trkpt lat="45.63096" lon="5.381">
        <ele>343.49155</ele>
        <time>2014-09-28T15:44:53Z</time>
      </trkpt>
      <trkpt lat="45.63091" lon="5.38095">
        <ele>345.75143</ele>
        <time>2014-09-28T15:44:58Z</time>
      </trkpt>
      <trkpt lat="45.63086" lon="5.3809">
        <ele>345.75143</ele>
        <time>2014-09-28T15:45:03Z</time>
      </trkpt>
      <trkpt lat="45.63084" lon="5.38085">
        <ele>347.72073</ele>
        <time>2014-09-28T15:45:08Z</time>
      </trkpt>
      <trkpt lat="45.63079" lon="5.3808">
        <ele>347.72073</ele>
        <time>2014-09-28T15:45:13Z</time>
      </trkpt>
      <trkpt lat="45.63071" lon="5.38072">
        <ele>349.4479</ele>
        <time>2014-09-28T15:45:18Z</time>
      </trkpt>
      <trkpt lat="45.63065" lon="5.38064">
        <ele>349.4479</ele>
        <time>2014-09-28T15:45:23Z</time>
      </trkpt>
      <trkpt lat="45.63059" lon="5.38052">
        <ele>351.2382</ele>
        <time>2014-09-28T15:45:28Z</time>
      </trkpt>
      <trkpt lat="45.63052" lon="5.38041">
        <ele>352.985</ele>
        <time>2014-09-28T15:45:33Z</time>
      </trkpt>
      <trkpt lat="45.63046" lon="5.38033">
        <ele>352.985</ele>
        <time>2014-09-28T15:45:38Z</time>
      </trkpt>
      <trkpt lat="45.63041" lon="5.38027">
        <ele>354.93582</ele>
        <time>2014-09-28T15:45:43Z</time>
      </trkpt>
      <trkpt lat="45.63036" lon="5.38022">
        <ele>354.93582</ele>
        <time>2014-09-28T15:45:48Z</time>
      </trkpt>
      <trkpt lat="45.63031" lon="5.38016">
        <ele>356.97348</ele>
        <time>2014-09-28T15:45:53Z</time>
      </trkpt>
      <trkpt lat="45.63026" lon="5.38011">
        <ele>356.97348</ele>
        <time>2014-09-28T15:45:58Z</time>
      </trkpt>
      <trkpt lat="45.63019" lon="5.38002">
        <ele>359.10468</ele>
        <time>2014-09-28T15:46:03Z</time>
      </trkpt>
      <trkpt lat="45.63015" lon="5.37996">
        <ele>359.10468</ele>
        <time>2014-09-28T15:46:08Z</time>
      </trkpt>
      <trkpt lat="45.6301" lon="5.3799">
        <ele>361.27768</ele>
        <time>2014-09-28T15:46:13Z</time>
      </trkpt>
      <trkpt lat="45.63005" lon="5.37983">
        <ele>361.27768</ele>
        <time>2014-09-28T15:46:18Z</time>
      </trkpt>
      <trkpt lat="45.62999" lon="5.37977">
        <ele>363.05533</ele>
        <time>2014-09-28T15:46:23Z</time>
      </trkpt>
      <trkpt lat="45.62995" lon="5.37971">
        <ele>363.05533</ele>
        <time>2014-09-28T15:46:28Z</time>
      </trkpt>
      <trkpt lat="45.62992" lon="5.37965">
        <ele>364.87012</ele>
        <time>2014-09-28T15:46:33Z</time>
      </trkpt>
      <trkpt lat="45.62988" lon="5.37957">
        <ele>364.87012</ele>
        <time>2014-09-28T15:46:38Z</time>
      </trkpt>
      <trkpt lat="45.62983" lon="5.3795">
        <ele>366.70453</ele>
        <time>2014-09-28T15:46:43Z</time>
      </trkpt>
      <trkpt lat="45.62979" lon="5.37942">
        <ele>366.70453</ele>
        <time>2014-09-28T15:46:48Z</time>
      </trkpt>
      <trkpt lat="45.62975" lon="5.37936">
        <ele>368.61453</ele>
        <time>2014-09-28T15:46:53Z</time>
      </trkpt>
      <trkpt lat="45.62971" lon="5.37929">
        <ele>368.61453</ele>
        <time>2014-09-28T15:46:58Z</time>
      </trkpt>
      <trkpt lat="45.62967" lon="5.37919">
        <ele>370.70944</ele>
        <time>2014-09-28T15:47:03Z</time>
      </trkpt>
      <trkpt lat="45.62962" lon="5.37911">
        <ele>370.70944</ele>
        <time>2014-09-28T15:47:08Z</time>
      </trkpt>
      <trkpt lat="45.62958" lon="5.37903">
        <ele>372.78738</ele>
        <time>2014-09-28T15:47:13Z</time>
      </trkpt>
      <trkpt lat="45.62955" lon="5.37896">
        <ele>372.78738</ele>
        <time>2014-09-28T15:47:18Z</time>
      </trkpt>
      <trkpt lat="45.6295" lon="5.37889">
        <ele>374.6182</ele>
        <time>2014-09-28T15:47:23Z</time>
      </trkpt>
      <trkpt lat="45.62943" lon="5.37881">
        <ele>376.39313</ele>
        <time>2014-09-28T15:47:28Z</time>
      </trkpt>
      <trkpt lat="45.62938" lon="5.37877">
        <ele>376.39313</ele>
        <time>2014-09-28T15:47:33Z</time>
      </trkpt>
      <trkpt lat="45.62932" lon="5.37872">
        <ele>378.10202</ele>
        <time>2014-09-28T15:47:38Z</time>
      </trkpt>
      <trkpt lat="45.62927" lon="5.37869">
        <ele>378.10202</ele>
        <time>2014-09-28T15:47:43Z</time>
      </trkpt>
      <trkpt lat="45.6292" lon="5.37867">
        <ele>379.54852</ele>
        <time>2014-09-28T15:47:48Z</time>
      </trkpt>
      <trkpt lat="45.62915" lon="5.37866">
        <ele>379.54852</ele>
        <time>2014-09-28T15:47:53Z</time>
      </trkpt>
      <trkpt lat="45.62909" lon="5.37865">
        <ele>380.6811</ele>
        <time>2014-09-28T15:47:58Z</time>
      </trkpt>
      <trkpt lat="45.62903" lon="5.37865">
        <ele>380.6811</ele>
        <time>2014-09-28T15:48:03Z</time>
      </trkpt>
      <trkpt lat="45.62896" lon="5.37865">
        <ele>381.59708</ele>
        <time>2014-09-28T15:48:08Z</time>
      </trkpt>
      <trkpt lat="45.6289" lon="5.37866">
        <ele>381.59708</ele>
        <time>2014-09-28T15:48:13Z</time>
      </trkpt>
      <trkpt lat="45.62883" lon="5.37866">
        <ele>382.21436</ele>
        <time>2014-09-28T15:48:18Z</time>
      </trkpt>
      <trkpt lat="45.62876" lon="5.37866">
        <ele>382.21436</ele>
        <time>2014-09-28T15:48:23Z</time>
      </trkpt>
      <trkpt lat="45.62868" lon="5.37865">
        <ele>382.77478</ele>
        <time>2014-09-28T15:48:28Z</time>
      </trkpt>
      <trkpt lat="45.62846" lon="5.37865">
        <ele>383.272</ele>
        <time>2014-09-28T15:48:33Z</time>
      </trkpt>
      <trkpt lat="45.6283" lon="5.37867">
        <ele>383.77234</ele>
        <time>2014-09-28T15:48:38Z</time>
      </trkpt>
      <trkpt lat="45.62819" lon="5.37869">
        <ele>384.40927</ele>
        <time>2014-09-28T15:48:43Z</time>
      </trkpt>
      <trkpt lat="45.62811" lon="5.37871">
        <ele>384.40927</ele>
        <time>2014-09-28T15:48:48Z</time>
      </trkpt>
      <trkpt lat="45.62803" lon="5.37873">
        <ele>385.26294</ele>
        <time>2014-09-28T15:48:53Z</time>
      </trkpt>
      <trkpt lat="45.62795" lon="5.37876">
        <ele>385.26294</ele>
        <time>2014-09-28T15:48:58Z</time>
      </trkpt>
      <trkpt lat="45.62789" lon="5.37878">
        <ele>385.9312</ele>
        <time>2014-09-28T15:49:03Z</time>
      </trkpt>
      <trkpt lat="45.62782" lon="5.37881">
        <ele>385.9312</ele>
        <time>2014-09-28T15:49:08Z</time>
      </trkpt>
      <trkpt lat="45.62775" lon="5.37884">
        <ele>386.60416</ele>
        <time>2014-09-28T15:49:13Z</time>
      </trkpt>
      <trkpt lat="45.62769" lon="5.3789">
        <ele>386.60416</ele>
        <time>2014-09-28T15:49:18Z</time>
      </trkpt>
      <trkpt lat="45.62763" lon="5.37896">
        <ele>387.31366</ele>
        <time>2014-09-28T15:49:23Z</time>
      </trkpt>
      <trkpt lat="45.62757" lon="5.37902">
        <ele>387.31366</ele>
        <time>2014-09-28T15:49:28Z</time>
      </trkpt>
      <trkpt lat="45.62751" lon="5.37907">
        <ele>388.10352</ele>
        <time>2014-09-28T15:49:33Z</time>
      </trkpt>
      <trkpt lat="45.62744" lon="5.37912">
        <ele>388.10352</ele>
        <time>2014-09-28T15:49:38Z</time>
      </trkpt>
      <trkpt lat="45.62737" lon="5.37915">
        <ele>388.92758</ele>
        <time>2014-09-28T15:49:43Z</time>
      </trkpt>
      <trkpt lat="45.62732" lon="5.37918">
        <ele>388.92758</ele>
        <time>2014-09-28T15:49:48Z</time>
      </trkpt>
      <trkpt lat="45.62725" lon="5.37922">
        <ele>389.642</ele>
        <time>2014-09-28T15:49:53Z</time>
      </trkpt>
      <trkpt lat="45.6272" lon="5.37925">
        <ele>389.642</ele>
        <time>2014-09-28T15:49:58Z</time>
      </trkpt>
      <trkpt lat="45.62713" lon="5.37929">
        <ele>390.31555</ele>
        <time>2014-09-28T15:50:03Z</time>
      </trkpt>
      <trkpt lat="45.62707" lon="5.37932">
        <ele>390.31555</ele>
        <time>2014-09-28T15:50:08Z</time>
      </trkpt>
      <trkpt lat="45.62701" lon="5.37935">
        <ele>390.85345</ele>
        <time>2014-09-28T15:50:13Z</time>
      </trkpt>
      <trkpt lat="45.62693" lon="5.37937">
        <ele>390.85345</ele>
        <time>2014-09-28T15:50:18Z</time>
      </trkpt>
      <trkpt lat="45.62687" lon="5.3794">
        <ele>391.2114</ele>
        <time>2014-09-28T15:50:23Z</time>
      </trkpt>
      <trkpt lat="45.62681" lon="5.37942">
        <ele>391.2114</ele>
        <time>2014-09-28T15:50:28Z</time>
      </trkpt>
      <trkpt lat="45.62675" lon="5.37947">
        <ele>391.78116</ele>
        <time>2014-09-28T15:50:33Z</time>
      </trkpt>
      <trkpt lat="45.62667" lon="5.37949">
        <ele>391.78116</ele>
        <time>2014-09-28T15:50:38Z</time>
      </trkpt>
      <trkpt lat="45.62661" lon="5.3795">
        <ele>392.13232</ele>
        <time>2014-09-28T15:50:43Z</time>
      </trkpt>
      <trkpt lat="45.62654" lon="5.37951">
        <ele>392.13232</ele>
        <time>2014-09-28T15:50:48Z</time>
      </trkpt>
      <trkpt lat="45.62648" lon="5.37951">
        <ele>392.12616</ele>
        <time>2014-09-28T15:50:53Z</time>
      </trkpt>
      <trkpt lat="45.62639" lon="5.37947">
        <ele>391.707</ele>
        <time>2014-09-28T15:50:58Z</time>
      </trkpt>
      <trkpt lat="45.62634" lon="5.37939">
        <ele>391.707</ele>
        <time>2014-09-28T15:51:03Z</time>
      </trkpt>
      <trkpt lat="45.62635" lon="5.37927">
        <ele>391.09814</ele>
        <time>2014-09-28T15:51:08Z</time>
      </trkpt>
      <trkpt lat="45.62636" lon="5.37919">
        <ele>391.09814</ele>
        <time>2014-09-28T15:51:13Z</time>
      </trkpt>
      <trkpt lat="45.62638" lon="5.3791">
        <ele>390.43488</ele>
        <time>2014-09-28T15:51:18Z</time>
      </trkpt>
      <trkpt lat="45.62641" lon="5.379">
        <ele>390.43488</ele>
        <time>2014-09-28T15:51:23Z</time>
      </trkpt>
      <trkpt lat="45.62643" lon="5.37889">
        <ele>389.69846</ele>
        <time>2014-09-28T15:51:28Z</time>
      </trkpt>
      <trkpt lat="45.62646" lon="5.37879">
        <ele>389.69846</ele>
        <time>2014-09-28T15:51:33Z</time>
      </trkpt>
      <trkpt lat="45.62647" lon="5.37872">
        <ele>388.84277</ele>
        <time>2014-09-28T15:51:38Z</time>
      </trkpt>
      <trkpt lat="45.62648" lon="5.37861">
        <ele>388.84277</ele>
        <time>2014-09-28T15:51:43Z</time>
      </trkpt>
      <trkpt lat="45.62651" lon="5.37851">
        <ele>387.86856</ele>
        <time>2014-09-28T15:51:48Z</time>
      </trkpt>
      <trkpt lat="45.62653" lon="5.37841">
        <ele>387.86856</ele>
        <time>2014-09-28T15:51:53Z</time>
      </trkpt>
      <trkpt lat="45.62655" lon="5.37833">
        <ele>386.93515</ele>
        <time>2014-09-28T15:51:58Z</time>
      </trkpt>
      <trkpt lat="45.62655" lon="5.37824">
        <ele>386.93515</ele>
        <time>2014-09-28T15:52:03Z</time>
      </trkpt>
      <trkpt lat="45.62655" lon="5.37814">
        <ele>385.95938</ele>
        <time>2014-09-28T15:52:08Z</time>
      </trkpt>
      <trkpt lat="45.62654" lon="5.37808">
        <ele>385.95938</ele>
        <time>2014-09-28T15:52:13Z</time>
      </trkpt>
      <trkpt lat="45.6265" lon="5.37811">
        <ele>385.1235</ele>
        <time>2014-09-28T15:52:18Z</time>
      </trkpt>
      <trkpt lat="45.62644" lon="5.37814">
        <ele>385.1235</ele>
        <time>2014-09-28T15:52:23Z</time>
      </trkpt>
      <trkpt lat="45.62638" lon="5.37822">
        <ele>384.82648</ele>
        <time>2014-09-28T15:52:28Z</time>
      </trkpt>
      <trkpt lat="45.62633" lon="5.37829">
        <ele>384.82648</ele>
        <time>2014-09-28T15:52:33Z</time>
      </trkpt>
      <trkpt lat="45.6263" lon="5.37836">
        <ele>384.60034</ele>
        <time>2014-09-28T15:52:38Z</time>
      </trkpt>
      <trkpt lat="45.62624" lon="5.37844">
        <ele>384.60034</ele>
        <time>2014-09-28T15:52:43Z</time>
      </trkpt>
      <trkpt lat="45.62619" lon="5.37851">
        <ele>384.4003</ele>
        <time>2014-09-28T15:52:48Z</time>
      </trkpt>
      <trkpt lat="45.62615" lon="5.37858">
        <ele>384.4003</ele>
        <time>2014-09-28T15:52:53Z</time>
      </trkpt>
      <trkpt lat="45.6261" lon="5.37865">
        <ele>384.35748</ele>
        <time>2014-09-28T15:52:58Z</time>
      </trkpt>
      <trkpt lat="45.62607" lon="5.3787">
        <ele>384.35748</ele>
        <time>2014-09-28T15:53:03Z</time>
      </trkpt>
      <trkpt lat="45.62603" lon="5.37872">
        <ele>384.35748</ele>
        <time>2014-09-28T15:53:08Z</time>
      </trkpt>
      <trkpt lat="45.62599" lon="5.37879">
        <ele>384.34787</ele>
        <time>2014-09-28T15:53:13Z</time>
      </trkpt>
      <trkpt lat="45.62595" lon="5.37886">
        <ele>384.34787</ele>
        <time>2014-09-28T15:53:18Z</time>
      </trkpt>
      <trkpt lat="45.62591" lon="5.37892">
        <ele>384.3571</ele>
        <time>2014-09-28T15:53:23Z</time>
      </trkpt>
      <trkpt lat="45.62587" lon="5.37899">
        <ele>384.3571</ele>
        <time>2014-09-28T15:53:28Z</time>
      </trkpt>
      <trkpt lat="45.62577" lon="5.37915">
        <ele>384.57343</ele>
        <time>2014-09-28T15:53:33Z</time>
      </trkpt>
      <trkpt lat="45.62555" lon="5.37948">
        <ele>384.81033</ele>
        <time>2014-09-28T15:53:38Z</time>
      </trkpt>
      <trkpt lat="45.6253" lon="5.37986">
        <ele>385.42792</ele>
        <time>2014-09-28T15:53:43Z</time>
      </trkpt>
      <trkpt lat="45.62504" lon="5.38024">
        <ele>386.7299</ele>
        <time>2014-09-28T15:53:48Z</time>
      </trkpt>
      <trkpt lat="45.62483" lon="5.38054">
        <ele>388.66403</ele>
        <time>2014-09-28T15:53:53Z</time>
      </trkpt>
      <trkpt lat="45.62464" lon="5.3808">
        <ele>390.9064</ele>
        <time>2014-09-28T15:53:58Z</time>
      </trkpt>
      <trkpt lat="45.62445" lon="5.38108">
        <ele>393.21344</ele>
        <time>2014-09-28T15:54:03Z</time>
      </trkpt>
      <trkpt lat="45.6243" lon="5.3813">
        <ele>395.61865</ele>
        <time>2014-09-28T15:54:08Z</time>
      </trkpt>
      <trkpt lat="45.62405" lon="5.3816">
        <ele>398.18164</ele>
        <time>2014-09-28T15:54:13Z</time>
      </trkpt>
      <trkpt lat="45.6238" lon="5.38185">
        <ele>400.76968</ele>
        <time>2014-09-28T15:54:18Z</time>
      </trkpt>
      <trkpt lat="45.62352" lon="5.38208">
        <ele>403.4472</ele>
        <time>2014-09-28T15:54:23Z</time>
      </trkpt>
      <trkpt lat="45.62331" lon="5.38223">
        <ele>406.18713</ele>
        <time>2014-09-28T15:54:28Z</time>
      </trkpt>
      <trkpt lat="45.62322" lon="5.38227">
        <ele>408.8633</ele>
        <time>2014-09-28T15:54:33Z</time>
      </trkpt>
      <trkpt lat="45.62315" lon="5.38232">
        <ele>408.8633</ele>
        <time>2014-09-28T15:54:38Z</time>
      </trkpt>
      <trkpt lat="45.62309" lon="5.38235">
        <ele>411.5753</ele>
        <time>2014-09-28T15:54:43Z</time>
      </trkpt>
      <trkpt lat="45.62303" lon="5.38239">
        <ele>411.5753</ele>
        <time>2014-09-28T15:54:48Z</time>
      </trkpt>
      <trkpt lat="45.62296" lon="5.38243">
        <ele>414.02612</ele>
        <time>2014-09-28T15:54:53Z</time>
      </trkpt>
      <trkpt lat="45.62289" lon="5.38246">
        <ele>414.02612</ele>
        <time>2014-09-28T15:54:58Z</time>
      </trkpt>
      <trkpt lat="45.62283" lon="5.3825">
        <ele>416.2586</ele>
        <time>2014-09-28T15:55:03Z</time>
      </trkpt>
      <trkpt lat="45.62277" lon="5.38254">
        <ele>416.2586</ele>
        <time>2014-09-28T15:55:08Z</time>
      </trkpt>
      <trkpt lat="45.62276" lon="5.38245">
        <ele>418.3418</ele>
        <time>2014-09-28T15:55:13Z</time>
      </trkpt>
      <trkpt lat="45.62279" lon="5.38234">
        <ele>418.3418</ele>
        <time>2014-09-28T15:55:18Z</time>
      </trkpt>
      <trkpt lat="45.62281" lon="5.38224">
        <ele>420.21057</ele>
        <time>2014-09-28T15:55:23Z</time>
      </trkpt>
      <trkpt lat="45.62283" lon="5.38215">
        <ele>420.21057</ele>
        <time>2014-09-28T15:55:28Z</time>
      </trkpt>
      <trkpt lat="45.62284" lon="5.38205">
        <ele>421.8917</ele>
        <time>2014-09-28T15:55:33Z</time>
      </trkpt>
      <trkpt lat="45.62286" lon="5.38194">
        <ele>421.8917</ele>
        <time>2014-09-28T15:55:38Z</time>
      </trkpt>
      <trkpt lat="45.62288" lon="5.38182">
        <ele>423.3818</ele>
        <time>2014-09-28T15:55:43Z</time>
      </trkpt>
      <trkpt lat="45.6229" lon="5.38173">
        <ele>423.3818</ele>
        <time>2014-09-28T15:55:48Z</time>
      </trkpt>
      <trkpt lat="45.62291" lon="5.38163">
        <ele>424.40457</ele>
        <time>2014-09-28T15:55:53Z</time>
      </trkpt>
      <trkpt lat="45.62293" lon="5.38153">
        <ele>424.40457</ele>
        <time>2014-09-28T15:55:58Z</time>
      </trkpt>
      <trkpt lat="45.62294" lon="5.38144">
        <ele>425.36832</ele>
        <time>2014-09-28T15:56:03Z</time>
      </trkpt>
      <trkpt lat="45.62295" lon="5.38134">
        <ele>425.36832</ele>
        <time>2014-09-28T15:56:08Z</time>
      </trkpt>
      <trkpt lat="45.62296" lon="5.38124">
        <ele>426.20483</ele>
        <time>2014-09-28T15:56:13Z</time>
      </trkpt>
      <trkpt lat="45.62298" lon="5.38115">
        <ele>426.20483</ele>
        <time>2014-09-28T15:56:18Z</time>
      </trkpt>
      <trkpt lat="45.62299" lon="5.38105">
        <ele>426.8082</ele>
        <time>2014-09-28T15:56:23Z</time>
      </trkpt>
      <trkpt lat="45.62301" lon="5.38095">
        <ele>426.8082</ele>
        <time>2014-09-28T15:56:28Z</time>
      </trkpt>
      <trkpt lat="45.62303" lon="5.38085">
        <ele>427.3115</ele>
        <time>2014-09-28T15:56:33Z</time>
      </trkpt>
      <trkpt lat="45.62304" lon="5.38076">
        <ele>427.3115</ele>
        <time>2014-09-28T15:56:38Z</time>
      </trkpt>
      <trkpt lat="45.62306" lon="5.38066">
        <ele>427.66556</ele>
        <time>2014-09-28T15:56:43Z</time>
      </trkpt>
      <trkpt lat="45.62308" lon="5.38057">
        <ele>427.66556</ele>
        <time>2014-09-28T15:56:48Z</time>
      </trkpt>
      <trkpt lat="45.62309" lon="5.38047">
        <ele>427.99817</ele>
        <time>2014-09-28T15:56:53Z</time>
      </trkpt>
      <trkpt lat="45.6231" lon="5.38037">
        <ele>427.99817</ele>
        <time>2014-09-28T15:56:58Z</time>
      </trkpt>
      <trkpt lat="45.62312" lon="5.38027">
        <ele>428.2405</ele>
        <time>2014-09-28T15:57:03Z</time>
      </trkpt>
      <trkpt lat="45.62314" lon="5.38017">
        <ele>428.2405</ele>
        <time>2014-09-28T15:57:08Z</time>
      </trkpt>
      <trkpt lat="45.62316" lon="5.38006">
        <ele>428.3147</ele>
        <time>2014-09-28T15:57:13Z</time>
      </trkpt>
      <trkpt lat="45.62318" lon="5.37996">
        <ele>428.3147</ele>
        <time>2014-09-28T15:57:18Z</time>
      </trkpt>
      <trkpt lat="45.6232" lon="5.37986">
        <ele>428.29318</ele>
        <time>2014-09-28T15:57:23Z</time>
      </trkpt>
      <trkpt lat="45.62323" lon="5.37975">
        <ele>428.29318</ele>
        <time>2014-09-28T15:57:28Z</time>
      </trkpt>
      <trkpt lat="45.62325" lon="5.37965">
        <ele>428.15698</ele>
        <time>2014-09-28T15:57:33Z</time>
      </trkpt>
      <trkpt lat="45.62326" lon="5.37955">
        <ele>428.15698</ele>
        <time>2014-09-28T15:57:38Z</time>
      </trkpt>
      <trkpt lat="45.62328" lon="5.37945">
        <ele>427.74463</ele>
        <time>2014-09-28T15:57:43Z</time>
      </trkpt>
      <trkpt lat="45.6233" lon="5.37935">
        <ele>427.74463</ele>
        <time>2014-09-28T15:57:48Z</time>
      </trkpt>
      <trkpt lat="45.62332" lon="5.37925">
        <ele>427.1812</ele>
        <time>2014-09-28T15:57:53Z</time>
      </trkpt>
      <trkpt lat="45.62333" lon="5.37915">
        <ele>427.1812</ele>
        <time>2014-09-28T15:57:58Z</time>
      </trkpt>
      <trkpt lat="45.62335" lon="5.37904">
        <ele>426.5109</ele>
        <time>2014-09-28T15:58:03Z</time>
      </trkpt>
      <trkpt lat="45.62337" lon="5.37894">
        <ele>426.5109</ele>
        <time>2014-09-28T15:58:08Z</time>
      </trkpt>
      <trkpt lat="45.62338" lon="5.37884">
        <ele>425.78937</ele>
        <time>2014-09-28T15:58:13Z</time>
      </trkpt>
      <trkpt lat="45.62339" lon="5.37874">
        <ele>425.78937</ele>
        <time>2014-09-28T15:58:18Z</time>
      </trkpt>
      <trkpt lat="45.62341" lon="5.37864">
        <ele>424.99622</ele>
        <time>2014-09-28T15:58:23Z</time>
      </trkpt>
      <trkpt lat="45.62342" lon="5.37853">
        <ele>424.99622</ele>
        <time>2014-09-28T15:58:28Z</time>
      </trkpt>
      <trkpt lat="45.62344" lon="5.37842">
        <ele>424.12717</ele>
        <time>2014-09-28T15:58:33Z</time>
      </trkpt>
      <trkpt lat="45.62345" lon="5.37833">
        <ele>424.12717</ele>
        <time>2014-09-28T15:58:38Z</time>
      </trkpt>
      <trkpt lat="45.62347" lon="5.37824">
        <ele>423.17834</ele>
        <time>2014-09-28T15:58:43Z</time>
      </trkpt>
      <trkpt lat="45.62349" lon="5.37814">
        <ele>423.17834</ele>
        <time>2014-09-28T15:58:48Z</time>
      </trkpt>
      <trkpt lat="45.62351" lon="5.37803">
        <ele>422.29047</ele>
        <time>2014-09-28T15:58:53Z</time>
      </trkpt>
      <trkpt lat="45.62353" lon="5.37792">
        <ele>422.29047</ele>
        <time>2014-09-28T15:58:58Z</time>
      </trkpt>
      <trkpt lat="45.62355" lon="5.37782">
        <ele>421.50723</ele>
        <time>2014-09-28T15:59:03Z</time>
      </trkpt>
      <trkpt lat="45.62357" lon="5.37771">
        <ele>421.50723</ele>
        <time>2014-09-28T15:59:08Z</time>
      </trkpt>
      <trkpt lat="45.62358" lon="5.37761">
        <ele>420.7101</ele>
        <time>2014-09-28T15:59:13Z</time>
      </trkpt>
      <trkpt lat="45.6236" lon="5.37752">
        <ele>420.7101</ele>
        <time>2014-09-28T15:59:18Z</time>
      </trkpt>
      <trkpt lat="45.62361" lon="5.37741">
        <ele>419.8903</ele>
        <time>2014-09-28T15:59:23Z</time>
      </trkpt>
      <trkpt lat="45.62363" lon="5.37731">
        <ele>419.8903</ele>
        <time>2014-09-28T15:59:28Z</time>
      </trkpt>
      <trkpt lat="45.62365" lon="5.37721">
        <ele>419.12585</ele>
        <time>2014-09-28T15:59:33Z</time>
      </trkpt>
      <trkpt lat="45.62367" lon="5.3771">
        <ele>419.12585</ele>
        <time>2014-09-28T15:59:38Z</time>
      </trkpt>
      <trkpt lat="45.62368" lon="5.377">
        <ele>418.28723</ele>
        <time>2014-09-28T15:59:43Z</time>
      </trkpt>
      <trkpt lat="45.6237" lon="5.3769">
        <ele>418.28723</ele>
        <time>2014-09-28T15:59:48Z</time>
      </trkpt>
      <trkpt lat="45.62371" lon="5.37678">
        <ele>417.52826</ele>
        <time>2014-09-28T15:59:53Z</time>
      </trkpt>
      <trkpt lat="45.62373" lon="5.37667">
        <ele>417.52826</ele>
        <time>2014-09-28T15:59:58Z</time>
      </trkpt>
      <trkpt lat="45.62376" lon="5.37656">
        <ele>416.76056</ele>
        <time>2014-09-28T16:00:03Z</time>
      </trkpt>
      <trkpt lat="45.62378" lon="5.37646">
        <ele>416.76056</ele>
        <time>2014-09-28T16:00:08Z</time>
      </trkpt>
      <trkpt lat="45.6238" lon="5.37635">
        <ele>415.78687</ele>
        <time>2014-09-28T16:00:13Z</time>
      </trkpt>
      <trkpt lat="45.62382" lon="5.37624">
        <ele>415.78687</ele>
        <time>2014-09-28T16:00:18Z</time>
      </trkpt>
      <trkpt lat="45.62384" lon="5.37613">
        <ele>414.82837</ele>
        <time>2014-09-28T16:00:23Z</time>
      </trkpt>
      <trkpt lat="45.62385" lon="5.376">
        <ele>414.82837</ele>
        <time>2014-09-28T16:00:28Z</time>
      </trkpt>
      <trkpt lat="45.62388" lon="5.37589">
        <ele>414.0322</ele>
        <time>2014-09-28T16:00:33Z</time>
      </trkpt>
      <trkpt lat="45.6239" lon="5.37579">
        <ele>414.0322</ele>
        <time>2014-09-28T16:00:38Z</time>
      </trkpt>
      <trkpt lat="45.62393" lon="5.37568">
        <ele>413.145</ele>
        <time>2014-09-28T16:00:43Z</time>
      </trkpt>
      <trkpt lat="45.62395" lon="5.37558">
        <ele>413.145</ele>
        <time>2014-09-28T16:00:48Z</time>
      </trkpt>
      <trkpt lat="45.62398" lon="5.37548">
        <ele>412.14832</ele>
        <time>2014-09-28T16:00:53Z</time>
      </trkpt>
      <trkpt lat="45.62399" lon="5.37538">
        <ele>412.14832</ele>
        <time>2014-09-28T16:00:58Z</time>
      </trkpt>
      <trkpt lat="45.62401" lon="5.37527">
        <ele>411.19812</ele>
        <time>2014-09-28T16:01:03Z</time>
      </trkpt>
      <trkpt lat="45.62403" lon="5.37517">
        <ele>411.19812</ele>
        <time>2014-09-28T16:01:08Z</time>
      </trkpt>
      <trkpt lat="45.62405" lon="5.37506">
        <ele>410.23703</ele>
        <time>2014-09-28T16:01:13Z</time>
      </trkpt>
      <trkpt lat="45.62408" lon="5.37495">
        <ele>410.23703</ele>
        <time>2014-09-28T16:01:18Z</time>
      </trkpt>
      <trkpt lat="45.62411" lon="5.37484">
        <ele>409.2693</ele>
        <time>2014-09-28T16:01:23Z</time>
      </trkpt>
      <trkpt lat="45.62414" lon="5.37474">
        <ele>409.2693</ele>
        <time>2014-09-28T16:01:28Z</time>
      </trkpt>
      <trkpt lat="45.62416" lon="5.37464">
        <ele>408.35638</ele>
        <time>2014-09-28T16:01:33Z</time>
      </trkpt>
      <trkpt lat="45.62419" lon="5.37453">
        <ele>408.35638</ele>
        <time>2014-09-28T16:01:38Z</time>
      </trkpt>
      <trkpt lat="45.62421" lon="5.37443">
        <ele>407.49747</ele>
        <time>2014-09-28T16:01:43Z</time>
      </trkpt>
      <trkpt lat="45.62423" lon="5.37432">
        <ele>407.49747</ele>
        <time>2014-09-28T16:01:48Z</time>
      </trkpt>
      <trkpt lat="45.62426" lon="5.37422">
        <ele>406.69128</ele>
        <time>2014-09-28T16:01:53Z</time>
      </trkpt>
      <trkpt lat="45.62428" lon="5.37411">
        <ele>406.69128</ele>
        <time>2014-09-28T16:01:58Z</time>
      </trkpt>
      <trkpt lat="45.6243" lon="5.37401">
        <ele>405.99423</ele>
        <time>2014-09-28T16:02:03Z</time>
      </trkpt>
      <trkpt lat="45.62431" lon="5.37391">
        <ele>405.99423</ele>
        <time>2014-09-28T16:02:08Z</time>
      </trkpt>
      <trkpt lat="45.62434" lon="5.37381">
        <ele>405.32828</ele>
        <time>2014-09-28T16:02:13Z</time>
      </trkpt>
      <trkpt lat="45.62436" lon="5.37371">
        <ele>405.32828</ele>
        <time>2014-09-28T16:02:18Z</time>
      </trkpt>
      <trkpt lat="45.62438" lon="5.37361">
        <ele>404.6354</ele>
        <time>2014-09-28T16:02:23Z</time>
      </trkpt>
      <trkpt lat="45.62441" lon="5.37351">
        <ele>404.6354</ele>
        <time>2014-09-28T16:02:28Z</time>
      </trkpt>
      <trkpt lat="45.62443" lon="5.37341">
        <ele>403.94827</ele>
        <time>2014-09-28T16:02:33Z</time>
      </trkpt>
      <trkpt lat="45.62445" lon="5.37331">
        <ele>403.94827</ele>
        <time>2014-09-28T16:02:38Z</time>
      </trkpt>
      <trkpt lat="45.62448" lon="5.37321">
        <ele>403.36902</ele>
        <time>2014-09-28T16:02:43Z</time>
      </trkpt>
      <trkpt lat="45.6245" lon="5.37311">
        <ele>403.36902</ele>
        <time>2014-09-28T16:02:48Z</time>
      </trkpt>
      <trkpt lat="45.62451" lon="5.37301">
        <ele>402.81894</ele>
        <time>2014-09-28T16:02:53Z</time>
      </trkpt>
      <trkpt lat="45.62453" lon="5.37289">
        <ele>402.81894</ele>
        <time>2014-09-28T16:02:58Z</time>
      </trkpt>
      <trkpt lat="45.62454" lon="5.37277">
        <ele>402.44116</ele>
        <time>2014-09-28T16:03:03Z</time>
      </trkpt>
      <trkpt lat="45.62454" lon="5.37263">
        <ele>402.13705</ele>
        <time>2014-09-28T16:03:08Z</time>
      </trkpt>
      <trkpt lat="45.62456" lon="5.37236">
        <ele>401.887</ele>
        <time>2014-09-28T16:03:13Z</time>
      </trkpt>
      <trkpt lat="45.62458" lon="5.37199">
        <ele>401.60052</ele>
        <time>2014-09-28T16:03:18Z</time>
      </trkpt>
      <trkpt lat="45.6246" lon="5.3716">
        <ele>401.29474</ele>
        <time>2014-09-28T16:03:23Z</time>
      </trkpt>
      <trkpt lat="45.62462" lon="5.37122">
        <ele>401.01422</ele>
        <time>2014-09-28T16:03:28Z</time>
      </trkpt>
      <trkpt lat="45.62465" lon="5.37078">
        <ele>400.6561</ele>
        <time>2014-09-28T16:03:33Z</time>
      </trkpt>
      <trkpt lat="45.62468" lon="5.37036">
        <ele>400.2981</ele>
        <time>2014-09-28T16:03:38Z</time>
      </trkpt>
      <trkpt lat="45.62471" lon="5.36994">
        <ele>400.02655</ele>
        <time>2014-09-28T16:03:43Z</time>
      </trkpt>
      <trkpt lat="45.62477" lon="5.36956">
        <ele>399.90683</ele>
        <time>2014-09-28T16:03:48Z</time>
      </trkpt>
      <trkpt lat="45.62484" lon="5.36918">
        <ele>399.86926</ele>
        <time>2014-09-28T16:03:53Z</time>
      </trkpt>
      <trkpt lat="45.62492" lon="5.36878">
        <ele>399.82022</ele>
        <time>2014-09-28T16:03:58Z</time>
      </trkpt>
      <trkpt lat="45.62501" lon="5.36836">
        <ele>399.78824</ele>
        <time>2014-09-28T16:04:03Z</time>
      </trkpt>
      <trkpt lat="45.6251" lon="5.36797">
        <ele>399.7708</ele>
        <time>2014-09-28T16:04:08Z</time>
      </trkpt>
      <trkpt lat="45.62517" lon="5.36775">
        <ele>399.78006</ele>
        <time>2014-09-28T16:04:13Z</time>
      </trkpt>
      <trkpt lat="45.62521" lon="5.36764">
        <ele>399.78006</ele>
        <time>2014-09-28T16:04:18Z</time>
      </trkpt>
      <trkpt lat="45.62526" lon="5.36755">
        <ele>399.7982</ele>
        <time>2014-09-28T16:04:23Z</time>
      </trkpt>
      <trkpt lat="45.62531" lon="5.36746">
        <ele>399.7982</ele>
        <time>2014-09-28T16:04:28Z</time>
      </trkpt>
      <trkpt lat="45.62536" lon="5.36739">
        <ele>399.8808</ele>
        <time>2014-09-28T16:04:33Z</time>
      </trkpt>
      <trkpt lat="45.62542" lon="5.36731">
        <ele>399.8808</ele>
        <time>2014-09-28T16:04:38Z</time>
      </trkpt>
      <trkpt lat="45.62546" lon="5.36724">
        <ele>399.97833</ele>
        <time>2014-09-28T16:04:43Z</time>
      </trkpt>
      <trkpt lat="45.62551" lon="5.36715">
        <ele>399.97833</ele>
        <time>2014-09-28T16:04:48Z</time>
      </trkpt>
      <trkpt lat="45.62555" lon="5.36706">
        <ele>400.0592</ele>
        <time>2014-09-28T16:04:53Z</time>
      </trkpt>
      <trkpt lat="45.6256" lon="5.36696">
        <ele>400.0592</ele>
        <time>2014-09-28T16:04:58Z</time>
      </trkpt>
      <trkpt lat="45.62563" lon="5.36687">
        <ele>399.86368</ele>
        <time>2014-09-28T16:05:03Z</time>
      </trkpt>
      <trkpt lat="45.62567" lon="5.36677">
        <ele>399.86368</ele>
        <time>2014-09-28T16:05:08Z</time>
      </trkpt>
      <trkpt lat="45.62571" lon="5.3667">
        <ele>399.64175</ele>
        <time>2014-09-28T16:05:13Z</time>
      </trkpt>
      <trkpt lat="45.62577" lon="5.36662">
        <ele>399.64175</ele>
        <time>2014-09-28T16:05:18Z</time>
      </trkpt>
      <trkpt lat="45.62583" lon="5.36655">
        <ele>399.265</ele>
        <time>2014-09-28T16:05:23Z</time>
      </trkpt>
      <trkpt lat="45.6259" lon="5.36649">
        <ele>399.265</ele>
        <time>2014-09-28T16:05:28Z</time>
      </trkpt>
      <trkpt lat="45.62596" lon="5.36644">
        <ele>398.81656</ele>
        <time>2014-09-28T16:05:33Z</time>
      </trkpt>
      <trkpt lat="45.62603" lon="5.36639">
        <ele>398.81656</ele>
        <time>2014-09-28T16:05:38Z</time>
      </trkpt>
      <trkpt lat="45.6261" lon="5.36635">
        <ele>398.50333</ele>
        <time>2014-09-28T16:05:43Z</time>
      </trkpt>
      <trkpt lat="45.62616" lon="5.36629">
        <ele>398.50333</ele>
        <time>2014-09-28T16:05:48Z</time>
      </trkpt>
      <trkpt lat="45.62623" lon="5.36625">
        <ele>398.15643</ele>
        <time>2014-09-28T16:05:53Z</time>
      </trkpt>
      <trkpt lat="45.62629" lon="5.36621">
        <ele>398.15643</ele>
        <time>2014-09-28T16:05:58Z</time>
      </trkpt>
      <trkpt lat="45.62635" lon="5.36617">
        <ele>397.74918</ele>
        <time>2014-09-28T16:06:03Z</time>
      </trkpt>
      <trkpt lat="45.62642" lon="5.36613">
        <ele>397.74918</ele>
        <time>2014-09-28T16:06:08Z</time>
      </trkpt>
      <trkpt lat="45.62648" lon="5.3661">
        <ele>397.28586</ele>
        <time>2014-09-28T16:06:13Z</time>
      </trkpt>
      <trkpt lat="45.62655" lon="5.36606">
        <ele>397.28586</ele>
        <time>2014-09-28T16:06:18Z</time>
      </trkpt>
      <trkpt lat="45.62661" lon="5.36602">
        <ele>396.69852</ele>
        <time>2014-09-28T16:06:23Z</time>
      </trkpt>
      <trkpt lat="45.62668" lon="5.36597">
        <ele>396.69852</ele>
        <time>2014-09-28T16:06:28Z</time>
      </trkpt>
      <trkpt lat="45.62674" lon="5.36594">
        <ele>396.0831</ele>
        <time>2014-09-28T16:06:33Z</time>
      </trkpt>
      <trkpt lat="45.62681" lon="5.3659">
        <ele>396.0831</ele>
        <time>2014-09-28T16:06:38Z</time>
      </trkpt>
      <trkpt lat="45.62686" lon="5.36585">
        <ele>395.18274</ele>
        <time>2014-09-28T16:06:43Z</time>
      </trkpt>
      <trkpt lat="45.62691" lon="5.36577">
        <ele>395.18274</ele>
        <time>2014-09-28T16:06:48Z</time>
      </trkpt>
      <trkpt lat="45.62696" lon="5.36569">
        <ele>393.97635</ele>
        <time>2014-09-28T16:06:53Z</time>
      </trkpt>
      <trkpt lat="45.62701" lon="5.36561">
        <ele>393.97635</ele>
        <time>2014-09-28T16:06:58Z</time>
      </trkpt>
      <trkpt lat="45.62706" lon="5.36554">
        <ele>392.47415</ele>
        <time>2014-09-28T16:07:03Z</time>
      </trkpt>
      <trkpt lat="45.62707" lon="5.36552">
        <ele>392.47415</ele>
        <time>2014-09-28T16:07:08Z</time>
      </trkpt>
      <trkpt lat="45.62707" lon="5.36552">
        <ele>392.47415</ele>
        <time>2014-09-28T16:07:23Z</time>
      </trkpt>
      <trkpt lat="45.62706" lon="5.36552">
        <ele>392.47415</ele>
        <time>2014-09-28T16:07:28Z</time>
      </trkpt>
      <trkpt lat="45.62707" lon="5.3655">
        <ele>392.47415</ele>
        <time>2014-09-28T16:07:38Z</time>
      </trkpt>
      <trkpt lat="45.62709" lon="5.36548">
        <ele>392.47415</ele>
        <time>2014-09-28T16:07:53Z</time>
      </trkpt>
      <trkpt lat="45.6271" lon="5.36548">
        <ele>392.47415</ele>
        <time>2014-09-28T16:07:58Z</time>
      </trkpt>
      <trkpt lat="45.62712" lon="5.36546">
        <ele>392.47415</ele>
        <time>2014-09-28T16:08:08Z</time>
      </trkpt>
      <trkpt lat="45.62711" lon="5.36543">
        <ele>390.91696</ele>
        <time>2014-09-28T16:08:13Z</time>
      </trkpt>
      <trkpt lat="45.62711" lon="5.36543">
        <ele>390.91696</ele>
        <time>2014-09-28T16:08:18Z</time>
      </trkpt>
      <trkpt lat="45.62712" lon="5.36541">
        <ele>390.91696</ele>
        <time>2014-09-28T16:08:28Z</time>
      </trkpt>
      <trkpt lat="45.62716" lon="5.36541">
        <ele>390.91696</ele>
        <time>2014-09-28T16:08:33Z</time>
      </trkpt>
      <trkpt lat="45.62716" lon="5.3654">
        <ele>390.91696</ele>
        <time>2014-09-28T16:08:38Z</time>
      </trkpt>
      <trkpt lat="45.62718" lon="5.36535">
        <ele>389.38397</ele>
        <time>2014-09-28T16:08:43Z</time>
      </trkpt>
      <trkpt lat="45.62718" lon="5.36534">
        <ele>389.38397</ele>
        <time>2014-09-28T16:08:48Z</time>
      </trkpt>
      <trkpt lat="45.62718" lon="5.36533">
        <ele>389.38397</ele>
        <time>2014-09-28T16:08:58Z</time>
      </trkpt>
      <trkpt lat="45.62722" lon="5.36534">
        <ele>389.38397</ele>
        <time>2014-09-28T16:09:03Z</time>
      </trkpt>
      <trkpt lat="45.62723" lon="5.36532">
        <ele>389.38397</ele>
        <time>2014-09-28T16:09:08Z</time>
      </trkpt>
      <trkpt lat="45.62724" lon="5.36532">
        <ele>389.38397</ele>
        <time>2014-09-28T16:09:13Z</time>
      </trkpt>
      <trkpt lat="45.62724" lon="5.36532">
        <ele>389.38397</ele>
        <time>2014-09-28T16:09:18Z</time>
      </trkpt>
      <trkpt lat="45.62726" lon="5.36526">
        <ele>387.6746</ele>
        <time>2014-09-28T16:09:28Z</time>
      </trkpt>
      <trkpt lat="45.62729" lon="5.36522">
        <ele>387.6746</ele>
        <time>2014-09-28T16:09:33Z</time>
      </trkpt>
      <trkpt lat="45.6273" lon="5.36522">
        <ele>387.6746</ele>
        <time>2014-09-28T16:09:38Z</time>
      </trkpt>
      <trkpt lat="45.62731" lon="5.36519">
        <ele>387.6746</ele>
        <time>2014-09-28T16:09:48Z</time>
      </trkpt>
      <trkpt lat="45.62734" lon="5.36515">
        <ele>386.10788</ele>
        <time>2014-09-28T16:09:53Z</time>
      </trkpt>
      <trkpt lat="45.62735" lon="5.36514">
        <ele>386.10788</ele>
        <time>2014-09-28T16:09:58Z</time>
      </trkpt>
      <trkpt lat="45.62738" lon="5.36507">
        <ele>386.10788</ele>
        <time>2014-09-28T16:10:03Z</time>
      </trkpt>
      <trkpt lat="45.62742" lon="5.36499">
        <ele>384.71964</ele>
        <time>2014-09-28T16:10:08Z</time>
      </trkpt>
      <trkpt lat="45.62745" lon="5.36492">
        <ele>384.71964</ele>
        <time>2014-09-28T16:10:13Z</time>
      </trkpt>
      <trkpt lat="45.62745" lon="5.36489">
        <ele>384.71964</ele>
        <time>2014-09-28T16:10:18Z</time>
      </trkpt>
      <trkpt lat="45.62749" lon="5.36481">
        <ele>383.12448</ele>
        <time>2014-09-28T16:10:23Z</time>
      </trkpt>
      <trkpt lat="45.62752" lon="5.36473">
        <ele>383.12448</ele>
        <time>2014-09-28T16:10:28Z</time>
      </trkpt>
      <trkpt lat="45.62756" lon="5.36463">
        <ele>381.23978</ele>
        <time>2014-09-28T16:10:33Z</time>
      </trkpt>
      <trkpt lat="45.62759" lon="5.36455">
        <ele>381.23978</ele>
        <time>2014-09-28T16:10:38Z</time>
      </trkpt>
      <trkpt lat="45.62761" lon="5.36445">
        <ele>379.40762</ele>
        <time>2014-09-28T16:10:43Z</time>
      </trkpt>
      <trkpt lat="45.62764" lon="5.36434">
        <ele>379.40762</ele>
        <time>2014-09-28T16:10:48Z</time>
      </trkpt>
      <trkpt lat="45.62766" lon="5.36425">
        <ele>377.6421</ele>
        <time>2014-09-28T16:10:53Z</time>
      </trkpt>
      <trkpt lat="45.62769" lon="5.36414">
        <ele>377.6421</ele>
        <time>2014-09-28T16:10:58Z</time>
      </trkpt>
      <trkpt lat="45.62771" lon="5.36404">
        <ele>376.02805</ele>
        <time>2014-09-28T16:11:03Z</time>
      </trkpt>
      <trkpt lat="45.62775" lon="5.36395">
        <ele>376.02805</ele>
        <time>2014-09-28T16:11:08Z</time>
      </trkpt>
      <trkpt lat="45.62781" lon="5.36389">
        <ele>374.48514</ele>
        <time>2014-09-28T16:11:13Z</time>
      </trkpt>
      <trkpt lat="45.62788" lon="5.36388">
        <ele>374.48514</ele>
        <time>2014-09-28T16:11:18Z</time>
      </trkpt>
      <trkpt lat="45.62796" lon="5.3639">
        <ele>372.83774</ele>
        <time>2014-09-28T16:11:23Z</time>
      </trkpt>
      <trkpt lat="45.62803" lon="5.36392">
        <ele>372.83774</ele>
        <time>2014-09-28T16:11:28Z</time>
      </trkpt>
      <trkpt lat="45.6281" lon="5.36395">
        <ele>371.1539</ele>
        <time>2014-09-28T16:11:33Z</time>
      </trkpt>
      <trkpt lat="45.62818" lon="5.36398">
        <ele>371.1539</ele>
        <time>2014-09-28T16:11:38Z</time>
      </trkpt>
      <trkpt lat="45.62826" lon="5.364">
        <ele>369.53998</ele>
        <time>2014-09-28T16:11:43Z</time>
      </trkpt>
      <trkpt lat="45.62834" lon="5.36403">
        <ele>369.53998</ele>
        <time>2014-09-28T16:11:48Z</time>
      </trkpt>
      <trkpt lat="45.62842" lon="5.36406">
        <ele>368.00772</ele>
        <time>2014-09-28T16:11:53Z</time>
      </trkpt>
      <trkpt lat="45.6285" lon="5.36408">
        <ele>368.00772</ele>
        <time>2014-09-28T16:11:58Z</time>
      </trkpt>
      <trkpt lat="45.62857" lon="5.36411">
        <ele>366.5245</ele>
        <time>2014-09-28T16:12:03Z</time>
      </trkpt>
      <trkpt lat="45.62864" lon="5.36413">
        <ele>366.5245</ele>
        <time>2014-09-28T16:12:08Z</time>
      </trkpt>
      <trkpt lat="45.62872" lon="5.36412">
        <ele>365.17517</ele>
        <time>2014-09-28T16:12:13Z</time>
      </trkpt>
      <trkpt lat="45.62879" lon="5.36413">
        <ele>365.17517</ele>
        <time>2014-09-28T16:12:18Z</time>
      </trkpt>
      <trkpt lat="45.62887" lon="5.36414">
        <ele>363.93695</ele>
        <time>2014-09-28T16:12:23Z</time>
      </trkpt>
      <trkpt lat="45.62895" lon="5.36416">
        <ele>363.93695</ele>
        <time>2014-09-28T16:12:28Z</time>
      </trkpt>
      <trkpt lat="45.62902" lon="5.36417">
        <ele>362.84604</ele>
        <time>2014-09-28T16:12:33Z</time>
      </trkpt>
      <trkpt lat="45.6291" lon="5.36418">
        <ele>362.84604</ele>
        <time>2014-09-28T16:12:38Z</time>
      </trkpt>
      <trkpt lat="45.62918" lon="5.36419">
        <ele>361.84906</ele>
        <time>2014-09-28T16:12:43Z</time>
      </trkpt>
      <trkpt lat="45.62925" lon="5.3642">
        <ele>361.84906</ele>
        <time>2014-09-28T16:12:48Z</time>
      </trkpt>
      <trkpt lat="45.62932" lon="5.36422">
        <ele>360.95374</ele>
        <time>2014-09-28T16:12:53Z</time>
      </trkpt>
      <trkpt lat="45.62939" lon="5.36422">
        <ele>360.95374</ele>
        <time>2014-09-28T16:12:58Z</time>
      </trkpt>
      <trkpt lat="45.62946" lon="5.36423">
        <ele>360.22464</ele>
        <time>2014-09-28T16:13:03Z</time>
      </trkpt>
      <trkpt lat="45.62954" lon="5.36424">
        <ele>360.22464</ele>
        <time>2014-09-28T16:13:08Z</time>
      </trkpt>
      <trkpt lat="45.6296" lon="5.36426">
        <ele>359.62012</ele>
        <time>2014-09-28T16:13:13Z</time>
      </trkpt>
      <trkpt lat="45.62968" lon="5.36428">
        <ele>359.62012</ele>
        <time>2014-09-28T16:13:18Z</time>
      </trkpt>
      <trkpt lat="45.62975" lon="5.36429">
        <ele>359.11563</ele>
        <time>2014-09-28T16:13:23Z</time>
      </trkpt>
      <trkpt lat="45.62982" lon="5.36431">
        <ele>359.11563</ele>
        <time>2014-09-28T16:13:28Z</time>
      </trkpt>
      <trkpt lat="45.62989" lon="5.36432">
        <ele>358.77457</ele>
        <time>2014-09-28T16:13:33Z</time>
      </trkpt>
      <trkpt lat="45.62996" lon="5.36434">
        <ele>358.77457</ele>
        <time>2014-09-28T16:13:38Z</time>
      </trkpt>
      <trkpt lat="45.63003" lon="5.36436">
        <ele>358.56863</ele>
        <time>2014-09-28T16:13:43Z</time>
      </trkpt>
      <trkpt lat="45.6301" lon="5.36438">
        <ele>358.56863</ele>
        <time>2014-09-28T16:13:48Z</time>
      </trkpt>
      <trkpt lat="45.63018" lon="5.36439">
        <ele>358.55777</ele>
        <time>2014-09-28T16:13:53Z</time>
      </trkpt>
      <trkpt lat="45.63025" lon="5.3644">
        <ele>358.55777</ele>
        <time>2014-09-28T16:13:58Z</time>
      </trkpt>
      <trkpt lat="45.63031" lon="5.36441">
        <ele>358.56628</ele>
        <time>2014-09-28T16:14:03Z</time>
      </trkpt>
      <trkpt lat="45.63039" lon="5.3644">
        <ele>358.56628</ele>
        <time>2014-09-28T16:14:08Z</time>
      </trkpt>
      <trkpt lat="45.63045" lon="5.36438">
        <ele>358.70517</ele>
        <time>2014-09-28T16:14:13Z</time>
      </trkpt>
      <trkpt lat="45.63049" lon="5.36435">
        <ele>358.70517</ele>
        <time>2014-09-28T16:14:18Z</time>
      </trkpt>
      <trkpt lat="45.63052" lon="5.36432">
        <ele>358.70517</ele>
        <time>2014-09-28T16:14:23Z</time>
      </trkpt>
      <trkpt lat="45.63056" lon="5.36425">
        <ele>358.99042</ele>
        <time>2014-09-28T16:14:28Z</time>
      </trkpt>
      <trkpt lat="45.63055" lon="5.36415">
        <ele>358.99042</ele>
        <time>2014-09-28T16:14:33Z</time>
      </trkpt>
      <trkpt lat="45.63053" lon="5.36404">
        <ele>359.3788</ele>
        <time>2014-09-28T16:14:38Z</time>
      </trkpt>
      <trkpt lat="45.63049" lon="5.36395">
        <ele>359.3788</ele>
        <time>2014-09-28T16:14:43Z</time>
      </trkpt>
      <trkpt lat="45.63046" lon="5.36386">
        <ele>359.70035</ele>
        <time>2014-09-28T16:14:48Z</time>
      </trkpt>
      <trkpt lat="45.63042" lon="5.36378">
        <ele>359.70035</ele>
        <time>2014-09-28T16:14:53Z</time>
      </trkpt>
      <trkpt lat="45.63038" lon="5.36369">
        <ele>360.02826</ele>
        <time>2014-09-28T16:14:58Z</time>
      </trkpt>
      <trkpt lat="45.63034" lon="5.36359">
        <ele>360.02826</ele>
        <time>2014-09-28T16:15:03Z</time>
      </trkpt>
      <trkpt lat="45.63031" lon="5.36349">
        <ele>360.41602</ele>
        <time>2014-09-28T16:15:08Z</time>
      </trkpt>
      <trkpt lat="45.63027" lon="5.3634">
        <ele>360.41602</ele>
        <time>2014-09-28T16:15:13Z</time>
      </trkpt>
      <trkpt lat="45.63023" lon="5.36331">
        <ele>360.81223</ele>
        <time>2014-09-28T16:15:18Z</time>
      </trkpt>
      <trkpt lat="45.63021" lon="5.36323">
        <ele>360.81223</ele>
        <time>2014-09-28T16:15:23Z</time>
      </trkpt>
      <trkpt lat="45.63017" lon="5.36311">
        <ele>361.2845</ele>
        <time>2014-09-28T16:15:28Z</time>
      </trkpt>
      <trkpt lat="45.63013" lon="5.36301">
        <ele>361.2845</ele>
        <time>2014-09-28T16:15:33Z</time>
      </trkpt>
      <trkpt lat="45.63009" lon="5.36292">
        <ele>361.5927</ele>
        <time>2014-09-28T16:15:38Z</time>
      </trkpt>
      <trkpt lat="45.63007" lon="5.36281">
        <ele>361.5927</ele>
        <time>2014-09-28T16:15:43Z</time>
      </trkpt>
      <trkpt lat="45.63004" lon="5.3627">
        <ele>361.74554</ele>
        <time>2014-09-28T16:15:48Z</time>
      </trkpt>
      <trkpt lat="45.63002" lon="5.36259">
        <ele>361.74554</ele>
        <time>2014-09-28T16:15:53Z</time>
      </trkpt>
      <trkpt lat="45.63002" lon="5.36246">
        <ele>361.7803</ele>
        <time>2014-09-28T16:15:58Z</time>
      </trkpt>
      <trkpt lat="45.63001" lon="5.36235">
        <ele>361.7803</ele>
        <time>2014-09-28T16:16:03Z</time>
      </trkpt>
      <trkpt lat="45.63" lon="5.36224">
        <ele>361.76083</ele>
        <time>2014-09-28T16:16:08Z</time>
      </trkpt>
      <trkpt lat="45.63" lon="5.36214">
        <ele>361.76083</ele>
        <time>2014-09-28T16:16:13Z</time>
      </trkpt>
      <trkpt lat="45.63001" lon="5.36203">
        <ele>361.63123</ele>
        <time>2014-09-28T16:16:18Z</time>
      </trkpt>
      <trkpt lat="45.63001" lon="5.36196">
        <ele>361.63123</ele>
        <time>2014-09-28T16:16:23Z</time>
      </trkpt>
      <trkpt lat="45.63001" lon="5.36196">
        <ele>361.63123</ele>
        <time>2014-09-28T16:16:28Z</time>
      </trkpt>
      <trkpt lat="45.63002" lon="5.36188">
        <ele>361.46967</ele>
        <time>2014-09-28T16:16:33Z</time>
      </trkpt>
      <trkpt lat="45.63003" lon="5.36178">
        <ele>361.46967</ele>
        <time>2014-09-28T16:16:38Z</time>
      </trkpt>
      <trkpt lat="45.63004" lon="5.36168">
        <ele>361.1904</ele>
        <time>2014-09-28T16:16:43Z</time>
      </trkpt>
      <trkpt lat="45.63005" lon="5.36157">
        <ele>361.1904</ele>
        <time>2014-09-28T16:16:48Z</time>
      </trkpt>
      <trkpt lat="45.63006" lon="5.36146">
        <ele>360.85837</ele>
        <time>2014-09-28T16:16:53Z</time>
      </trkpt>
      <trkpt lat="45.63007" lon="5.36135">
        <ele>360.85837</ele>
        <time>2014-09-28T16:16:58Z</time>
      </trkpt>
      <trkpt lat="45.63008" lon="5.36125">
        <ele>360.43314</ele>
        <time>2014-09-28T16:17:03Z</time>
      </trkpt>
      <trkpt lat="45.63009" lon="5.36115">
        <ele>360.43314</ele>
        <time>2014-09-28T16:17:08Z</time>
      </trkpt>
      <trkpt lat="45.63009" lon="5.36105">
        <ele>360.00726</ele>
        <time>2014-09-28T16:17:13Z</time>
      </trkpt>
      <trkpt lat="45.6301" lon="5.36095">
        <ele>360.00726</ele>
        <time>2014-09-28T16:17:18Z</time>
      </trkpt>
      <trkpt lat="45.63007" lon="5.36085">
        <ele>359.53693</ele>
        <time>2014-09-28T16:17:23Z</time>
      </trkpt>
      <trkpt lat="45.63009" lon="5.36076">
        <ele>359.53693</ele>
        <time>2014-09-28T16:17:28Z</time>
      </trkpt>
      <trkpt lat="45.63009" lon="5.36074">
        <ele>359.53693</ele>
        <time>2014-09-28T16:17:33Z</time>
      </trkpt>
      <trkpt lat="45.63008" lon="5.36073">
        <ele>359.01044</ele>
        <time>2014-09-28T16:17:43Z</time>
      </trkpt>
      <trkpt lat="45.63001" lon="5.36068">
        <ele>359.01044</ele>
        <time>2014-09-28T16:17:48Z</time>
      </trkpt>
      <trkpt lat="45.62996" lon="5.36062">
        <ele>358.51816</ele>
        <time>2014-09-28T16:17:53Z</time>
      </trkpt>
      <trkpt lat="45.62989" lon="5.36059">
        <ele>358.51816</ele>
        <time>2014-09-28T16:17:58Z</time>
      </trkpt>
      <trkpt lat="45.62982" lon="5.36057">
        <ele>357.9708</ele>
        <time>2014-09-28T16:18:03Z</time>
      </trkpt>
      <trkpt lat="45.62974" lon="5.36055">
        <ele>357.9708</ele>
        <time>2014-09-28T16:18:08Z</time>
      </trkpt>
      <trkpt lat="45.62966" lon="5.36054">
        <ele>357.31467</ele>
        <time>2014-09-28T16:18:13Z</time>
      </trkpt>
      <trkpt lat="45.62959" lon="5.36052">
        <ele>357.31467</ele>
        <time>2014-09-28T16:18:18Z</time>
      </trkpt>
      <trkpt lat="45.62951" lon="5.36051">
        <ele>356.74536</ele>
        <time>2014-09-28T16:18:23Z</time>
      </trkpt>
      <trkpt lat="45.62944" lon="5.36049">
        <ele>356.74536</ele>
        <time>2014-09-28T16:18:28Z</time>
      </trkpt>
      <trkpt lat="45.62936" lon="5.36047">
        <ele>356.15567</ele>
        <time>2014-09-28T16:18:33Z</time>
      </trkpt>
      <trkpt lat="45.62929" lon="5.36046">
        <ele>356.15567</ele>
        <time>2014-09-28T16:18:38Z</time>
      </trkpt>
      <trkpt lat="45.62922" lon="5.36045">
        <ele>355.5761</ele>
        <time>2014-09-28T16:18:43Z</time>
      </trkpt>
      <trkpt lat="45.62915" lon="5.36043">
        <ele>355.5761</ele>
        <time>2014-09-28T16:18:48Z</time>
      </trkpt>
      <trkpt lat="45.62907" lon="5.3604">
        <ele>354.9629</ele>
        <time>2014-09-28T16:18:53Z</time>
      </trkpt>
      <trkpt lat="45.629" lon="5.36035">
        <ele>354.9629</ele>
        <time>2014-09-28T16:18:58Z</time>
      </trkpt>
      <trkpt lat="45.62893" lon="5.36033">
        <ele>354.16025</ele>
        <time>2014-09-28T16:19:03Z</time>
      </trkpt>
      <trkpt lat="45.62886" lon="5.36028">
        <ele>354.16025</ele>
        <time>2014-09-28T16:19:08Z</time>
      </trkpt>
      <trkpt lat="45.6288" lon="5.36024">
        <ele>353.3559</ele>
        <time>2014-09-28T16:19:13Z</time>
      </trkpt>
      <trkpt lat="45.62874" lon="5.36021">
        <ele>353.3559</ele>
        <time>2014-09-28T16:19:18Z</time>
      </trkpt>
      <trkpt lat="45.62867" lon="5.36018">
        <ele>352.30588</ele>
        <time>2014-09-28T16:19:23Z</time>
      </trkpt>
      <trkpt lat="45.62861" lon="5.36014">
        <ele>352.30588</ele>
        <time>2014-09-28T16:19:28Z</time>
      </trkpt>
      <trkpt lat="45.62853" lon="5.3601">
        <ele>350.97223</ele>
        <time>2014-09-28T16:19:33Z</time>
      </trkpt>
      <trkpt lat="45.62846" lon="5.36007">
        <ele>350.97223</ele>
        <time>2014-09-28T16:19:38Z</time>
      </trkpt>
      <trkpt lat="45.62838" lon="5.36003">
        <ele>349.70963</ele>
        <time>2014-09-28T16:19:43Z</time>
      </trkpt>
      <trkpt lat="45.62831" lon="5.35999">
        <ele>349.70963</ele>
        <time>2014-09-28T16:19:48Z</time>
      </trkpt>
      <trkpt lat="45.62824" lon="5.35996">
        <ele>348.6736</ele>
        <time>2014-09-28T16:19:53Z</time>
      </trkpt>
      <trkpt lat="45.62817" lon="5.35992">
        <ele>348.6736</ele>
        <time>2014-09-28T16:19:58Z</time>
      </trkpt>
      <trkpt lat="45.6281" lon="5.35987">
        <ele>347.70508</ele>
        <time>2014-09-28T16:20:03Z</time>
      </trkpt>
      <trkpt lat="45.62804" lon="5.3598">
        <ele>347.70508</ele>
        <time>2014-09-28T16:20:08Z</time>
      </trkpt>
      <trkpt lat="45.62797" lon="5.35973">
        <ele>346.59863</ele>
        <time>2014-09-28T16:20:13Z</time>
      </trkpt>
      <trkpt lat="45.6279" lon="5.35967">
        <ele>346.59863</ele>
        <time>2014-09-28T16:20:18Z</time>
      </trkpt>
      <trkpt lat="45.62783" lon="5.3596">
        <ele>345.568</ele>
        <time>2014-09-28T16:20:23Z</time>
      </trkpt>
      <trkpt lat="45.62777" lon="5.35954">
        <ele>345.568</ele>
        <time>2014-09-28T16:20:28Z</time>
      </trkpt>
      <trkpt lat="45.62771" lon="5.35948">
        <ele>344.49384</ele>
        <time>2014-09-28T16:20:33Z</time>
      </trkpt>
      <trkpt lat="45.62766" lon="5.35941">
        <ele>344.49384</ele>
        <time>2014-09-28T16:20:38Z</time>
      </trkpt>
      <trkpt lat="45.62759" lon="5.35935">
        <ele>343.3378</ele>
        <time>2014-09-28T16:20:43Z</time>
      </trkpt>
      <trkpt lat="45.62754" lon="5.35929">
        <ele>343.3378</ele>
        <time>2014-09-28T16:20:48Z</time>
      </trkpt>
      <trkpt lat="45.62747" lon="5.35923">
        <ele>342.36716</ele>
        <time>2014-09-28T16:20:53Z</time>
      </trkpt>
      <trkpt lat="45.62742" lon="5.35916">
        <ele>342.36716</ele>
        <time>2014-09-28T16:20:58Z</time>
      </trkpt>
      <trkpt lat="45.62738" lon="5.35911">
        <ele>341.51196</ele>
        <time>2014-09-28T16:21:03Z</time>
      </trkpt>
      <trkpt lat="45.62734" lon="5.35903">
        <ele>341.51196</ele>
        <time>2014-09-28T16:21:08Z</time>
      </trkpt>
      <trkpt lat="45.6273" lon="5.35896">
        <ele>340.8656</ele>
        <time>2014-09-28T16:21:13Z</time>
      </trkpt>
      <trkpt lat="45.62725" lon="5.35891">
        <ele>340.8656</ele>
        <time>2014-09-28T16:21:18Z</time>
      </trkpt>
      <trkpt lat="45.6272" lon="5.35879">
        <ele>340.2834</ele>
        <time>2014-09-28T16:21:23Z</time>
      </trkpt>
      <trkpt lat="45.62715" lon="5.35872">
        <ele>340.2834</ele>
        <time>2014-09-28T16:21:28Z</time>
      </trkpt>
      <trkpt lat="45.62709" lon="5.35863">
        <ele>339.44373</ele>
        <time>2014-09-28T16:21:33Z</time>
      </trkpt>
      <trkpt lat="45.62705" lon="5.35855">
        <ele>339.44373</ele>
        <time>2014-09-28T16:21:38Z</time>
      </trkpt>
      <trkpt lat="45.627" lon="5.35847">
        <ele>338.424</ele>
        <time>2014-09-28T16:21:43Z</time>
      </trkpt>
      <trkpt lat="45.62694" lon="5.3584">
        <ele>338.424</ele>
        <time>2014-09-28T16:21:48Z</time>
      </trkpt>
      <trkpt lat="45.62688" lon="5.35833">
        <ele>337.31085</ele>
        <time>2014-09-28T16:21:53Z</time>
      </trkpt>
      <trkpt lat="45.62682" lon="5.35825">
        <ele>337.31085</ele>
        <time>2014-09-28T16:21:58Z</time>
      </trkpt>
      <trkpt lat="45.62676" lon="5.35817">
        <ele>336.30002</ele>
        <time>2014-09-28T16:22:03Z</time>
      </trkpt>
      <trkpt lat="45.62669" lon="5.35809">
        <ele>336.30002</ele>
        <time>2014-09-28T16:22:08Z</time>
      </trkpt>
      <trkpt lat="45.62663" lon="5.35803">
        <ele>335.4717</ele>
        <time>2014-09-28T16:22:13Z</time>
      </trkpt>
      <trkpt lat="45.62657" lon="5.35797">
        <ele>335.4717</ele>
        <time>2014-09-28T16:22:18Z</time>
      </trkpt>
      <trkpt lat="45.62652" lon="5.3579">
        <ele>334.5538</ele>
        <time>2014-09-28T16:22:23Z</time>
      </trkpt>
      <trkpt lat="45.62646" lon="5.35785">
        <ele>334.5538</ele>
        <time>2014-09-28T16:22:28Z</time>
      </trkpt>
      <trkpt lat="45.6264" lon="5.3578">
        <ele>333.30884</ele>
        <time>2014-09-28T16:22:33Z</time>
      </trkpt>
      <trkpt lat="45.62633" lon="5.35775">
        <ele>333.30884</ele>
        <time>2014-09-28T16:22:38Z</time>
      </trkpt>
      <trkpt lat="45.62628" lon="5.3577">
        <ele>331.90677</ele>
        <time>2014-09-28T16:22:43Z</time>
      </trkpt>
      <trkpt lat="45.62622" lon="5.35764">
        <ele>331.90677</ele>
        <time>2014-09-28T16:22:48Z</time>
      </trkpt>
      <trkpt lat="45.62615" lon="5.35758">
        <ele>330.491</ele>
        <time>2014-09-28T16:22:53Z</time>
      </trkpt>
      <trkpt lat="45.62608" lon="5.35754">
        <ele>330.491</ele>
        <time>2014-09-28T16:22:58Z</time>
      </trkpt>
      <trkpt lat="45.62602" lon="5.35749">
        <ele>329.16565</ele>
        <time>2014-09-28T16:23:03Z</time>
      </trkpt>
      <trkpt lat="45.62596" lon="5.35745">
        <ele>329.16565</ele>
        <time>2014-09-28T16:23:08Z</time>
      </trkpt>
      <trkpt lat="45.62591" lon="5.35741">
        <ele>327.86832</ele>
        <time>2014-09-28T16:23:13Z</time>
      </trkpt>
      <trkpt lat="45.62587" lon="5.35737">
        <ele>327.86832</ele>
        <time>2014-09-28T16:23:18Z</time>
      </trkpt>
      <trkpt lat="45.62583" lon="5.35733">
        <ele>326.7285</ele>
        <time>2014-09-28T16:23:23Z</time>
      </trkpt>
      <trkpt lat="45.62578" lon="5.35726">
        <ele>326.7285</ele>
        <time>2014-09-28T16:23:28Z</time>
      </trkpt>
      <trkpt lat="45.62573" lon="5.35718">
        <ele>325.5917</ele>
        <time>2014-09-28T16:23:33Z</time>
      </trkpt>
      <trkpt lat="45.62568" lon="5.35712">
        <ele>325.5917</ele>
        <time>2014-09-28T16:23:38Z</time>
      </trkpt>
      <trkpt lat="45.62563" lon="5.35706">
        <ele>324.32935</ele>
        <time>2014-09-28T16:23:43Z</time>
      </trkpt>
      <trkpt lat="45.62561" lon="5.35702">
        <ele>324.32935</ele>
        <time>2014-09-28T16:23:48Z</time>
      </trkpt>
      <trkpt lat="45.62556" lon="5.35698">
        <ele>324.32935</ele>
        <time>2014-09-28T16:23:53Z</time>
      </trkpt>
      <trkpt lat="45.6255" lon="5.35692">
        <ele>323.06747</ele>
        <time>2014-09-28T16:23:58Z</time>
      </trkpt>
      <trkpt lat="45.62545" lon="5.35686">
        <ele>323.06747</ele>
        <time>2014-09-28T16:24:03Z</time>
      </trkpt>
      <trkpt lat="45.62538" lon="5.3568">
        <ele>321.73547</ele>
        <time>2014-09-28T16:24:08Z</time>
      </trkpt>
      <trkpt lat="45.62529" lon="5.35673">
        <ele>320.4266</ele>
        <time>2014-09-28T16:24:13Z</time>
      </trkpt>
      <trkpt lat="45.62524" lon="5.3567">
        <ele>320.4266</ele>
        <time>2014-09-28T16:24:18Z</time>
      </trkpt>
      <trkpt lat="45.62518" lon="5.35666">
        <ele>318.83807</ele>
        <time>2014-09-28T16:24:23Z</time>
      </trkpt>
      <trkpt lat="45.62511" lon="5.35663">
        <ele>318.83807</ele>
        <time>2014-09-28T16:24:28Z</time>
      </trkpt>
      <trkpt lat="45.62505" lon="5.35663">
        <ele>317.29532</ele>
        <time>2014-09-28T16:24:33Z</time>
      </trkpt>
      <trkpt lat="45.62498" lon="5.35659">
        <ele>317.29532</ele>
        <time>2014-09-28T16:24:38Z</time>
      </trkpt>
      <trkpt lat="45.62496" lon="5.35658">
        <ele>315.95557</ele>
        <time>2014-09-28T16:24:43Z</time>
      </trkpt>
      <trkpt lat="45.62495" lon="5.3566">
        <ele>315.95557</ele>
        <time>2014-09-28T16:24:58Z</time>
      </trkpt>
      <trkpt lat="45.62492" lon="5.35661">
        <ele>315.95557</ele>
        <time>2014-09-28T16:25:03Z</time>
      </trkpt>
      <trkpt lat="45.62491" lon="5.3566">
        <ele>315.95557</ele>
        <time>2014-09-28T16:25:08Z</time>
      </trkpt>
      <trkpt lat="45.62491" lon="5.35661">
        <ele>315.95557</ele>
        <time>2014-09-28T16:25:13Z</time>
      </trkpt>
      <trkpt lat="45.62491" lon="5.3566">
        <ele>315.95557</ele>
        <time>2014-09-28T16:25:18Z</time>
      </trkpt>
      <trkpt lat="45.62487" lon="5.35658">
        <ele>314.66125</ele>
        <time>2014-09-28T16:25:33Z</time>
      </trkpt>
      <trkpt lat="45.62481" lon="5.35655">
        <ele>314.66125</ele>
        <time>2014-09-28T16:25:38Z</time>
      </trkpt>
      <trkpt lat="45.62475" lon="5.35654">
        <ele>313.32388</ele>
        <time>2014-09-28T16:25:43Z</time>
      </trkpt>
      <trkpt lat="45.62467" lon="5.35654">
        <ele>313.32388</ele>
        <time>2014-09-28T16:25:48Z</time>
      </trkpt>
      <trkpt lat="45.62461" lon="5.35651">
        <ele>311.38583</ele>
        <time>2014-09-28T16:25:53Z</time>
      </trkpt>
      <trkpt lat="45.62456" lon="5.35651">
        <ele>311.38583</ele>
        <time>2014-09-28T16:25:58Z</time>
      </trkpt>
      <trkpt lat="45.62449" lon="5.35654">
        <ele>309.4275</ele>
        <time>2014-09-28T16:26:03Z</time>
      </trkpt>
      <trkpt lat="45.62445" lon="5.35653">
        <ele>309.4275</ele>
        <time>2014-09-28T16:26:08Z</time>
      </trkpt>
      <trkpt lat="45.62438" lon="5.35653">
        <ele>307.45325</ele>
        <time>2014-09-28T16:26:13Z</time>
      </trkpt>
      <trkpt lat="45.62431" lon="5.35654">
        <ele>307.45325</ele>
        <time>2014-09-28T16:26:18Z</time>
      </trkpt>
      <trkpt lat="45.62424" lon="5.35654">
        <ele>305.45282</ele>
        <time>2014-09-28T16:26:23Z</time>
      </trkpt>
      <trkpt lat="45.62416" lon="5.35654">
        <ele>305.45282</ele>
        <time>2014-09-28T16:26:28Z</time>
      </trkpt>
      <trkpt lat="45.62409" lon="5.35654">
        <ele>303.51752</ele>
        <time>2014-09-28T16:26:33Z</time>
      </trkpt>
      <trkpt lat="45.62403" lon="5.35656">
        <ele>303.51752</ele>
        <time>2014-09-28T16:26:38Z</time>
      </trkpt>
      <trkpt lat="45.62397" lon="5.35657">
        <ele>301.4435</ele>
        <time>2014-09-28T16:26:43Z</time>
      </trkpt>
      <trkpt lat="45.62397" lon="5.35656">
        <ele>301.4435</ele>
        <time>2014-09-28T16:26:48Z</time>
      </trkpt>
      <trkpt lat="45.62399" lon="5.35656">
        <ele>301.4435</ele>
        <time>2014-09-28T16:26:58Z</time>
      </trkpt>
      <trkpt lat="45.62397" lon="5.35655">
        <ele>301.4435</ele>
        <time>2014-09-28T16:27:03Z</time>
      </trkpt>
      <trkpt lat="45.62395" lon="5.35655">
        <ele>301.4435</ele>
        <time>2014-09-28T16:27:08Z</time>
      </trkpt>
      <trkpt lat="45.62395" lon="5.35656">
        <ele>301.4435</ele>
        <time>2014-09-28T16:27:13Z</time>
      </trkpt>
      <trkpt lat="45.62397" lon="5.35653">
        <ele>301.4435</ele>
        <time>2014-09-28T16:27:43Z</time>
      </trkpt>
      <trkpt lat="45.62397" lon="5.35652">
        <ele>301.4435</ele>
        <time>2014-09-28T16:27:48Z</time>
      </trkpt>
      <trkpt lat="45.62393" lon="5.35656">
        <ele>299.4457</ele>
        <time>2014-09-28T16:27:53Z</time>
      </trkpt>
      <trkpt lat="45.62387" lon="5.35658">
        <ele>299.4457</ele>
        <time>2014-09-28T16:27:58Z</time>
      </trkpt>
      <trkpt lat="45.62386" lon="5.35656">
        <ele>299.4457</ele>
        <time>2014-09-28T16:28:03Z</time>
      </trkpt>
      <trkpt lat="45.62383" lon="5.35656">
        <ele>297.72302</ele>
        <time>2014-09-28T16:28:18Z</time>
      </trkpt>
      <trkpt lat="45.62382" lon="5.35654">
        <ele>297.72302</ele>
        <time>2014-09-28T16:28:23Z</time>
      </trkpt>
      <trkpt lat="45.62379" lon="5.35651">
        <ele>297.72302</ele>
        <time>2014-09-28T16:28:28Z</time>
      </trkpt>
      <trkpt lat="45.62372" lon="5.35646">
        <ele>295.73825</ele>
        <time>2014-09-28T16:28:33Z</time>
      </trkpt>
      <trkpt lat="45.62365" lon="5.35642">
        <ele>295.73825</ele>
        <time>2014-09-28T16:28:38Z</time>
      </trkpt>
      <trkpt lat="45.62358" lon="5.35638">
        <ele>293.58524</ele>
        <time>2014-09-28T16:28:43Z</time>
      </trkpt>
      <trkpt lat="45.62351" lon="5.35635">
        <ele>293.58524</ele>
        <time>2014-09-28T16:28:48Z</time>
      </trkpt>
      <trkpt lat="45.62343" lon="5.35631">
        <ele>291.38013</ele>
        <time>2014-09-28T16:28:53Z</time>
      </trkpt>
      <trkpt lat="45.62336" lon="5.35629">
        <ele>291.38013</ele>
        <time>2014-09-28T16:28:58Z</time>
      </trkpt>
      <trkpt lat="45.62329" lon="5.35626">
        <ele>289.1441</ele>
        <time>2014-09-28T16:29:03Z</time>
      </trkpt>
      <trkpt lat="45.62322" lon="5.35624">
        <ele>289.1441</ele>
        <time>2014-09-28T16:29:08Z</time>
      </trkpt>
      <trkpt lat="45.62315" lon="5.35622">
        <ele>287.05533</ele>
        <time>2014-09-28T16:29:13Z</time>
      </trkpt>
      <trkpt lat="45.62307" lon="5.35619">
        <ele>287.05533</ele>
        <time>2014-09-28T16:29:18Z</time>
      </trkpt>
      <trkpt lat="45.62301" lon="5.35617">
        <ele>284.93256</ele>
        <time>2014-09-28T16:29:23Z</time>
      </trkpt>
      <trkpt lat="45.62294" lon="5.35613">
        <ele>284.93256</ele>
        <time>2014-09-28T16:29:28Z</time>
      </trkpt>
      <trkpt lat="45.62286" lon="5.35609">
        <ele>282.9248</ele>
        <time>2014-09-28T16:29:33Z</time>
      </trkpt>
      <trkpt lat="45.62278" lon="5.35606">
        <ele>282.9248</ele>
        <time>2014-09-28T16:29:38Z</time>
      </trkpt>
      <trkpt lat="45.6227" lon="5.35602">
        <ele>281.11215</ele>
        <time>2014-09-28T16:29:43Z</time>
      </trkpt>
      <trkpt lat="45.62262" lon="5.35599">
        <ele>281.11215</ele>
        <time>2014-09-28T16:29:48Z</time>
      </trkpt>
      <trkpt lat="45.62255" lon="5.35595">
        <ele>279.51056</ele>
        <time>2014-09-28T16:29:53Z</time>
      </trkpt>
      <trkpt lat="45.62247" lon="5.35592">
        <ele>279.51056</ele>
        <time>2014-09-28T16:29:58Z</time>
      </trkpt>
      <trkpt lat="45.62241" lon="5.35588">
        <ele>278.17725</ele>
        <time>2014-09-28T16:30:03Z</time>
      </trkpt>
      <trkpt lat="45.62232" lon="5.35586">
        <ele>278.17725</ele>
        <time>2014-09-28T16:30:08Z</time>
      </trkpt>
      <trkpt lat="45.62225" lon="5.35583">
        <ele>277.10687</ele>
        <time>2014-09-28T16:30:13Z</time>
      </trkpt>
      <trkpt lat="45.62217" lon="5.3558">
        <ele>277.10687</ele>
        <time>2014-09-28T16:30:18Z</time>
      </trkpt>
      <trkpt lat="45.6221" lon="5.35575">
        <ele>276.2504</ele>
        <time>2014-09-28T16:30:23Z</time>
      </trkpt>
      <trkpt lat="45.62204" lon="5.35573">
        <ele>276.2504</ele>
        <time>2014-09-28T16:30:28Z</time>
      </trkpt>
      <trkpt lat="45.62197" lon="5.35574">
        <ele>275.60495</ele>
        <time>2014-09-28T16:30:33Z</time>
      </trkpt>
      <trkpt lat="45.6219" lon="5.35581">
        <ele>275.60495</ele>
        <time>2014-09-28T16:30:38Z</time>
      </trkpt>
      <trkpt lat="45.62184" lon="5.35587">
        <ele>274.97986</ele>
        <time>2014-09-28T16:30:43Z</time>
      </trkpt>
      <trkpt lat="45.62178" lon="5.35594">
        <ele>274.97986</ele>
        <time>2014-09-28T16:30:48Z</time>
      </trkpt>
      <trkpt lat="45.62173" lon="5.35602">
        <ele>274.32806</ele>
        <time>2014-09-28T16:30:53Z</time>
      </trkpt>
      <trkpt lat="45.62167" lon="5.35609">
        <ele>274.32806</ele>
        <time>2014-09-28T16:30:58Z</time>
      </trkpt>
      <trkpt lat="45.62161" lon="5.35616">
        <ele>273.79337</ele>
        <time>2014-09-28T16:31:03Z</time>
      </trkpt>
      <trkpt lat="45.62155" lon="5.35623">
        <ele>273.79337</ele>
        <time>2014-09-28T16:31:08Z</time>
      </trkpt>
      <trkpt lat="45.62149" lon="5.35629">
        <ele>273.49423</ele>
        <time>2014-09-28T16:31:13Z</time>
      </trkpt>
      <trkpt lat="45.62143" lon="5.35635">
        <ele>273.49423</ele>
        <time>2014-09-28T16:31:18Z</time>
      </trkpt>
      <trkpt lat="45.62136" lon="5.35643">
        <ele>273.38123</ele>
        <time>2014-09-28T16:31:23Z</time>
      </trkpt>
      <trkpt lat="45.6213" lon="5.35649">
        <ele>273.38123</ele>
        <time>2014-09-28T16:31:28Z</time>
      </trkpt>
      <trkpt lat="45.62123" lon="5.35656">
        <ele>273.4224</ele>
        <time>2014-09-28T16:31:33Z</time>
      </trkpt>
      <trkpt lat="45.62118" lon="5.35662">
        <ele>273.4224</ele>
        <time>2014-09-28T16:31:38Z</time>
      </trkpt>
      <trkpt lat="45.62113" lon="5.35669">
        <ele>273.42926</ele>
        <time>2014-09-28T16:31:43Z</time>
      </trkpt>
      <trkpt lat="45.62107" lon="5.35675">
        <ele>273.42926</ele>
        <time>2014-09-28T16:31:48Z</time>
      </trkpt>
      <trkpt lat="45.62103" lon="5.35682">
        <ele>273.55865</ele>
        <time>2014-09-28T16:31:53Z</time>
      </trkpt>
      <trkpt lat="45.62098" lon="5.35691">
        <ele>273.55865</ele>
        <time>2014-09-28T16:31:58Z</time>
      </trkpt>
      <trkpt lat="45.62093" lon="5.35699">
        <ele>273.9557</ele>
        <time>2014-09-28T16:32:03Z</time>
      </trkpt>
      <trkpt lat="45.62087" lon="5.35708">
        <ele>273.9557</ele>
        <time>2014-09-28T16:32:08Z</time>
      </trkpt>
      <trkpt lat="45.62082" lon="5.35715">
        <ele>274.40817</ele>
        <time>2014-09-28T16:32:13Z</time>
      </trkpt>
      <trkpt lat="45.62075" lon="5.35717">
        <ele>274.40817</ele>
        <time>2014-09-28T16:32:18Z</time>
      </trkpt>
      <trkpt lat="45.62068" lon="5.35718">
        <ele>274.705</ele>
        <time>2014-09-28T16:32:23Z</time>
      </trkpt>
      <trkpt lat="45.62064" lon="5.35719">
        <ele>274.705</ele>
        <time>2014-09-28T16:32:28Z</time>
      </trkpt>
      <trkpt lat="45.62059" lon="5.35719">
        <ele>274.98248</ele>
        <time>2014-09-28T16:32:33Z</time>
      </trkpt>
      <trkpt lat="45.62057" lon="5.35718">
        <ele>274.98248</ele>
        <time>2014-09-28T16:32:38Z</time>
      </trkpt>
      <trkpt lat="45.62055" lon="5.35717">
        <ele>274.98248</ele>
        <time>2014-09-28T16:32:43Z</time>
      </trkpt>
      <trkpt lat="45.62054" lon="5.35717">
        <ele>274.98248</ele>
        <time>2014-09-28T16:32:48Z</time>
      </trkpt>
      <trkpt lat="45.62055" lon="5.35717">
        <ele>274.98248</ele>
        <time>2014-09-28T16:32:53Z</time>
      </trkpt>
      <trkpt lat="45.62056" lon="5.35716">
        <ele>274.98248</ele>
        <time>2014-09-28T16:32:58Z</time>
      </trkpt>
      <trkpt lat="45.62056" lon="5.35718">
        <ele>275.61215</ele>
        <time>2014-09-28T16:33:03Z</time>
      </trkpt>
      <trkpt lat="45.62055" lon="5.35717">
        <ele>275.61215</ele>
        <time>2014-09-28T16:33:08Z</time>
      </trkpt>
      <trkpt lat="45.62056" lon="5.35717">
        <ele>275.61215</ele>
        <time>2014-09-28T16:33:13Z</time>
      </trkpt>
      <trkpt lat="45.62056" lon="5.35717">
        <ele>275.61215</ele>
        <time>2014-09-28T16:33:18Z</time>
      </trkpt>
      <trkpt lat="45.62055" lon="5.35715">
        <ele>275.61215</ele>
        <time>2014-09-28T16:33:23Z</time>
      </trkpt>
      <trkpt lat="45.62054" lon="5.35716">
        <ele>275.61215</ele>
        <time>2014-09-28T16:33:28Z</time>
      </trkpt>
      <trkpt lat="45.6205" lon="5.35725">
        <ele>276.2888</ele>
        <time>2014-09-28T16:33:33Z</time>
      </trkpt>
      <trkpt lat="45.62047" lon="5.35736">
        <ele>276.2888</ele>
        <time>2014-09-28T16:33:38Z</time>
      </trkpt>
      <trkpt lat="45.62044" lon="5.35747">
        <ele>276.7295</ele>
        <time>2014-09-28T16:33:43Z</time>
      </trkpt>
      <trkpt lat="45.6204" lon="5.35758">
        <ele>276.7295</ele>
        <time>2014-09-28T16:33:48Z</time>
      </trkpt>
      <trkpt lat="45.62038" lon="5.35769">
        <ele>277.16296</ele>
        <time>2014-09-28T16:33:53Z</time>
      </trkpt>
      <trkpt lat="45.62034" lon="5.35779">
        <ele>277.16296</ele>
        <time>2014-09-28T16:33:58Z</time>
      </trkpt>
      <trkpt lat="45.62032" lon="5.3579">
        <ele>277.6139</ele>
        <time>2014-09-28T16:34:03Z</time>
      </trkpt>
      <trkpt lat="45.62029" lon="5.35801">
        <ele>277.6139</ele>
        <time>2014-09-28T16:34:08Z</time>
      </trkpt>
      <trkpt lat="45.62027" lon="5.35811">
        <ele>278.0331</ele>
        <time>2014-09-28T16:34:13Z</time>
      </trkpt>
      <trkpt lat="45.62024" lon="5.35821">
        <ele>278.0331</ele>
        <time>2014-09-28T16:34:18Z</time>
      </trkpt>
      <trkpt lat="45.62022" lon="5.3583">
        <ele>278.6059</ele>
        <time>2014-09-28T16:34:23Z</time>
      </trkpt>
      <trkpt lat="45.62019" lon="5.35841">
        <ele>278.6059</ele>
        <time>2014-09-28T16:34:28Z</time>
      </trkpt>
      <trkpt lat="45.62017" lon="5.35851">
        <ele>279.02798</ele>
        <time>2014-09-28T16:34:33Z</time>
      </trkpt>
      <trkpt lat="45.62014" lon="5.35861">
        <ele>279.02798</ele>
        <time>2014-09-28T16:34:38Z</time>
      </trkpt>
      <trkpt lat="45.62013" lon="5.35872">
        <ele>279.47928</ele>
        <time>2014-09-28T16:34:43Z</time>
      </trkpt>
      <trkpt lat="45.6201" lon="5.35882">
        <ele>279.47928</ele>
        <time>2014-09-28T16:34:48Z</time>
      </trkpt>
      <trkpt lat="45.62008" lon="5.35892">
        <ele>279.93906</ele>
        <time>2014-09-28T16:34:53Z</time>
      </trkpt>
      <trkpt lat="45.62004" lon="5.35903">
        <ele>279.93906</ele>
        <time>2014-09-28T16:34:58Z</time>
      </trkpt>
      <trkpt lat="45.62" lon="5.35912">
        <ele>280.33066</ele>
        <time>2014-09-28T16:35:03Z</time>
      </trkpt>
      <trkpt lat="45.61999" lon="5.35921">
        <ele>280.33066</ele>
        <time>2014-09-28T16:35:08Z</time>
      </trkpt>
      <trkpt lat="45.61996" lon="5.35931">
        <ele>280.85718</ele>
        <time>2014-09-28T16:35:13Z</time>
      </trkpt>
      <trkpt lat="45.61991" lon="5.3594">
        <ele>280.85718</ele>
        <time>2014-09-28T16:35:18Z</time>
      </trkpt>
      <trkpt lat="45.61988" lon="5.35949">
        <ele>281.2742</ele>
        <time>2014-09-28T16:35:23Z</time>
      </trkpt>
      <trkpt lat="45.61985" lon="5.35959">
        <ele>281.2742</ele>
        <time>2014-09-28T16:35:28Z</time>
      </trkpt>
      <trkpt lat="45.61984" lon="5.35969">
        <ele>281.58627</ele>
        <time>2014-09-28T16:35:33Z</time>
      </trkpt>
      <trkpt lat="45.61984" lon="5.35979">
        <ele>281.58627</ele>
        <time>2014-09-28T16:35:38Z</time>
      </trkpt>
      <trkpt lat="45.61981" lon="5.35989">
        <ele>281.9278</ele>
        <time>2014-09-28T16:35:43Z</time>
      </trkpt>
      <trkpt lat="45.61977" lon="5.35998">
        <ele>281.9278</ele>
        <time>2014-09-28T16:35:48Z</time>
      </trkpt>
      <trkpt lat="45.61975" lon="5.36007">
        <ele>282.32242</ele>
        <time>2014-09-28T16:35:53Z</time>
      </trkpt>
      <trkpt lat="45.61971" lon="5.36017">
        <ele>282.32242</ele>
        <time>2014-09-28T16:35:58Z</time>
      </trkpt>
      <trkpt lat="45.61968" lon="5.36027">
        <ele>282.72003</ele>
        <time>2014-09-28T16:36:03Z</time>
      </trkpt>
      <trkpt lat="45.61962" lon="5.36031">
        <ele>282.72003</ele>
        <time>2014-09-28T16:36:08Z</time>
      </trkpt>
      <trkpt lat="45.61954" lon="5.3603">
        <ele>283.2184</ele>
        <time>2014-09-28T16:36:13Z</time>
      </trkpt>
      <trkpt lat="45.61948" lon="5.36028">
        <ele>283.2184</ele>
        <time>2014-09-28T16:36:18Z</time>
      </trkpt>
      <trkpt lat="45.6194" lon="5.36026">
        <ele>283.76395</ele>
        <time>2014-09-28T16:36:23Z</time>
      </trkpt>
      <trkpt lat="45.61932" lon="5.36024">
        <ele>283.76395</ele>
        <time>2014-09-28T16:36:28Z</time>
      </trkpt>
      <trkpt lat="45.61923" lon="5.36022">
        <ele>284.30685</ele>
        <time>2014-09-28T16:36:33Z</time>
      </trkpt>
      <trkpt lat="45.61915" lon="5.36021">
        <ele>284.30685</ele>
        <time>2014-09-28T16:36:38Z</time>
      </trkpt>
      <trkpt lat="45.61909" lon="5.36019">
        <ele>284.513</ele>
        <time>2014-09-28T16:36:43Z</time>
      </trkpt>
      <trkpt lat="45.61906" lon="5.3602">
        <ele>284.513</ele>
        <time>2014-09-28T16:36:48Z</time>
      </trkpt>
      <trkpt lat="45.619" lon="5.36021">
        <ele>285.02502</ele>
        <time>2014-09-28T16:36:53Z</time>
      </trkpt>
      <trkpt lat="45.61895" lon="5.36023">
        <ele>285.02502</ele>
        <time>2014-09-28T16:36:58Z</time>
      </trkpt>
      <trkpt lat="45.61887" lon="5.36022">
        <ele>285.37115</ele>
        <time>2014-09-28T16:37:03Z</time>
      </trkpt>
      <trkpt lat="45.6188" lon="5.36021">
        <ele>285.37115</ele>
        <time>2014-09-28T16:37:08Z</time>
      </trkpt>
      <trkpt lat="45.61876" lon="5.36021">
        <ele>285.6769</ele>
        <time>2014-09-28T16:37:13Z</time>
      </trkpt>
      <trkpt lat="45.61876" lon="5.36019">
        <ele>285.6769</ele>
        <time>2014-09-28T16:37:18Z</time>
      </trkpt>
      <trkpt lat="45.61873" lon="5.3602">
        <ele>285.6769</ele>
        <time>2014-09-28T16:37:28Z</time>
      </trkpt>
      <trkpt lat="45.61867" lon="5.36021">
        <ele>286.49118</ele>
        <time>2014-09-28T16:37:33Z</time>
      </trkpt>
      <trkpt lat="45.6186" lon="5.36023">
        <ele>286.49118</ele>
        <time>2014-09-28T16:37:38Z</time>
      </trkpt>
      <trkpt lat="45.61853" lon="5.36025">
        <ele>287.26917</ele>
        <time>2014-09-28T16:37:43Z</time>
      </trkpt>
      <trkpt lat="45.61845" lon="5.36028">
        <ele>287.26917</ele>
        <time>2014-09-28T16:37:48Z</time>
      </trkpt>
      <trkpt lat="45.61838" lon="5.3603">
        <ele>288.03958</ele>
        <time>2014-09-28T16:37:53Z</time>
      </trkpt>
      <trkpt lat="45.61829" lon="5.3603">
        <ele>288.03958</ele>
        <time>2014-09-28T16:37:58Z</time>
      </trkpt>
      <trkpt lat="45.61822" lon="5.36028">
        <ele>288.77145</ele>
        <time>2014-09-28T16:38:03Z</time>
      </trkpt>
      <trkpt lat="45.61814" lon="5.36025">
        <ele>288.77145</ele>
        <time>2014-09-28T16:38:08Z</time>
      </trkpt>
      <trkpt lat="45.61805" lon="5.36024">
        <ele>289.5661</ele>
        <time>2014-09-28T16:38:13Z</time>
      </trkpt>
      <trkpt lat="45.61798" lon="5.36025">
        <ele>289.5661</ele>
        <time>2014-09-28T16:38:18Z</time>
      </trkpt>
      <trkpt lat="45.6179" lon="5.36028">
        <ele>290.35867</ele>
        <time>2014-09-28T16:38:23Z</time>
      </trkpt>
      <trkpt lat="45.61785" lon="5.36032">
        <ele>290.35867</ele>
        <time>2014-09-28T16:38:28Z</time>
      </trkpt>
      <trkpt lat="45.6178" lon="5.36038">
        <ele>291.33435</ele>
        <time>2014-09-28T16:38:33Z</time>
      </trkpt>
      <trkpt lat="45.61776" lon="5.36046">
        <ele>291.33435</ele>
        <time>2014-09-28T16:38:38Z</time>
      </trkpt>
      <trkpt lat="45.61773" lon="5.36054">
        <ele>292.39038</ele>
        <time>2014-09-28T16:38:43Z</time>
      </trkpt>
      <trkpt lat="45.61772" lon="5.36062">
        <ele>292.39038</ele>
        <time>2014-09-28T16:38:48Z</time>
      </trkpt>
      <trkpt lat="45.61771" lon="5.36071">
        <ele>293.46033</ele>
        <time>2014-09-28T16:38:53Z</time>
      </trkpt>
      <trkpt lat="45.61768" lon="5.36077">
        <ele>293.46033</ele>
        <time>2014-09-28T16:38:58Z</time>
      </trkpt>
      <trkpt lat="45.61766" lon="5.36084">
        <ele>294.5115</ele>
        <time>2014-09-28T16:39:03Z</time>
      </trkpt>
      <trkpt lat="45.61763" lon="5.36093">
        <ele>294.5115</ele>
        <time>2014-09-28T16:39:08Z</time>
      </trkpt>
      <trkpt lat="45.61759" lon="5.36103">
        <ele>295.77322</ele>
        <time>2014-09-28T16:39:13Z</time>
      </trkpt>
      <trkpt lat="45.61757" lon="5.36114">
        <ele>295.77322</ele>
        <time>2014-09-28T16:39:18Z</time>
      </trkpt>
      <trkpt lat="45.6175" lon="5.36122">
        <ele>296.83774</ele>
        <time>2014-09-28T16:39:23Z</time>
      </trkpt>
      <trkpt lat="45.61745" lon="5.3613">
        <ele>296.83774</ele>
        <time>2014-09-28T16:39:28Z</time>
      </trkpt>
      <trkpt lat="45.61739" lon="5.36139">
        <ele>298.23587</ele>
        <time>2014-09-28T16:39:33Z</time>
      </trkpt>
      <trkpt lat="45.61731" lon="5.36142">
        <ele>298.23587</ele>
        <time>2014-09-28T16:39:38Z</time>
      </trkpt>
      <trkpt lat="45.61727" lon="5.36133">
        <ele>299.78128</ele>
        <time>2014-09-28T16:39:43Z</time>
      </trkpt>
      <trkpt lat="45.61725" lon="5.36124">
        <ele>299.78128</ele>
        <time>2014-09-28T16:39:48Z</time>
      </trkpt>
      <trkpt lat="45.61723" lon="5.36117">
        <ele>301.35867</ele>
        <time>2014-09-28T16:39:53Z</time>
      </trkpt>
      <trkpt lat="45.61721" lon="5.36113">
        <ele>301.35867</ele>
        <time>2014-09-28T16:39:58Z</time>
      </trkpt>
      <trkpt lat="45.61717" lon="5.36108">
        <ele>301.35867</ele>
        <time>2014-09-28T16:40:03Z</time>
      </trkpt>
      <trkpt lat="45.61711" lon="5.36099">
        <ele>302.91888</ele>
        <time>2014-09-28T16:40:08Z</time>
      </trkpt>
      <trkpt lat="45.61704" lon="5.36104">
        <ele>302.91888</ele>
        <time>2014-09-28T16:40:13Z</time>
      </trkpt>
      <trkpt lat="45.61699" lon="5.36109">
        <ele>304.34445</ele>
        <time>2014-09-28T16:40:18Z</time>
      </trkpt>
      <trkpt lat="45.61692" lon="5.36115">
        <ele>304.34445</ele>
        <time>2014-09-28T16:40:23Z</time>
      </trkpt>
      <trkpt lat="45.61686" lon="5.3612">
        <ele>305.8297</ele>
        <time>2014-09-28T16:40:28Z</time>
      </trkpt>
      <trkpt lat="45.61678" lon="5.36124">
        <ele>305.8297</ele>
        <time>2014-09-28T16:40:33Z</time>
      </trkpt>
      <trkpt lat="45.61668" lon="5.36129">
        <ele>307.56906</ele>
        <time>2014-09-28T16:40:38Z</time>
      </trkpt>
      <trkpt lat="45.61661" lon="5.36133">
        <ele>307.56906</ele>
        <time>2014-09-28T16:40:43Z</time>
      </trkpt>
      <trkpt lat="45.61653" lon="5.36139">
        <ele>309.74203</ele>
        <time>2014-09-28T16:40:48Z</time>
      </trkpt>
      <trkpt lat="45.61648" lon="5.36144">
        <ele>309.74203</ele>
        <time>2014-09-28T16:40:53Z</time>
      </trkpt>
      <trkpt lat="45.61641" lon="5.36147">
        <ele>312.4562</ele>
        <time>2014-09-28T16:40:58Z</time>
      </trkpt>
      <trkpt lat="45.61634" lon="5.36151">
        <ele>312.4562</ele>
        <time>2014-09-28T16:41:03Z</time>
      </trkpt>
      <trkpt lat="45.6163" lon="5.36151">
        <ele>315.08936</ele>
        <time>2014-09-28T16:41:08Z</time>
      </trkpt>
      <trkpt lat="45.61623" lon="5.36154">
        <ele>315.08936</ele>
        <time>2014-09-28T16:41:13Z</time>
      </trkpt>
      <trkpt lat="45.61617" lon="5.36158">
        <ele>317.75705</ele>
        <time>2014-09-28T16:41:18Z</time>
      </trkpt>
      <trkpt lat="45.6161" lon="5.36159">
        <ele>317.75705</ele>
        <time>2014-09-28T16:41:23Z</time>
      </trkpt>
      <trkpt lat="45.61604" lon="5.3616">
        <ele>320.52316</ele>
        <time>2014-09-28T16:41:28Z</time>
      </trkpt>
      <trkpt lat="45.61597" lon="5.3616">
        <ele>320.52316</ele>
        <time>2014-09-28T16:41:33Z</time>
      </trkpt>
      <trkpt lat="45.6159" lon="5.36162">
        <ele>323.33142</ele>
        <time>2014-09-28T16:41:38Z</time>
      </trkpt>
      <trkpt lat="45.61583" lon="5.36161">
        <ele>323.33142</ele>
        <time>2014-09-28T16:41:43Z</time>
      </trkpt>
      <trkpt lat="45.61577" lon="5.36159">
        <ele>326.31714</ele>
        <time>2014-09-28T16:41:48Z</time>
      </trkpt>
      <trkpt lat="45.61571" lon="5.36157">
        <ele>326.31714</ele>
        <time>2014-09-28T16:41:53Z</time>
      </trkpt>
      <trkpt lat="45.61565" lon="5.36152">
        <ele>329.21622</ele>
        <time>2014-09-28T16:41:58Z</time>
      </trkpt>
      <trkpt lat="45.61559" lon="5.36148">
        <ele>329.21622</ele>
        <time>2014-09-28T16:42:03Z</time>
      </trkpt>
      <trkpt lat="45.61554" lon="5.36143">
        <ele>331.9717</ele>
        <time>2014-09-28T16:42:08Z</time>
      </trkpt>
      <trkpt lat="45.61546" lon="5.36137">
        <ele>331.9717</ele>
        <time>2014-09-28T16:42:13Z</time>
      </trkpt>
      <trkpt lat="45.6154" lon="5.36131">
        <ele>334.57465</ele>
        <time>2014-09-28T16:42:18Z</time>
      </trkpt>
      <trkpt lat="45.61536" lon="5.36123">
        <ele>334.57465</ele>
        <time>2014-09-28T16:42:23Z</time>
      </trkpt>
      <trkpt lat="45.61531" lon="5.36117">
        <ele>337.2335</ele>
        <time>2014-09-28T16:42:28Z</time>
      </trkpt>
      <trkpt lat="45.61526" lon="5.36108">
        <ele>337.2335</ele>
        <time>2014-09-28T16:42:33Z</time>
      </trkpt>
      <trkpt lat="45.6152" lon="5.361">
        <ele>340.01172</ele>
        <time>2014-09-28T16:42:38Z</time>
      </trkpt>
      <trkpt lat="45.61514" lon="5.36092">
        <ele>340.01172</ele>
        <time>2014-09-28T16:42:43Z</time>
      </trkpt>
      <trkpt lat="45.61509" lon="5.36087">
        <ele>342.63654</ele>
        <time>2014-09-28T16:42:48Z</time>
      </trkpt>
      <trkpt lat="45.61501" lon="5.3608">
        <ele>344.98544</ele>
        <time>2014-09-28T16:42:53Z</time>
      </trkpt>
      <trkpt lat="45.61497" lon="5.36075">
        <ele>344.98544</ele>
        <time>2014-09-28T16:42:58Z</time>
      </trkpt>
      <trkpt lat="45.61492" lon="5.3607">
        <ele>347.0756</ele>
        <time>2014-09-28T16:43:03Z</time>
      </trkpt>
      <trkpt lat="45.61487" lon="5.36068">
        <ele>347.0756</ele>
        <time>2014-09-28T16:43:08Z</time>
      </trkpt>
      <trkpt lat="45.61481" lon="5.36068">
        <ele>349.1256</ele>
        <time>2014-09-28T16:43:13Z</time>
      </trkpt>
      <trkpt lat="45.6148" lon="5.36064">
        <ele>349.1256</ele>
        <time>2014-09-28T16:43:18Z</time>
      </trkpt>
      <trkpt lat="45.61473" lon="5.36056">
        <ele>351.0356</ele>
        <time>2014-09-28T16:43:23Z</time>
      </trkpt>
      <trkpt lat="45.61466" lon="5.36049">
        <ele>351.0356</ele>
        <time>2014-09-28T16:43:28Z</time>
      </trkpt>
      <trkpt lat="45.61461" lon="5.36041">
        <ele>352.54068</ele>
        <time>2014-09-28T16:43:33Z</time>
      </trkpt>
      <trkpt lat="45.61457" lon="5.36032">
        <ele>352.54068</ele>
        <time>2014-09-28T16:43:38Z</time>
      </trkpt>
      <trkpt lat="45.61456" lon="5.36023">
        <ele>353.90103</ele>
        <time>2014-09-28T16:43:43Z</time>
      </trkpt>
      <trkpt lat="45.61455" lon="5.36014">
        <ele>353.90103</ele>
        <time>2014-09-28T16:43:48Z</time>
      </trkpt>
      <trkpt lat="45.61454" lon="5.36003">
        <ele>355.27188</ele>
        <time>2014-09-28T16:43:53Z</time>
      </trkpt>
      <trkpt lat="45.61453" lon="5.35996">
        <ele>355.27188</ele>
        <time>2014-09-28T16:43:58Z</time>
      </trkpt>
      <trkpt lat="45.61454" lon="5.35985">
        <ele>356.32153</ele>
        <time>2014-09-28T16:44:03Z</time>
      </trkpt>
      <trkpt lat="45.61457" lon="5.35974">
        <ele>356.32153</ele>
        <time>2014-09-28T16:44:08Z</time>
      </trkpt>
      <trkpt lat="45.61459" lon="5.3596">
        <ele>357.23367</ele>
        <time>2014-09-28T16:44:13Z</time>
      </trkpt>
      <trkpt lat="45.61461" lon="5.35946">
        <ele>358.10687</ele>
        <time>2014-09-28T16:44:18Z</time>
      </trkpt>
      <trkpt lat="45.61458" lon="5.35925">
        <ele>358.9751</ele>
        <time>2014-09-28T16:44:23Z</time>
      </trkpt>
      <trkpt lat="45.61453" lon="5.35878">
        <ele>359.7978</ele>
        <time>2014-09-28T16:44:28Z</time>
      </trkpt>
      <trkpt lat="45.61452" lon="5.3583">
        <ele>360.42227</ele>
        <time>2014-09-28T16:44:33Z</time>
      </trkpt>
      <trkpt lat="45.61452" lon="5.3579">
        <ele>360.9239</ele>
        <time>2014-09-28T16:44:38Z</time>
      </trkpt>
      <trkpt lat="45.61451" lon="5.35754">
        <ele>361.45926</ele>
        <time>2014-09-28T16:44:43Z</time>
      </trkpt>
      <trkpt lat="45.61458" lon="5.35713">
        <ele>362.05817</ele>
        <time>2014-09-28T16:44:48Z</time>
      </trkpt>
      <trkpt lat="45.61472" lon="5.35661">
        <ele>362.63272</ele>
        <time>2014-09-28T16:44:53Z</time>
      </trkpt>
      <trkpt lat="45.61485" lon="5.35618">
        <ele>363.21686</ele>
        <time>2014-09-28T16:44:58Z</time>
      </trkpt>
      <trkpt lat="45.61506" lon="5.35572">
        <ele>363.9429</ele>
        <time>2014-09-28T16:45:03Z</time>
      </trkpt>
      <trkpt lat="45.61517" lon="5.35546">
        <ele>364.48624</ele>
        <time>2014-09-28T16:45:08Z</time>
      </trkpt>
      <trkpt lat="45.61523" lon="5.35535">
        <ele>365.05096</ele>
        <time>2014-09-28T16:45:13Z</time>
      </trkpt>
      <trkpt lat="45.61526" lon="5.35525">
        <ele>365.05096</ele>
        <time>2014-09-28T16:45:18Z</time>
      </trkpt>
      <trkpt lat="45.61536" lon="5.3549">
        <ele>365.94147</ele>
        <time>2014-09-28T16:45:43Z</time>
      </trkpt>
      <trkpt lat="45.61538" lon="5.35478">
        <ele>366.83344</ele>
        <time>2014-09-28T16:45:48Z</time>
      </trkpt>
      <trkpt lat="45.61539" lon="5.3547">
        <ele>366.83344</ele>
        <time>2014-09-28T16:45:53Z</time>
      </trkpt>
      <trkpt lat="45.61547" lon="5.35443">
        <ele>367.8011</ele>
        <time>2014-09-28T16:46:08Z</time>
      </trkpt>
      <trkpt lat="45.61548" lon="5.35432">
        <ele>367.8011</ele>
        <time>2014-09-28T16:46:13Z</time>
      </trkpt>
      <trkpt lat="45.61556" lon="5.35376">
        <ele>368.72562</ele>
        <time>2014-09-28T16:46:38Z</time>
      </trkpt>
      <trkpt lat="45.61556" lon="5.3537">
        <ele>368.72562</ele>
        <time>2014-09-28T16:46:43Z</time>
      </trkpt>
      <trkpt lat="45.61539" lon="5.3534">
        <ele>369.13666</ele>
        <time>2014-09-28T16:47:03Z</time>
      </trkpt>
      <trkpt lat="45.61533" lon="5.35337">
        <ele>369.13666</ele>
        <time>2014-09-28T16:47:08Z</time>
      </trkpt>
      <trkpt lat="45.61517" lon="5.35329">
        <ele>369.69507</ele>
        <time>2014-09-28T16:47:18Z</time>
      </trkpt>
      <trkpt lat="45.6151" lon="5.35325">
        <ele>369.69507</ele>
        <time>2014-09-28T16:47:23Z</time>
      </trkpt>
      <trkpt lat="45.61503" lon="5.35324">
        <ele>370.1192</ele>
        <time>2014-09-28T16:47:28Z</time>
      </trkpt>
      <trkpt lat="45.61495" lon="5.3532">
        <ele>370.1192</ele>
        <time>2014-09-28T16:47:33Z</time>
      </trkpt>
      <trkpt lat="45.61489" lon="5.35316">
        <ele>370.45105</ele>
        <time>2014-09-28T16:47:38Z</time>
      </trkpt>
      <trkpt lat="45.61481" lon="5.35312">
        <ele>370.45105</ele>
        <time>2014-09-28T16:47:43Z</time>
      </trkpt>
      <trkpt lat="45.61474" lon="5.35309">
        <ele>370.75848</ele>
        <time>2014-09-28T16:47:48Z</time>
      </trkpt>
      <trkpt lat="45.61467" lon="5.35306">
        <ele>370.75848</ele>
        <time>2014-09-28T16:47:53Z</time>
      </trkpt>
      <trkpt lat="45.6146" lon="5.35302">
        <ele>370.84503</ele>
        <time>2014-09-28T16:47:58Z</time>
      </trkpt>
      <trkpt lat="45.61453" lon="5.35298">
        <ele>370.84503</ele>
        <time>2014-09-28T16:48:03Z</time>
      </trkpt>
      <trkpt lat="45.61447" lon="5.35295">
        <ele>370.91824</ele>
        <time>2014-09-28T16:48:08Z</time>
      </trkpt>
      <trkpt lat="45.61432" lon="5.35287">
        <ele>370.83902</ele>
        <time>2014-09-28T16:48:18Z</time>
      </trkpt>
      <trkpt lat="45.61425" lon="5.35283">
        <ele>370.83902</ele>
        <time>2014-09-28T16:48:23Z</time>
      </trkpt>
      <trkpt lat="45.61419" lon="5.35279">
        <ele>370.68045</ele>
        <time>2014-09-28T16:48:28Z</time>
      </trkpt>
      <trkpt lat="45.61412" lon="5.35274">
        <ele>370.68045</ele>
        <time>2014-09-28T16:48:33Z</time>
      </trkpt>
      <trkpt lat="45.61409" lon="5.35266">
        <ele>370.51047</ele>
        <time>2014-09-28T16:48:38Z</time>
      </trkpt>
      <trkpt lat="45.61411" lon="5.35253">
        <ele>370.51047</ele>
        <time>2014-09-28T16:48:43Z</time>
      </trkpt>
      <trkpt lat="45.61414" lon="5.35243">
        <ele>370.44952</ele>
        <time>2014-09-28T16:48:48Z</time>
      </trkpt>
      <trkpt lat="45.61418" lon="5.35232">
        <ele>370.44952</ele>
        <time>2014-09-28T16:48:53Z</time>
      </trkpt>
      <trkpt lat="45.61422" lon="5.35223">
        <ele>370.34943</ele>
        <time>2014-09-28T16:48:58Z</time>
      </trkpt>
      <trkpt lat="45.61427" lon="5.35213">
        <ele>370.34943</ele>
        <time>2014-09-28T16:49:03Z</time>
      </trkpt>
      <trkpt lat="45.61433" lon="5.35204">
        <ele>370.08734</ele>
        <time>2014-09-28T16:49:08Z</time>
      </trkpt>
      <trkpt lat="45.61439" lon="5.35195">
        <ele>370.08734</ele>
        <time>2014-09-28T16:49:13Z</time>
      </trkpt>
      <trkpt lat="45.61443" lon="5.35185">
        <ele>369.69382</ele>
        <time>2014-09-28T16:49:18Z</time>
      </trkpt>
      <trkpt lat="45.61447" lon="5.35176">
        <ele>369.69382</ele>
        <time>2014-09-28T16:49:23Z</time>
      </trkpt>
      <trkpt lat="45.61452" lon="5.35168">
        <ele>369.44247</ele>
        <time>2014-09-28T16:49:28Z</time>
      </trkpt>
      <trkpt lat="45.61456" lon="5.35159">
        <ele>369.44247</ele>
        <time>2014-09-28T16:49:33Z</time>
      </trkpt>
      <trkpt lat="45.61462" lon="5.35152">
        <ele>369.053</ele>
        <time>2014-09-28T16:49:38Z</time>
      </trkpt>
      <trkpt lat="45.61466" lon="5.35143">
        <ele>369.053</ele>
        <time>2014-09-28T16:49:43Z</time>
      </trkpt>
      <trkpt lat="45.61471" lon="5.35134">
        <ele>368.6263</ele>
        <time>2014-09-28T16:49:48Z</time>
      </trkpt>
      <trkpt lat="45.61476" lon="5.35124">
        <ele>368.6263</ele>
        <time>2014-09-28T16:49:53Z</time>
      </trkpt>
      <trkpt lat="45.6148" lon="5.35115">
        <ele>368.11172</ele>
        <time>2014-09-28T16:49:58Z</time>
      </trkpt>
      <trkpt lat="45.61484" lon="5.35104">
        <ele>368.11172</ele>
        <time>2014-09-28T16:50:03Z</time>
      </trkpt>
      <trkpt lat="45.61488" lon="5.35094">
        <ele>367.4336</ele>
        <time>2014-09-28T16:50:08Z</time>
      </trkpt>
      <trkpt lat="45.61492" lon="5.35084">
        <ele>367.4336</ele>
        <time>2014-09-28T16:50:13Z</time>
      </trkpt>
      <trkpt lat="45.61497" lon="5.35075">
        <ele>366.82474</ele>
        <time>2014-09-28T16:50:18Z</time>
      </trkpt>
      <trkpt lat="45.61501" lon="5.35065">
        <ele>366.82474</ele>
        <time>2014-09-28T16:50:23Z</time>
      </trkpt>
      <trkpt lat="45.61506" lon="5.35055">
        <ele>365.99622</ele>
        <time>2014-09-28T16:50:28Z</time>
      </trkpt>
      <trkpt lat="45.61511" lon="5.35046">
        <ele>365.99622</ele>
        <time>2014-09-28T16:50:33Z</time>
      </trkpt>
      <trkpt lat="45.61516" lon="5.35037">
        <ele>364.9834</ele>
        <time>2014-09-28T16:50:38Z</time>
      </trkpt>
      <trkpt lat="45.61521" lon="5.35028">
        <ele>364.9834</ele>
        <time>2014-09-28T16:50:43Z</time>
      </trkpt>
      <trkpt lat="45.61526" lon="5.3502">
        <ele>363.94907</ele>
        <time>2014-09-28T16:50:48Z</time>
      </trkpt>
      <trkpt lat="45.61531" lon="5.35011">
        <ele>363.94907</ele>
        <time>2014-09-28T16:50:53Z</time>
      </trkpt>
      <trkpt lat="45.61536" lon="5.35002">
        <ele>362.89993</ele>
        <time>2014-09-28T16:50:58Z</time>
      </trkpt>
      <trkpt lat="45.6154" lon="5.34993">
        <ele>362.89993</ele>
        <time>2014-09-28T16:51:03Z</time>
      </trkpt>
      <trkpt lat="45.61545" lon="5.34986">
        <ele>361.81323</ele>
        <time>2014-09-28T16:51:08Z</time>
      </trkpt>
      <trkpt lat="45.61549" lon="5.34981">
        <ele>361.81323</ele>
        <time>2014-09-28T16:51:13Z</time>
      </trkpt>
      <trkpt lat="45.61565" lon="5.34944">
        <ele>360.71106</ele>
        <time>2014-09-28T16:51:53Z</time>
      </trkpt>
      <trkpt lat="45.61569" lon="5.34935">
        <ele>360.71106</ele>
        <time>2014-09-28T16:51:58Z</time>
      </trkpt>
      <trkpt lat="45.61574" lon="5.34927">
        <ele>359.80112</ele>
        <time>2014-09-28T16:52:03Z</time>
      </trkpt>
      <trkpt lat="45.61577" lon="5.34919">
        <ele>359.80112</ele>
        <time>2014-09-28T16:52:08Z</time>
      </trkpt>
      <trkpt lat="45.61581" lon="5.3491">
        <ele>358.87164</ele>
        <time>2014-09-28T16:52:13Z</time>
      </trkpt>
      <trkpt lat="45.61586" lon="5.34899">
        <ele>358.87164</ele>
        <time>2014-09-28T16:52:18Z</time>
      </trkpt>
      <trkpt lat="45.6159" lon="5.34889">
        <ele>358.04337</ele>
        <time>2014-09-28T16:52:23Z</time>
      </trkpt>
      <trkpt lat="45.61594" lon="5.3488">
        <ele>358.04337</ele>
        <time>2014-09-28T16:52:28Z</time>
      </trkpt>
      <trkpt lat="45.61598" lon="5.34871">
        <ele>357.06738</ele>
        <time>2014-09-28T16:52:33Z</time>
      </trkpt>
      <trkpt lat="45.61603" lon="5.34863">
        <ele>357.06738</ele>
        <time>2014-09-28T16:52:38Z</time>
      </trkpt>
      <trkpt lat="45.61608" lon="5.34855">
        <ele>356.3187</ele>
        <time>2014-09-28T16:52:43Z</time>
      </trkpt>
      <trkpt lat="45.61611" lon="5.34844">
        <ele>356.3187</ele>
        <time>2014-09-28T16:52:48Z</time>
      </trkpt>
      <trkpt lat="45.61626" lon="5.34806">
        <ele>355.58182</ele>
        <time>2014-09-28T16:53:08Z</time>
      </trkpt>
      <trkpt lat="45.61629" lon="5.34794">
        <ele>355.58182</ele>
        <time>2014-09-28T16:53:13Z</time>
      </trkpt>
      <trkpt lat="45.61632" lon="5.34784">
        <ele>354.77222</ele>
        <time>2014-09-28T16:53:18Z</time>
      </trkpt>
      <trkpt lat="45.61635" lon="5.34775">
        <ele>354.77222</ele>
        <time>2014-09-28T16:53:23Z</time>
      </trkpt>
      <trkpt lat="45.61638" lon="5.34766">
        <ele>353.89816</ele>
        <time>2014-09-28T16:53:28Z</time>
      </trkpt>
      <trkpt lat="45.61643" lon="5.34756">
        <ele>353.89816</ele>
        <time>2014-09-28T16:53:33Z</time>
      </trkpt>
      <trkpt lat="45.61647" lon="5.34746">
        <ele>353.1258</ele>
        <time>2014-09-28T16:53:38Z</time>
      </trkpt>
      <trkpt lat="45.6165" lon="5.34736">
        <ele>353.1258</ele>
        <time>2014-09-28T16:53:43Z</time>
      </trkpt>
      <trkpt lat="45.61654" lon="5.34727">
        <ele>352.4645</ele>
        <time>2014-09-28T16:53:48Z</time>
      </trkpt>
      <trkpt lat="45.61658" lon="5.34717">
        <ele>352.4645</ele>
        <time>2014-09-28T16:53:53Z</time>
      </trkpt>
      <trkpt lat="45.61661" lon="5.34708">
        <ele>351.90817</ele>
        <time>2014-09-28T16:53:58Z</time>
      </trkpt>
      <trkpt lat="45.61665" lon="5.34701">
        <ele>351.90817</ele>
        <time>2014-09-28T16:54:03Z</time>
      </trkpt>
      <trkpt lat="45.6167" lon="5.34692">
        <ele>351.42184</ele>
        <time>2014-09-28T16:54:08Z</time>
      </trkpt>
      <trkpt lat="45.61674" lon="5.34682">
        <ele>351.42184</ele>
        <time>2014-09-28T16:54:13Z</time>
      </trkpt>
      <trkpt lat="45.61678" lon="5.34672">
        <ele>350.87192</ele>
        <time>2014-09-28T16:54:18Z</time>
      </trkpt>
      <trkpt lat="45.61682" lon="5.34663">
        <ele>350.87192</ele>
        <time>2014-09-28T16:54:23Z</time>
      </trkpt>
      <trkpt lat="45.61687" lon="5.34656">
        <ele>350.19232</ele>
        <time>2014-09-28T16:54:28Z</time>
      </trkpt>
      <trkpt lat="45.61688" lon="5.34655">
        <ele>350.19232</ele>
        <time>2014-09-28T16:54:33Z</time>
      </trkpt>
      <trkpt lat="45.61701" lon="5.34633">
        <ele>349.30765</ele>
        <time>2014-09-28T16:54:43Z</time>
      </trkpt>
      <trkpt lat="45.61704" lon="5.34622">
        <ele>349.30765</ele>
        <time>2014-09-28T16:54:48Z</time>
      </trkpt>
      <trkpt lat="45.61708" lon="5.34609">
        <ele>348.6385</ele>
        <time>2014-09-28T16:54:53Z</time>
      </trkpt>
      <trkpt lat="45.61718" lon="5.34578">
        <ele>347.96854</ele>
        <time>2014-09-28T16:54:58Z</time>
      </trkpt>
      <trkpt lat="45.61727" lon="5.34542">
        <ele>347.45758</ele>
        <time>2014-09-28T16:55:03Z</time>
      </trkpt>
      <trkpt lat="45.61742" lon="5.3451">
        <ele>346.9648</ele>
        <time>2014-09-28T16:55:08Z</time>
      </trkpt>
      <trkpt lat="45.61759" lon="5.34471">
        <ele>346.56146</ele>
        <time>2014-09-28T16:55:13Z</time>
      </trkpt>
      <trkpt lat="45.61778" lon="5.34434">
        <ele>346.12582</ele>
        <time>2014-09-28T16:55:18Z</time>
      </trkpt>
      <trkpt lat="45.61793" lon="5.344">
        <ele>345.84772</ele>
        <time>2014-09-28T16:55:23Z</time>
      </trkpt>
      <trkpt lat="45.61806" lon="5.34373">
        <ele>345.672</ele>
        <time>2014-09-28T16:55:28Z</time>
      </trkpt>
      <trkpt lat="45.61811" lon="5.3436">
        <ele>345.61923</ele>
        <time>2014-09-28T16:55:33Z</time>
      </trkpt>
      <trkpt lat="45.61815" lon="5.34349">
        <ele>345.61923</ele>
        <time>2014-09-28T16:55:38Z</time>
      </trkpt>
      <trkpt lat="45.61818" lon="5.34339">
        <ele>345.72244</ele>
        <time>2014-09-28T16:55:43Z</time>
      </trkpt>
      <trkpt lat="45.61824" lon="5.3433">
        <ele>345.72244</ele>
        <time>2014-09-28T16:55:48Z</time>
      </trkpt>
      <trkpt lat="45.61831" lon="5.34323">
        <ele>345.76678</ele>
        <time>2014-09-28T16:55:53Z</time>
      </trkpt>
      <trkpt lat="45.61837" lon="5.34314">
        <ele>345.76678</ele>
        <time>2014-09-28T16:55:58Z</time>
      </trkpt>
      <trkpt lat="45.61842" lon="5.34308">
        <ele>345.6542</ele>
        <time>2014-09-28T16:56:03Z</time>
      </trkpt>
      <trkpt lat="45.61844" lon="5.34302">
        <ele>345.6542</ele>
        <time>2014-09-28T16:56:08Z</time>
      </trkpt>
      <trkpt lat="45.6185" lon="5.34294">
        <ele>345.32303</ele>
        <time>2014-09-28T16:56:13Z</time>
      </trkpt>
      <trkpt lat="45.61858" lon="5.34286">
        <ele>345.09143</ele>
        <time>2014-09-28T16:56:18Z</time>
      </trkpt>
      <trkpt lat="45.61865" lon="5.34277">
        <ele>344.80713</ele>
        <time>2014-09-28T16:56:23Z</time>
      </trkpt>
      <trkpt lat="45.61871" lon="5.3427">
        <ele>344.80713</ele>
        <time>2014-09-28T16:56:29Z</time>
      </trkpt>
      <trkpt lat="45.61882" lon="5.34256">
        <ele>344.45886</ele>
        <time>2014-09-28T16:56:38Z</time>
      </trkpt>
      <trkpt lat="45.61886" lon="5.34248">
        <ele>344.45886</ele>
        <time>2014-09-28T16:56:43Z</time>
      </trkpt>
      <trkpt lat="45.61893" lon="5.3424">
        <ele>344.19485</ele>
        <time>2014-09-28T16:56:48Z</time>
      </trkpt>
      <trkpt lat="45.61898" lon="5.34234">
        <ele>344.19485</ele>
        <time>2014-09-28T16:56:53Z</time>
      </trkpt>
      <trkpt lat="45.61914" lon="5.34206">
        <ele>344.23868</ele>
        <time>2014-09-28T16:57:08Z</time>
      </trkpt>
      <trkpt lat="45.61918" lon="5.34201">
        <ele>344.23868</ele>
        <time>2014-09-28T16:57:13Z</time>
      </trkpt>
      <trkpt lat="45.61947" lon="5.34167">
        <ele>343.65814</ele>
        <time>2014-09-28T16:57:38Z</time>
      </trkpt>
      <trkpt lat="45.61949" lon="5.34164">
        <ele>343.65814</ele>
        <time>2014-09-28T16:57:43Z</time>
      </trkpt>
      <trkpt lat="45.61961" lon="5.34146">
        <ele>343.26297</ele>
        <time>2014-09-28T16:57:53Z</time>
      </trkpt>
      <trkpt lat="45.61966" lon="5.34137">
        <ele>343.26297</ele>
        <time>2014-09-28T16:57:59Z</time>
      </trkpt>
      <trkpt lat="45.61972" lon="5.34131">
        <ele>342.69315</ele>
        <time>2014-09-28T16:58:03Z</time>
      </trkpt>
      <trkpt lat="45.61975" lon="5.34121">
        <ele>342.69315</ele>
        <time>2014-09-28T16:58:08Z</time>
      </trkpt>
      <trkpt lat="45.61977" lon="5.34115">
        <ele>342.10568</ele>
        <time>2014-09-28T16:58:13Z</time>
      </trkpt>
      <trkpt lat="45.61976" lon="5.34099">
        <ele>341.34335</ele>
        <time>2014-09-28T16:58:18Z</time>
      </trkpt>
      <trkpt lat="45.61976" lon="5.34098">
        <ele>341.34335</ele>
        <time>2014-09-28T16:58:23Z</time>
      </trkpt>
      <trkpt lat="45.61974" lon="5.34073">
        <ele>340.3331</ele>
        <time>2014-09-28T16:58:33Z</time>
      </trkpt>
      <trkpt lat="45.61976" lon="5.34067">
        <ele>340.3331</ele>
        <time>2014-09-28T16:58:39Z</time>
      </trkpt>
      <trkpt lat="45.61983" lon="5.34039">
        <ele>338.96463</ele>
        <time>2014-09-28T16:58:48Z</time>
      </trkpt>
      <trkpt lat="45.6199" lon="5.34032">
        <ele>338.96463</ele>
        <time>2014-09-28T16:58:53Z</time>
      </trkpt>
      <trkpt lat="45.61993" lon="5.34028">
        <ele>337.4827</ele>
        <time>2014-09-28T16:58:58Z</time>
      </trkpt>
      <trkpt lat="45.62001" lon="5.34017">
        <ele>335.92697</ele>
        <time>2014-09-28T16:59:03Z</time>
      </trkpt>
      <trkpt lat="45.62009" lon="5.3401">
        <ele>334.31998</ele>
        <time>2014-09-28T16:59:08Z</time>
      </trkpt>
      <trkpt lat="45.6201" lon="5.3401">
        <ele>334.31998</ele>
        <time>2014-09-28T16:59:13Z</time>
      </trkpt>
      <trkpt lat="45.62021" lon="5.34">
        <ele>332.82684</ele>
        <time>2014-09-28T16:59:18Z</time>
      </trkpt>
      <trkpt lat="45.62025" lon="5.33995">
        <ele>332.82684</ele>
        <time>2014-09-28T16:59:23Z</time>
      </trkpt>
      <trkpt lat="45.62046" lon="5.33969">
        <ele>330.7211</ele>
        <time>2014-09-28T16:59:43Z</time>
      </trkpt>
      <trkpt lat="45.62055" lon="5.3396">
        <ele>328.36896</ele>
        <time>2014-09-28T16:59:48Z</time>
      </trkpt>
      <trkpt lat="45.6206" lon="5.33947">
        <ele>325.923</ele>
        <time>2014-09-28T16:59:53Z</time>
      </trkpt>
      <trkpt lat="45.6206" lon="5.33943">
        <ele>325.923</ele>
        <time>2014-09-28T16:59:58Z</time>
      </trkpt>
      <trkpt lat="45.62064" lon="5.33929">
        <ele>323.02045</ele>
        <time>2014-09-28T17:00:03Z</time>
      </trkpt>
      <trkpt lat="45.62067" lon="5.33919">
        <ele>323.02045</ele>
        <time>2014-09-28T17:00:08Z</time>
      </trkpt>
      <trkpt lat="45.62069" lon="5.33905">
        <ele>319.88837</ele>
        <time>2014-09-28T17:00:13Z</time>
      </trkpt>
      <trkpt lat="45.62069" lon="5.33901">
        <ele>319.88837</ele>
        <time>2014-09-28T17:00:18Z</time>
      </trkpt>
      <trkpt lat="45.62076" lon="5.33874">
        <ele>317.0836</ele>
        <time>2014-09-28T17:00:33Z</time>
      </trkpt>
      <trkpt lat="45.62075" lon="5.3386">
        <ele>314.29962</ele>
        <time>2014-09-28T17:00:38Z</time>
      </trkpt>
      <trkpt lat="45.62077" lon="5.33854">
        <ele>314.29962</ele>
        <time>2014-09-28T17:00:43Z</time>
      </trkpt>
      <trkpt lat="45.62082" lon="5.33833">
        <ele>311.19464</ele>
        <time>2014-09-28T17:00:53Z</time>
      </trkpt>
      <trkpt lat="45.62083" lon="5.33826">
        <ele>311.19464</ele>
        <time>2014-09-28T17:00:58Z</time>
      </trkpt>
      <trkpt lat="45.62091" lon="5.33803">
        <ele>307.26538</ele>
        <time>2014-09-28T17:01:08Z</time>
      </trkpt>
      <trkpt lat="45.62096" lon="5.33794">
        <ele>307.26538</ele>
        <time>2014-09-28T17:01:13Z</time>
      </trkpt>
      <trkpt lat="45.62103" lon="5.33793">
        <ele>303.08533</ele>
        <time>2014-09-28T17:01:18Z</time>
      </trkpt>
      <trkpt lat="45.62108" lon="5.33793">
        <ele>303.08533</ele>
        <time>2014-09-28T17:01:23Z</time>
      </trkpt>
      <trkpt lat="45.62108" lon="5.33755">
        <ele>298.22086</ele>
        <time>2014-09-28T17:01:43Z</time>
      </trkpt>
      <trkpt lat="45.62105" lon="5.33744">
        <ele>298.22086</ele>
        <time>2014-09-28T17:01:48Z</time>
      </trkpt>
      <trkpt lat="45.621" lon="5.33722">
        <ele>294.11655</ele>
        <time>2014-09-28T17:01:58Z</time>
      </trkpt>
      <trkpt lat="45.62093" lon="5.337">
        <ele>290.56665</ele>
        <time>2014-09-28T17:02:08Z</time>
      </trkpt>
      <trkpt lat="45.6209" lon="5.33688">
        <ele>290.56665</ele>
        <time>2014-09-28T17:02:13Z</time>
      </trkpt>
      <trkpt lat="45.62087" lon="5.33678">
        <ele>287.47958</ele>
        <time>2014-09-28T17:02:18Z</time>
      </trkpt>
      <trkpt lat="45.62086" lon="5.33675">
        <ele>287.47958</ele>
        <time>2014-09-28T17:02:23Z</time>
      </trkpt>
      <trkpt lat="45.62081" lon="5.33657">
        <ele>284.9852</ele>
        <time>2014-09-28T17:02:28Z</time>
      </trkpt>
      <trkpt lat="45.6208" lon="5.33653">
        <ele>284.9852</ele>
        <time>2014-09-28T17:02:33Z</time>
      </trkpt>
      <trkpt lat="45.62077" lon="5.33641">
        <ele>282.58224</ele>
        <time>2014-09-28T17:02:38Z</time>
      </trkpt>
      <trkpt lat="45.62075" lon="5.33637">
        <ele>282.58224</ele>
        <time>2014-09-28T17:02:43Z</time>
      </trkpt>
      <trkpt lat="45.6207" lon="5.33625">
        <ele>280.26706</ele>
        <time>2014-09-28T17:02:48Z</time>
      </trkpt>
      <trkpt lat="45.62066" lon="5.33615">
        <ele>280.26706</ele>
        <time>2014-09-28T17:02:53Z</time>
      </trkpt>
      <trkpt lat="45.62065" lon="5.33612">
        <ele>278.28073</ele>
        <time>2014-09-28T17:02:58Z</time>
      </trkpt>
      <trkpt lat="45.6206" lon="5.33598">
        <ele>276.83118</ele>
        <time>2014-09-28T17:03:03Z</time>
      </trkpt>
      <trkpt lat="45.62059" lon="5.33596">
        <ele>276.83118</ele>
        <time>2014-09-28T17:03:08Z</time>
      </trkpt>
      <trkpt lat="45.62041" lon="5.33547">
        <ele>276.2967</ele>
        <time>2014-09-28T17:03:33Z</time>
      </trkpt>
      <trkpt lat="45.62041" lon="5.33546">
        <ele>276.2967</ele>
        <time>2014-09-28T17:03:38Z</time>
      </trkpt>
      <trkpt lat="45.62041" lon="5.3349">
        <ele>277.198</ele>
        <time>2014-09-28T17:04:03Z</time>
      </trkpt>
      <trkpt lat="45.62037" lon="5.33435">
        <ele>279.50903</ele>
        <time>2014-09-28T17:04:33Z</time>
      </trkpt>
      <trkpt lat="45.62036" lon="5.3338">
        <ele>282.43774</ele>
        <time>2014-09-28T17:05:03Z</time>
      </trkpt>
      <trkpt lat="45.62035" lon="5.33375">
        <ele>282.43774</ele>
        <time>2014-09-28T17:05:08Z</time>
      </trkpt>
      <trkpt lat="45.62024" lon="5.33322">
        <ele>286.54556</ele>
        <time>2014-09-28T17:05:33Z</time>
      </trkpt>
      <trkpt lat="45.62005" lon="5.33274">
        <ele>291.2685</ele>
        <time>2014-09-28T17:05:58Z</time>
      </trkpt>
      <trkpt lat="45.62004" lon="5.3327">
        <ele>291.2685</ele>
        <time>2014-09-28T17:06:03Z</time>
      </trkpt>
      <trkpt lat="45.6201" lon="5.33211">
        <ele>296.67307</ele>
        <time>2014-09-28T17:06:33Z</time>
      </trkpt>
      <trkpt lat="45.62014" lon="5.33156">
        <ele>302.31482</ele>
        <time>2014-09-28T17:07:03Z</time>
      </trkpt>
      <trkpt lat="45.62009" lon="5.33097">
        <ele>307.56512</ele>
        <time>2014-09-28T17:07:33Z</time>
      </trkpt>
      <trkpt lat="45.62003" lon="5.33042">
        <ele>312.8661</ele>
        <time>2014-09-28T17:07:58Z</time>
      </trkpt>
      <trkpt lat="45.62002" lon="5.33035">
        <ele>312.8661</ele>
        <time>2014-09-28T17:08:03Z</time>
      </trkpt>
      <trkpt lat="45.61991" lon="5.32978">
        <ele>317.79156</ele>
        <time>2014-09-28T17:08:33Z</time>
      </trkpt>
      <trkpt lat="45.6199" lon="5.32976">
        <ele>317.79156</ele>
        <time>2014-09-28T17:08:38Z</time>
      </trkpt>
      <trkpt lat="45.61978" lon="5.32939">
        <ele>322.29388</ele>
        <time>2014-09-28T17:08:53Z</time>
      </trkpt>
      <trkpt lat="45.61966" lon="5.32911">
        <ele>327.0077</ele>
        <time>2014-09-28T17:09:08Z</time>
      </trkpt>
      <trkpt lat="45.61962" lon="5.32904">
        <ele>327.0077</ele>
        <time>2014-09-28T17:09:13Z</time>
      </trkpt>
      <trkpt lat="45.6196" lon="5.32899">
        <ele>331.49753</ele>
        <time>2014-09-28T17:09:18Z</time>
      </trkpt>
      <trkpt lat="45.6194" lon="5.3287">
        <ele>335.85092</ele>
        <time>2014-09-28T17:09:38Z</time>
      </trkpt>
      <trkpt lat="45.61936" lon="5.32864">
        <ele>335.85092</ele>
        <time>2014-09-28T17:09:43Z</time>
      </trkpt>
      <trkpt lat="45.61918" lon="5.32812">
        <ele>340.36588</ele>
        <time>2014-09-28T17:10:13Z</time>
      </trkpt>
      <trkpt lat="45.61912" lon="5.32754">
        <ele>344.62668</ele>
        <time>2014-09-28T17:10:43Z</time>
      </trkpt>
      <trkpt lat="45.61911" lon="5.32749">
        <ele>344.62668</ele>
        <time>2014-09-28T17:10:48Z</time>
      </trkpt>
      <trkpt lat="45.61905" lon="5.32697">
        <ele>348.59518</ele>
        <time>2014-09-28T17:11:13Z</time>
      </trkpt>
      <trkpt lat="45.619" lon="5.32641">
        <ele>352.16522</ele>
        <time>2014-09-28T17:11:48Z</time>
      </trkpt>
      <trkpt lat="45.61899" lon="5.3264">
        <ele>352.16522</ele>
        <time>2014-09-28T17:11:53Z</time>
      </trkpt>
      <trkpt lat="45.61884" lon="5.32586">
        <ele>355.25427</ele>
        <time>2014-09-28T17:12:18Z</time>
      </trkpt>
      <trkpt lat="45.61861" lon="5.3255">
        <ele>357.1825</ele>
        <time>2014-09-28T17:12:43Z</time>
      </trkpt>
      <trkpt lat="45.61854" lon="5.32548">
        <ele>357.1825</ele>
        <time>2014-09-28T17:12:48Z</time>
      </trkpt>
      <trkpt lat="45.61848" lon="5.32548">
        <ele>358.64944</ele>
        <time>2014-09-28T17:12:53Z</time>
      </trkpt>
      <trkpt lat="45.6184" lon="5.32546">
        <ele>358.64944</ele>
        <time>2014-09-28T17:12:58Z</time>
      </trkpt>
      <trkpt lat="45.61833" lon="5.32543">
        <ele>359.82935</ele>
        <time>2014-09-28T17:13:03Z</time>
      </trkpt>
      <trkpt lat="45.61826" lon="5.32541">
        <ele>359.82935</ele>
        <time>2014-09-28T17:13:08Z</time>
      </trkpt>
      <trkpt lat="45.61819" lon="5.32539">
        <ele>360.8993</ele>
        <time>2014-09-28T17:13:13Z</time>
      </trkpt>
      <trkpt lat="45.61812" lon="5.32538">
        <ele>360.8993</ele>
        <time>2014-09-28T17:13:18Z</time>
      </trkpt>
      <trkpt lat="45.61805" lon="5.32535">
        <ele>361.75018</ele>
        <time>2014-09-28T17:13:23Z</time>
      </trkpt>
      <trkpt lat="45.61798" lon="5.32532">
        <ele>361.75018</ele>
        <time>2014-09-28T17:13:28Z</time>
      </trkpt>
      <trkpt lat="45.61791" lon="5.32529">
        <ele>362.52695</ele>
        <time>2014-09-28T17:13:33Z</time>
      </trkpt>
      <trkpt lat="45.61785" lon="5.32526">
        <ele>362.52695</ele>
        <time>2014-09-28T17:13:38Z</time>
      </trkpt>
      <trkpt lat="45.61778" lon="5.32522">
        <ele>363.09045</ele>
        <time>2014-09-28T17:13:43Z</time>
      </trkpt>
      <trkpt lat="45.61772" lon="5.32517">
        <ele>363.09045</ele>
        <time>2014-09-28T17:13:48Z</time>
      </trkpt>
      <trkpt lat="45.61766" lon="5.32512">
        <ele>363.5866</ele>
        <time>2014-09-28T17:13:53Z</time>
      </trkpt>
      <trkpt lat="45.61765" lon="5.3251">
        <ele>363.5866</ele>
        <time>2014-09-28T17:13:58Z</time>
      </trkpt>
      <trkpt lat="45.61771" lon="5.32477">
        <ele>364.00687</ele>
        <time>2014-09-28T17:14:13Z</time>
      </trkpt>
      <trkpt lat="45.6177" lon="5.32423">
        <ele>364.5312</ele>
        <time>2014-09-28T17:14:38Z</time>
      </trkpt>
      <trkpt lat="45.61767" lon="5.32413">
        <ele>364.5312</ele>
        <time>2014-09-28T17:14:43Z</time>
      </trkpt>
      <trkpt lat="45.61764" lon="5.32406">
        <ele>364.76416</ele>
        <time>2014-09-28T17:14:48Z</time>
      </trkpt>
      <trkpt lat="45.61763" lon="5.32396">
        <ele>364.76416</ele>
        <time>2014-09-28T17:14:53Z</time>
      </trkpt>
      <trkpt lat="45.61763" lon="5.32384">
        <ele>364.78717</ele>
        <time>2014-09-28T17:14:58Z</time>
      </trkpt>
      <trkpt lat="45.61764" lon="5.32375">
        <ele>364.78717</ele>
        <time>2014-09-28T17:15:03Z</time>
      </trkpt>
      <trkpt lat="45.61761" lon="5.32363">
        <ele>364.84933</ele>
        <time>2014-09-28T17:15:08Z</time>
      </trkpt>
      <trkpt lat="45.61761" lon="5.32362">
        <ele>364.84933</ele>
        <time>2014-09-28T17:15:13Z</time>
      </trkpt>
      <trkpt lat="45.61769" lon="5.32317">
        <ele>364.53305</ele>
        <time>2014-09-28T17:15:38Z</time>
      </trkpt>
      <trkpt lat="45.61777" lon="5.32317">
        <ele>364.53305</ele>
        <time>2014-09-28T17:15:43Z</time>
      </trkpt>
      <trkpt lat="45.61785" lon="5.32317">
        <ele>364.05786</ele>
        <time>2014-09-28T17:15:48Z</time>
      </trkpt>
      <trkpt lat="45.61791" lon="5.32316">
        <ele>364.05786</ele>
        <time>2014-09-28T17:15:53Z</time>
      </trkpt>
      <trkpt lat="45.61797" lon="5.32314">
        <ele>363.18088</ele>
        <time>2014-09-28T17:15:58Z</time>
      </trkpt>
      <trkpt lat="45.61804" lon="5.32309">
        <ele>363.18088</ele>
        <time>2014-09-28T17:16:03Z</time>
      </trkpt>
      <trkpt lat="45.61813" lon="5.32311">
        <ele>362.22604</ele>
        <time>2014-09-28T17:16:08Z</time>
      </trkpt>
      <trkpt lat="45.61821" lon="5.32308">
        <ele>362.22604</ele>
        <time>2014-09-28T17:16:13Z</time>
      </trkpt>
      <trkpt lat="45.61828" lon="5.32304">
        <ele>361.24872</ele>
        <time>2014-09-28T17:16:18Z</time>
      </trkpt>
      <trkpt lat="45.61833" lon="5.32299">
        <ele>361.24872</ele>
        <time>2014-09-28T17:16:23Z</time>
      </trkpt>
      <trkpt lat="45.61838" lon="5.32292">
        <ele>359.92557</ele>
        <time>2014-09-28T17:16:28Z</time>
      </trkpt>
      <trkpt lat="45.61843" lon="5.32283">
        <ele>359.92557</ele>
        <time>2014-09-28T17:16:33Z</time>
      </trkpt>
      <trkpt lat="45.61847" lon="5.3227">
        <ele>358.44806</ele>
        <time>2014-09-28T17:16:38Z</time>
      </trkpt>
      <trkpt lat="45.61851" lon="5.32261">
        <ele>358.44806</ele>
        <time>2014-09-28T17:16:43Z</time>
      </trkpt>
      <trkpt lat="45.61854" lon="5.32251">
        <ele>356.95074</ele>
        <time>2014-09-28T17:16:48Z</time>
      </trkpt>
      <trkpt lat="45.6186" lon="5.32243">
        <ele>356.95074</ele>
        <time>2014-09-28T17:16:53Z</time>
      </trkpt>
      <trkpt lat="45.61864" lon="5.32234">
        <ele>355.5151</ele>
        <time>2014-09-28T17:16:58Z</time>
      </trkpt>
      <trkpt lat="45.61869" lon="5.32227">
        <ele>355.5151</ele>
        <time>2014-09-28T17:17:03Z</time>
      </trkpt>
      <trkpt lat="45.61874" lon="5.3222">
        <ele>354.0434</ele>
        <time>2014-09-28T17:17:09Z</time>
      </trkpt>
      <trkpt lat="45.61879" lon="5.32211">
        <ele>354.0434</ele>
        <time>2014-09-28T17:17:13Z</time>
      </trkpt>
      <trkpt lat="45.61884" lon="5.32203">
        <ele>352.7046</ele>
        <time>2014-09-28T17:17:18Z</time>
      </trkpt>
      <trkpt lat="45.6189" lon="5.32195">
        <ele>352.7046</ele>
        <time>2014-09-28T17:17:23Z</time>
      </trkpt>
      <trkpt lat="45.61896" lon="5.32188">
        <ele>351.65472</ele>
        <time>2014-09-28T17:17:28Z</time>
      </trkpt>
      <trkpt lat="45.61903" lon="5.32183">
        <ele>351.65472</ele>
        <time>2014-09-28T17:17:33Z</time>
      </trkpt>
      <trkpt lat="45.61908" lon="5.32178">
        <ele>350.86453</ele>
        <time>2014-09-28T17:17:38Z</time>
      </trkpt>
      <trkpt lat="45.61916" lon="5.32179">
        <ele>350.86453</ele>
        <time>2014-09-28T17:17:43Z</time>
      </trkpt>
      <trkpt lat="45.61921" lon="5.32178">
        <ele>349.71524</ele>
        <time>2014-09-28T17:17:48Z</time>
      </trkpt>
      <trkpt lat="45.61944" lon="5.32184">
        <ele>348.1243</ele>
        <time>2014-09-28T17:18:03Z</time>
      </trkpt>
      <trkpt lat="45.61952" lon="5.32188">
        <ele>348.1243</ele>
        <time>2014-09-28T17:18:08Z</time>
      </trkpt>
      <trkpt lat="45.61959" lon="5.32188">
        <ele>346.31906</ele>
        <time>2014-09-28T17:18:13Z</time>
      </trkpt>
      <trkpt lat="45.61966" lon="5.32192">
        <ele>346.31906</ele>
        <time>2014-09-28T17:18:18Z</time>
      </trkpt>
      <trkpt lat="45.61974" lon="5.32196">
        <ele>343.97736</ele>
        <time>2014-09-28T17:18:23Z</time>
      </trkpt>
      <trkpt lat="45.61981" lon="5.32202">
        <ele>343.97736</ele>
        <time>2014-09-28T17:18:28Z</time>
      </trkpt>
      <trkpt lat="45.61985" lon="5.32206">
        <ele>341.537</ele>
        <time>2014-09-28T17:18:33Z</time>
      </trkpt>
      <trkpt lat="45.61998" lon="5.32235">
        <ele>338.5391</ele>
        <time>2014-09-28T17:18:48Z</time>
      </trkpt>
      <trkpt lat="45.62001" lon="5.32246">
        <ele>338.5391</ele>
        <time>2014-09-28T17:18:53Z</time>
      </trkpt>
      <trkpt lat="45.62003" lon="5.32258">
        <ele>336.10178</ele>
        <time>2014-09-28T17:18:58Z</time>
      </trkpt>
      <trkpt lat="45.62005" lon="5.3227">
        <ele>336.10178</ele>
        <time>2014-09-28T17:19:03Z</time>
      </trkpt>
      <trkpt lat="45.62005" lon="5.32281">
        <ele>334.27936</ele>
        <time>2014-09-28T17:19:08Z</time>
      </trkpt>
      <trkpt lat="45.62005" lon="5.32297">
        <ele>332.99048</ele>
        <time>2014-09-28T17:19:13Z</time>
      </trkpt>
      <trkpt lat="45.62005" lon="5.32308">
        <ele>332.99048</ele>
        <time>2014-09-28T17:19:18Z</time>
      </trkpt>
      <trkpt lat="45.62006" lon="5.32309">
        <ele>332.99048</ele>
        <time>2014-09-28T17:19:23Z</time>
      </trkpt>
      <trkpt lat="45.62016" lon="5.32292">
        <ele>330.3567</ele>
        <time>2014-09-28T17:19:28Z</time>
      </trkpt>
      <trkpt lat="45.62014" lon="5.32276">
        <ele>327.85474</ele>
        <time>2014-09-28T17:19:33Z</time>
      </trkpt>
      <trkpt lat="45.62012" lon="5.32261">
        <ele>325.7426</ele>
        <time>2014-09-28T17:19:38Z</time>
      </trkpt>
      <trkpt lat="45.62013" lon="5.32246">
        <ele>324.05624</ele>
        <time>2014-09-28T17:19:43Z</time>
      </trkpt>
      <trkpt lat="45.62014" lon="5.32236">
        <ele>324.05624</ele>
        <time>2014-09-28T17:19:48Z</time>
      </trkpt>
      <trkpt lat="45.62017" lon="5.32227">
        <ele>322.597</ele>
        <time>2014-09-28T17:19:53Z</time>
      </trkpt>
      <trkpt lat="45.62018" lon="5.32224">
        <ele>322.597</ele>
        <time>2014-09-28T17:19:58Z</time>
      </trkpt>
      <trkpt lat="45.62018" lon="5.322">
        <ele>321.28073</ele>
        <time>2014-09-28T17:20:08Z</time>
      </trkpt>
      <trkpt lat="45.62017" lon="5.32196">
        <ele>321.28073</ele>
        <time>2014-09-28T17:20:13Z</time>
      </trkpt>
      <trkpt lat="45.62012" lon="5.32179">
        <ele>319.91364</ele>
        <time>2014-09-28T17:20:18Z</time>
      </trkpt>
      <trkpt lat="45.62009" lon="5.32172">
        <ele>319.91364</ele>
        <time>2014-09-28T17:20:23Z</time>
      </trkpt>
      <trkpt lat="45.61983" lon="5.32131">
        <ele>316.86044</ele>
        <time>2014-09-28T17:20:53Z</time>
      </trkpt>
      <trkpt lat="45.6199" lon="5.32127">
        <ele>316.86044</ele>
        <time>2014-09-28T17:20:58Z</time>
      </trkpt>
      <trkpt lat="45.61999" lon="5.32131">
        <ele>313.78104</ele>
        <time>2014-09-28T17:21:03Z</time>
      </trkpt>
      <trkpt lat="45.62006" lon="5.32138">
        <ele>313.78104</ele>
        <time>2014-09-28T17:21:08Z</time>
      </trkpt>
      <trkpt lat="45.62011" lon="5.32143">
        <ele>310.7288</ele>
        <time>2014-09-28T17:21:13Z</time>
      </trkpt>
      <trkpt lat="45.62019" lon="5.32149">
        <ele>308.0988</ele>
        <time>2014-09-28T17:21:18Z</time>
      </trkpt>
      <trkpt lat="45.62027" lon="5.32155">
        <ele>308.0988</ele>
        <time>2014-09-28T17:21:23Z</time>
      </trkpt>
      <trkpt lat="45.62029" lon="5.32156">
        <ele>305.59265</ele>
        <time>2014-09-28T17:21:28Z</time>
      </trkpt>
      <trkpt lat="45.62046" lon="5.32167">
        <ele>302.97662</ele>
        <time>2014-09-28T17:21:38Z</time>
      </trkpt>
      <trkpt lat="45.62055" lon="5.3217">
        <ele>302.97662</ele>
        <time>2014-09-28T17:21:43Z</time>
      </trkpt>
      <trkpt lat="45.62048" lon="5.32136">
        <ele>300.25037</ele>
        <time>2014-09-28T17:22:08Z</time>
      </trkpt>
      <trkpt lat="45.62046" lon="5.32123">
        <ele>297.88913</ele>
        <time>2014-09-28T17:22:13Z</time>
      </trkpt>
      <trkpt lat="45.62045" lon="5.3211">
        <ele>297.88913</ele>
        <time>2014-09-28T17:22:18Z</time>
      </trkpt>
      <trkpt lat="45.62048" lon="5.32098">
        <ele>295.8709</ele>
        <time>2014-09-28T17:22:23Z</time>
      </trkpt>
      <trkpt lat="45.62053" lon="5.32092">
        <ele>295.8709</ele>
        <time>2014-09-28T17:22:28Z</time>
      </trkpt>
      <trkpt lat="45.62054" lon="5.32091">
        <ele>295.8709</ele>
        <time>2014-09-28T17:22:33Z</time>
      </trkpt>
      <trkpt lat="45.6206" lon="5.32075">
        <ele>292.81937</ele>
        <time>2014-09-28T17:23:03Z</time>
      </trkpt>
      <trkpt lat="45.62063" lon="5.32068">
        <ele>292.81937</ele>
        <time>2014-09-28T17:23:08Z</time>
      </trkpt>
      <trkpt lat="45.62065" lon="5.32065">
        <ele>292.81937</ele>
        <time>2014-09-28T17:23:13Z</time>
      </trkpt>
      <trkpt lat="45.62069" lon="5.32042">
        <ele>289.27783</ele>
        <time>2014-09-28T17:23:23Z</time>
      </trkpt>
      <trkpt lat="45.62071" lon="5.3203">
        <ele>289.27783</ele>
        <time>2014-09-28T17:23:28Z</time>
      </trkpt>
      <trkpt lat="45.62074" lon="5.3202">
        <ele>286.01022</ele>
        <time>2014-09-28T17:23:33Z</time>
      </trkpt>
      <trkpt lat="45.62077" lon="5.32011">
        <ele>286.01022</ele>
        <time>2014-09-28T17:23:38Z</time>
      </trkpt>
      <trkpt lat="45.62081" lon="5.32001">
        <ele>282.9307</ele>
        <time>2014-09-28T17:23:44Z</time>
      </trkpt>
      <trkpt lat="45.62087" lon="5.31991">
        <ele>279.97336</ele>
        <time>2014-09-28T17:23:48Z</time>
      </trkpt>
      <trkpt lat="45.62091" lon="5.31981">
        <ele>279.97336</ele>
        <time>2014-09-28T17:23:53Z</time>
      </trkpt>
      <trkpt lat="45.62093" lon="5.3197">
        <ele>277.04782</ele>
        <time>2014-09-28T17:23:58Z</time>
      </trkpt>
      <trkpt lat="45.62094" lon="5.31959">
        <ele>277.04782</ele>
        <time>2014-09-28T17:24:03Z</time>
      </trkpt>
      <trkpt lat="45.62093" lon="5.31947">
        <ele>274.32935</ele>
        <time>2014-09-28T17:24:08Z</time>
      </trkpt>
      <trkpt lat="45.62091" lon="5.31933">
        <ele>272.0084</ele>
        <time>2014-09-28T17:24:13Z</time>
      </trkpt>
      <trkpt lat="45.62092" lon="5.31923">
        <ele>272.0084</ele>
        <time>2014-09-28T17:24:18Z</time>
      </trkpt>
      <trkpt lat="45.62091" lon="5.31914">
        <ele>269.87088</ele>
        <time>2014-09-28T17:24:23Z</time>
      </trkpt>
      <trkpt lat="45.62089" lon="5.31901">
        <ele>267.86197</ele>
        <time>2014-09-28T17:24:28Z</time>
      </trkpt>
      <trkpt lat="45.62087" lon="5.3189">
        <ele>267.86197</ele>
        <time>2014-09-28T17:24:33Z</time>
      </trkpt>
      <trkpt lat="45.62087" lon="5.31879">
        <ele>265.98782</ele>
        <time>2014-09-28T17:24:38Z</time>
      </trkpt>
      <trkpt lat="45.62087" lon="5.31867">
        <ele>265.98782</ele>
        <time>2014-09-28T17:24:43Z</time>
      </trkpt>
      <trkpt lat="45.62087" lon="5.31865">
        <ele>264.4266</ele>
        <time>2014-09-28T17:24:48Z</time>
      </trkpt>
      <trkpt lat="45.62098" lon="5.31858">
        <ele>262.29025</ele>
        <time>2014-09-28T17:25:08Z</time>
      </trkpt>
      <trkpt lat="45.62109" lon="5.31856">
        <ele>260.27057</ele>
        <time>2014-09-28T17:25:18Z</time>
      </trkpt>
      <trkpt lat="45.62112" lon="5.31853">
        <ele>260.27057</ele>
        <time>2014-09-28T17:25:23Z</time>
      </trkpt>
      <trkpt lat="45.62124" lon="5.31846">
        <ele>258.47485</ele>
        <time>2014-09-28T17:25:33Z</time>
      </trkpt>
      <trkpt lat="45.62125" lon="5.31845">
        <ele>258.47485</ele>
        <time>2014-09-28T17:25:38Z</time>
      </trkpt>
      <trkpt lat="45.62129" lon="5.31833">
        <ele>256.36765</ele>
        <time>2014-09-28T17:25:43Z</time>
      </trkpt>
      <trkpt lat="45.62137" lon="5.31828">
        <ele>256.36765</ele>
        <time>2014-09-28T17:25:48Z</time>
      </trkpt>
      <trkpt lat="45.62142" lon="5.3182">
        <ele>254.33267</ele>
        <time>2014-09-28T17:25:53Z</time>
      </trkpt>
      <trkpt lat="45.62145" lon="5.31813">
        <ele>254.33267</ele>
        <time>2014-09-28T17:25:58Z</time>
      </trkpt>
      <trkpt lat="45.62152" lon="5.31807">
        <ele>252.46571</ele>
        <time>2014-09-28T17:26:03Z</time>
      </trkpt>
      <trkpt lat="45.62158" lon="5.318">
        <ele>252.46571</ele>
        <time>2014-09-28T17:26:08Z</time>
      </trkpt>
      <trkpt lat="45.62165" lon="5.31796">
        <ele>250.94138</ele>
        <time>2014-09-28T17:26:13Z</time>
      </trkpt>
      <trkpt lat="45.62172" lon="5.31791">
        <ele>250.94138</ele>
        <time>2014-09-28T17:26:18Z</time>
      </trkpt>
      <trkpt lat="45.62179" lon="5.31792">
        <ele>249.48808</ele>
        <time>2014-09-28T17:26:23Z</time>
      </trkpt>
      <trkpt lat="45.62186" lon="5.31791">
        <ele>249.48808</ele>
        <time>2014-09-28T17:26:28Z</time>
      </trkpt>
      <trkpt lat="45.62192" lon="5.31791">
        <ele>248.04123</ele>
        <time>2014-09-28T17:26:33Z</time>
      </trkpt>
      <trkpt lat="45.622" lon="5.3179">
        <ele>248.04123</ele>
        <time>2014-09-28T17:26:38Z</time>
      </trkpt>
      <trkpt lat="45.62208" lon="5.31785">
        <ele>246.6994</ele>
        <time>2014-09-28T17:26:43Z</time>
      </trkpt>
      <trkpt lat="45.62216" lon="5.31784">
        <ele>246.6994</ele>
        <time>2014-09-28T17:26:48Z</time>
      </trkpt>
      <trkpt lat="45.62223" lon="5.31784">
        <ele>244.94827</ele>
        <time>2014-09-28T17:26:53Z</time>
      </trkpt>
      <trkpt lat="45.62231" lon="5.31784">
        <ele>244.94827</ele>
        <time>2014-09-28T17:26:58Z</time>
      </trkpt>
      <trkpt lat="45.62238" lon="5.31783">
        <ele>243.17708</ele>
        <time>2014-09-28T17:27:03Z</time>
      </trkpt>
      <trkpt lat="45.62245" lon="5.31781">
        <ele>243.17708</ele>
        <time>2014-09-28T17:27:08Z</time>
      </trkpt>
      <trkpt lat="45.62253" lon="5.3178">
        <ele>241.47269</ele>
        <time>2014-09-28T17:27:13Z</time>
      </trkpt>
      <trkpt lat="45.62262" lon="5.31781">
        <ele>241.47269</ele>
        <time>2014-09-28T17:27:18Z</time>
      </trkpt>
      <trkpt lat="45.6227" lon="5.31782">
        <ele>239.95853</ele>
        <time>2014-09-28T17:27:23Z</time>
      </trkpt>
      <trkpt lat="45.62278" lon="5.31782">
        <ele>239.95853</ele>
        <time>2014-09-28T17:27:28Z</time>
      </trkpt>
      <trkpt lat="45.62284" lon="5.31781">
        <ele>238.60431</ele>
        <time>2014-09-28T17:27:33Z</time>
      </trkpt>
      <trkpt lat="45.62292" lon="5.3178">
        <ele>238.60431</ele>
        <time>2014-09-28T17:27:38Z</time>
      </trkpt>
      <trkpt lat="45.62299" lon="5.31777">
        <ele>237.32387</ele>
        <time>2014-09-28T17:27:43Z</time>
      </trkpt>
      <trkpt lat="45.62306" lon="5.31774">
        <ele>237.32387</ele>
        <time>2014-09-28T17:27:48Z</time>
      </trkpt>
      <trkpt lat="45.62312" lon="5.31773">
        <ele>235.95065</ele>
        <time>2014-09-28T17:27:53Z</time>
      </trkpt>
      <trkpt lat="45.62319" lon="5.31771">
        <ele>235.95065</ele>
        <time>2014-09-28T17:27:58Z</time>
      </trkpt>
      <trkpt lat="45.62326" lon="5.31771">
        <ele>235.13763</ele>
        <time>2014-09-28T17:28:03Z</time>
      </trkpt>
      <trkpt lat="45.62326" lon="5.31772">
        <ele>235.13763</ele>
        <time>2014-09-28T17:28:08Z</time>
      </trkpt>
      <trkpt lat="45.6234" lon="5.31772">
        <ele>234.1624</ele>
        <time>2014-09-28T17:28:13Z</time>
      </trkpt>
      <trkpt lat="45.62349" lon="5.31772">
        <ele>234.1624</ele>
        <time>2014-09-28T17:28:18Z</time>
      </trkpt>
      <trkpt lat="45.62355" lon="5.31772">
        <ele>233.43692</ele>
        <time>2014-09-28T17:28:23Z</time>
      </trkpt>
      <trkpt lat="45.62369" lon="5.31773">
        <ele>233.29901</ele>
        <time>2014-09-28T17:28:33Z</time>
      </trkpt>
      <trkpt lat="45.62378" lon="5.31778">
        <ele>233.29901</ele>
        <time>2014-09-28T17:28:38Z</time>
      </trkpt>
      <trkpt lat="45.62387" lon="5.31775">
        <ele>233.3539</ele>
        <time>2014-09-28T17:28:43Z</time>
      </trkpt>
      <trkpt lat="45.62398" lon="5.31776">
        <ele>233.72527</ele>
        <time>2014-09-28T17:28:48Z</time>
      </trkpt>
      <trkpt lat="45.62399" lon="5.31776">
        <ele>233.72527</ele>
        <time>2014-09-28T17:28:53Z</time>
      </trkpt>
      <trkpt lat="45.62421" lon="5.3177">
        <ele>233.50374</ele>
        <time>2014-09-28T17:29:08Z</time>
      </trkpt>
      <trkpt lat="45.62426" lon="5.3177">
        <ele>233.50374</ele>
        <time>2014-09-28T17:29:13Z</time>
      </trkpt>
      <trkpt lat="45.62444" lon="5.31763">
        <ele>232.95811</ele>
        <time>2014-09-28T17:29:28Z</time>
      </trkpt>
      <trkpt lat="45.62442" lon="5.31743">
        <ele>232.97253</ele>
        <time>2014-09-28T17:29:53Z</time>
      </trkpt>
      <trkpt lat="45.62441" lon="5.31739">
        <ele>232.97253</ele>
        <time>2014-09-28T17:29:58Z</time>
      </trkpt>
      <trkpt lat="45.62431" lon="5.31686">
        <ele>232.6498</ele>
        <time>2014-09-28T17:30:48Z</time>
      </trkpt>
      <trkpt lat="45.62428" lon="5.31676">
        <ele>232.6498</ele>
        <time>2014-09-28T17:30:53Z</time>
      </trkpt>
      <trkpt lat="45.62415" lon="5.31624">
        <ele>232.54314</ele>
        <time>2014-09-28T17:31:18Z</time>
      </trkpt>
      <trkpt lat="45.62413" lon="5.31615">
        <ele>232.54314</ele>
        <time>2014-09-28T17:31:23Z</time>
      </trkpt>
      <trkpt lat="45.6241" lon="5.31604">
        <ele>232.48729</ele>
        <time>2014-09-28T17:31:28Z</time>
      </trkpt>
      <trkpt lat="45.62408" lon="5.31593">
        <ele>232.48729</ele>
        <time>2014-09-28T17:31:33Z</time>
      </trkpt>
      <trkpt lat="45.62406" lon="5.31583">
        <ele>232.34357</ele>
        <time>2014-09-28T17:31:38Z</time>
      </trkpt>
      <trkpt lat="45.62403" lon="5.31574">
        <ele>232.34357</ele>
        <time>2014-09-28T17:31:43Z</time>
      </trkpt>
      <trkpt lat="45.624" lon="5.31564">
        <ele>232.12794</ele>
        <time>2014-09-28T17:31:48Z</time>
      </trkpt>
      <trkpt lat="45.62397" lon="5.31554">
        <ele>232.12794</ele>
        <time>2014-09-28T17:31:53Z</time>
      </trkpt>
      <trkpt lat="45.62395" lon="5.31546">
        <ele>232.01404</ele>
        <time>2014-09-28T17:31:58Z</time>
      </trkpt>
      <trkpt lat="45.6239" lon="5.31538">
        <ele>232.01404</ele>
        <time>2014-09-28T17:32:03Z</time>
      </trkpt>
      <trkpt lat="45.62386" lon="5.31532">
        <ele>232.13379</ele>
        <time>2014-09-28T17:32:08Z</time>
      </trkpt>
      <trkpt lat="45.62372" lon="5.31518">
        <ele>232.65213</ele>
        <time>2014-09-28T17:32:18Z</time>
      </trkpt>
      <trkpt lat="45.62367" lon="5.3151">
        <ele>232.65213</ele>
        <time>2014-09-28T17:32:23Z</time>
      </trkpt>
      <trkpt lat="45.6236" lon="5.31501">
        <ele>233.15889</ele>
        <time>2014-09-28T17:32:28Z</time>
      </trkpt>
      <trkpt lat="45.62357" lon="5.3149">
        <ele>233.15889</ele>
        <time>2014-09-28T17:32:33Z</time>
      </trkpt>
      <trkpt lat="45.62357" lon="5.31478">
        <ele>233.47595</ele>
        <time>2014-09-28T17:32:38Z</time>
      </trkpt>
      <trkpt lat="45.62357" lon="5.31467">
        <ele>233.47595</ele>
        <time>2014-09-28T17:32:43Z</time>
      </trkpt>
      <trkpt lat="45.62359" lon="5.31456">
        <ele>233.66957</ele>
        <time>2014-09-28T17:32:48Z</time>
      </trkpt>
      <trkpt lat="45.62361" lon="5.31447">
        <ele>233.66957</ele>
        <time>2014-09-28T17:32:53Z</time>
      </trkpt>
      <trkpt lat="45.62362" lon="5.31435">
        <ele>233.68636</ele>
        <time>2014-09-28T17:32:58Z</time>
      </trkpt>
      <trkpt lat="45.62363" lon="5.31425">
        <ele>233.68636</ele>
        <time>2014-09-28T17:33:03Z</time>
      </trkpt>
      <trkpt lat="45.62362" lon="5.31412">
        <ele>233.75127</ele>
        <time>2014-09-28T17:33:08Z</time>
      </trkpt>
      <trkpt lat="45.62363" lon="5.314">
        <ele>233.75127</ele>
        <time>2014-09-28T17:33:13Z</time>
      </trkpt>
      <trkpt lat="45.62364" lon="5.3139">
        <ele>234.23135</ele>
        <time>2014-09-28T17:33:18Z</time>
      </trkpt>
      <trkpt lat="45.62364" lon="5.31378">
        <ele>234.23135</ele>
        <time>2014-09-28T17:33:23Z</time>
      </trkpt>
      <trkpt lat="45.62364" lon="5.31365">
        <ele>234.96126</ele>
        <time>2014-09-28T17:33:28Z</time>
      </trkpt>
      <trkpt lat="45.62364" lon="5.31353">
        <ele>234.96126</ele>
        <time>2014-09-28T17:33:33Z</time>
      </trkpt>
      <trkpt lat="45.62366" lon="5.31322">
        <ele>236.24843</ele>
        <time>2014-09-28T17:33:48Z</time>
      </trkpt>
      <trkpt lat="45.62366" lon="5.31312">
        <ele>236.24843</ele>
        <time>2014-09-28T17:33:53Z</time>
      </trkpt>
      <trkpt lat="45.62367" lon="5.31301">
        <ele>237.2955</ele>
        <time>2014-09-28T17:33:58Z</time>
      </trkpt>
      <trkpt lat="45.62368" lon="5.31289">
        <ele>237.2955</ele>
        <time>2014-09-28T17:34:03Z</time>
      </trkpt>
      <trkpt lat="45.62369" lon="5.31278">
        <ele>238.3589</ele>
        <time>2014-09-28T17:34:08Z</time>
      </trkpt>
      <trkpt lat="45.62368" lon="5.31265">
        <ele>238.3589</ele>
        <time>2014-09-28T17:34:13Z</time>
      </trkpt>
      <trkpt lat="45.62369" lon="5.31252">
        <ele>239.57547</ele>
        <time>2014-09-28T17:34:18Z</time>
      </trkpt>
      <trkpt lat="45.62372" lon="5.31242">
        <ele>239.57547</ele>
        <time>2014-09-28T17:34:23Z</time>
      </trkpt>
      <trkpt lat="45.62375" lon="5.31231">
        <ele>240.71149</ele>
        <time>2014-09-28T17:34:28Z</time>
      </trkpt>
      <trkpt lat="45.62378" lon="5.31222">
        <ele>240.71149</ele>
        <time>2014-09-28T17:34:33Z</time>
      </trkpt>
      <trkpt lat="45.62381" lon="5.31213">
        <ele>241.82465</ele>
        <time>2014-09-28T17:34:38Z</time>
      </trkpt>
      <trkpt lat="45.62384" lon="5.31204">
        <ele>241.82465</ele>
        <time>2014-09-28T17:34:43Z</time>
      </trkpt>
      <trkpt lat="45.62387" lon="5.31193">
        <ele>242.43544</ele>
        <time>2014-09-28T17:34:48Z</time>
      </trkpt>
      <trkpt lat="45.62389" lon="5.31183">
        <ele>242.43544</ele>
        <time>2014-09-28T17:34:53Z</time>
      </trkpt>
      <trkpt lat="45.6239" lon="5.31171">
        <ele>243.15317</ele>
        <time>2014-09-28T17:34:58Z</time>
      </trkpt>
      <trkpt lat="45.62391" lon="5.31167">
        <ele>243.15317</ele>
        <time>2014-09-28T17:35:03Z</time>
      </trkpt>
      <trkpt lat="45.62393" lon="5.31139">
        <ele>244.34058</ele>
        <time>2014-09-28T17:35:13Z</time>
      </trkpt>
      <trkpt lat="45.62404" lon="5.31111">
        <ele>245.05002</ele>
        <time>2014-09-28T17:35:28Z</time>
      </trkpt>
      <trkpt lat="45.62404" lon="5.311">
        <ele>245.05002</ele>
        <time>2014-09-28T17:35:33Z</time>
      </trkpt>
      <trkpt lat="45.62406" lon="5.31087">
        <ele>245.80286</ele>
        <time>2014-09-28T17:35:38Z</time>
      </trkpt>
      <trkpt lat="45.6241" lon="5.31077">
        <ele>245.80286</ele>
        <time>2014-09-28T17:35:43Z</time>
      </trkpt>
      <trkpt lat="45.62412" lon="5.31066">
        <ele>246.31845</ele>
        <time>2014-09-28T17:35:48Z</time>
      </trkpt>
      <trkpt lat="45.62414" lon="5.31053">
        <ele>246.7988</ele>
        <time>2014-09-28T17:35:53Z</time>
      </trkpt>
      <trkpt lat="45.62417" lon="5.31043">
        <ele>246.7988</ele>
        <time>2014-09-28T17:35:58Z</time>
      </trkpt>
      <trkpt lat="45.62421" lon="5.31035">
        <ele>246.71077</ele>
        <time>2014-09-28T17:36:03Z</time>
      </trkpt>
      <trkpt lat="45.62424" lon="5.31024">
        <ele>246.71077</ele>
        <time>2014-09-28T17:36:08Z</time>
      </trkpt>
      <trkpt lat="45.62426" lon="5.31011">
        <ele>246.36917</ele>
        <time>2014-09-28T17:36:13Z</time>
      </trkpt>
      <trkpt lat="45.62428" lon="5.31">
        <ele>246.36917</ele>
        <time>2014-09-28T17:36:18Z</time>
      </trkpt>
      <trkpt lat="45.62429" lon="5.30989">
        <ele>246.06659</ele>
        <time>2014-09-28T17:36:23Z</time>
      </trkpt>
      <trkpt lat="45.6243" lon="5.30977">
        <ele>246.06659</ele>
        <time>2014-09-28T17:36:28Z</time>
      </trkpt>
      <trkpt lat="45.62432" lon="5.30964">
        <ele>245.55533</ele>
        <time>2014-09-28T17:36:33Z</time>
      </trkpt>
      <trkpt lat="45.62435" lon="5.30953">
        <ele>245.55533</ele>
        <time>2014-09-28T17:36:38Z</time>
      </trkpt>
      <trkpt lat="45.62437" lon="5.30941">
        <ele>245.26955</ele>
        <time>2014-09-28T17:36:43Z</time>
      </trkpt>
      <trkpt lat="45.62436" lon="5.30932">
        <ele>245.26955</ele>
        <time>2014-09-28T17:36:48Z</time>
      </trkpt>
      <trkpt lat="45.62433" lon="5.30923">
        <ele>245.16425</ele>
        <time>2014-09-28T17:36:53Z</time>
      </trkpt>
      <trkpt lat="45.62431" lon="5.3091">
        <ele>245.21176</ele>
        <time>2014-09-28T17:36:59Z</time>
      </trkpt>
      <trkpt lat="45.6243" lon="5.30903">
        <ele>245.21176</ele>
        <time>2014-09-28T17:37:03Z</time>
      </trkpt>
      <trkpt lat="45.62432" lon="5.30885">
        <ele>245.32849</ele>
        <time>2014-09-28T17:37:08Z</time>
      </trkpt>
      <trkpt lat="45.62433" lon="5.30872">
        <ele>245.55217</ele>
        <time>2014-09-28T17:37:13Z</time>
      </trkpt>
      <trkpt lat="45.62435" lon="5.30861">
        <ele>245.55217</ele>
        <time>2014-09-28T17:37:18Z</time>
      </trkpt>
      <trkpt lat="45.62436" lon="5.30849">
        <ele>245.88875</ele>
        <time>2014-09-28T17:37:23Z</time>
      </trkpt>
      <trkpt lat="45.62436" lon="5.3084">
        <ele>245.88875</ele>
        <time>2014-09-28T17:37:28Z</time>
      </trkpt>
      <trkpt lat="45.62437" lon="5.30828">
        <ele>246.19937</ele>
        <time>2014-09-28T17:37:33Z</time>
      </trkpt>
      <trkpt lat="45.62437" lon="5.30817">
        <ele>246.19937</ele>
        <time>2014-09-28T17:37:38Z</time>
      </trkpt>
      <trkpt lat="45.62437" lon="5.30808">
        <ele>246.24028</ele>
        <time>2014-09-28T17:37:43Z</time>
      </trkpt>
      <trkpt lat="45.6244" lon="5.30797">
        <ele>246.24028</ele>
        <time>2014-09-28T17:37:48Z</time>
      </trkpt>
      <trkpt lat="45.6244" lon="5.30788">
        <ele>246.1611</ele>
        <time>2014-09-28T17:37:53Z</time>
      </trkpt>
      <trkpt lat="45.62443" lon="5.30777">
        <ele>246.1611</ele>
        <time>2014-09-28T17:37:58Z</time>
      </trkpt>
      <trkpt lat="45.62445" lon="5.30765">
        <ele>246.3027</ele>
        <time>2014-09-28T17:38:03Z</time>
      </trkpt>
      <trkpt lat="45.62447" lon="5.30752">
        <ele>246.17328</ele>
        <time>2014-09-28T17:38:08Z</time>
      </trkpt>
      <trkpt lat="45.62448" lon="5.30739">
        <ele>246.00974</ele>
        <time>2014-09-28T17:38:13Z</time>
      </trkpt>
      <trkpt lat="45.6245" lon="5.30728">
        <ele>246.00974</ele>
        <time>2014-09-28T17:38:18Z</time>
      </trkpt>
      <trkpt lat="45.62452" lon="5.30719">
        <ele>245.61378</ele>
        <time>2014-09-28T17:38:23Z</time>
      </trkpt>
      <trkpt lat="45.62454" lon="5.30708">
        <ele>245.61378</ele>
        <time>2014-09-28T17:38:28Z</time>
      </trkpt>
      <trkpt lat="45.62456" lon="5.30697">
        <ele>245.0618</ele>
        <time>2014-09-28T17:38:33Z</time>
      </trkpt>
      <trkpt lat="45.62462" lon="5.30691">
        <ele>245.0618</ele>
        <time>2014-09-28T17:38:38Z</time>
      </trkpt>
      <trkpt lat="45.62464" lon="5.30692">
        <ele>244.09358</ele>
        <time>2014-09-28T17:38:43Z</time>
      </trkpt>
      <trkpt lat="45.62472" lon="5.30697">
        <ele>244.09358</ele>
        <time>2014-09-28T17:38:48Z</time>
      </trkpt>
      <trkpt lat="45.62489" lon="5.30689">
        <ele>242.77187</ele>
        <time>2014-09-28T17:38:53Z</time>
      </trkpt>
      <trkpt lat="45.62514" lon="5.30678">
        <ele>241.42958</ele>
        <time>2014-09-28T17:38:58Z</time>
      </trkpt>
      <trkpt lat="45.62537" lon="5.30658">
        <ele>240.31763</ele>
        <time>2014-09-28T17:39:03Z</time>
      </trkpt>
      <trkpt lat="45.62555" lon="5.30633">
        <ele>239.29314</ele>
        <time>2014-09-28T17:39:08Z</time>
      </trkpt>
      <trkpt lat="45.62565" lon="5.30615">
        <ele>238.33875</ele>
        <time>2014-09-28T17:39:13Z</time>
      </trkpt>
      <trkpt lat="45.62572" lon="5.30607">
        <ele>237.45256</ele>
        <time>2014-09-28T17:39:18Z</time>
      </trkpt>
      <trkpt lat="45.62572" lon="5.30605">
        <ele>237.45256</ele>
        <time>2014-09-28T17:39:23Z</time>
      </trkpt>
      <trkpt lat="45.62566" lon="5.30591">
        <ele>236.58934</ele>
        <time>2014-09-28T17:39:33Z</time>
      </trkpt>
      <trkpt lat="45.62571" lon="5.30583">
        <ele>236.58934</ele>
        <time>2014-09-28T17:39:38Z</time>
      </trkpt>
      <trkpt lat="45.62577" lon="5.30571">
        <ele>235.5774</ele>
        <time>2014-09-28T17:39:43Z</time>
      </trkpt>
      <trkpt lat="45.6258" lon="5.30559">
        <ele>234.63269</ele>
        <time>2014-09-28T17:39:48Z</time>
      </trkpt>
      <trkpt lat="45.62582" lon="5.30548">
        <ele>234.63269</ele>
        <time>2014-09-28T17:39:53Z</time>
      </trkpt>
      <trkpt lat="45.62582" lon="5.30536">
        <ele>233.43626</ele>
        <time>2014-09-28T17:39:58Z</time>
      </trkpt>
      <trkpt lat="45.62582" lon="5.30524">
        <ele>233.43626</ele>
        <time>2014-09-28T17:40:03Z</time>
      </trkpt>
      <trkpt lat="45.6258" lon="5.30512">
        <ele>232.16881</ele>
        <time>2014-09-28T17:40:08Z</time>
      </trkpt>
      <trkpt lat="45.6258" lon="5.30501">
        <ele>232.16881</ele>
        <time>2014-09-28T17:40:13Z</time>
      </trkpt>
      <trkpt lat="45.62578" lon="5.30491">
        <ele>230.9114</ele>
        <time>2014-09-28T17:40:18Z</time>
      </trkpt>
      <trkpt lat="45.62577" lon="5.30479">
        <ele>230.9114</ele>
        <time>2014-09-28T17:40:23Z</time>
      </trkpt>
      <trkpt lat="45.62576" lon="5.30468">
        <ele>229.72469</ele>
        <time>2014-09-28T17:40:28Z</time>
      </trkpt>
      <trkpt lat="45.62576" lon="5.30454">
        <ele>228.83746</ele>
        <time>2014-09-28T17:40:33Z</time>
      </trkpt>
      <trkpt lat="45.62575" lon="5.30443">
        <ele>228.83746</ele>
        <time>2014-09-28T17:40:38Z</time>
      </trkpt>
      <trkpt lat="45.62575" lon="5.30431">
        <ele>228.14377</ele>
        <time>2014-09-28T17:40:43Z</time>
      </trkpt>
      <trkpt lat="45.62575" lon="5.30419">
        <ele>228.14377</ele>
        <time>2014-09-28T17:40:48Z</time>
      </trkpt>
      <trkpt lat="45.62575" lon="5.30408">
        <ele>227.6601</ele>
        <time>2014-09-28T17:40:53Z</time>
      </trkpt>
      <trkpt lat="45.62575" lon="5.30397">
        <ele>227.6601</ele>
        <time>2014-09-28T17:40:58Z</time>
      </trkpt>
      <trkpt lat="45.62574" lon="5.30387">
        <ele>227.09842</ele>
        <time>2014-09-28T17:41:03Z</time>
      </trkpt>
      <trkpt lat="45.62574" lon="5.30375">
        <ele>227.09842</ele>
        <time>2014-09-28T17:41:08Z</time>
      </trkpt>
      <trkpt lat="45.62576" lon="5.30365">
        <ele>226.07672</ele>
        <time>2014-09-28T17:41:13Z</time>
      </trkpt>
      <trkpt lat="45.62577" lon="5.30353">
        <ele>226.07672</ele>
        <time>2014-09-28T17:41:18Z</time>
      </trkpt>
      <trkpt lat="45.62577" lon="5.30341">
        <ele>225.16457</ele>
        <time>2014-09-28T17:41:23Z</time>
      </trkpt>
      <trkpt lat="45.62576" lon="5.3033">
        <ele>225.16457</ele>
        <time>2014-09-28T17:41:28Z</time>
      </trkpt>
      <trkpt lat="45.62576" lon="5.30318">
        <ele>224.34164</ele>
        <time>2014-09-28T17:41:33Z</time>
      </trkpt>
      <trkpt lat="45.62575" lon="5.30307">
        <ele>224.34164</ele>
        <time>2014-09-28T17:41:38Z</time>
      </trkpt>
      <trkpt lat="45.62573" lon="5.30296">
        <ele>223.60327</ele>
        <time>2014-09-28T17:41:43Z</time>
      </trkpt>
      <trkpt lat="45.62571" lon="5.30284">
        <ele>223.60327</ele>
        <time>2014-09-28T17:41:48Z</time>
      </trkpt>
      <trkpt lat="45.62569" lon="5.30273">
        <ele>223.14648</ele>
        <time>2014-09-28T17:41:53Z</time>
      </trkpt>
      <trkpt lat="45.62565" lon="5.30261">
        <ele>222.69188</ele>
        <time>2014-09-28T17:41:58Z</time>
      </trkpt>
      <trkpt lat="45.62563" lon="5.30252">
        <ele>222.69188</ele>
        <time>2014-09-28T17:42:03Z</time>
      </trkpt>
      <trkpt lat="45.62561" lon="5.30242">
        <ele>222.32631</ele>
        <time>2014-09-28T17:42:08Z</time>
      </trkpt>
      <trkpt lat="45.6256" lon="5.30232">
        <ele>222.32631</ele>
        <time>2014-09-28T17:42:13Z</time>
      </trkpt>
      <trkpt lat="45.62557" lon="5.30222">
        <ele>222.02908</ele>
        <time>2014-09-28T17:42:18Z</time>
      </trkpt>
      <trkpt lat="45.62554" lon="5.30211">
        <ele>222.02908</ele>
        <time>2014-09-28T17:42:23Z</time>
      </trkpt>
      <trkpt lat="45.62549" lon="5.30199">
        <ele>221.98253</ele>
        <time>2014-09-28T17:42:28Z</time>
      </trkpt>
      <trkpt lat="45.62545" lon="5.30188">
        <ele>221.98253</ele>
        <time>2014-09-28T17:42:33Z</time>
      </trkpt>
      <trkpt lat="45.62543" lon="5.30177">
        <ele>222.39804</ele>
        <time>2014-09-28T17:42:38Z</time>
      </trkpt>
      <trkpt lat="45.62541" lon="5.30165">
        <ele>222.39804</ele>
        <time>2014-09-28T17:42:43Z</time>
      </trkpt>
      <trkpt lat="45.62537" lon="5.30156">
        <ele>222.9225</ele>
        <time>2014-09-28T17:42:48Z</time>
      </trkpt>
      <trkpt lat="45.62534" lon="5.30146">
        <ele>222.9225</ele>
        <time>2014-09-28T17:42:53Z</time>
      </trkpt>
      <trkpt lat="45.6253" lon="5.30134">
        <ele>223.459</ele>
        <time>2014-09-28T17:42:58Z</time>
      </trkpt>
      <trkpt lat="45.62527" lon="5.30127">
        <ele>223.459</ele>
        <time>2014-09-28T17:43:03Z</time>
      </trkpt>
      <trkpt lat="45.62526" lon="5.30117">
        <ele>223.8888</ele>
        <time>2014-09-28T17:43:08Z</time>
      </trkpt>
      <trkpt lat="45.62523" lon="5.30105">
        <ele>224.14545</ele>
        <time>2014-09-28T17:43:13Z</time>
      </trkpt>
      <trkpt lat="45.62521" lon="5.30095">
        <ele>224.14545</ele>
        <time>2014-09-28T17:43:18Z</time>
      </trkpt>
      <trkpt lat="45.62519" lon="5.30084">
        <ele>224.42723</ele>
        <time>2014-09-28T17:43:23Z</time>
      </trkpt>
      <trkpt lat="45.62517" lon="5.30071">
        <ele>224.42723</ele>
        <time>2014-09-28T17:43:28Z</time>
      </trkpt>
      <trkpt lat="45.62515" lon="5.30064">
        <ele>224.78806</ele>
        <time>2014-09-28T17:43:33Z</time>
      </trkpt>
      <trkpt lat="45.62513" lon="5.30053">
        <ele>224.78806</ele>
        <time>2014-09-28T17:43:38Z</time>
      </trkpt>
      <trkpt lat="45.62511" lon="5.3004">
        <ele>224.93181</ele>
        <time>2014-09-28T17:43:43Z</time>
      </trkpt>
      <trkpt lat="45.62508" lon="5.30031">
        <ele>224.93181</ele>
        <time>2014-09-28T17:43:48Z</time>
      </trkpt>
      <trkpt lat="45.62506" lon="5.30016">
        <ele>224.94504</ele>
        <time>2014-09-28T17:43:53Z</time>
      </trkpt>
      <trkpt lat="45.62502" lon="5.30008">
        <ele>224.94504</ele>
        <time>2014-09-28T17:43:58Z</time>
      </trkpt>
      <trkpt lat="45.62503" lon="5.29997">
        <ele>224.87944</ele>
        <time>2014-09-28T17:44:03Z</time>
      </trkpt>
      <trkpt lat="45.62502" lon="5.29984">
        <ele>224.87944</ele>
        <time>2014-09-28T17:44:08Z</time>
      </trkpt>
      <trkpt lat="45.62502" lon="5.29976">
        <ele>224.99936</ele>
        <time>2014-09-28T17:44:13Z</time>
      </trkpt>
      <trkpt lat="45.62501" lon="5.29962">
        <ele>224.9439</ele>
        <time>2014-09-28T17:44:18Z</time>
      </trkpt>
      <trkpt lat="45.62501" lon="5.29953">
        <ele>224.9439</ele>
        <time>2014-09-28T17:44:23Z</time>
      </trkpt>
      <trkpt lat="45.62499" lon="5.29942">
        <ele>225.04211</ele>
        <time>2014-09-28T17:44:28Z</time>
      </trkpt>
      <trkpt lat="45.62499" lon="5.29931">
        <ele>225.04211</ele>
        <time>2014-09-28T17:44:33Z</time>
      </trkpt>
      <trkpt lat="45.62497" lon="5.29918">
        <ele>225.10854</ele>
        <time>2014-09-28T17:44:38Z</time>
      </trkpt>
      <trkpt lat="45.62496" lon="5.29909">
        <ele>225.10854</ele>
        <time>2014-09-28T17:44:43Z</time>
      </trkpt>
      <trkpt lat="45.62495" lon="5.29896">
        <ele>225.1587</ele>
        <time>2014-09-28T17:44:48Z</time>
      </trkpt>
      <trkpt lat="45.62493" lon="5.29886">
        <ele>225.1587</ele>
        <time>2014-09-28T17:44:53Z</time>
      </trkpt>
      <trkpt lat="45.62492" lon="5.29872">
        <ele>225.30801</ele>
        <time>2014-09-28T17:44:58Z</time>
      </trkpt>
      <trkpt lat="45.6249" lon="5.29856">
        <ele>225.519</ele>
        <time>2014-09-28T17:45:04Z</time>
      </trkpt>
      <trkpt lat="45.62489" lon="5.29848">
        <ele>225.519</ele>
        <time>2014-09-28T17:45:08Z</time>
      </trkpt>
      <trkpt lat="45.62489" lon="5.29838">
        <ele>225.71358</ele>
        <time>2014-09-28T17:45:13Z</time>
      </trkpt>
      <trkpt lat="45.62488" lon="5.29825">
        <ele>225.89151</ele>
        <time>2014-09-28T17:45:18Z</time>
      </trkpt>
      <trkpt lat="45.62487" lon="5.29815">
        <ele>225.89151</ele>
        <time>2014-09-28T17:45:23Z</time>
      </trkpt>
      <trkpt lat="45.62486" lon="5.29804">
        <ele>225.96622</ele>
        <time>2014-09-28T17:45:28Z</time>
      </trkpt>
      <trkpt lat="45.62485" lon="5.29795">
        <ele>225.96622</ele>
        <time>2014-09-28T17:45:33Z</time>
      </trkpt>
      <trkpt lat="45.62484" lon="5.29784">
        <ele>225.90102</ele>
        <time>2014-09-28T17:45:38Z</time>
      </trkpt>
      <trkpt lat="45.62484" lon="5.29771">
        <ele>225.90102</ele>
        <time>2014-09-28T17:45:43Z</time>
      </trkpt>
      <trkpt lat="45.62483" lon="5.29759">
        <ele>225.83527</ele>
        <time>2014-09-28T17:45:48Z</time>
      </trkpt>
      <trkpt lat="45.62481" lon="5.29749">
        <ele>225.83527</ele>
        <time>2014-09-28T17:45:54Z</time>
      </trkpt>
      <trkpt lat="45.6248" lon="5.29739">
        <ele>225.53786</ele>
        <time>2014-09-28T17:45:58Z</time>
      </trkpt>
      <trkpt lat="45.62478" lon="5.29727">
        <ele>225.53786</ele>
        <time>2014-09-28T17:46:03Z</time>
      </trkpt>
      <trkpt lat="45.62478" lon="5.29716">
        <ele>225.1268</ele>
        <time>2014-09-28T17:46:09Z</time>
      </trkpt>
      <trkpt lat="45.62476" lon="5.29703">
        <ele>224.68297</ele>
        <time>2014-09-28T17:46:13Z</time>
      </trkpt>
      <trkpt lat="45.62473" lon="5.29679">
        <ele>224.25256</ele>
        <time>2014-09-28T17:46:18Z</time>
      </trkpt>
      <trkpt lat="45.62471" lon="5.29656">
        <ele>223.83514</ele>
        <time>2014-09-28T17:46:23Z</time>
      </trkpt>
      <trkpt lat="45.62468" lon="5.29637">
        <ele>223.43031</ele>
        <time>2014-09-28T17:46:28Z</time>
      </trkpt>
      <trkpt lat="45.62466" lon="5.29626">
        <ele>223.43031</ele>
        <time>2014-09-28T17:46:33Z</time>
      </trkpt>
      <trkpt lat="45.62464" lon="5.29613">
        <ele>223.06648</ele>
        <time>2014-09-28T17:46:38Z</time>
      </trkpt>
      <trkpt lat="45.62462" lon="5.29604">
        <ele>223.06648</ele>
        <time>2014-09-28T17:46:43Z</time>
      </trkpt>
      <trkpt lat="45.62461" lon="5.2959">
        <ele>222.74106</ele>
        <time>2014-09-28T17:46:48Z</time>
      </trkpt>
      <trkpt lat="45.62459" lon="5.29579">
        <ele>222.74106</ele>
        <time>2014-09-28T17:46:53Z</time>
      </trkpt>
      <trkpt lat="45.62456" lon="5.29568">
        <ele>222.52359</ele>
        <time>2014-09-28T17:46:58Z</time>
      </trkpt>
      <trkpt lat="45.62456" lon="5.2955">
        <ele>222.33414</ele>
        <time>2014-09-28T17:47:03Z</time>
      </trkpt>
      <trkpt lat="45.62453" lon="5.29524">
        <ele>222.14175</ele>
        <time>2014-09-28T17:47:08Z</time>
      </trkpt>
      <trkpt lat="45.6245" lon="5.29497">
        <ele>221.94666</ele>
        <time>2014-09-28T17:47:13Z</time>
      </trkpt>
      <trkpt lat="45.62446" lon="5.2947">
        <ele>221.77783</ele>
        <time>2014-09-28T17:47:18Z</time>
      </trkpt>
      <trkpt lat="45.62442" lon="5.29449">
        <ele>221.6621</ele>
        <time>2014-09-28T17:47:23Z</time>
      </trkpt>
      <trkpt lat="45.62437" lon="5.29414">
        <ele>221.69621</ele>
        <time>2014-09-28T17:47:28Z</time>
      </trkpt>
      <trkpt lat="45.62433" lon="5.29378">
        <ele>221.82532</ele>
        <time>2014-09-28T17:47:33Z</time>
      </trkpt>
      <trkpt lat="45.62429" lon="5.29347">
        <ele>221.92622</ele>
        <time>2014-09-28T17:47:38Z</time>
      </trkpt>
      <trkpt lat="45.62422" lon="5.293">
        <ele>221.97139</ele>
        <time>2014-09-28T17:47:43Z</time>
      </trkpt>
      <trkpt lat="45.6242" lon="5.29262">
        <ele>221.94987</ele>
        <time>2014-09-28T17:47:48Z</time>
      </trkpt>
      <trkpt lat="45.62419" lon="5.29231">
        <ele>221.82288</ele>
        <time>2014-09-28T17:47:53Z</time>
      </trkpt>
      <trkpt lat="45.6242" lon="5.29179">
        <ele>221.61246</ele>
        <time>2014-09-28T17:47:58Z</time>
      </trkpt>
      <trkpt lat="45.62415" lon="5.29136">
        <ele>221.19516</ele>
        <time>2014-09-28T17:48:03Z</time>
      </trkpt>
      <trkpt lat="45.62411" lon="5.29106">
        <ele>220.73097</ele>
        <time>2014-09-28T17:48:08Z</time>
      </trkpt>
      <trkpt lat="45.6241" lon="5.29079">
        <ele>220.45479</ele>
        <time>2014-09-28T17:48:13Z</time>
      </trkpt>
      <trkpt lat="45.62409" lon="5.29058">
        <ele>220.26665</ele>
        <time>2014-09-28T17:48:18Z</time>
      </trkpt>
      <trkpt lat="45.6241" lon="5.29028">
        <ele>219.98723</ele>
        <time>2014-09-28T17:48:23Z</time>
      </trkpt>
      <trkpt lat="45.62407" lon="5.28984">
        <ele>219.66682</ele>
        <time>2014-09-28T17:48:28Z</time>
      </trkpt>
      <trkpt lat="45.62407" lon="5.28947">
        <ele>219.39536</ele>
        <time>2014-09-28T17:48:33Z</time>
      </trkpt>
      <trkpt lat="45.62403" lon="5.28914">
        <ele>219.08308</ele>
        <time>2014-09-28T17:48:38Z</time>
      </trkpt>
      <trkpt lat="45.62402" lon="5.28861">
        <ele>218.9352</ele>
        <time>2014-09-28T17:48:43Z</time>
      </trkpt>
      <trkpt lat="45.62402" lon="5.28831">
        <ele>218.95401</ele>
        <time>2014-09-28T17:48:48Z</time>
      </trkpt>
      <trkpt lat="45.62401" lon="5.28818">
        <ele>219.08354</ele>
        <time>2014-09-28T17:48:53Z</time>
      </trkpt>
      <trkpt lat="45.62403" lon="5.28805">
        <ele>219.28604</ele>
        <time>2014-09-28T17:48:58Z</time>
      </trkpt>
      <trkpt lat="45.62402" lon="5.28797">
        <ele>219.28604</ele>
        <time>2014-09-28T17:49:03Z</time>
      </trkpt>
      <trkpt lat="45.62404" lon="5.28774">
        <ele>219.43983</ele>
        <time>2014-09-28T17:49:13Z</time>
      </trkpt>
      <trkpt lat="45.62404" lon="5.28762">
        <ele>219.43983</ele>
        <time>2014-09-28T17:49:19Z</time>
      </trkpt>
      <trkpt lat="45.62404" lon="5.2875">
        <ele>219.70618</ele>
        <time>2014-09-28T17:49:23Z</time>
      </trkpt>
      <trkpt lat="45.62404" lon="5.28738">
        <ele>219.70618</ele>
        <time>2014-09-28T17:49:28Z</time>
      </trkpt>
      <trkpt lat="45.62404" lon="5.28729">
        <ele>220.14766</ele>
        <time>2014-09-28T17:49:33Z</time>
      </trkpt>
      <trkpt lat="45.62404" lon="5.28719">
        <ele>220.14766</ele>
        <time>2014-09-28T17:49:38Z</time>
      </trkpt>
      <trkpt lat="45.62403" lon="5.28708">
        <ele>220.79303</ele>
        <time>2014-09-28T17:49:43Z</time>
      </trkpt>
      <trkpt lat="45.62403" lon="5.28697">
        <ele>220.79303</ele>
        <time>2014-09-28T17:49:48Z</time>
      </trkpt>
      <trkpt lat="45.62405" lon="5.28685">
        <ele>221.55301</ele>
        <time>2014-09-28T17:49:53Z</time>
      </trkpt>
      <trkpt lat="45.62404" lon="5.28674">
        <ele>221.55301</ele>
        <time>2014-09-28T17:49:58Z</time>
      </trkpt>
      <trkpt lat="45.62403" lon="5.28663">
        <ele>222.18611</ele>
        <time>2014-09-28T17:50:03Z</time>
      </trkpt>
      <trkpt lat="45.62403" lon="5.28653">
        <ele>222.18611</ele>
        <time>2014-09-28T17:50:08Z</time>
      </trkpt>
      <trkpt lat="45.62403" lon="5.28643">
        <ele>222.58423</ele>
        <time>2014-09-28T17:50:13Z</time>
      </trkpt>
      <trkpt lat="45.62402" lon="5.28632">
        <ele>222.58423</ele>
        <time>2014-09-28T17:50:18Z</time>
      </trkpt>
      <trkpt lat="45.624" lon="5.2862">
        <ele>222.9217</ele>
        <time>2014-09-28T17:50:23Z</time>
      </trkpt>
      <trkpt lat="45.62398" lon="5.28609">
        <ele>222.9217</ele>
        <time>2014-09-28T17:50:28Z</time>
      </trkpt>
      <trkpt lat="45.62397" lon="5.28599">
        <ele>223.18736</ele>
        <time>2014-09-28T17:50:33Z</time>
      </trkpt>
      <trkpt lat="45.62395" lon="5.28587">
        <ele>223.18736</ele>
        <time>2014-09-28T17:50:38Z</time>
      </trkpt>
      <trkpt lat="45.62394" lon="5.28576">
        <ele>223.39986</ele>
        <time>2014-09-28T17:50:43Z</time>
      </trkpt>
      <trkpt lat="45.62392" lon="5.28565">
        <ele>223.39986</ele>
        <time>2014-09-28T17:50:48Z</time>
      </trkpt>
      <trkpt lat="45.62391" lon="5.28555">
        <ele>223.38936</ele>
        <time>2014-09-28T17:50:53Z</time>
      </trkpt>
      <trkpt lat="45.62391" lon="5.28543">
        <ele>223.38936</ele>
        <time>2014-09-28T17:50:58Z</time>
      </trkpt>
      <trkpt lat="45.62389" lon="5.28531">
        <ele>223.38824</ele>
        <time>2014-09-28T17:51:03Z</time>
      </trkpt>
      <trkpt lat="45.62388" lon="5.28521">
        <ele>223.38824</ele>
        <time>2014-09-28T17:51:08Z</time>
      </trkpt>
      <trkpt lat="45.62388" lon="5.28511">
        <ele>223.36685</ele>
        <time>2014-09-28T17:51:13Z</time>
      </trkpt>
      <trkpt lat="45.62386" lon="5.28502">
        <ele>223.36685</ele>
        <time>2014-09-28T17:51:18Z</time>
      </trkpt>
      <trkpt lat="45.62386" lon="5.28494">
        <ele>223.21129</ele>
        <time>2014-09-28T17:51:23Z</time>
      </trkpt>
      <trkpt lat="45.62385" lon="5.28482">
        <ele>223.21129</ele>
        <time>2014-09-28T17:51:28Z</time>
      </trkpt>
      <trkpt lat="45.62383" lon="5.28471">
        <ele>223.1047</ele>
        <time>2014-09-28T17:51:33Z</time>
      </trkpt>
      <trkpt lat="45.62383" lon="5.28459">
        <ele>223.1047</ele>
        <time>2014-09-28T17:51:39Z</time>
      </trkpt>
      <trkpt lat="45.62382" lon="5.28449">
        <ele>222.91402</ele>
        <time>2014-09-28T17:51:43Z</time>
      </trkpt>
      <trkpt lat="45.62381" lon="5.28439">
        <ele>222.91402</ele>
        <time>2014-09-28T17:51:48Z</time>
      </trkpt>
      <trkpt lat="45.62381" lon="5.28428">
        <ele>222.77557</ele>
        <time>2014-09-28T17:51:53Z</time>
      </trkpt>
      <trkpt lat="45.6238" lon="5.28417">
        <ele>222.77557</ele>
        <time>2014-09-28T17:51:58Z</time>
      </trkpt>
      <trkpt lat="45.62379" lon="5.28405">
        <ele>222.74353</ele>
        <time>2014-09-28T17:52:03Z</time>
      </trkpt>
      <trkpt lat="45.62378" lon="5.28394">
        <ele>222.74353</ele>
        <time>2014-09-28T17:52:08Z</time>
      </trkpt>
      <trkpt lat="45.62376" lon="5.28385">
        <ele>222.44987</ele>
        <time>2014-09-28T17:52:13Z</time>
      </trkpt>
      <trkpt lat="45.62374" lon="5.28377">
        <ele>222.44987</ele>
        <time>2014-09-28T17:52:18Z</time>
      </trkpt>
      <trkpt lat="45.62371" lon="5.28365">
        <ele>222.28934</ele>
        <time>2014-09-28T17:52:23Z</time>
      </trkpt>
      <trkpt lat="45.62368" lon="5.28353">
        <ele>222.28934</ele>
        <time>2014-09-28T17:52:28Z</time>
      </trkpt>
      <trkpt lat="45.62366" lon="5.28343">
        <ele>222.56964</ele>
        <time>2014-09-28T17:52:33Z</time>
      </trkpt>
      <trkpt lat="45.62363" lon="5.28333">
        <ele>222.56964</ele>
        <time>2014-09-28T17:52:38Z</time>
      </trkpt>
      <trkpt lat="45.6236" lon="5.28323">
        <ele>222.86852</ele>
        <time>2014-09-28T17:52:43Z</time>
      </trkpt>
      <trkpt lat="45.62356" lon="5.28314">
        <ele>222.86852</ele>
        <time>2014-09-28T17:52:48Z</time>
      </trkpt>
      <trkpt lat="45.62352" lon="5.28304">
        <ele>223.29909</ele>
        <time>2014-09-28T17:52:53Z</time>
      </trkpt>
      <trkpt lat="45.62349" lon="5.28295">
        <ele>223.29909</ele>
        <time>2014-09-28T17:52:58Z</time>
      </trkpt>
      <trkpt lat="45.62347" lon="5.28288">
        <ele>223.64877</ele>
        <time>2014-09-28T17:53:03Z</time>
      </trkpt>
      <trkpt lat="45.6234" lon="5.28287">
        <ele>223.64877</ele>
        <time>2014-09-28T17:53:08Z</time>
      </trkpt>
      <trkpt lat="45.62332" lon="5.28291">
        <ele>223.98024</ele>
        <time>2014-09-28T17:53:13Z</time>
      </trkpt>
      <trkpt lat="45.62326" lon="5.28296">
        <ele>223.98024</ele>
        <time>2014-09-28T17:53:18Z</time>
      </trkpt>
      <trkpt lat="45.62318" lon="5.283">
        <ele>224.20749</ele>
        <time>2014-09-28T17:53:23Z</time>
      </trkpt>
      <trkpt lat="45.62311" lon="5.28304">
        <ele>224.20749</ele>
        <time>2014-09-28T17:53:28Z</time>
      </trkpt>
      <trkpt lat="45.62305" lon="5.28309">
        <ele>224.49615</ele>
        <time>2014-09-28T17:53:33Z</time>
      </trkpt>
      <trkpt lat="45.62298" lon="5.28312">
        <ele>224.49615</ele>
        <time>2014-09-28T17:53:38Z</time>
      </trkpt>
      <trkpt lat="45.62291" lon="5.28316">
        <ele>224.94193</ele>
        <time>2014-09-28T17:53:43Z</time>
      </trkpt>
      <trkpt lat="45.62283" lon="5.2832">
        <ele>224.94193</ele>
        <time>2014-09-28T17:53:48Z</time>
      </trkpt>
      <trkpt lat="45.62279" lon="5.28326">
        <ele>225.5177</ele>
        <time>2014-09-28T17:53:53Z</time>
      </trkpt>
      <trkpt lat="45.62274" lon="5.28335">
        <ele>225.5177</ele>
        <time>2014-09-28T17:53:58Z</time>
      </trkpt>
      <trkpt lat="45.62271" lon="5.28339">
        <ele>226.29895</ele>
        <time>2014-09-28T17:54:03Z</time>
      </trkpt>
      <trkpt lat="45.62269" lon="5.28352">
        <ele>227.18211</ele>
        <time>2014-09-28T17:54:08Z</time>
      </trkpt>
      <trkpt lat="45.62266" lon="5.28363">
        <ele>227.18211</ele>
        <time>2014-09-28T17:54:13Z</time>
      </trkpt>
      <trkpt lat="45.62265" lon="5.28366">
        <ele>228.27269</ele>
        <time>2014-09-28T17:54:18Z</time>
      </trkpt>
      <trkpt lat="45.6226" lon="5.2838">
        <ele>229.74</ele>
        <time>2014-09-28T17:54:23Z</time>
      </trkpt>
      <trkpt lat="45.6226" lon="5.28394">
        <ele>231.36517</ele>
        <time>2014-09-28T17:54:28Z</time>
      </trkpt>
      <trkpt lat="45.6226" lon="5.284">
        <ele>231.36517</ele>
        <time>2014-09-28T17:54:33Z</time>
      </trkpt>
      <trkpt lat="45.62253" lon="5.28395">
        <ele>233.59355</ele>
        <time>2014-09-28T17:54:43Z</time>
      </trkpt>
      <trkpt lat="45.62248" lon="5.28386">
        <ele>233.59355</ele>
        <time>2014-09-28T17:54:48Z</time>
      </trkpt>
      <trkpt lat="45.62247" lon="5.28379">
        <ele>235.88498</ele>
        <time>2014-09-28T17:54:53Z</time>
      </trkpt>
      <trkpt lat="45.62244" lon="5.28352">
        <ele>238.57472</ele>
        <time>2014-09-28T17:55:03Z</time>
      </trkpt>
      <trkpt lat="45.62239" lon="5.28336">
        <ele>241.223</ele>
        <time>2014-09-28T17:55:08Z</time>
      </trkpt>
      <trkpt lat="45.62238" lon="5.28333">
        <ele>241.223</ele>
        <time>2014-09-28T17:55:13Z</time>
      </trkpt>
      <trkpt lat="45.62227" lon="5.28296">
        <ele>244.15756</ele>
        <time>2014-09-28T17:55:38Z</time>
      </trkpt>
      <trkpt lat="45.62218" lon="5.28276">
        <ele>247.03284</ele>
        <time>2014-09-28T17:55:53Z</time>
      </trkpt>
      <trkpt lat="45.62215" lon="5.28267">
        <ele>247.03284</ele>
        <time>2014-09-28T17:55:58Z</time>
      </trkpt>
      <trkpt lat="45.62214" lon="5.28263">
        <ele>249.57216</ele>
        <time>2014-09-28T17:56:03Z</time>
      </trkpt>
      <trkpt lat="45.62202" lon="5.28221">
        <ele>252.11118</ele>
        <time>2014-09-28T17:56:23Z</time>
      </trkpt>
      <trkpt lat="45.62198" lon="5.28212">
        <ele>252.11118</ele>
        <time>2014-09-28T17:56:28Z</time>
      </trkpt>
      <trkpt lat="45.62195" lon="5.28206">
        <ele>254.28363</ele>
        <time>2014-09-28T17:56:33Z</time>
      </trkpt>
      <trkpt lat="45.6219" lon="5.28195">
        <ele>254.28363</ele>
        <time>2014-09-28T17:56:38Z</time>
      </trkpt>
      <trkpt lat="45.62188" lon="5.28188">
        <ele>256.16934</ele>
        <time>2014-09-28T17:56:43Z</time>
      </trkpt>
      <trkpt lat="45.62177" lon="5.28162">
        <ele>257.20908</ele>
        <time>2014-09-28T17:56:58Z</time>
      </trkpt>
      <trkpt lat="45.62172" lon="5.28152">
        <ele>257.20908</ele>
        <time>2014-09-28T17:57:03Z</time>
      </trkpt>
      <trkpt lat="45.62168" lon="5.28143">
        <ele>257.85275</ele>
        <time>2014-09-28T17:57:08Z</time>
      </trkpt>
      <trkpt lat="45.62164" lon="5.28133">
        <ele>257.85275</ele>
        <time>2014-09-28T17:57:13Z</time>
      </trkpt>
      <trkpt lat="45.6216" lon="5.28123">
        <ele>258.23032</ele>
        <time>2014-09-28T17:57:18Z</time>
      </trkpt>
      <trkpt lat="45.62157" lon="5.28114">
        <ele>258.23032</ele>
        <time>2014-09-28T17:57:23Z</time>
      </trkpt>
      <trkpt lat="45.62153" lon="5.28107">
        <ele>258.3189</ele>
        <time>2014-09-28T17:57:28Z</time>
      </trkpt>
      <trkpt lat="45.62149" lon="5.28097">
        <ele>258.3189</ele>
        <time>2014-09-28T17:57:33Z</time>
      </trkpt>
      <trkpt lat="45.62146" lon="5.28089">
        <ele>258.06943</ele>
        <time>2014-09-28T17:57:38Z</time>
      </trkpt>
      <trkpt lat="45.62142" lon="5.2808">
        <ele>258.06943</ele>
        <time>2014-09-28T17:57:43Z</time>
      </trkpt>
      <trkpt lat="45.62137" lon="5.28073">
        <ele>257.66806</ele>
        <time>2014-09-28T17:57:48Z</time>
      </trkpt>
      <trkpt lat="45.6213" lon="5.28065">
        <ele>257.66806</ele>
        <time>2014-09-28T17:57:53Z</time>
      </trkpt>
      <trkpt lat="45.62124" lon="5.28059">
        <ele>257.20135</ele>
        <time>2014-09-28T17:57:58Z</time>
      </trkpt>
      <trkpt lat="45.62119" lon="5.28053">
        <ele>257.20135</ele>
        <time>2014-09-28T17:58:03Z</time>
      </trkpt>
      <trkpt lat="45.62113" lon="5.28047">
        <ele>256.2742</ele>
        <time>2014-09-28T17:58:08Z</time>
      </trkpt>
      <trkpt lat="45.62107" lon="5.28042">
        <ele>256.2742</ele>
        <time>2014-09-28T17:58:13Z</time>
      </trkpt>
      <trkpt lat="45.62099" lon="5.28038">
        <ele>254.96854</ele>
        <time>2014-09-28T17:58:18Z</time>
      </trkpt>
      <trkpt lat="45.62093" lon="5.28035">
        <ele>254.96854</ele>
        <time>2014-09-28T17:58:23Z</time>
      </trkpt>
      <trkpt lat="45.62089" lon="5.28033">
        <ele>253.49118</ele>
        <time>2014-09-28T17:58:28Z</time>
      </trkpt>
      <trkpt lat="45.62084" lon="5.28013">
        <ele>252.0486</ele>
        <time>2014-09-28T17:58:38Z</time>
      </trkpt>
      <trkpt lat="45.6209" lon="5.28004">
        <ele>250.78879</ele>
        <time>2014-09-28T17:58:43Z</time>
      </trkpt>
      <trkpt lat="45.62095" lon="5.27996">
        <ele>250.78879</ele>
        <time>2014-09-28T17:58:48Z</time>
      </trkpt>
      <trkpt lat="45.62098" lon="5.27988">
        <ele>249.4304</ele>
        <time>2014-09-28T17:58:53Z</time>
      </trkpt>
      <trkpt lat="45.62101" lon="5.2798">
        <ele>249.4304</ele>
        <time>2014-09-28T17:58:58Z</time>
      </trkpt>
      <trkpt lat="45.62104" lon="5.27971">
        <ele>247.69861</ele>
        <time>2014-09-28T17:59:03Z</time>
      </trkpt>
      <trkpt lat="45.62107" lon="5.27964">
        <ele>247.69861</ele>
        <time>2014-09-28T17:59:08Z</time>
      </trkpt>
      <trkpt lat="45.62106" lon="5.27953">
        <ele>245.59914</ele>
        <time>2014-09-28T17:59:13Z</time>
      </trkpt>
      <trkpt lat="45.62103" lon="5.27943">
        <ele>245.59914</ele>
        <time>2014-09-28T17:59:18Z</time>
      </trkpt>
      <trkpt lat="45.62098" lon="5.27931">
        <ele>243.81557</ele>
        <time>2014-09-28T17:59:23Z</time>
      </trkpt>
      <trkpt lat="45.62093" lon="5.27926">
        <ele>243.81557</ele>
        <time>2014-09-28T17:59:28Z</time>
      </trkpt>
      <trkpt lat="45.62088" lon="5.27918">
        <ele>241.69772</ele>
        <time>2014-09-28T17:59:33Z</time>
      </trkpt>
      <trkpt lat="45.62082" lon="5.27911">
        <ele>241.69772</ele>
        <time>2014-09-28T17:59:38Z</time>
      </trkpt>
      <trkpt lat="45.62076" lon="5.27903">
        <ele>239.45105</ele>
        <time>2014-09-28T17:59:43Z</time>
      </trkpt>
      <trkpt lat="45.62069" lon="5.27896">
        <ele>239.45105</ele>
        <time>2014-09-28T17:59:48Z</time>
      </trkpt>
      <trkpt lat="45.62062" lon="5.27887">
        <ele>237.20845</ele>
        <time>2014-09-28T17:59:53Z</time>
      </trkpt>
      <trkpt lat="45.62058" lon="5.27885">
        <ele>237.20845</ele>
        <time>2014-09-28T17:59:58Z</time>
      </trkpt>
      <trkpt lat="45.62051" lon="5.27877">
        <ele>235.19386</ele>
        <time>2014-09-28T18:00:03Z</time>
      </trkpt>
      <trkpt lat="45.62045" lon="5.27869">
        <ele>235.19386</ele>
        <time>2014-09-28T18:00:08Z</time>
      </trkpt>
      <trkpt lat="45.62038" lon="5.27862">
        <ele>233.41216</ele>
        <time>2014-09-28T18:00:13Z</time>
      </trkpt>
      <trkpt lat="45.62032" lon="5.27855">
        <ele>233.41216</ele>
        <time>2014-09-28T18:00:18Z</time>
      </trkpt>
      <trkpt lat="45.62026" lon="5.27848">
        <ele>231.96797</ele>
        <time>2014-09-28T18:00:23Z</time>
      </trkpt>
      <trkpt lat="45.62019" lon="5.27842">
        <ele>231.96797</ele>
        <time>2014-09-28T18:00:28Z</time>
      </trkpt>
      <trkpt lat="45.62013" lon="5.27835">
        <ele>230.49594</ele>
        <time>2014-09-28T18:00:33Z</time>
      </trkpt>
      <trkpt lat="45.62007" lon="5.2783">
        <ele>230.49594</ele>
        <time>2014-09-28T18:00:38Z</time>
      </trkpt>
      <trkpt lat="45.62001" lon="5.27824">
        <ele>229.06102</ele>
        <time>2014-09-28T18:00:43Z</time>
      </trkpt>
      <trkpt lat="45.61994" lon="5.2782">
        <ele>229.06102</ele>
        <time>2014-09-28T18:00:48Z</time>
      </trkpt>
      <trkpt lat="45.61987" lon="5.27815">
        <ele>227.59335</ele>
        <time>2014-09-28T18:00:53Z</time>
      </trkpt>
      <trkpt lat="45.6198" lon="5.27809">
        <ele>227.59335</ele>
        <time>2014-09-28T18:00:58Z</time>
      </trkpt>
      <trkpt lat="45.61973" lon="5.27804">
        <ele>226.3596</ele>
        <time>2014-09-28T18:01:03Z</time>
      </trkpt>
      <trkpt lat="45.61966" lon="5.27798">
        <ele>226.3596</ele>
        <time>2014-09-28T18:01:08Z</time>
      </trkpt>
      <trkpt lat="45.61959" lon="5.27793">
        <ele>225.57722</ele>
        <time>2014-09-28T18:01:13Z</time>
      </trkpt>
      <trkpt lat="45.61951" lon="5.27789">
        <ele>225.57722</ele>
        <time>2014-09-28T18:01:18Z</time>
      </trkpt>
      <trkpt lat="45.61944" lon="5.27785">
        <ele>224.84094</ele>
        <time>2014-09-28T18:01:23Z</time>
      </trkpt>
      <trkpt lat="45.61936" lon="5.2778">
        <ele>224.84094</ele>
        <time>2014-09-28T18:01:28Z</time>
      </trkpt>
      <trkpt lat="45.61928" lon="5.27776">
        <ele>224.10645</ele>
        <time>2014-09-28T18:01:33Z</time>
      </trkpt>
      <trkpt lat="45.6192" lon="5.27772">
        <ele>224.10645</ele>
        <time>2014-09-28T18:01:38Z</time>
      </trkpt>
      <trkpt lat="45.61913" lon="5.27768">
        <ele>223.77924</ele>
        <time>2014-09-28T18:01:43Z</time>
      </trkpt>
      <trkpt lat="45.61905" lon="5.27765">
        <ele>223.77924</ele>
        <time>2014-09-28T18:01:48Z</time>
      </trkpt>
      <trkpt lat="45.61897" lon="5.27764">
        <ele>223.2826</ele>
        <time>2014-09-28T18:01:53Z</time>
      </trkpt>
      <trkpt lat="45.6189" lon="5.2776">
        <ele>223.2826</ele>
        <time>2014-09-28T18:01:58Z</time>
      </trkpt>
      <trkpt lat="45.61882" lon="5.27757">
        <ele>222.96158</ele>
        <time>2014-09-28T18:02:03Z</time>
      </trkpt>
      <trkpt lat="45.61874" lon="5.27754">
        <ele>222.96158</ele>
        <time>2014-09-28T18:02:08Z</time>
      </trkpt>
      <trkpt lat="45.61868" lon="5.27752">
        <ele>222.53</ele>
        <time>2014-09-28T18:02:13Z</time>
      </trkpt>
      <trkpt lat="45.61861" lon="5.2775">
        <ele>222.53</ele>
        <time>2014-09-28T18:02:18Z</time>
      </trkpt>
      <trkpt lat="45.61853" lon="5.27747">
        <ele>222.1552</ele>
        <time>2014-09-28T18:02:23Z</time>
      </trkpt>
      <trkpt lat="45.61845" lon="5.27743">
        <ele>222.1552</ele>
        <time>2014-09-28T18:02:28Z</time>
      </trkpt>
      <trkpt lat="45.61838" lon="5.2774">
        <ele>221.83342</ele>
        <time>2014-09-28T18:02:33Z</time>
      </trkpt>
      <trkpt lat="45.61832" lon="5.27736">
        <ele>221.83342</ele>
        <time>2014-09-28T18:02:38Z</time>
      </trkpt>
      <trkpt lat="45.61825" lon="5.27733">
        <ele>221.33035</ele>
        <time>2014-09-28T18:02:43Z</time>
      </trkpt>
      <trkpt lat="45.61818" lon="5.27729">
        <ele>221.33035</ele>
        <time>2014-09-28T18:02:48Z</time>
      </trkpt>
      <trkpt lat="45.6181" lon="5.27726">
        <ele>220.876</ele>
        <time>2014-09-28T18:02:53Z</time>
      </trkpt>
      <trkpt lat="45.61803" lon="5.27722">
        <ele>220.876</ele>
        <time>2014-09-28T18:02:58Z</time>
      </trkpt>
      <trkpt lat="45.61796" lon="5.27718">
        <ele>220.46713</ele>
        <time>2014-09-28T18:03:03Z</time>
      </trkpt>
      <trkpt lat="45.61789" lon="5.27714">
        <ele>220.46713</ele>
        <time>2014-09-28T18:03:08Z</time>
      </trkpt>
      <trkpt lat="45.61782" lon="5.27713">
        <ele>220.12929</ele>
        <time>2014-09-28T18:03:13Z</time>
      </trkpt>
      <trkpt lat="45.61774" lon="5.27709">
        <ele>220.12929</ele>
        <time>2014-09-28T18:03:18Z</time>
      </trkpt>
      <trkpt lat="45.61767" lon="5.27705">
        <ele>219.98679</ele>
        <time>2014-09-28T18:03:23Z</time>
      </trkpt>
      <trkpt lat="45.6176" lon="5.277">
        <ele>219.98679</ele>
        <time>2014-09-28T18:03:28Z</time>
      </trkpt>
      <trkpt lat="45.61753" lon="5.27696">
        <ele>219.67857</ele>
        <time>2014-09-28T18:03:33Z</time>
      </trkpt>
      <trkpt lat="45.61747" lon="5.27692">
        <ele>219.67857</ele>
        <time>2014-09-28T18:03:38Z</time>
      </trkpt>
      <trkpt lat="45.61739" lon="5.2769">
        <ele>219.37491</ele>
        <time>2014-09-28T18:03:43Z</time>
      </trkpt>
      <trkpt lat="45.61731" lon="5.27687">
        <ele>219.37491</ele>
        <time>2014-09-28T18:03:48Z</time>
      </trkpt>
      <trkpt lat="45.61724" lon="5.27683">
        <ele>219.24791</ele>
        <time>2014-09-28T18:03:53Z</time>
      </trkpt>
      <trkpt lat="45.61717" lon="5.2768">
        <ele>219.24791</ele>
        <time>2014-09-28T18:03:58Z</time>
      </trkpt>
      <trkpt lat="45.61709" lon="5.27677">
        <ele>218.95206</ele>
        <time>2014-09-28T18:04:03Z</time>
      </trkpt>
      <trkpt lat="45.61702" lon="5.27674">
        <ele>218.95206</ele>
        <time>2014-09-28T18:04:08Z</time>
      </trkpt>
      <trkpt lat="45.61695" lon="5.2767">
        <ele>218.75854</ele>
        <time>2014-09-28T18:04:13Z</time>
      </trkpt>
      <trkpt lat="45.61688" lon="5.27667">
        <ele>218.75854</ele>
        <time>2014-09-28T18:04:18Z</time>
      </trkpt>
      <trkpt lat="45.61681" lon="5.27663">
        <ele>218.67328</ele>
        <time>2014-09-28T18:04:23Z</time>
      </trkpt>
      <trkpt lat="45.61674" lon="5.27659">
        <ele>218.67328</ele>
        <time>2014-09-28T18:04:28Z</time>
      </trkpt>
      <trkpt lat="45.61667" lon="5.27655">
        <ele>218.84552</ele>
        <time>2014-09-28T18:04:33Z</time>
      </trkpt>
      <trkpt lat="45.6166" lon="5.27651">
        <ele>218.84552</ele>
        <time>2014-09-28T18:04:38Z</time>
      </trkpt>
      <trkpt lat="45.61657" lon="5.2765">
        <ele>219.06696</ele>
        <time>2014-09-28T18:04:43Z</time>
      </trkpt>
      <trkpt lat="45.6164" lon="5.2764">
        <ele>219.34616</ele>
        <time>2014-09-28T18:04:53Z</time>
      </trkpt>
      <trkpt lat="45.61633" lon="5.27636">
        <ele>219.34616</ele>
        <time>2014-09-28T18:04:58Z</time>
      </trkpt>
      <trkpt lat="45.61625" lon="5.27633">
        <ele>219.64766</ele>
        <time>2014-09-28T18:05:03Z</time>
      </trkpt>
      <trkpt lat="45.61618" lon="5.2763">
        <ele>219.64766</ele>
        <time>2014-09-28T18:05:08Z</time>
      </trkpt>
      <trkpt lat="45.61612" lon="5.27624">
        <ele>219.98177</ele>
        <time>2014-09-28T18:05:13Z</time>
      </trkpt>
      <trkpt lat="45.61611" lon="5.27623">
        <ele>219.98177</ele>
        <time>2014-09-28T18:05:18Z</time>
      </trkpt>
      <trkpt lat="45.61582" lon="5.27613">
        <ele>220.91997</ele>
        <time>2014-09-28T18:05:53Z</time>
      </trkpt>
      <trkpt lat="45.61579" lon="5.27611">
        <ele>220.91997</ele>
        <time>2014-09-28T18:05:58Z</time>
      </trkpt>
      <trkpt lat="45.61572" lon="5.27605">
        <ele>221.6787</ele>
        <time>2014-09-28T18:06:03Z</time>
      </trkpt>
      <trkpt lat="45.61566" lon="5.276">
        <ele>221.6787</ele>
        <time>2014-09-28T18:06:08Z</time>
      </trkpt>
      <trkpt lat="45.61558" lon="5.27598">
        <ele>222.31064</ele>
        <time>2014-09-28T18:06:13Z</time>
      </trkpt>
      <trkpt lat="45.61534" lon="5.27585">
        <ele>223.05237</ele>
        <time>2014-09-28T18:06:28Z</time>
      </trkpt>
      <trkpt lat="45.61529" lon="5.27583">
        <ele>223.05237</ele>
        <time>2014-09-28T18:06:33Z</time>
      </trkpt>
      <trkpt lat="45.61526" lon="5.27603">
        <ele>223.61841</ele>
        <time>2014-09-28T18:06:43Z</time>
      </trkpt>
      <trkpt lat="45.61524" lon="5.27613">
        <ele>223.61841</ele>
        <time>2014-09-28T18:06:48Z</time>
      </trkpt>
      <trkpt lat="45.61522" lon="5.27615">
        <ele>224.37888</ele>
        <time>2014-09-28T18:06:53Z</time>
      </trkpt>
      <trkpt lat="45.61514" lon="5.27649">
        <ele>224.78273</ele>
        <time>2014-09-28T18:08:38Z</time>
      </trkpt>
      <trkpt lat="45.61512" lon="5.27659">
        <ele>224.78273</ele>
        <time>2014-09-28T18:08:43Z</time>
      </trkpt>
      <trkpt lat="45.61509" lon="5.27658">
        <ele>225.24277</ele>
        <time>2014-09-28T18:08:48Z</time>
      </trkpt>
      <trkpt lat="45.61511" lon="5.27658">
        <ele>225.24277</ele>
        <time>2014-09-28T18:10:48Z</time>
      </trkpt>
      <trkpt lat="45.61511" lon="5.2766">
        <ele>225.24277</ele>
        <time>2014-09-28T18:10:53Z</time>
      </trkpt>
      <trkpt lat="45.6151" lon="5.27658">
        <ele>225.24277</ele>
        <time>2014-09-28T18:14:38Z</time>
      </trkpt>
      <trkpt lat="45.61507" lon="5.27667">
        <ele>225.88199</ele>
        <time>2014-09-28T18:14:43Z</time>
      </trkpt>
      <trkpt lat="45.61506" lon="5.27668">
        <ele>225.88199</ele>
        <time>2014-09-28T18:14:48Z</time>
      </trkpt>
      <trkpt lat="45.61512" lon="5.27659">
        <ele>225.88199</ele>
        <time>2014-09-28T18:16:53Z</time>
      </trkpt>
      <trkpt lat="45.61514" lon="5.27658">
        <ele>225.92041</ele>
        <time>2014-09-28T18:19:18Z</time>
      </trkpt>
      <trkpt lat="45.61503" lon="5.27679">
        <ele>226.43846</ele>
        <time>2014-09-28T18:21:53Z</time>
      </trkpt>
      <trkpt lat="45.61503" lon="5.27681">
        <ele>226.43846</ele>
        <time>2014-09-28T18:21:58Z</time>
      </trkpt>
      <trkpt lat="45.6152" lon="5.27634">
        <ele>226.90843</ele>
        <time>2014-09-28T18:24:18Z</time>
      </trkpt>
      <trkpt lat="45.61521" lon="5.2763">
        <ele>226.90843</ele>
        <time>2014-09-28T18:24:23Z</time>
      </trkpt>
      <trkpt lat="45.61523" lon="5.27617">
        <ele>227.23059</ele>
        <time>2014-09-28T18:24:28Z</time>
      </trkpt>
    </trkseg>
  </trk>
</gpx>